<?xml version='1.0' encoding='UTF-8'?><gpx version="1.1" creator="JPX - https://github.com/jenetics/jpx" xmlns="http://www.topografix.com/GPX/1/1"><trk><trkseg><trkpt lat="42.9295825" lon="11.2656198"><ele>56.0</ele><time>2026-04-18T07:26:09.76Z</time></trkpt><trkpt lat="42.9216239" lon="11.2611624"><ele>56.0</ele><time>2026-04-18T07:26:50.461Z</time></trkpt><trkpt lat="42.9214059" lon="11.2609399"><ele>56.0</ele><time>2026-04-18T07:26:51.476Z</time></trkpt><trkpt lat="42.9210619" lon="11.2606314"><ele>56.5</ele><time>2026-04-18T07:26:52.462Z</time></trkpt><trkpt lat="42.9207541" lon="11.2603524"><ele>57.0</ele><time>2026-04-18T07:26:53.466Z</time></trkpt><trkpt lat="42.9204708" lon="11.260137"><ele>57.0</ele><time>2026-04-18T07:26:54.466Z</time></trkpt><trkpt lat="42.9202493" lon="11.2599144"><ele>57.0</ele><time>2026-04-18T07:26:55.466Z</time></trkpt><trkpt lat="42.9200567" lon="11.25972"><ele>57.5</ele><time>2026-04-18T07:26:56.467Z</time></trkpt><trkpt lat="42.9198754" lon="11.259551"><ele>58.0</ele><time>2026-04-18T07:26:57.475Z</time></trkpt><trkpt lat="42.9196817" lon="11.2593517"><ele>58.0</ele><time>2026-04-18T07:26:58.472Z</time></trkpt><trkpt lat="42.9194863" lon="11.2591381"><ele>58.0</ele><time>2026-04-18T07:26:59.459Z</time></trkpt><trkpt lat="42.9193015" lon="11.2589346"><ele>58.33333333333333</ele><time>2026-04-18T07:27:00.475Z</time></trkpt><trkpt lat="42.91913" lon="11.2587691"><ele>58.66666666666667</ele><time>2026-04-18T07:27:01.462Z</time></trkpt><trkpt lat="42.9189809" lon="11.2586217"><ele>59.0</ele><time>2026-04-18T07:27:02.468Z</time></trkpt><trkpt lat="42.9188598" lon="11.2584892"><ele>59.00000000000001</ele><time>2026-04-18T07:27:03.463Z</time></trkpt><trkpt lat="42.9187744" lon="11.2583825"><ele>59.0</ele><time>2026-04-18T07:27:04.462Z</time></trkpt><trkpt lat="42.9187187" lon="11.2582838"><ele>59.0</ele><time>2026-04-18T07:27:05.462Z</time></trkpt><trkpt lat="42.9186893" lon="11.2581853"><ele>59.0</ele><time>2026-04-18T07:27:06.461Z</time></trkpt><trkpt lat="42.9187054" lon="11.2580717"><ele>59.00000000000001</ele><time>2026-04-18T07:27:07.481Z</time></trkpt><trkpt lat="42.9187388" lon="11.2579749"><ele>59.0</ele><time>2026-04-18T07:27:08.47Z</time></trkpt><trkpt lat="42.9187722" lon="11.2578983"><ele>59.0</ele><time>2026-04-18T07:27:09.466Z</time></trkpt><trkpt lat="42.9188437" lon="11.2578108"><ele>59.0</ele><time>2026-04-18T07:27:11.369Z</time></trkpt><trkpt lat="42.9189651" lon="11.2575901"><ele>59.0</ele><time>2026-04-18T07:27:54.764Z</time></trkpt><trkpt lat="42.9188938" lon="11.2575234"><ele>59.0</ele><time>2026-04-18T07:27:55.763Z</time></trkpt><trkpt lat="42.9188031" lon="11.257456"><ele>59.0</ele><time>2026-04-18T07:27:56.762Z</time></trkpt><trkpt lat="42.9187131" lon="11.2573788"><ele>59.0</ele><time>2026-04-18T07:27:57.769Z</time></trkpt><trkpt lat="42.9186125" lon="11.2572911"><ele>59.0</ele><time>2026-04-18T07:27:58.77Z</time></trkpt><trkpt lat="42.9185039" lon="11.2571943"><ele>59.0</ele><time>2026-04-18T07:27:59.762Z</time></trkpt><trkpt lat="42.9183917" lon="11.2570928"><ele>59.75</ele><time>2026-04-18T07:28:00.773Z</time></trkpt><trkpt lat="42.9182774" lon="11.256977"><ele>60.5</ele><time>2026-04-18T07:28:01.767Z</time></trkpt><trkpt lat="42.9181521" lon="11.256871"><ele>61.25</ele><time>2026-04-18T07:28:02.763Z</time></trkpt><trkpt lat="42.9180138" lon="11.2567751"><ele>62.0</ele><time>2026-04-18T07:28:03.76Z</time></trkpt><trkpt lat="42.9178325" lon="11.2566785"><ele>62.0</ele><time>2026-04-18T07:28:04.767Z</time></trkpt><trkpt lat="42.9176513" lon="11.2565562"><ele>62.0</ele><time>2026-04-18T07:28:05.78Z</time></trkpt><trkpt lat="42.9174672" lon="11.2564192"><ele>62.0</ele><time>2026-04-18T07:28:06.764Z</time></trkpt><trkpt lat="42.9173116" lon="11.2562877"><ele>64.66666666666667</ele><time>2026-04-18T07:28:07.758Z</time></trkpt><trkpt lat="42.9171656" lon="11.2561522"><ele>67.33333333333333</ele><time>2026-04-18T07:28:08.755Z</time></trkpt><trkpt lat="42.9170405" lon="11.2559702"><ele>70.0</ele><time>2026-04-18T07:28:09.764Z</time></trkpt><trkpt lat="42.9169593" lon="11.255817"><ele>70.0</ele><time>2026-04-18T07:28:10.771Z</time></trkpt><trkpt lat="42.9168807" lon="11.2556757"><ele>70.0</ele><time>2026-04-18T07:28:11.758Z</time></trkpt><trkpt lat="42.9167461" lon="11.2554673"><ele>70.0</ele><time>2026-04-18T07:28:13.765Z</time></trkpt><trkpt lat="42.9166905" lon="11.2553886"><ele>70.0</ele><time>2026-04-18T07:28:14.762Z</time></trkpt><trkpt lat="42.9166422" lon="11.2553309"><ele>70.0</ele><time>2026-04-18T07:28:15.77Z</time></trkpt><trkpt lat="42.9165553" lon="11.2552469"><ele>70.0</ele><time>2026-04-18T07:28:17.763Z</time></trkpt><trkpt lat="42.9165384" lon="11.2551418"><ele>70.0</ele><time>2026-04-18T07:28:20.759Z</time></trkpt><trkpt lat="42.9165901" lon="11.2550597"><ele>70.0</ele><time>2026-04-18T07:42:09.757Z</time></trkpt><trkpt lat="42.916637" lon="11.2548721"><ele>70.0</ele><time>2026-04-18T07:42:11.758Z</time></trkpt><trkpt lat="42.9166655" lon="11.2547588"><ele>70.4</ele><time>2026-04-18T07:42:12.755Z</time></trkpt><trkpt lat="42.9166965" lon="11.2546414"><ele>70.8</ele><time>2026-04-18T07:42:13.757Z</time></trkpt><trkpt lat="42.9167418" lon="11.2545063"><ele>71.2</ele><time>2026-04-18T07:42:14.763Z</time></trkpt><trkpt lat="42.916795" lon="11.254375"><ele>71.6</ele><time>2026-04-18T07:42:15.759Z</time></trkpt><trkpt lat="42.9168529" lon="11.2542333"><ele>72.0</ele><time>2026-04-18T07:42:16.754Z</time></trkpt><trkpt lat="42.916911" lon="11.2540738"><ele>74.33333333333333</ele><time>2026-04-18T07:42:17.773Z</time></trkpt><trkpt lat="42.9169581" lon="11.253918"><ele>76.66666666666667</ele><time>2026-04-18T07:42:18.759Z</time></trkpt><trkpt lat="42.9169954" lon="11.2537972"><ele>79.0</ele><time>2026-04-18T07:42:19.759Z</time></trkpt><trkpt lat="42.9170315" lon="11.2537096"><ele>81.33333333333334</ele><time>2026-04-18T07:42:20.761Z</time></trkpt><trkpt lat="42.9170656" lon="11.253635"><ele>83.66666666666667</ele><time>2026-04-18T07:42:21.759Z</time></trkpt><trkpt lat="42.9170931" lon="11.2535357"><ele>86.0</ele><time>2026-04-18T07:42:46.764Z</time></trkpt><trkpt lat="42.9172033" lon="11.2532908"><ele>86.0</ele><time>2026-04-18T07:42:50.759Z</time></trkpt><trkpt lat="42.9172616" lon="11.2531642"><ele>86.0</ele><time>2026-04-18T07:42:51.774Z</time></trkpt><trkpt lat="42.9173183" lon="11.253018"><ele>86.0</ele><time>2026-04-18T07:42:52.755Z</time></trkpt><trkpt lat="42.917359" lon="11.2528638"><ele>86.0</ele><time>2026-04-18T07:42:53.757Z</time></trkpt><trkpt lat="42.9173838" lon="11.252714"><ele>88.5</ele><time>2026-04-18T07:42:54.767Z</time></trkpt><trkpt lat="42.9174027" lon="11.2525632"><ele>91.0</ele><time>2026-04-18T07:42:55.755Z</time></trkpt><trkpt lat="42.9174188" lon="11.2524067"><ele>93.5</ele><time>2026-04-18T07:42:56.755Z</time></trkpt><trkpt lat="42.9174382" lon="11.252252"><ele>96.0</ele><time>2026-04-18T07:42:57.759Z</time></trkpt><trkpt lat="42.9174679" lon="11.2520932"><ele>98.0</ele><time>2026-04-18T07:42:58.761Z</time></trkpt><trkpt lat="42.9174893" lon="11.2519183"><ele>100.0</ele><time>2026-04-18T07:42:59.757Z</time></trkpt><trkpt lat="42.9175" lon="11.2517332"><ele>102.0</ele><time>2026-04-18T07:43:00.759Z</time></trkpt><trkpt lat="42.9175095" lon="11.2515549"><ele>104.0</ele><time>2026-04-18T07:43:01.762Z</time></trkpt><trkpt lat="42.9175183" lon="11.2513799"><ele>105.0</ele><time>2026-04-18T07:43:02.756Z</time></trkpt><trkpt lat="42.9175281" lon="11.2512056"><ele>106.0</ele><time>2026-04-18T07:43:03.762Z</time></trkpt><trkpt lat="42.9175403" lon="11.2510313"><ele>107.0</ele><time>2026-04-18T07:43:04.754Z</time></trkpt><trkpt lat="42.9175554" lon="11.2508771"><ele>108.0</ele><time>2026-04-18T07:43:05.761Z</time></trkpt><trkpt lat="42.9175766" lon="11.2507269"><ele>113.75</ele><time>2026-04-18T07:43:06.762Z</time></trkpt><trkpt lat="42.9176101" lon="11.2505763"><ele>119.5</ele><time>2026-04-18T07:43:07.763Z</time></trkpt><trkpt lat="42.9176787" lon="11.2502871"><ele>125.25</ele><time>2026-04-18T07:43:09.756Z</time></trkpt><trkpt lat="42.9176839" lon="11.2501531"><ele>131.0</ele><time>2026-04-18T07:43:10.754Z</time></trkpt><trkpt lat="42.9176672" lon="11.250026"><ele>131.0</ele><time>2026-04-18T07:43:11.755Z</time></trkpt><trkpt lat="42.9176409" lon="11.2499038"><ele>131.0</ele><time>2026-04-18T07:43:12.762Z</time></trkpt><trkpt lat="42.9176123" lon="11.2497704"><ele>131.0</ele><time>2026-04-18T07:43:13.755Z</time></trkpt><trkpt lat="42.9176032" lon="11.2496409"><ele>131.0</ele><time>2026-04-18T07:43:14.756Z</time></trkpt><trkpt lat="42.9176121" lon="11.2495029"><ele>131.0</ele><time>2026-04-18T07:43:15.762Z</time></trkpt><trkpt lat="42.9176356" lon="11.2493386"><ele>131.25</ele><time>2026-04-18T07:43:16.768Z</time></trkpt><trkpt lat="42.9176605" lon="11.2491556"><ele>131.5</ele><time>2026-04-18T07:43:17.757Z</time></trkpt><trkpt lat="42.9176899" lon="11.2489771"><ele>131.75</ele><time>2026-04-18T07:43:18.755Z</time></trkpt><trkpt lat="42.9177155" lon="11.2488074"><ele>132.0</ele><time>2026-04-18T07:43:19.752Z</time></trkpt><trkpt lat="42.917741" lon="11.2486499"><ele>132.4</ele><time>2026-04-18T07:43:20.756Z</time></trkpt><trkpt lat="42.9177703" lon="11.2484966"><ele>132.79999999999998</ele><time>2026-04-18T07:43:21.762Z</time></trkpt><trkpt lat="42.9178058" lon="11.2483488"><ele>133.2</ele><time>2026-04-18T07:43:22.756Z</time></trkpt><trkpt lat="42.9178449" lon="11.2482137"><ele>133.6</ele><time>2026-04-18T07:43:23.75Z</time></trkpt><trkpt lat="42.9178918" lon="11.2480771"><ele>134.0</ele><time>2026-04-18T07:43:24.759Z</time></trkpt><trkpt lat="42.9179579" lon="11.2479478"><ele>134.5</ele><time>2026-04-18T07:43:25.762Z</time></trkpt><trkpt lat="42.9180408" lon="11.2478259"><ele>135.0</ele><time>2026-04-18T07:43:26.755Z</time></trkpt><trkpt lat="42.918139" lon="11.2477182"><ele>135.5</ele><time>2026-04-18T07:43:27.756Z</time></trkpt><trkpt lat="42.9182399" lon="11.2476257"><ele>136.0</ele><time>2026-04-18T07:43:28.755Z</time></trkpt><trkpt lat="42.9184322" lon="11.2474639"><ele>136.0</ele><time>2026-04-18T07:43:30.756Z</time></trkpt><trkpt lat="42.9185252" lon="11.2473687"><ele>136.0</ele><time>2026-04-18T07:43:31.756Z</time></trkpt><trkpt lat="42.9186278" lon="11.2472781"><ele>136.0</ele><time>2026-04-18T07:43:32.757Z</time></trkpt><trkpt lat="42.9187353" lon="11.247192"><ele>136.0</ele><time>2026-04-18T07:43:33.755Z</time></trkpt><trkpt lat="42.9188437" lon="11.2471199"><ele>133.75</ele><time>2026-04-18T07:43:34.753Z</time></trkpt><trkpt lat="42.9189462" lon="11.2470314"><ele>131.5</ele><time>2026-04-18T07:43:35.757Z</time></trkpt><trkpt lat="42.9190433" lon="11.2469274"><ele>129.25</ele><time>2026-04-18T07:43:36.76Z</time></trkpt><trkpt lat="42.919123" lon="11.2468111"><ele>127.0</ele><time>2026-04-18T07:43:37.755Z</time></trkpt><trkpt lat="42.9192042" lon="11.2466876"><ele>126.75</ele><time>2026-04-18T07:43:38.757Z</time></trkpt><trkpt lat="42.9192952" lon="11.2465522"><ele>126.5</ele><time>2026-04-18T07:43:39.762Z</time></trkpt><trkpt lat="42.9193819" lon="11.2464323"><ele>126.25</ele><time>2026-04-18T07:43:40.761Z</time></trkpt><trkpt lat="42.9194629" lon="11.2463112"><ele>126.0</ele><time>2026-04-18T07:43:41.755Z</time></trkpt><trkpt lat="42.9195289" lon="11.2461943"><ele>126.0</ele><time>2026-04-18T07:43:42.762Z</time></trkpt><trkpt lat="42.919585" lon="11.2460943"><ele>126.0</ele><time>2026-04-18T07:43:43.758Z</time></trkpt><trkpt lat="42.9196452" lon="11.2460104"><ele>126.0</ele><time>2026-04-18T07:43:44.753Z</time></trkpt><trkpt lat="42.9197218" lon="11.2459307"><ele>126.0</ele><time>2026-04-18T07:43:45.758Z</time></trkpt><trkpt lat="42.9197956" lon="11.2458597"><ele>126.0</ele><time>2026-04-18T07:43:46.757Z</time></trkpt><trkpt lat="42.9198683" lon="11.2457762"><ele>126.0</ele><time>2026-04-18T07:43:47.759Z</time></trkpt><trkpt lat="42.9199247" lon="11.2456691"><ele>126.0</ele><time>2026-04-18T07:43:48.767Z</time></trkpt><trkpt lat="42.9199643" lon="11.2455306"><ele>126.0</ele><time>2026-04-18T07:43:49.754Z</time></trkpt><trkpt lat="42.9199936" lon="11.245197"><ele>126.8</ele><time>2026-04-18T07:43:51.763Z</time></trkpt><trkpt lat="42.9199978" lon="11.2450284"><ele>127.6</ele><time>2026-04-18T07:43:52.752Z</time></trkpt><trkpt lat="42.9200002" lon="11.2448709"><ele>128.4</ele><time>2026-04-18T07:43:53.755Z</time></trkpt><trkpt lat="42.9199921" lon="11.2447509"><ele>129.2</ele><time>2026-04-18T07:43:54.766Z</time></trkpt><trkpt lat="42.9199851" lon="11.2446583"><ele>130.0</ele><time>2026-04-18T07:43:55.759Z</time></trkpt><trkpt lat="42.9199831" lon="11.2445654"><ele>130.6</ele><time>2026-04-18T07:43:56.756Z</time></trkpt><trkpt lat="42.9199982" lon="11.2444653"><ele>131.2</ele><time>2026-04-18T07:43:57.76Z</time></trkpt><trkpt lat="42.9200207" lon="11.2443469"><ele>131.8</ele><time>2026-04-18T07:43:58.755Z</time></trkpt><trkpt lat="42.9200526" lon="11.2442043"><ele>132.4</ele><time>2026-04-18T07:43:59.756Z</time></trkpt><trkpt lat="42.9200877" lon="11.2440522"><ele>133.0</ele><time>2026-04-18T07:44:00.762Z</time></trkpt><trkpt lat="42.9201288" lon="11.2438994"><ele>131.4</ele><time>2026-04-18T07:44:01.763Z</time></trkpt><trkpt lat="42.9201834" lon="11.2437531"><ele>129.8</ele><time>2026-04-18T07:44:02.763Z</time></trkpt><trkpt lat="42.9202195" lon="11.2436169"><ele>128.2</ele><time>2026-04-18T07:44:03.755Z</time></trkpt><trkpt lat="42.9202419" lon="11.2434743"><ele>126.6</ele><time>2026-04-18T07:44:04.775Z</time></trkpt><trkpt lat="42.9202553" lon="11.2433317"><ele>125.0</ele><time>2026-04-18T07:44:05.754Z</time></trkpt><trkpt lat="42.9202638" lon="11.2431787"><ele>125.0</ele><time>2026-04-18T07:44:06.759Z</time></trkpt><trkpt lat="42.9202578" lon="11.2430064"><ele>125.0</ele><time>2026-04-18T07:44:07.758Z</time></trkpt><trkpt lat="42.9202357" lon="11.2428262"><ele>125.0</ele><time>2026-04-18T07:44:08.768Z</time></trkpt><trkpt lat="42.9202027" lon="11.2426284"><ele>125.0</ele><time>2026-04-18T07:44:09.76Z</time></trkpt><trkpt lat="42.9201682" lon="11.2424335"><ele>124.0</ele><time>2026-04-18T07:44:10.755Z</time></trkpt><trkpt lat="42.9201092" lon="11.2420926"><ele>123.0</ele><time>2026-04-18T07:44:12.754Z</time></trkpt><trkpt lat="42.9200692" lon="11.2419513"><ele>122.0</ele><time>2026-04-18T07:44:13.767Z</time></trkpt><trkpt lat="42.9200412" lon="11.2418241"><ele>124.75</ele><time>2026-04-18T07:44:14.757Z</time></trkpt><trkpt lat="42.9199855" lon="11.241694"><ele>127.5</ele><time>2026-04-18T07:44:15.759Z</time></trkpt><trkpt lat="42.9199098" lon="11.2415866"><ele>130.25</ele><time>2026-04-18T07:44:16.763Z</time></trkpt><trkpt lat="42.9197996" lon="11.2414806"><ele>133.0</ele><time>2026-04-18T07:44:17.762Z</time></trkpt><trkpt lat="42.9196884" lon="11.2413817"><ele>133.0</ele><time>2026-04-18T07:44:18.756Z</time></trkpt><trkpt lat="42.9195705" lon="11.2412762"><ele>133.0</ele><time>2026-04-18T07:44:19.749Z</time></trkpt><trkpt lat="42.9194415" lon="11.2411545"><ele>133.0</ele><time>2026-04-18T07:44:20.757Z</time></trkpt><trkpt lat="42.9193" lon="11.2410234"><ele>137.33333333333334</ele><time>2026-04-18T07:44:21.762Z</time></trkpt><trkpt lat="42.9191723" lon="11.2408991"><ele>141.66666666666666</ele><time>2026-04-18T07:44:22.76Z</time></trkpt><trkpt lat="42.9190467" lon="11.2407594"><ele>146.0</ele><time>2026-04-18T07:44:23.756Z</time></trkpt><trkpt lat="42.9189083" lon="11.2405795"><ele>147.5</ele><time>2026-04-18T07:44:24.76Z</time></trkpt><trkpt lat="42.918774" lon="11.2404221"><ele>149.0</ele><time>2026-04-18T07:44:25.757Z</time></trkpt><trkpt lat="42.91866" lon="11.2402931"><ele>150.5</ele><time>2026-04-18T07:44:26.759Z</time></trkpt><trkpt lat="42.9185683" lon="11.2401938"><ele>152.0</ele><time>2026-04-18T07:44:27.762Z</time></trkpt><trkpt lat="42.9184971" lon="11.2400983"><ele>152.0</ele><time>2026-04-18T07:44:28.763Z</time></trkpt><trkpt lat="42.9184596" lon="11.2400226"><ele>152.0</ele><time>2026-04-18T07:44:29.759Z</time></trkpt><trkpt lat="42.9184338" lon="11.2399057"><ele>152.0</ele><time>2026-04-18T07:44:31.757Z</time></trkpt><trkpt lat="42.9183482" lon="11.2395706"><ele>152.0</ele><time>2026-04-18T07:49:04.757Z</time></trkpt><trkpt lat="42.9183497" lon="11.2394701"><ele>152.4</ele><time>2026-04-18T07:49:05.757Z</time></trkpt><trkpt lat="42.9183566" lon="11.239359"><ele>152.79999999999998</ele><time>2026-04-18T07:49:06.77Z</time></trkpt><trkpt lat="42.9183736" lon="11.2392474"><ele>153.2</ele><time>2026-04-18T07:49:07.756Z</time></trkpt><trkpt lat="42.918382" lon="11.2391291"><ele>153.6</ele><time>2026-04-18T07:49:08.752Z</time></trkpt><trkpt lat="42.9183839" lon="11.2390023"><ele>154.0</ele><time>2026-04-18T07:49:09.764Z</time></trkpt><trkpt lat="42.9183714" lon="11.2388521"><ele>155.4</ele><time>2026-04-18T07:49:10.755Z</time></trkpt><trkpt lat="42.918369" lon="11.2387011"><ele>156.8</ele><time>2026-04-18T07:49:11.757Z</time></trkpt><trkpt lat="42.9183667" lon="11.2385513"><ele>158.20000000000002</ele><time>2026-04-18T07:49:12.756Z</time></trkpt><trkpt lat="42.9183556" lon="11.2384061"><ele>159.60000000000002</ele><time>2026-04-18T07:49:13.754Z</time></trkpt><trkpt lat="42.9183163" lon="11.2382859"><ele>161.0</ele><time>2026-04-18T07:49:14.756Z</time></trkpt><trkpt lat="42.918239" lon="11.238171"><ele>162.60000000000002</ele><time>2026-04-18T07:49:15.756Z</time></trkpt><trkpt lat="42.9181737" lon="11.2380665"><ele>164.2</ele><time>2026-04-18T07:49:16.757Z</time></trkpt><trkpt lat="42.9181243" lon="11.2379631"><ele>165.8</ele><time>2026-04-18T07:49:17.76Z</time></trkpt><trkpt lat="42.9180959" lon="11.2378424"><ele>167.39999999999998</ele><time>2026-04-18T07:49:18.76Z</time></trkpt><trkpt lat="42.9180936" lon="11.2376866"><ele>169.0</ele><time>2026-04-18T07:49:19.753Z</time></trkpt><trkpt lat="42.9180808" lon="11.2375618"><ele>169.0</ele><time>2026-04-18T07:49:20.755Z</time></trkpt><trkpt lat="42.9180386" lon="11.2374617"><ele>169.0</ele><time>2026-04-18T07:49:21.755Z</time></trkpt><trkpt lat="42.9178348" lon="11.2373482"><ele>169.0</ele><time>2026-04-18T07:49:23.768Z</time></trkpt><trkpt lat="42.9177239" lon="11.2373037"><ele>169.0</ele><time>2026-04-18T07:49:24.755Z</time></trkpt><trkpt lat="42.9176318" lon="11.2372511"><ele>168.79999999999998</ele><time>2026-04-18T07:49:25.753Z</time></trkpt><trkpt lat="42.9175732" lon="11.2371891"><ele>168.6</ele><time>2026-04-18T07:49:26.766Z</time></trkpt><trkpt lat="42.9175481" lon="11.2371044"><ele>168.4</ele><time>2026-04-18T07:49:27.752Z</time></trkpt><trkpt lat="42.9175366" lon="11.2369794"><ele>168.2</ele><time>2026-04-18T07:49:28.756Z</time></trkpt><trkpt lat="42.9175056" lon="11.2368047"><ele>168.0</ele><time>2026-04-18T07:49:29.755Z</time></trkpt><trkpt lat="42.9174681" lon="11.2366304"><ele>167.5</ele><time>2026-04-18T07:49:30.756Z</time></trkpt><trkpt lat="42.9174023" lon="11.236471"><ele>167.0</ele><time>2026-04-18T07:49:31.764Z</time></trkpt><trkpt lat="42.9173101" lon="11.2363435"><ele>166.5</ele><time>2026-04-18T07:49:32.755Z</time></trkpt><trkpt lat="42.9172043" lon="11.2362354"><ele>166.0</ele><time>2026-04-18T07:49:33.759Z</time></trkpt><trkpt lat="42.9170845" lon="11.2361681"><ele>166.0</ele><time>2026-04-18T07:49:34.753Z</time></trkpt><trkpt lat="42.9169408" lon="11.2361259"><ele>166.0</ele><time>2026-04-18T07:49:35.751Z</time></trkpt><trkpt lat="42.9168032" lon="11.2360857"><ele>166.0</ele><time>2026-04-18T07:49:36.753Z</time></trkpt><trkpt lat="42.9166698" lon="11.2360425"><ele>166.0</ele><time>2026-04-18T07:49:37.763Z</time></trkpt><trkpt lat="42.9165371" lon="11.2359926"><ele>166.0</ele><time>2026-04-18T07:49:38.757Z</time></trkpt><trkpt lat="42.9164038" lon="11.2359379"><ele>166.0</ele><time>2026-04-18T07:49:39.755Z</time></trkpt><trkpt lat="42.9162856" lon="11.2358866"><ele>166.0</ele><time>2026-04-18T07:49:40.753Z</time></trkpt><trkpt lat="42.9161788" lon="11.2358227"><ele>166.0</ele><time>2026-04-18T07:49:41.755Z</time></trkpt><trkpt lat="42.9160684" lon="11.2357383"><ele>165.66666666666669</ele><time>2026-04-18T07:49:42.772Z</time></trkpt><trkpt lat="42.9158788" lon="11.2355254"><ele>165.33333333333334</ele><time>2026-04-18T07:49:44.755Z</time></trkpt><trkpt lat="42.9158011" lon="11.2354174"><ele>165.0</ele><time>2026-04-18T07:49:45.758Z</time></trkpt><trkpt lat="42.9157341" lon="11.2352951"><ele>165.0</ele><time>2026-04-18T07:49:46.754Z</time></trkpt><trkpt lat="42.9156803" lon="11.2351567"><ele>165.0</ele><time>2026-04-18T07:49:47.756Z</time></trkpt><trkpt lat="42.9156396" lon="11.2349958"><ele>165.0</ele><time>2026-04-18T07:49:48.753Z</time></trkpt><trkpt lat="42.9156121" lon="11.2348284"><ele>165.0</ele><time>2026-04-18T07:49:49.756Z</time></trkpt><trkpt lat="42.9155816" lon="11.2346799"><ele>162.25</ele><time>2026-04-18T07:49:50.753Z</time></trkpt><trkpt lat="42.9155396" lon="11.234535"><ele>159.5</ele><time>2026-04-18T07:49:51.753Z</time></trkpt><trkpt lat="42.9154748" lon="11.2343858"><ele>156.75</ele><time>2026-04-18T07:49:52.763Z</time></trkpt><trkpt lat="42.9153909" lon="11.2342052"><ele>154.0</ele><time>2026-04-18T07:49:53.759Z</time></trkpt><trkpt lat="42.9152877" lon="11.2339758"><ele>153.0</ele><time>2026-04-18T07:49:54.753Z</time></trkpt><trkpt lat="42.9151825" lon="11.2337662"><ele>152.0</ele><time>2026-04-18T07:49:55.752Z</time></trkpt><trkpt lat="42.9150929" lon="11.2335858"><ele>151.0</ele><time>2026-04-18T07:49:56.763Z</time></trkpt><trkpt lat="42.9150085" lon="11.2334445"><ele>151.0</ele><time>2026-04-18T07:49:57.763Z</time></trkpt><trkpt lat="42.9149233" lon="11.2333418"><ele>151.0</ele><time>2026-04-18T07:49:58.762Z</time></trkpt><trkpt lat="42.9148169" lon="11.233263"><ele>151.0</ele><time>2026-04-18T07:49:59.752Z</time></trkpt><trkpt lat="42.9146672" lon="11.2331894"><ele>151.0</ele><time>2026-04-18T07:50:00.756Z</time></trkpt><trkpt lat="42.9145016" lon="11.2331057"><ele>150.0</ele><time>2026-04-18T07:50:01.761Z</time></trkpt><trkpt lat="42.9143665" lon="11.2329899"><ele>149.0</ele><time>2026-04-18T07:50:02.755Z</time></trkpt><trkpt lat="42.9142385" lon="11.2328255"><ele>148.0</ele><time>2026-04-18T07:50:03.757Z</time></trkpt><trkpt lat="42.9139713" lon="11.2324801"><ele>148.0</ele><time>2026-04-18T07:50:05.768Z</time></trkpt><trkpt lat="42.9138495" lon="11.2323402"><ele>148.0</ele><time>2026-04-18T07:50:06.758Z</time></trkpt><trkpt lat="42.9137277" lon="11.2322324"><ele>148.0</ele><time>2026-04-18T07:50:07.749Z</time></trkpt><trkpt lat="42.9136273" lon="11.232167"><ele>148.0</ele><time>2026-04-18T07:50:08.754Z</time></trkpt><trkpt lat="42.9135361" lon="11.2321145"><ele>147.83333333333334</ele><time>2026-04-18T07:50:09.757Z</time></trkpt><trkpt lat="42.9134703" lon="11.2320544"><ele>147.66666666666669</ele><time>2026-04-18T07:50:10.753Z</time></trkpt><trkpt lat="42.9134087" lon="11.2320008"><ele>147.5</ele><time>2026-04-18T07:50:11.754Z</time></trkpt><trkpt lat="42.9133307" lon="11.231946"><ele>147.33333333333334</ele><time>2026-04-18T07:50:13.753Z</time></trkpt><trkpt lat="42.9132552" lon="11.2318867"><ele>147.16666666666666</ele><time>2026-04-18T07:50:19.756Z</time></trkpt><trkpt lat="42.9131891" lon="11.23181"><ele>147.0</ele><time>2026-04-18T07:50:21.755Z</time></trkpt><trkpt lat="42.9131474" lon="11.231718"><ele>147.0</ele><time>2026-04-18T07:50:22.76Z</time></trkpt><trkpt lat="42.913064" lon="11.2316095"><ele>147.0</ele><time>2026-04-18T07:50:23.758Z</time></trkpt><trkpt lat="42.9129661" lon="11.2314772"><ele>147.0</ele><time>2026-04-18T07:50:24.758Z</time></trkpt><trkpt lat="42.9128219" lon="11.2311919"><ele>145.4</ele><time>2026-04-18T07:50:26.748Z</time></trkpt><trkpt lat="42.9127723" lon="11.2310473"><ele>143.79999999999998</ele><time>2026-04-18T07:50:27.756Z</time></trkpt><trkpt lat="42.9127213" lon="11.2309079"><ele>142.2</ele><time>2026-04-18T07:50:28.758Z</time></trkpt><trkpt lat="42.9126633" lon="11.2307823"><ele>140.6</ele><time>2026-04-18T07:50:29.758Z</time></trkpt><trkpt lat="42.9125926" lon="11.2306899"><ele>139.0</ele><time>2026-04-18T07:50:30.755Z</time></trkpt><trkpt lat="42.9125275" lon="11.2306174"><ele>139.0</ele><time>2026-04-18T07:50:31.761Z</time></trkpt><trkpt lat="42.9124658" lon="11.23053"><ele>139.0</ele><time>2026-04-18T07:50:32.755Z</time></trkpt><trkpt lat="42.91242" lon="11.2304114"><ele>139.0</ele><time>2026-04-18T07:50:33.759Z</time></trkpt><trkpt lat="42.9123821" lon="11.2302637"><ele>139.0</ele><time>2026-04-18T07:50:34.747Z</time></trkpt><trkpt lat="42.9123309" lon="11.230104"><ele>139.0</ele><time>2026-04-18T07:50:35.75Z</time></trkpt><trkpt lat="42.9122941" lon="11.2299537"><ele>137.6</ele><time>2026-04-18T07:50:36.751Z</time></trkpt><trkpt lat="42.9122626" lon="11.2297965"><ele>136.2</ele><time>2026-04-18T07:50:37.761Z</time></trkpt><trkpt lat="42.9122359" lon="11.2296527"><ele>134.79999999999998</ele><time>2026-04-18T07:50:38.755Z</time></trkpt><trkpt lat="42.9122035" lon="11.2295344"><ele>133.4</ele><time>2026-04-18T07:50:39.755Z</time></trkpt><trkpt lat="42.9121605" lon="11.2294128"><ele>132.0</ele><time>2026-04-18T07:50:40.754Z</time></trkpt><trkpt lat="42.9121016" lon="11.2292862"><ele>132.0</ele><time>2026-04-18T07:50:41.756Z</time></trkpt><trkpt lat="42.9120399" lon="11.2291641"><ele>132.0</ele><time>2026-04-18T07:50:42.75Z</time></trkpt><trkpt lat="42.9119732" lon="11.2290404"><ele>132.0</ele><time>2026-04-18T07:50:43.759Z</time></trkpt><trkpt lat="42.9119093" lon="11.2289162"><ele>132.0</ele><time>2026-04-18T07:50:44.756Z</time></trkpt><trkpt lat="42.9118327" lon="11.2288011"><ele>132.0</ele><time>2026-04-18T07:50:45.753Z</time></trkpt><trkpt lat="42.9116453" lon="11.228635"><ele>131.0</ele><time>2026-04-18T07:50:47.761Z</time></trkpt><trkpt lat="42.9115201" lon="11.228579"><ele>130.0</ele><time>2026-04-18T07:50:48.754Z</time></trkpt><trkpt lat="42.9113792" lon="11.2285208"><ele>129.0</ele><time>2026-04-18T07:50:49.754Z</time></trkpt><trkpt lat="42.911212" lon="11.2284509"><ele>129.0</ele><time>2026-04-18T07:50:50.752Z</time></trkpt><trkpt lat="42.911027" lon="11.2283444"><ele>129.0</ele><time>2026-04-18T07:50:51.754Z</time></trkpt><trkpt lat="42.9108729" lon="11.2282453"><ele>129.0</ele><time>2026-04-18T07:50:52.756Z</time></trkpt><trkpt lat="42.9107533" lon="11.2281476"><ele>130.25</ele><time>2026-04-18T07:50:53.76Z</time></trkpt><trkpt lat="42.9106473" lon="11.2280162"><ele>131.5</ele><time>2026-04-18T07:50:54.76Z</time></trkpt><trkpt lat="42.9105329" lon="11.227873"><ele>132.75</ele><time>2026-04-18T07:50:55.754Z</time></trkpt><trkpt lat="42.9104343" lon="11.2277413"><ele>134.0</ele><time>2026-04-18T07:50:56.751Z</time></trkpt><trkpt lat="42.9103511" lon="11.2275773"><ele>134.0</ele><time>2026-04-18T07:50:57.758Z</time></trkpt><trkpt lat="42.9102795" lon="11.2273858"><ele>134.0</ele><time>2026-04-18T07:50:58.755Z</time></trkpt><trkpt lat="42.9101936" lon="11.2271704"><ele>134.0</ele><time>2026-04-18T07:50:59.756Z</time></trkpt><trkpt lat="42.9101242" lon="11.22698"><ele>134.0</ele><time>2026-04-18T07:51:00.758Z</time></trkpt><trkpt lat="42.9100848" lon="11.2268065"><ele>134.0</ele><time>2026-04-18T07:51:01.763Z</time></trkpt><trkpt lat="42.910003" lon="11.2266323"><ele>134.0</ele><time>2026-04-18T07:51:02.755Z</time></trkpt><trkpt lat="42.9099035" lon="11.2264897"><ele>134.0</ele><time>2026-04-18T07:51:03.764Z</time></trkpt><trkpt lat="42.9098031" lon="11.226398"><ele>135.33333333333331</ele><time>2026-04-18T07:51:04.756Z</time></trkpt><trkpt lat="42.9097128" lon="11.2263166"><ele>136.66666666666666</ele><time>2026-04-18T07:51:05.755Z</time></trkpt><trkpt lat="42.9096166" lon="11.2262272"><ele>138.0</ele><time>2026-04-18T07:51:06.749Z</time></trkpt><trkpt lat="42.9093209" lon="11.2260019"><ele>139.33333333333334</ele><time>2026-04-18T07:51:08.759Z</time></trkpt><trkpt lat="42.9091615" lon="11.2258718"><ele>140.66666666666669</ele><time>2026-04-18T07:51:09.757Z</time></trkpt><trkpt lat="42.9090201" lon="11.2257356"><ele>142.0</ele><time>2026-04-18T07:51:10.757Z</time></trkpt><trkpt lat="42.9088765" lon="11.2255894"><ele>143.66666666666669</ele><time>2026-04-18T07:51:11.754Z</time></trkpt><trkpt lat="42.9087236" lon="11.2254451"><ele>145.33333333333334</ele><time>2026-04-18T07:51:12.754Z</time></trkpt><trkpt lat="42.9085771" lon="11.2253357"><ele>147.0</ele><time>2026-04-18T07:51:13.765Z</time></trkpt><trkpt lat="42.9084519" lon="11.2252525"><ele>146.75</ele><time>2026-04-18T07:51:14.749Z</time></trkpt><trkpt lat="42.908347" lon="11.2251646"><ele>146.5</ele><time>2026-04-18T07:51:15.759Z</time></trkpt><trkpt lat="42.9082445" lon="11.2250638"><ele>146.25</ele><time>2026-04-18T07:51:16.763Z</time></trkpt><trkpt lat="42.9081362" lon="11.2249343"><ele>146.0</ele><time>2026-04-18T07:51:17.758Z</time></trkpt><trkpt lat="42.9080192" lon="11.2247711"><ele>149.66666666666666</ele><time>2026-04-18T07:51:18.752Z</time></trkpt><trkpt lat="42.9078972" lon="11.2245951"><ele>153.33333333333334</ele><time>2026-04-18T07:51:19.759Z</time></trkpt><trkpt lat="42.9077759" lon="11.2244428"><ele>157.0</ele><time>2026-04-18T07:51:20.76Z</time></trkpt><trkpt lat="42.907652" lon="11.2243088"><ele>158.5</ele><time>2026-04-18T07:51:21.751Z</time></trkpt><trkpt lat="42.907549" lon="11.2241934"><ele>160.0</ele><time>2026-04-18T07:51:22.756Z</time></trkpt><trkpt lat="42.907445" lon="11.224071"><ele>161.5</ele><time>2026-04-18T07:51:23.755Z</time></trkpt><trkpt lat="42.9073487" lon="11.223973"><ele>163.0</ele><time>2026-04-18T07:51:24.758Z</time></trkpt><trkpt lat="42.9072382" lon="11.2238965"><ele>163.0</ele><time>2026-04-18T07:51:25.758Z</time></trkpt><trkpt lat="42.9071302" lon="11.223816"><ele>163.0</ele><time>2026-04-18T07:51:26.75Z</time></trkpt><trkpt lat="42.907025" lon="11.2237633"><ele>163.0</ele><time>2026-04-18T07:51:27.75Z</time></trkpt><trkpt lat="42.9067525" lon="11.2237984"><ele>161.25</ele><time>2026-04-18T07:51:29.753Z</time></trkpt><trkpt lat="42.9066247" lon="11.2238538"><ele>159.5</ele><time>2026-04-18T07:51:30.754Z</time></trkpt><trkpt lat="42.9065001" lon="11.2239146"><ele>157.75</ele><time>2026-04-18T07:51:31.75Z</time></trkpt><trkpt lat="42.9063717" lon="11.2239951"><ele>156.0</ele><time>2026-04-18T07:51:32.762Z</time></trkpt><trkpt lat="42.9062421" lon="11.2241443"><ele>155.2</ele><time>2026-04-18T07:51:33.751Z</time></trkpt><trkpt lat="42.9061331" lon="11.224257"><ele>154.39999999999998</ele><time>2026-04-18T07:51:34.755Z</time></trkpt><trkpt lat="42.9060565" lon="11.2243116"><ele>153.6</ele><time>2026-04-18T07:51:35.758Z</time></trkpt><trkpt lat="42.9059623" lon="11.2243173"><ele>152.79999999999998</ele><time>2026-04-18T07:51:36.755Z</time></trkpt><trkpt lat="42.9058471" lon="11.224298"><ele>152.0</ele><time>2026-04-18T07:51:37.757Z</time></trkpt><trkpt lat="42.9057045" lon="11.2242621"><ele>152.0</ele><time>2026-04-18T07:51:38.753Z</time></trkpt><trkpt lat="42.9055399" lon="11.2242118"><ele>152.0</ele><time>2026-04-18T07:51:39.765Z</time></trkpt><trkpt lat="42.9053855" lon="11.2241621"><ele>152.0</ele><time>2026-04-18T07:51:40.751Z</time></trkpt><trkpt lat="42.9052207" lon="11.2241187"><ele>153.0</ele><time>2026-04-18T07:51:41.753Z</time></trkpt><trkpt lat="42.9050661" lon="11.2240642"><ele>154.0</ele><time>2026-04-18T07:51:42.767Z</time></trkpt><trkpt lat="42.9049472" lon="11.2239907"><ele>155.0</ele><time>2026-04-18T07:51:43.757Z</time></trkpt><trkpt lat="42.9048455" lon="11.2239093"><ele>156.0</ele><time>2026-04-18T07:51:44.754Z</time></trkpt><trkpt lat="42.9047418" lon="11.2238083"><ele>158.0</ele><time>2026-04-18T07:51:45.756Z</time></trkpt><trkpt lat="42.9046361" lon="11.2237288"><ele>160.0</ele><time>2026-04-18T07:51:46.754Z</time></trkpt><trkpt lat="42.9045465" lon="11.2236722"><ele>162.0</ele><time>2026-04-18T07:51:47.754Z</time></trkpt><trkpt lat="42.9044709" lon="11.2236197"><ele>164.0</ele><time>2026-04-18T07:51:48.751Z</time></trkpt><trkpt lat="42.9043607" lon="11.2234788"><ele>163.99999999999997</ele><time>2026-04-18T07:51:50.766Z</time></trkpt><trkpt lat="42.9043166" lon="11.2234094"><ele>164.0</ele><time>2026-04-18T07:51:51.756Z</time></trkpt><trkpt lat="42.9042704" lon="11.2233306"><ele>164.0</ele><time>2026-04-18T07:51:52.753Z</time></trkpt><trkpt lat="42.9042298" lon="11.2232471"><ele>164.0</ele><time>2026-04-18T07:51:53.755Z</time></trkpt><trkpt lat="42.904196" lon="11.2231725"><ele>164.0</ele><time>2026-04-18T07:51:54.756Z</time></trkpt><trkpt lat="42.904145" lon="11.2230842"><ele>163.99999999999997</ele><time>2026-04-18T07:51:56.752Z</time></trkpt><trkpt lat="42.9041019" lon="11.2230165"><ele>164.0</ele><time>2026-04-18T07:51:58.755Z</time></trkpt><trkpt lat="42.9040466" lon="11.2229298"><ele>165.2</ele><time>2026-04-18T07:52:01.754Z</time></trkpt><trkpt lat="42.9039927" lon="11.2228805"><ele>166.39999999999998</ele><time>2026-04-18T07:52:03.754Z</time></trkpt><trkpt lat="42.9039175" lon="11.2228477"><ele>167.6</ele><time>2026-04-18T07:52:08.753Z</time></trkpt><trkpt lat="42.9038388" lon="11.2227912"><ele>168.8</ele><time>2026-04-18T07:52:11.754Z</time></trkpt><trkpt lat="42.9036895" lon="11.2228034"><ele>170.0</ele><time>2026-04-18T07:52:13.772Z</time></trkpt><trkpt lat="42.9035891" lon="11.2227854"><ele>170.0</ele><time>2026-04-18T07:52:14.752Z</time></trkpt><trkpt lat="42.9035156" lon="11.2227528"><ele>170.0</ele><time>2026-04-18T07:52:15.754Z</time></trkpt><trkpt lat="42.90345" lon="11.222682"><ele>170.0</ele><time>2026-04-18T07:52:16.756Z</time></trkpt><trkpt lat="42.9034086" lon="11.2225835"><ele>170.0</ele><time>2026-04-18T07:52:17.76Z</time></trkpt><trkpt lat="42.9033821" lon="11.2224635"><ele>170.0</ele><time>2026-04-18T07:52:18.753Z</time></trkpt><trkpt lat="42.9033508" lon="11.2223085"><ele>172.0</ele><time>2026-04-18T07:52:19.755Z</time></trkpt><trkpt lat="42.9033277" lon="11.2221488"><ele>174.0</ele><time>2026-04-18T07:52:20.751Z</time></trkpt><trkpt lat="42.9033083" lon="11.2219838"><ele>176.0</ele><time>2026-04-18T07:52:21.751Z</time></trkpt><trkpt lat="42.9032903" lon="11.2218172"><ele>178.0</ele><time>2026-04-18T07:52:22.757Z</time></trkpt><trkpt lat="42.9032806" lon="11.2216597"><ele>178.0</ele><time>2026-04-18T07:52:23.755Z</time></trkpt><trkpt lat="42.9032771" lon="11.2215115"><ele>178.0</ele><time>2026-04-18T07:52:24.753Z</time></trkpt><trkpt lat="42.9032787" lon="11.2213614"><ele>178.0</ele><time>2026-04-18T07:52:25.754Z</time></trkpt><trkpt lat="42.9032861" lon="11.2212073"><ele>178.0</ele><time>2026-04-18T07:52:26.752Z</time></trkpt><trkpt lat="42.9033151" lon="11.2210657"><ele>178.0</ele><time>2026-04-18T07:52:27.752Z</time></trkpt><trkpt lat="42.9033777" lon="11.2209409"><ele>179.0</ele><time>2026-04-18T07:52:28.762Z</time></trkpt><trkpt lat="42.9034643" lon="11.2208359"><ele>180.0</ele><time>2026-04-18T07:52:29.758Z</time></trkpt><trkpt lat="42.9035658" lon="11.2207414"><ele>181.0</ele><time>2026-04-18T07:52:30.752Z</time></trkpt><trkpt lat="42.9036509" lon="11.220669"><ele>182.0</ele><time>2026-04-18T07:52:31.753Z</time></trkpt><trkpt lat="42.9037249" lon="11.2206058"><ele>183.0</ele><time>2026-04-18T07:52:32.758Z</time></trkpt><trkpt lat="42.9038034" lon="11.2204363"><ele>185.60000000000002</ele><time>2026-04-18T07:52:34.754Z</time></trkpt><trkpt lat="42.9038052" lon="11.2203341"><ele>188.20000000000002</ele><time>2026-04-18T07:52:35.754Z</time></trkpt><trkpt lat="42.903775" lon="11.2202244"><ele>190.8</ele><time>2026-04-18T07:52:36.751Z</time></trkpt><trkpt lat="42.9037259" lon="11.2201206"><ele>193.4</ele><time>2026-04-18T07:52:37.759Z</time></trkpt><trkpt lat="42.9036627" lon="11.2200193"><ele>196.0</ele><time>2026-04-18T07:52:38.756Z</time></trkpt><trkpt lat="42.9035861" lon="11.2199177"><ele>198.4</ele><time>2026-04-18T07:52:39.754Z</time></trkpt><trkpt lat="42.9035052" lon="11.2198074"><ele>200.8</ele><time>2026-04-18T07:52:40.755Z</time></trkpt><trkpt lat="42.9034326" lon="11.2196976"><ele>203.20000000000002</ele><time>2026-04-18T07:52:41.757Z</time></trkpt><trkpt lat="42.903366" lon="11.219584"><ele>205.60000000000002</ele><time>2026-04-18T07:52:42.76Z</time></trkpt><trkpt lat="42.9033094" lon="11.2194652"><ele>208.0</ele><time>2026-04-18T07:52:43.762Z</time></trkpt><trkpt lat="42.9032544" lon="11.2193443"><ele>207.99999999999997</ele><time>2026-04-18T07:52:44.754Z</time></trkpt><trkpt lat="42.9031993" lon="11.2192371"><ele>208.0</ele><time>2026-04-18T07:52:45.754Z</time></trkpt><trkpt lat="42.9031362" lon="11.2191387"><ele>208.0</ele><time>2026-04-18T07:52:46.754Z</time></trkpt><trkpt lat="42.9030777" lon="11.2190521"><ele>208.0</ele><time>2026-04-18T07:52:47.75Z</time></trkpt><trkpt lat="42.9030277" lon="11.2189639"><ele>207.99999999999997</ele><time>2026-04-18T07:52:48.754Z</time></trkpt><trkpt lat="42.9029851" lon="11.2188749"><ele>208.0</ele><time>2026-04-18T07:52:49.756Z</time></trkpt><trkpt lat="42.9029509" lon="11.2187836"><ele>207.25</ele><time>2026-04-18T07:52:50.752Z</time></trkpt><trkpt lat="42.9029242" lon="11.2186617"><ele>206.5</ele><time>2026-04-18T07:52:51.751Z</time></trkpt><trkpt lat="42.9028965" lon="11.2185273"><ele>205.75</ele><time>2026-04-18T07:52:52.76Z</time></trkpt><trkpt lat="42.9028756" lon="11.218374"><ele>205.0</ele><time>2026-04-18T07:52:53.763Z</time></trkpt><trkpt lat="42.9028092" lon="11.2181075"><ele>204.99999999999997</ele><time>2026-04-18T07:52:55.752Z</time></trkpt><trkpt lat="42.9027616" lon="11.2180098"><ele>205.0</ele><time>2026-04-18T07:52:56.75Z</time></trkpt><trkpt lat="42.9026991" lon="11.217923"><ele>205.0</ele><time>2026-04-18T07:52:57.754Z</time></trkpt><trkpt lat="42.9026308" lon="11.2178503"><ele>205.0</ele><time>2026-04-18T07:52:58.758Z</time></trkpt><trkpt lat="42.9025585" lon="11.2177867"><ele>204.99999999999997</ele><time>2026-04-18T07:52:59.759Z</time></trkpt><trkpt lat="42.902485" lon="11.2177058"><ele>205.0</ele><time>2026-04-18T07:53:00.753Z</time></trkpt><trkpt lat="42.9023978" lon="11.217615"><ele>204.5</ele><time>2026-04-18T07:53:01.757Z</time></trkpt><trkpt lat="42.9023002" lon="11.2175345"><ele>204.0</ele><time>2026-04-18T07:53:02.754Z</time></trkpt><trkpt lat="42.9021966" lon="11.2174559"><ele>203.5</ele><time>2026-04-18T07:53:03.757Z</time></trkpt><trkpt lat="42.9020924" lon="11.2173778"><ele>203.0</ele><time>2026-04-18T07:53:04.757Z</time></trkpt><trkpt lat="42.9019884" lon="11.2172853"><ele>203.0</ele><time>2026-04-18T07:53:05.753Z</time></trkpt><trkpt lat="42.9018865" lon="11.2171824"><ele>203.0</ele><time>2026-04-18T07:53:06.755Z</time></trkpt><trkpt lat="42.9017876" lon="11.2170793"><ele>203.0</ele><time>2026-04-18T07:53:07.754Z</time></trkpt><trkpt lat="42.9017013" lon="11.2169661"><ele>203.0</ele><time>2026-04-18T07:53:08.754Z</time></trkpt><trkpt lat="42.9016293" lon="11.2168508"><ele>206.5</ele><time>2026-04-18T07:53:09.753Z</time></trkpt><trkpt lat="42.9015667" lon="11.2167186"><ele>210.0</ele><time>2026-04-18T07:53:10.755Z</time></trkpt><trkpt lat="42.9015094" lon="11.2165606"><ele>213.5</ele><time>2026-04-18T07:53:11.754Z</time></trkpt><trkpt lat="42.9014374" lon="11.2163967"><ele>217.0</ele><time>2026-04-18T07:53:12.755Z</time></trkpt><trkpt lat="42.9013612" lon="11.2162396"><ele>217.0</ele><time>2026-04-18T07:53:13.757Z</time></trkpt><trkpt lat="42.901287" lon="11.2160924"><ele>217.0</ele><time>2026-04-18T07:53:14.752Z</time></trkpt><trkpt lat="42.9011536" lon="11.2158333"><ele>217.0</ele><time>2026-04-18T07:53:16.753Z</time></trkpt><trkpt lat="42.9010973" lon="11.2157025"><ele>215.75</ele><time>2026-04-18T07:53:17.753Z</time></trkpt><trkpt lat="42.9010304" lon="11.2155709"><ele>214.5</ele><time>2026-04-18T07:53:18.753Z</time></trkpt><trkpt lat="42.9009454" lon="11.215446"><ele>213.25</ele><time>2026-04-18T07:53:19.757Z</time></trkpt><trkpt lat="42.9008494" lon="11.2153165"><ele>212.0</ele><time>2026-04-18T07:53:20.753Z</time></trkpt><trkpt lat="42.9007445" lon="11.2151934"><ele>214.25</ele><time>2026-04-18T07:53:21.762Z</time></trkpt><trkpt lat="42.9006336" lon="11.2150601"><ele>216.5</ele><time>2026-04-18T07:53:22.751Z</time></trkpt><trkpt lat="42.9005221" lon="11.2149331"><ele>218.75</ele><time>2026-04-18T07:53:23.751Z</time></trkpt><trkpt lat="42.9004038" lon="11.2148186"><ele>221.0</ele><time>2026-04-18T07:53:24.754Z</time></trkpt><trkpt lat="42.9003185" lon="11.2146996"><ele>221.0</ele><time>2026-04-18T07:53:25.751Z</time></trkpt><trkpt lat="42.9002362" lon="11.2145691"><ele>221.0</ele><time>2026-04-18T07:53:26.754Z</time></trkpt><trkpt lat="42.9001543" lon="11.2144395"><ele>221.0</ele><time>2026-04-18T07:53:27.759Z</time></trkpt><trkpt lat="42.9000644" lon="11.214318"><ele>221.0</ele><time>2026-04-18T07:53:28.753Z</time></trkpt><trkpt lat="42.8999681" lon="11.2141825"><ele>220.25</ele><time>2026-04-18T07:53:29.76Z</time></trkpt><trkpt lat="42.8998615" lon="11.2140564"><ele>219.5</ele><time>2026-04-18T07:53:30.751Z</time></trkpt><trkpt lat="42.8997646" lon="11.2139438"><ele>218.75</ele><time>2026-04-18T07:53:31.75Z</time></trkpt><trkpt lat="42.8996843" lon="11.2138386"><ele>218.0</ele><time>2026-04-18T07:53:32.752Z</time></trkpt><trkpt lat="42.8996105" lon="11.21373"><ele>218.0</ele><time>2026-04-18T07:53:33.756Z</time></trkpt><trkpt lat="42.8995456" lon="11.2136278"><ele>218.0</ele><time>2026-04-18T07:53:34.751Z</time></trkpt><trkpt lat="42.8994823" lon="11.2135402"><ele>218.0</ele><time>2026-04-18T07:53:35.754Z</time></trkpt><trkpt lat="42.8993826" lon="11.2134028"><ele>218.0</ele><time>2026-04-18T07:53:38.752Z</time></trkpt><trkpt lat="42.8993506" lon="11.2132577"><ele>218.0</ele><time>2026-04-18T07:53:41.75Z</time></trkpt><trkpt lat="42.8993551" lon="11.2131703"><ele>216.8</ele><time>2026-04-18T07:53:42.754Z</time></trkpt><trkpt lat="42.8993651" lon="11.213061"><ele>215.60000000000002</ele><time>2026-04-18T07:53:43.755Z</time></trkpt><trkpt lat="42.8993728" lon="11.2129258"><ele>214.39999999999998</ele><time>2026-04-18T07:53:44.758Z</time></trkpt><trkpt lat="42.8993746" lon="11.2127743"><ele>213.2</ele><time>2026-04-18T07:53:45.756Z</time></trkpt><trkpt lat="42.8993657" lon="11.212612"><ele>212.0</ele><time>2026-04-18T07:53:46.758Z</time></trkpt><trkpt lat="42.8993467" lon="11.2124525"><ele>211.5</ele><time>2026-04-18T07:53:47.754Z</time></trkpt><trkpt lat="42.899307" lon="11.2123152"><ele>211.0</ele><time>2026-04-18T07:53:48.761Z</time></trkpt><trkpt lat="42.8992555" lon="11.2121789"><ele>210.5</ele><time>2026-04-18T07:53:49.76Z</time></trkpt><trkpt lat="42.8992" lon="11.2120362"><ele>210.0</ele><time>2026-04-18T07:53:50.757Z</time></trkpt><trkpt lat="42.8991407" lon="11.2118959"><ele>212.25</ele><time>2026-04-18T07:53:51.752Z</time></trkpt><trkpt lat="42.8990709" lon="11.2117407"><ele>214.5</ele><time>2026-04-18T07:53:52.752Z</time></trkpt><trkpt lat="42.8989927" lon="11.2115967"><ele>216.75</ele><time>2026-04-18T07:53:53.749Z</time></trkpt><trkpt lat="42.8989126" lon="11.2114633"><ele>219.0</ele><time>2026-04-18T07:53:54.761Z</time></trkpt><trkpt lat="42.8988377" lon="11.2113405"><ele>219.0</ele><time>2026-04-18T07:53:55.76Z</time></trkpt><trkpt lat="42.8987677" lon="11.2112237"><ele>219.0</ele><time>2026-04-18T07:53:56.757Z</time></trkpt><trkpt lat="42.8986514" lon="11.210987"><ele>219.0</ele><time>2026-04-18T07:53:58.756Z</time></trkpt><trkpt lat="42.898616" lon="11.2108382"><ele>219.0</ele><time>2026-04-18T07:53:59.756Z</time></trkpt><trkpt lat="42.8985887" lon="11.210673"><ele>220.25</ele><time>2026-04-18T07:54:00.751Z</time></trkpt><trkpt lat="42.898563" lon="11.2104955"><ele>221.5</ele><time>2026-04-18T07:54:01.753Z</time></trkpt><trkpt lat="42.8985364" lon="11.2103085"><ele>222.75</ele><time>2026-04-18T07:54:02.764Z</time></trkpt><trkpt lat="42.8985032" lon="11.2101038"><ele>224.0</ele><time>2026-04-18T07:54:03.755Z</time></trkpt><trkpt lat="42.8984714" lon="11.209898"><ele>225.2</ele><time>2026-04-18T07:54:04.764Z</time></trkpt><trkpt lat="42.8984606" lon="11.2097278"><ele>226.39999999999998</ele><time>2026-04-18T07:54:05.752Z</time></trkpt><trkpt lat="42.8984601" lon="11.2095906"><ele>227.6</ele><time>2026-04-18T07:54:06.757Z</time></trkpt><trkpt lat="42.8984789" lon="11.2094479"><ele>228.8</ele><time>2026-04-18T07:54:07.756Z</time></trkpt><trkpt lat="42.8984971" lon="11.2093421"><ele>230.0</ele><time>2026-04-18T07:54:08.754Z</time></trkpt><trkpt lat="42.8985024" lon="11.209237"><ele>230.0</ele><time>2026-04-18T07:54:09.756Z</time></trkpt><trkpt lat="42.8984715" lon="11.2091165"><ele>230.0</ele><time>2026-04-18T07:54:10.763Z</time></trkpt><trkpt lat="42.8984196" lon="11.2089754"><ele>230.0</ele><time>2026-04-18T07:54:11.757Z</time></trkpt><trkpt lat="42.8983613" lon="11.2088229"><ele>230.0</ele><time>2026-04-18T07:54:12.755Z</time></trkpt><trkpt lat="42.8983081" lon="11.2086669"><ele>235.0</ele><time>2026-04-18T07:54:13.751Z</time></trkpt><trkpt lat="42.8982619" lon="11.2085368"><ele>240.0</ele><time>2026-04-18T07:54:14.757Z</time></trkpt><trkpt lat="42.8982351" lon="11.2084231"><ele>245.0</ele><time>2026-04-18T07:54:15.754Z</time></trkpt><trkpt lat="42.898223" lon="11.2083"><ele>250.0</ele><time>2026-04-18T07:54:16.75Z</time></trkpt><trkpt lat="42.8982405" lon="11.2081677"><ele>255.0</ele><time>2026-04-18T07:54:17.756Z</time></trkpt><trkpt lat="42.8983005" lon="11.2078386"><ele>256.5</ele><time>2026-04-18T07:54:19.752Z</time></trkpt><trkpt lat="42.8983294" lon="11.2076644"><ele>258.0</ele><time>2026-04-18T07:54:20.756Z</time></trkpt><trkpt lat="42.8983531" lon="11.2074985"><ele>259.5</ele><time>2026-04-18T07:54:21.76Z</time></trkpt><trkpt lat="42.8983682" lon="11.207341"><ele>261.0</ele><time>2026-04-18T07:54:22.754Z</time></trkpt><trkpt lat="42.8983818" lon="11.207185"><ele>261.2</ele><time>2026-04-18T07:54:23.755Z</time></trkpt><trkpt lat="42.898396" lon="11.2070214"><ele>261.40000000000003</ele><time>2026-04-18T07:54:24.761Z</time></trkpt><trkpt lat="42.8984089" lon="11.2068714"><ele>261.6</ele><time>2026-04-18T07:54:25.764Z</time></trkpt><trkpt lat="42.8983952" lon="11.2067328"><ele>261.8</ele><time>2026-04-18T07:54:26.751Z</time></trkpt><trkpt lat="42.8983642" lon="11.2066069"><ele>262.0</ele><time>2026-04-18T07:54:27.75Z</time></trkpt><trkpt lat="42.8983029" lon="11.2064881"><ele>262.0</ele><time>2026-04-18T07:54:28.75Z</time></trkpt><trkpt lat="42.8982158" lon="11.2063797"><ele>262.0</ele><time>2026-04-18T07:54:29.753Z</time></trkpt><trkpt lat="42.8981086" lon="11.2062626"><ele>262.0</ele><time>2026-04-18T07:54:30.752Z</time></trkpt><trkpt lat="42.897983" lon="11.2061281"><ele>262.0</ele><time>2026-04-18T07:54:31.75Z</time></trkpt><trkpt lat="42.8978609" lon="11.2059876"><ele>262.0</ele><time>2026-04-18T07:54:32.754Z</time></trkpt><trkpt lat="42.8977719" lon="11.205839"><ele>262.0</ele><time>2026-04-18T07:54:33.751Z</time></trkpt><trkpt lat="42.8976718" lon="11.2057453"><ele>262.0</ele><time>2026-04-18T07:54:34.756Z</time></trkpt><trkpt lat="42.8975564" lon="11.205658"><ele>262.0</ele><time>2026-04-18T07:54:35.765Z</time></trkpt><trkpt lat="42.897436" lon="11.2056089"><ele>268.3333333333333</ele><time>2026-04-18T07:54:36.75Z</time></trkpt><trkpt lat="42.8972691" lon="11.2055673"><ele>274.6666666666667</ele><time>2026-04-18T07:54:37.754Z</time></trkpt><trkpt lat="42.8971491" lon="11.205541"><ele>281.0</ele><time>2026-04-18T07:54:38.764Z</time></trkpt><trkpt lat="42.8969472" lon="11.2054794"><ele>281.0</ele><time>2026-04-18T07:54:40.754Z</time></trkpt><trkpt lat="42.8968526" lon="11.2054311"><ele>281.0</ele><time>2026-04-18T07:54:41.757Z</time></trkpt><trkpt lat="42.8967626" lon="11.2053773"><ele>281.0</ele><time>2026-04-18T07:54:42.763Z</time></trkpt><trkpt lat="42.8966791" lon="11.205301"><ele>281.0</ele><time>2026-04-18T07:54:43.763Z</time></trkpt><trkpt lat="42.8966035" lon="11.2052046"><ele>281.0</ele><time>2026-04-18T07:54:44.758Z</time></trkpt><trkpt lat="42.8965255" lon="11.2051065"><ele>284.6</ele><time>2026-04-18T07:54:45.754Z</time></trkpt><trkpt lat="42.8964555" lon="11.2049933"><ele>288.20000000000005</ele><time>2026-04-18T07:54:46.747Z</time></trkpt><trkpt lat="42.8963857" lon="11.2048776"><ele>291.79999999999995</ele><time>2026-04-18T07:54:47.747Z</time></trkpt><trkpt lat="42.8963105" lon="11.2047509"><ele>295.4</ele><time>2026-04-18T07:54:48.759Z</time></trkpt><trkpt lat="42.8962455" lon="11.2046341"><ele>299.0</ele><time>2026-04-18T07:54:49.753Z</time></trkpt><trkpt lat="42.8961891" lon="11.2045154"><ele>300.8</ele><time>2026-04-18T07:54:50.777Z</time></trkpt><trkpt lat="42.8961284" lon="11.2043945"><ele>302.59999999999997</ele><time>2026-04-18T07:54:51.766Z</time></trkpt><trkpt lat="42.8960754" lon="11.2042973"><ele>304.4</ele><time>2026-04-18T07:54:52.755Z</time></trkpt><trkpt lat="42.8960174" lon="11.2042053"><ele>306.2</ele><time>2026-04-18T07:54:53.753Z</time></trkpt><trkpt lat="42.8959506" lon="11.2041386"><ele>308.0</ele><time>2026-04-18T07:54:54.748Z</time></trkpt><trkpt lat="42.8958764" lon="11.2040801"><ele>310.8</ele><time>2026-04-18T07:54:55.75Z</time></trkpt><trkpt lat="42.8958064" lon="11.2040386"><ele>313.6</ele><time>2026-04-18T07:54:56.755Z</time></trkpt><trkpt lat="42.8957324" lon="11.2040064"><ele>316.40000000000003</ele><time>2026-04-18T07:54:57.754Z</time></trkpt><trkpt lat="42.8956687" lon="11.2039951"><ele>319.20000000000005</ele><time>2026-04-18T07:54:58.752Z</time></trkpt><trkpt lat="42.895597" lon="11.2039966"><ele>322.0</ele><time>2026-04-18T07:54:59.749Z</time></trkpt><trkpt lat="42.8954325" lon="11.2039804"><ele>324.8</ele><time>2026-04-18T07:55:01.751Z</time></trkpt><trkpt lat="42.8953479" lon="11.2039564"><ele>327.6</ele><time>2026-04-18T07:55:02.754Z</time></trkpt><trkpt lat="42.8952673" lon="11.2039058"><ele>330.40000000000003</ele><time>2026-04-18T07:55:03.756Z</time></trkpt><trkpt lat="42.8951834" lon="11.2038433"><ele>333.20000000000005</ele><time>2026-04-18T07:55:04.753Z</time></trkpt><trkpt lat="42.8950916" lon="11.2037731"><ele>336.0</ele><time>2026-04-18T07:55:05.756Z</time></trkpt><trkpt lat="42.8949844" lon="11.203683"><ele>336.25</ele><time>2026-04-18T07:55:06.754Z</time></trkpt><trkpt lat="42.8948849" lon="11.2035967"><ele>336.5</ele><time>2026-04-18T07:55:07.764Z</time></trkpt><trkpt lat="42.894792" lon="11.2035079"><ele>336.75</ele><time>2026-04-18T07:55:08.756Z</time></trkpt><trkpt lat="42.8946935" lon="11.2034151"><ele>337.0</ele><time>2026-04-18T07:55:09.749Z</time></trkpt><trkpt lat="42.8945914" lon="11.2033266"><ele>337.0</ele><time>2026-04-18T07:55:10.751Z</time></trkpt><trkpt lat="42.8944923" lon="11.2032621"><ele>337.0</ele><time>2026-04-18T07:55:11.752Z</time></trkpt><trkpt lat="42.8943882" lon="11.2032095"><ele>337.0</ele><time>2026-04-18T07:55:12.754Z</time></trkpt><trkpt lat="42.8942855" lon="11.2031728"><ele>337.0</ele><time>2026-04-18T07:55:13.754Z</time></trkpt><trkpt lat="42.8941757" lon="11.2031681"><ele>337.0</ele><time>2026-04-18T07:55:14.76Z</time></trkpt><trkpt lat="42.8940533" lon="11.203217"><ele>337.25</ele><time>2026-04-18T07:55:15.756Z</time></trkpt><trkpt lat="42.8939263" lon="11.2033164"><ele>337.5</ele><time>2026-04-18T07:55:16.758Z</time></trkpt><trkpt lat="42.8938257" lon="11.2034132"><ele>337.75</ele><time>2026-04-18T07:55:17.75Z</time></trkpt><trkpt lat="42.8937217" lon="11.2035063"><ele>338.0</ele><time>2026-04-18T07:55:18.754Z</time></trkpt><trkpt lat="42.8936421" lon="11.2035415"><ele>338.0</ele><time>2026-04-18T07:55:19.751Z</time></trkpt><trkpt lat="42.8935615" lon="11.2035255"><ele>338.0</ele><time>2026-04-18T07:55:20.753Z</time></trkpt><trkpt lat="42.8934345" lon="11.2033616"><ele>338.0</ele><time>2026-04-18T07:55:23.753Z</time></trkpt><trkpt lat="42.8934002" lon="11.2032789"><ele>338.0</ele><time>2026-04-18T07:55:24.755Z</time></trkpt><trkpt lat="42.8933564" lon="11.2031863"><ele>338.0</ele><time>2026-04-18T07:55:25.761Z</time></trkpt><trkpt lat="42.8933097" lon="11.20309"><ele>342.2</ele><time>2026-04-18T07:55:26.753Z</time></trkpt><trkpt lat="42.8932482" lon="11.2029965"><ele>346.4</ele><time>2026-04-18T07:55:27.755Z</time></trkpt><trkpt lat="42.8931727" lon="11.2029085"><ele>350.59999999999997</ele><time>2026-04-18T07:55:28.758Z</time></trkpt><trkpt lat="42.8930756" lon="11.2028397"><ele>354.79999999999995</ele><time>2026-04-18T07:55:29.751Z</time></trkpt><trkpt lat="42.8929534" lon="11.2027987"><ele>359.0</ele><time>2026-04-18T07:55:30.754Z</time></trkpt><trkpt lat="42.8928248" lon="11.2027509"><ele>359.0</ele><time>2026-04-18T07:55:31.759Z</time></trkpt><trkpt lat="42.8927051" lon="11.2026947"><ele>359.0</ele><time>2026-04-18T07:55:32.748Z</time></trkpt><trkpt lat="42.8925816" lon="11.202632"><ele>359.0</ele><time>2026-04-18T07:55:33.756Z</time></trkpt><trkpt lat="42.8924488" lon="11.2025488"><ele>359.0</ele><time>2026-04-18T07:55:34.765Z</time></trkpt><trkpt lat="42.8923085" lon="11.2024702"><ele>357.25</ele><time>2026-04-18T07:55:35.75Z</time></trkpt><trkpt lat="42.8921705" lon="11.2024072"><ele>355.5</ele><time>2026-04-18T07:55:36.754Z</time></trkpt><trkpt lat="42.8920258" lon="11.2023829"><ele>353.75</ele><time>2026-04-18T07:55:37.749Z</time></trkpt><trkpt lat="42.8919046" lon="11.2023614"><ele>352.0</ele><time>2026-04-18T07:55:38.75Z</time></trkpt><trkpt lat="42.8917952" lon="11.2023381"><ele>352.25</ele><time>2026-04-18T07:55:39.754Z</time></trkpt><trkpt lat="42.8916965" lon="11.2023255"><ele>352.5</ele><time>2026-04-18T07:55:40.754Z</time></trkpt><trkpt lat="42.8916043" lon="11.202334"><ele>352.75</ele><time>2026-04-18T07:55:41.751Z</time></trkpt><trkpt lat="42.8914253" lon="11.202437"><ele>353.0</ele><time>2026-04-18T07:55:43.752Z</time></trkpt><trkpt lat="42.8913401" lon="11.2025024"><ele>353.0</ele><time>2026-04-18T07:55:44.754Z</time></trkpt><trkpt lat="42.8912498" lon="11.2025603"><ele>353.0</ele><time>2026-04-18T07:55:45.75Z</time></trkpt><trkpt lat="42.8911527" lon="11.2025978"><ele>353.0</ele><time>2026-04-18T07:55:46.747Z</time></trkpt><trkpt lat="42.8910573" lon="11.2026112"><ele>353.0</ele><time>2026-04-18T07:55:47.75Z</time></trkpt><trkpt lat="42.890971" lon="11.2026079"><ele>353.0</ele><time>2026-04-18T07:55:48.754Z</time></trkpt><trkpt lat="42.8909042" lon="11.2025833"><ele>354.0</ele><time>2026-04-18T07:55:49.752Z</time></trkpt><trkpt lat="42.8907989" lon="11.2025258"><ele>355.0</ele><time>2026-04-18T07:55:51.758Z</time></trkpt><trkpt lat="42.8907325" lon="11.2025845"><ele>356.0</ele><time>2026-04-18T07:55:54.751Z</time></trkpt><trkpt lat="42.8907522" lon="11.202739"><ele>357.0</ele><time>2026-04-18T07:55:56.759Z</time></trkpt><trkpt lat="42.890784" lon="11.2029106"><ele>358.0</ele><time>2026-04-18T07:55:58.769Z</time></trkpt><trkpt lat="42.8907871" lon="11.2030181"><ele>358.0</ele><time>2026-04-18T07:55:59.754Z</time></trkpt><trkpt lat="42.8907798" lon="11.2031175"><ele>358.0</ele><time>2026-04-18T07:56:00.749Z</time></trkpt><trkpt lat="42.8907549" lon="11.203214"><ele>358.0</ele><time>2026-04-18T07:56:01.747Z</time></trkpt><trkpt lat="42.890722" lon="11.2033138"><ele>358.0</ele><time>2026-04-18T07:56:02.75Z</time></trkpt><trkpt lat="42.890589" lon="11.2034958"><ele>358.0</ele><time>2026-04-18T07:56:04.75Z</time></trkpt><trkpt lat="42.8904874" lon="11.2035705"><ele>357.79999999999995</ele><time>2026-04-18T07:56:05.753Z</time></trkpt><trkpt lat="42.8903974" lon="11.2036407"><ele>357.6</ele><time>2026-04-18T07:56:06.756Z</time></trkpt><trkpt lat="42.8903178" lon="11.2037017"><ele>357.4</ele><time>2026-04-18T07:56:07.749Z</time></trkpt><trkpt lat="42.890237" lon="11.2037509"><ele>357.20000000000005</ele><time>2026-04-18T07:56:08.748Z</time></trkpt><trkpt lat="42.8900955" lon="11.2038541"><ele>357.0</ele><time>2026-04-18T07:56:10.753Z</time></trkpt><trkpt lat="42.8900279" lon="11.2039227"><ele>358.6</ele><time>2026-04-18T07:56:11.747Z</time></trkpt><trkpt lat="42.8899694" lon="11.2040253"><ele>360.20000000000005</ele><time>2026-04-18T07:56:12.754Z</time></trkpt><trkpt lat="42.8899168" lon="11.2041429"><ele>361.8</ele><time>2026-04-18T07:56:13.758Z</time></trkpt><trkpt lat="42.8898763" lon="11.2042558"><ele>363.4</ele><time>2026-04-18T07:56:14.757Z</time></trkpt><trkpt lat="42.8898415" lon="11.2043617"><ele>365.0</ele><time>2026-04-18T07:56:15.747Z</time></trkpt><trkpt lat="42.8898261" lon="11.2044734"><ele>365.0</ele><time>2026-04-18T07:56:16.75Z</time></trkpt><trkpt lat="42.8898359" lon="11.2045892"><ele>365.0</ele><time>2026-04-18T07:56:17.762Z</time></trkpt><trkpt lat="42.8898686" lon="11.2047124"><ele>365.0</ele><time>2026-04-18T07:56:18.757Z</time></trkpt><trkpt lat="42.8899067" lon="11.2048402"><ele>365.0</ele><time>2026-04-18T07:56:19.754Z</time></trkpt><trkpt lat="42.8899397" lon="11.2049813"><ele>365.0</ele><time>2026-04-18T07:56:20.748Z</time></trkpt><trkpt lat="42.8899667" lon="11.2051251"><ele>364.4</ele><time>2026-04-18T07:56:21.756Z</time></trkpt><trkpt lat="42.889998" lon="11.2052592"><ele>363.8</ele><time>2026-04-18T07:56:22.756Z</time></trkpt><trkpt lat="42.8900255" lon="11.2053546"><ele>363.20000000000005</ele><time>2026-04-18T07:56:23.765Z</time></trkpt><trkpt lat="42.8901659" lon="11.2054624"><ele>362.6</ele><time>2026-04-18T07:56:27.752Z</time></trkpt><trkpt lat="42.8901802" lon="11.2053716"><ele>362.0</ele><time>2026-04-18T07:56:29.752Z</time></trkpt><trkpt lat="42.8901554" lon="11.2051815"><ele>362.83333333333337</ele><time>2026-04-18T07:56:31.752Z</time></trkpt><trkpt lat="42.8901515" lon="11.2050548"><ele>363.6666666666667</ele><time>2026-04-18T07:56:32.753Z</time></trkpt><trkpt lat="42.8901498" lon="11.2049317"><ele>364.5</ele><time>2026-04-18T07:56:33.758Z</time></trkpt><trkpt lat="42.8901615" lon="11.2048094"><ele>365.3333333333333</ele><time>2026-04-18T07:56:34.757Z</time></trkpt><trkpt lat="42.890169" lon="11.2046887"><ele>366.16666666666663</ele><time>2026-04-18T07:56:35.751Z</time></trkpt><trkpt lat="42.8901689" lon="11.2045717"><ele>367.0</ele><time>2026-04-18T07:56:36.75Z</time></trkpt><trkpt lat="42.8901689" lon="11.2044792"><ele>367.0</ele><time>2026-04-18T07:56:37.754Z</time></trkpt><trkpt lat="42.890172" lon="11.2043421"><ele>367.0</ele><time>2026-04-18T07:56:39.767Z</time></trkpt><trkpt lat="42.8901897" lon="11.2042494"><ele>367.0</ele><time>2026-04-18T07:56:41.753Z</time></trkpt><trkpt lat="42.8902321" lon="11.2041536"><ele>367.0</ele><time>2026-04-18T07:56:44.753Z</time></trkpt><trkpt lat="42.890349" lon="11.2040112"><ele>367.0</ele><time>2026-04-18T07:56:48.754Z</time></trkpt><trkpt lat="42.8904276" lon="11.2039472"><ele>367.0</ele><time>2026-04-18T07:56:50.752Z</time></trkpt><trkpt lat="42.8905335" lon="11.2039199"><ele>367.0</ele><time>2026-04-18T07:56:52.76Z</time></trkpt><trkpt lat="42.8906181" lon="11.2039475"><ele>367.0</ele><time>2026-04-18T07:56:54.756Z</time></trkpt><trkpt lat="42.8906876" lon="11.2040199"><ele>367.0</ele><time>2026-04-18T07:56:56.757Z</time></trkpt><trkpt lat="42.8907396" lon="11.2041677"><ele>367.0</ele><time>2026-04-18T07:56:58.749Z</time></trkpt><trkpt lat="42.890761" lon="11.2042646"><ele>367.0</ele><time>2026-04-18T07:56:59.763Z</time></trkpt><trkpt lat="42.8907752" lon="11.2043619"><ele>367.0</ele><time>2026-04-18T07:57:00.749Z</time></trkpt><trkpt lat="42.8907657" lon="11.2045105"><ele>367.0</ele><time>2026-04-18T07:57:02.753Z</time></trkpt><trkpt lat="42.8907416" lon="11.204611"><ele>367.0</ele><time>2026-04-18T07:57:04.758Z</time></trkpt><trkpt lat="42.89074" lon="11.2047"><ele>367.0</ele><time>2026-04-18T07:57:07.758Z</time></trkpt><trkpt lat="42.8906601" lon="11.2049179"><ele>367.16666666666663</ele><time>2026-04-18T07:57:12.754Z</time></trkpt><trkpt lat="42.8906139" lon="11.2049913"><ele>367.3333333333333</ele><time>2026-04-18T07:57:14.747Z</time></trkpt><trkpt lat="42.8905366" lon="11.2049682"><ele>367.5</ele><time>2026-04-18T07:57:18.752Z</time></trkpt><trkpt lat="42.8904292" lon="11.2049226"><ele>367.6666666666667</ele><time>2026-04-18T07:57:20.754Z</time></trkpt><trkpt lat="42.890335" lon="11.2048958"><ele>367.83333333333337</ele><time>2026-04-18T07:57:25.747Z</time></trkpt><trkpt lat="42.8902575" lon="11.204882"><ele>368.0</ele><time>2026-04-18T07:57:28.763Z</time></trkpt><trkpt lat="42.8901979" lon="11.205059"><ele>368.0</ele><time>2026-04-18T07:57:32.747Z</time></trkpt><trkpt lat="42.8902095" lon="11.2051504"><ele>368.0</ele><time>2026-04-18T07:57:33.751Z</time></trkpt><trkpt lat="42.8902055" lon="11.2052893"><ele>368.0</ele><time>2026-04-18T07:57:35.76Z</time></trkpt><trkpt lat="42.8901368" lon="11.2053061"><ele>368.0</ele><time>2026-04-18T07:57:37.754Z</time></trkpt><trkpt lat="42.8900884" lon="11.2051801"><ele>368.0</ele><time>2026-04-18T07:57:39.761Z</time></trkpt><trkpt lat="42.8900772" lon="11.2050644"><ele>368.0</ele><time>2026-04-18T07:57:40.755Z</time></trkpt><trkpt lat="42.8900599" lon="11.2049222"><ele>367.4</ele><time>2026-04-18T07:57:41.755Z</time></trkpt><trkpt lat="42.8900309" lon="11.2047698"><ele>366.79999999999995</ele><time>2026-04-18T07:57:42.754Z</time></trkpt><trkpt lat="42.8900012" lon="11.2046231"><ele>366.2</ele><time>2026-04-18T07:57:43.751Z</time></trkpt><trkpt lat="42.8899717" lon="11.2045012"><ele>365.6</ele><time>2026-04-18T07:57:44.772Z</time></trkpt><trkpt lat="42.8899491" lon="11.204405"><ele>365.0</ele><time>2026-04-18T07:57:45.753Z</time></trkpt><trkpt lat="42.8899463" lon="11.2042477"><ele>365.0</ele><time>2026-04-18T07:57:47.747Z</time></trkpt><trkpt lat="42.8899616" lon="11.2041429"><ele>365.0</ele><time>2026-04-18T07:57:48.756Z</time></trkpt><trkpt lat="42.8899778" lon="11.2040273"><ele>365.0</ele><time>2026-04-18T07:57:49.754Z</time></trkpt><trkpt lat="42.8900848" lon="11.2038027"><ele>365.0</ele><time>2026-04-18T07:57:51.757Z</time></trkpt><trkpt lat="42.8901579" lon="11.2037002"><ele>363.0</ele><time>2026-04-18T07:57:52.761Z</time></trkpt><trkpt lat="42.8902407" lon="11.2036042"><ele>361.0</ele><time>2026-04-18T07:57:53.757Z</time></trkpt><trkpt lat="42.8903429" lon="11.2035231"><ele>359.0</ele><time>2026-04-18T07:57:54.75Z</time></trkpt><trkpt lat="42.8904518" lon="11.2034514"><ele>357.0</ele><time>2026-04-18T07:57:55.749Z</time></trkpt><trkpt lat="42.890555" lon="11.2033822"><ele>357.0</ele><time>2026-04-18T07:57:56.761Z</time></trkpt><trkpt lat="42.8906517" lon="11.2033395"><ele>357.0</ele><time>2026-04-18T07:57:57.756Z</time></trkpt><trkpt lat="42.8907412" lon="11.203286"><ele>357.0</ele><time>2026-04-18T07:57:58.756Z</time></trkpt><trkpt lat="42.8908158" lon="11.2032079"><ele>357.0</ele><time>2026-04-18T07:57:59.753Z</time></trkpt><trkpt lat="42.8908657" lon="11.2031082"><ele>357.0</ele><time>2026-04-18T07:58:00.757Z</time></trkpt><trkpt lat="42.8908966" lon="11.2030007"><ele>357.20000000000005</ele><time>2026-04-18T07:58:01.755Z</time></trkpt><trkpt lat="42.8909081" lon="11.2028863"><ele>357.4</ele><time>2026-04-18T07:58:02.763Z</time></trkpt><trkpt lat="42.8909045" lon="11.2027668"><ele>357.6</ele><time>2026-04-18T07:58:03.75Z</time></trkpt><trkpt lat="42.8908865" lon="11.2026523"><ele>357.79999999999995</ele><time>2026-04-18T07:58:04.754Z</time></trkpt><trkpt lat="42.8908577" lon="11.2025368"><ele>358.0</ele><time>2026-04-18T07:58:05.764Z</time></trkpt><trkpt lat="42.8907465" lon="11.2023059"><ele>360.25</ele><time>2026-04-18T07:58:07.75Z</time></trkpt><trkpt lat="42.8906863" lon="11.2021769"><ele>362.5</ele><time>2026-04-18T07:58:08.749Z</time></trkpt><trkpt lat="42.8906374" lon="11.2020303"><ele>364.75</ele><time>2026-04-18T07:58:09.754Z</time></trkpt><trkpt lat="42.8905956" lon="11.2018654"><ele>367.0</ele><time>2026-04-18T07:58:10.752Z</time></trkpt><trkpt lat="42.8905001" lon="11.2014832"><ele>370.66666666666663</ele><time>2026-04-18T07:58:12.751Z</time></trkpt><trkpt lat="42.8904587" lon="11.2012533"><ele>374.3333333333333</ele><time>2026-04-18T07:58:13.748Z</time></trkpt><trkpt lat="42.8904262" lon="11.2010363"><ele>378.0</ele><time>2026-04-18T07:58:14.752Z</time></trkpt><trkpt lat="42.8903763" lon="11.2008029"><ele>381.5</ele><time>2026-04-18T07:58:15.754Z</time></trkpt><trkpt lat="42.8903049" lon="11.200597"><ele>385.0</ele><time>2026-04-18T07:58:16.757Z</time></trkpt><trkpt lat="42.8902314" lon="11.2004281"><ele>388.5</ele><time>2026-04-18T07:58:17.758Z</time></trkpt><trkpt lat="42.8901636" lon="11.2002725"><ele>392.0</ele><time>2026-04-18T07:58:18.761Z</time></trkpt><trkpt lat="42.890096" lon="11.2001337"><ele>389.25</ele><time>2026-04-18T07:58:19.759Z</time></trkpt><trkpt lat="42.8900266" lon="11.1999992"><ele>386.5</ele><time>2026-04-18T07:58:20.753Z</time></trkpt><trkpt lat="42.8899718" lon="11.1998654"><ele>383.75</ele><time>2026-04-18T07:58:21.745Z</time></trkpt><trkpt lat="42.8899095" lon="11.1997339"><ele>381.0</ele><time>2026-04-18T07:58:22.764Z</time></trkpt><trkpt lat="42.8898003" lon="11.1996486"><ele>381.0</ele><time>2026-04-18T07:58:23.751Z</time></trkpt><trkpt lat="42.8896748" lon="11.1996241"><ele>381.0</ele><time>2026-04-18T07:58:24.756Z</time></trkpt><trkpt lat="42.8895297" lon="11.1996383"><ele>381.0</ele><time>2026-04-18T07:58:25.763Z</time></trkpt><trkpt lat="42.889362" lon="11.1996899"><ele>381.0</ele><time>2026-04-18T07:58:26.753Z</time></trkpt><trkpt lat="42.8891614" lon="11.1997823"><ele>366.3333333333333</ele><time>2026-04-18T07:58:27.75Z</time></trkpt><trkpt lat="42.8889584" lon="11.1998781"><ele>351.66666666666663</ele><time>2026-04-18T07:58:28.747Z</time></trkpt><trkpt lat="42.8887788" lon="11.1999219"><ele>337.0</ele><time>2026-04-18T07:58:29.75Z</time></trkpt><trkpt lat="42.8886353" lon="11.1999151"><ele>337.0</ele><time>2026-04-18T07:58:30.75Z</time></trkpt><trkpt lat="42.8885211" lon="11.1999057"><ele>337.0</ele><time>2026-04-18T07:58:31.752Z</time></trkpt><trkpt lat="42.8883795" lon="11.1998312"><ele>337.0</ele><time>2026-04-18T07:58:34.752Z</time></trkpt><trkpt lat="42.8883099" lon="11.1997926"><ele>337.0</ele><time>2026-04-18T07:58:37.752Z</time></trkpt><trkpt lat="42.8882283" lon="11.1996916"><ele>340.0</ele><time>2026-04-18T07:58:39.757Z</time></trkpt><trkpt lat="42.8881609" lon="11.1995984"><ele>343.0</ele><time>2026-04-18T07:58:40.756Z</time></trkpt><trkpt lat="42.8881074" lon="11.1994937"><ele>346.0</ele><time>2026-04-18T07:58:41.758Z</time></trkpt><trkpt lat="42.8880565" lon="11.1993722"><ele>349.0</ele><time>2026-04-18T07:58:42.761Z</time></trkpt><trkpt lat="42.8880023" lon="11.1992464"><ele>352.0</ele><time>2026-04-18T07:58:43.752Z</time></trkpt><trkpt lat="42.8879308" lon="11.19913"><ele>352.0</ele><time>2026-04-18T07:58:44.757Z</time></trkpt><trkpt lat="42.8878425" lon="11.1990399"><ele>352.0</ele><time>2026-04-18T07:58:45.754Z</time></trkpt><trkpt lat="42.8877381" lon="11.1989771"><ele>352.0</ele><time>2026-04-18T07:58:46.756Z</time></trkpt><trkpt lat="42.8876379" lon="11.1989123"><ele>352.0</ele><time>2026-04-18T07:58:47.756Z</time></trkpt><trkpt lat="42.887535" lon="11.1988215"><ele>355.25</ele><time>2026-04-18T07:58:48.751Z</time></trkpt><trkpt lat="42.8874285" lon="11.1987371"><ele>358.5</ele><time>2026-04-18T07:58:49.752Z</time></trkpt><trkpt lat="42.8873222" lon="11.1986792"><ele>361.75</ele><time>2026-04-18T07:58:50.748Z</time></trkpt><trkpt lat="42.8872134" lon="11.1986272"><ele>365.0</ele><time>2026-04-18T07:58:51.752Z</time></trkpt><trkpt lat="42.8871032" lon="11.1985823"><ele>365.0</ele><time>2026-04-18T07:58:52.756Z</time></trkpt><trkpt lat="42.8869554" lon="11.1985095"><ele>365.0</ele><time>2026-04-18T07:58:54.75Z</time></trkpt><trkpt lat="42.8868981" lon="11.1984361"><ele>365.0</ele><time>2026-04-18T07:58:55.759Z</time></trkpt><trkpt lat="42.8868415" lon="11.1983441"><ele>365.0</ele><time>2026-04-18T07:58:56.752Z</time></trkpt><trkpt lat="42.8867779" lon="11.1982303"><ele>365.0</ele><time>2026-04-18T07:58:57.754Z</time></trkpt><trkpt lat="42.8867057" lon="11.1981038"><ele>365.2</ele><time>2026-04-18T07:58:58.751Z</time></trkpt><trkpt lat="42.8866285" lon="11.197976"><ele>365.4</ele><time>2026-04-18T07:58:59.75Z</time></trkpt><trkpt lat="42.886549" lon="11.1978715"><ele>365.6</ele><time>2026-04-18T07:59:00.769Z</time></trkpt><trkpt lat="42.886465" lon="11.1977945"><ele>365.8</ele><time>2026-04-18T07:59:01.75Z</time></trkpt><trkpt lat="42.8863832" lon="11.1977282"><ele>366.0</ele><time>2026-04-18T07:59:02.754Z</time></trkpt><trkpt lat="42.8863054" lon="11.1976632"><ele>366.0</ele><time>2026-04-18T07:59:03.75Z</time></trkpt><trkpt lat="42.8862374" lon="11.1975786"><ele>366.0</ele><time>2026-04-18T07:59:04.755Z</time></trkpt><trkpt lat="42.8861744" lon="11.1974755"><ele>366.0</ele><time>2026-04-18T07:59:05.756Z</time></trkpt><trkpt lat="42.8861144" lon="11.1973492"><ele>366.0</ele><time>2026-04-18T07:59:06.749Z</time></trkpt><trkpt lat="42.8860499" lon="11.1972133"><ele>366.0</ele><time>2026-04-18T07:59:07.762Z</time></trkpt><trkpt lat="42.8859682" lon="11.1970932"><ele>365.8</ele><time>2026-04-18T07:59:08.75Z</time></trkpt><trkpt lat="42.8858741" lon="11.1969984"><ele>365.6</ele><time>2026-04-18T07:59:09.75Z</time></trkpt><trkpt lat="42.885776" lon="11.1969246"><ele>365.4</ele><time>2026-04-18T07:59:10.761Z</time></trkpt><trkpt lat="42.8856787" lon="11.1968535"><ele>365.2</ele><time>2026-04-18T07:59:11.755Z</time></trkpt><trkpt lat="42.8855996" lon="11.1967701"><ele>365.0</ele><time>2026-04-18T07:59:12.75Z</time></trkpt><trkpt lat="42.8855287" lon="11.1966969"><ele>365.0</ele><time>2026-04-18T07:59:13.751Z</time></trkpt><trkpt lat="42.8854322" lon="11.1965544"><ele>365.0</ele><time>2026-04-18T07:59:16.753Z</time></trkpt><trkpt lat="42.8854441" lon="11.1964575"><ele>365.0</ele><time>2026-04-18T07:59:20.754Z</time></trkpt><trkpt lat="42.8854658" lon="11.19635"><ele>365.0</ele><time>2026-04-18T07:59:22.755Z</time></trkpt><trkpt lat="42.8855176" lon="11.1962575"><ele>365.0</ele><time>2026-04-18T07:59:24.748Z</time></trkpt><trkpt lat="42.8855517" lon="11.1961633"><ele>365.0</ele><time>2026-04-18T07:59:28.761Z</time></trkpt><trkpt lat="42.8854957" lon="11.1962339"><ele>365.0</ele><time>2026-04-18T07:59:37.751Z</time></trkpt><trkpt lat="42.8854388" lon="11.1964588"><ele>365.0</ele><time>2026-04-18T07:59:45.759Z</time></trkpt><trkpt lat="42.8854354" lon="11.1965633"><ele>365.0</ele><time>2026-04-18T07:59:47.753Z</time></trkpt><trkpt lat="42.8853596" lon="11.1965661"><ele>365.0</ele><time>2026-04-18T08:00:26.748Z</time></trkpt><trkpt lat="42.8852691" lon="11.1963792"><ele>366.0</ele><time>2026-04-18T08:00:29.751Z</time></trkpt><trkpt lat="42.8852805" lon="11.1962553"><ele>367.0</ele><time>2026-04-18T08:00:30.75Z</time></trkpt><trkpt lat="42.8853033" lon="11.1961122"><ele>368.0</ele><time>2026-04-18T08:00:31.75Z</time></trkpt><trkpt lat="42.8853171" lon="11.1959555"><ele>369.0</ele><time>2026-04-18T08:00:32.751Z</time></trkpt><trkpt lat="42.8853351" lon="11.1958"><ele>370.0</ele><time>2026-04-18T08:00:33.753Z</time></trkpt><trkpt lat="42.8853484" lon="11.195668"><ele>371.0</ele><time>2026-04-18T08:00:34.753Z</time></trkpt><trkpt lat="42.8853509" lon="11.1955566"><ele>372.0</ele><time>2026-04-18T08:00:35.747Z</time></trkpt><trkpt lat="42.8853435" lon="11.1954283"><ele>373.0</ele><time>2026-04-18T08:00:36.753Z</time></trkpt><trkpt lat="42.8853378" lon="11.1952907"><ele>374.0</ele><time>2026-04-18T08:00:37.766Z</time></trkpt><trkpt lat="42.8853266" lon="11.195146"><ele>375.0</ele><time>2026-04-18T08:00:38.753Z</time></trkpt><trkpt lat="42.8853128" lon="11.1949974"><ele>375.0</ele><time>2026-04-18T08:00:39.748Z</time></trkpt><trkpt lat="42.8852932" lon="11.194853"><ele>375.0</ele><time>2026-04-18T08:00:40.757Z</time></trkpt><trkpt lat="42.885264" lon="11.1947202"><ele>375.0</ele><time>2026-04-18T08:00:41.755Z</time></trkpt><trkpt lat="42.8852194" lon="11.1945942"><ele>375.0</ele><time>2026-04-18T08:00:42.75Z</time></trkpt><trkpt lat="42.88518" lon="11.1944791"><ele>375.0</ele><time>2026-04-18T08:00:43.749Z</time></trkpt><trkpt lat="42.8851384" lon="11.1943579"><ele>369.75</ele><time>2026-04-18T08:00:44.754Z</time></trkpt><trkpt lat="42.8850905" lon="11.1942231"><ele>364.5</ele><time>2026-04-18T08:00:45.752Z</time></trkpt><trkpt lat="42.8850392" lon="11.1940856"><ele>359.25</ele><time>2026-04-18T08:00:46.749Z</time></trkpt><trkpt lat="42.8849732" lon="11.1939679"><ele>354.0</ele><time>2026-04-18T08:00:47.744Z</time></trkpt><trkpt lat="42.8848592" lon="11.1937386"><ele>354.0</ele><time>2026-04-18T08:00:49.752Z</time></trkpt><trkpt lat="42.8848181" lon="11.1936101"><ele>354.0</ele><time>2026-04-18T08:00:50.75Z</time></trkpt><trkpt lat="42.8847911" lon="11.1934779"><ele>354.0</ele><time>2026-04-18T08:00:51.753Z</time></trkpt><trkpt lat="42.8847552" lon="11.1933395"><ele>354.0</ele><time>2026-04-18T08:00:52.748Z</time></trkpt><trkpt lat="42.8847249" lon="11.1931993"><ele>354.0</ele><time>2026-04-18T08:00:53.75Z</time></trkpt><trkpt lat="42.8847186" lon="11.1930769"><ele>354.4</ele><time>2026-04-18T08:00:54.749Z</time></trkpt><trkpt lat="42.8847131" lon="11.1929511"><ele>354.79999999999995</ele><time>2026-04-18T08:00:55.76Z</time></trkpt><trkpt lat="42.8846985" lon="11.1928127"><ele>355.20000000000005</ele><time>2026-04-18T08:00:56.75Z</time></trkpt><trkpt lat="42.8846734" lon="11.1926755"><ele>355.6</ele><time>2026-04-18T08:00:57.76Z</time></trkpt><trkpt lat="42.8846607" lon="11.192552"><ele>356.0</ele><time>2026-04-18T08:00:58.763Z</time></trkpt><trkpt lat="42.8846536" lon="11.192448"><ele>356.0</ele><time>2026-04-18T08:00:59.746Z</time></trkpt><trkpt lat="42.8846511" lon="11.1923446"><ele>356.0</ele><time>2026-04-18T08:01:00.75Z</time></trkpt><trkpt lat="42.8846711" lon="11.1922441"><ele>356.0</ele><time>2026-04-18T08:01:01.752Z</time></trkpt><trkpt lat="42.8847107" lon="11.1921253"><ele>356.0</ele><time>2026-04-18T08:01:02.759Z</time></trkpt><trkpt lat="42.884761" lon="11.1919659"><ele>356.0</ele><time>2026-04-18T08:01:03.757Z</time></trkpt><trkpt lat="42.8848031" lon="11.1917792"><ele>355.75</ele><time>2026-04-18T08:01:04.753Z</time></trkpt><trkpt lat="42.8848527" lon="11.1915983"><ele>355.5</ele><time>2026-04-18T08:01:05.749Z</time></trkpt><trkpt lat="42.8848934" lon="11.1914365"><ele>355.25</ele><time>2026-04-18T08:01:06.765Z</time></trkpt><trkpt lat="42.8849199" lon="11.1912906"><ele>355.0</ele><time>2026-04-18T08:01:07.752Z</time></trkpt><trkpt lat="42.8849212" lon="11.1911536"><ele>354.66666666666663</ele><time>2026-04-18T08:01:08.753Z</time></trkpt><trkpt lat="42.884889" lon="11.1908621"><ele>354.3333333333333</ele><time>2026-04-18T08:01:10.749Z</time></trkpt><trkpt lat="42.884874" lon="11.1907041"><ele>354.0</ele><time>2026-04-18T08:01:11.75Z</time></trkpt><trkpt lat="42.8848488" lon="11.1905443"><ele>354.5</ele><time>2026-04-18T08:01:12.751Z</time></trkpt><trkpt lat="42.8848232" lon="11.1903791"><ele>355.0</ele><time>2026-04-18T08:01:13.755Z</time></trkpt><trkpt lat="42.8847976" lon="11.1902234"><ele>355.5</ele><time>2026-04-18T08:01:14.751Z</time></trkpt><trkpt lat="42.8847636" lon="11.19008"><ele>356.0</ele><time>2026-04-18T08:01:15.752Z</time></trkpt><trkpt lat="42.8847204" lon="11.1899434"><ele>355.75</ele><time>2026-04-18T08:01:16.746Z</time></trkpt><trkpt lat="42.8846502" lon="11.1898122"><ele>355.5</ele><time>2026-04-18T08:01:17.759Z</time></trkpt><trkpt lat="42.8845748" lon="11.1896859"><ele>355.25</ele><time>2026-04-18T08:01:18.753Z</time></trkpt><trkpt lat="42.8845053" lon="11.1895528"><ele>355.0</ele><time>2026-04-18T08:01:19.755Z</time></trkpt><trkpt lat="42.8844532" lon="11.1894409"><ele>355.0</ele><time>2026-04-18T08:01:20.744Z</time></trkpt><trkpt lat="42.8844058" lon="11.1893501"><ele>355.0</ele><time>2026-04-18T08:01:21.751Z</time></trkpt><trkpt lat="42.8843661" lon="11.1892761"><ele>355.0</ele><time>2026-04-18T08:01:22.752Z</time></trkpt><trkpt lat="42.8843353" lon="11.1892005"><ele>355.0</ele><time>2026-04-18T08:01:23.751Z</time></trkpt><trkpt lat="42.8842569" lon="11.1890486"><ele>355.0</ele><time>2026-04-18T08:01:25.754Z</time></trkpt><trkpt lat="42.8841939" lon="11.1889633"><ele>355.0</ele><time>2026-04-18T08:01:26.756Z</time></trkpt><trkpt lat="42.8841213" lon="11.1888637"><ele>350.66666666666663</ele><time>2026-04-18T08:01:27.76Z</time></trkpt><trkpt lat="42.8840141" lon="11.188769"><ele>346.3333333333333</ele><time>2026-04-18T08:01:28.75Z</time></trkpt><trkpt lat="42.8838933" lon="11.1886748"><ele>342.0</ele><time>2026-04-18T08:01:29.752Z</time></trkpt><trkpt lat="42.8836671" lon="11.1885075"><ele>342.0</ele><time>2026-04-18T08:01:31.759Z</time></trkpt><trkpt lat="42.8835779" lon="11.1884369"><ele>342.0</ele><time>2026-04-18T08:01:32.748Z</time></trkpt><trkpt lat="42.8834937" lon="11.188376"><ele>342.0</ele><time>2026-04-18T08:01:33.747Z</time></trkpt><trkpt lat="42.8834102" lon="11.1883241"><ele>342.0</ele><time>2026-04-18T08:01:34.747Z</time></trkpt><trkpt lat="42.8833323" lon="11.1882782"><ele>342.0</ele><time>2026-04-18T08:01:35.751Z</time></trkpt><trkpt lat="42.8832601" lon="11.188233"><ele>343.40000000000003</ele><time>2026-04-18T08:01:36.761Z</time></trkpt><trkpt lat="42.8831987" lon="11.1882038"><ele>344.8</ele><time>2026-04-18T08:01:37.75Z</time></trkpt><trkpt lat="42.8830871" lon="11.1881835"><ele>346.2</ele><time>2026-04-18T08:01:39.746Z</time></trkpt><trkpt lat="42.8829808" lon="11.1882743"><ele>347.6</ele><time>2026-04-18T08:01:41.75Z</time></trkpt><trkpt lat="42.8829441" lon="11.1883593"><ele>349.0</ele><time>2026-04-18T08:01:42.747Z</time></trkpt><trkpt lat="42.8829124" lon="11.1884689"><ele>349.0</ele><time>2026-04-18T08:01:43.748Z</time></trkpt><trkpt lat="42.8828744" lon="11.188613"><ele>349.0</ele><time>2026-04-18T08:01:44.755Z</time></trkpt><trkpt lat="42.882834" lon="11.1887834"><ele>349.0</ele><time>2026-04-18T08:01:45.749Z</time></trkpt><trkpt lat="42.8827934" lon="11.1889504"><ele>349.0</ele><time>2026-04-18T08:01:46.756Z</time></trkpt><trkpt lat="42.8827634" lon="11.1891072"><ele>351.2</ele><time>2026-04-18T08:01:47.745Z</time></trkpt><trkpt lat="42.8827312" lon="11.1892389"><ele>353.4</ele><time>2026-04-18T08:01:48.756Z</time></trkpt><trkpt lat="42.882703" lon="11.1893581"><ele>355.6</ele><time>2026-04-18T08:01:49.752Z</time></trkpt><trkpt lat="42.8826837" lon="11.1894643"><ele>357.8</ele><time>2026-04-18T08:01:50.75Z</time></trkpt><trkpt lat="42.8826513" lon="11.1896402"><ele>360.0</ele><time>2026-04-18T08:01:52.748Z</time></trkpt><trkpt lat="42.8826214" lon="11.1897838"><ele>356.8</ele><time>2026-04-18T08:01:54.753Z</time></trkpt><trkpt lat="42.8825775" lon="11.1899124"><ele>353.6</ele><time>2026-04-18T08:01:56.759Z</time></trkpt><trkpt lat="42.882513" lon="11.1900338"><ele>350.4</ele><time>2026-04-18T08:01:58.751Z</time></trkpt><trkpt lat="42.8824402" lon="11.190066"><ele>347.2</ele><time>2026-04-18T08:03:10.751Z</time></trkpt><trkpt lat="42.8822951" lon="11.1901422"><ele>344.0</ele><time>2026-04-18T08:03:15.768Z</time></trkpt><trkpt lat="42.8822192" lon="11.1901752"><ele>344.0</ele><time>2026-04-18T08:03:17.765Z</time></trkpt><trkpt lat="42.8821176" lon="11.1901675"><ele>344.0</ele><time>2026-04-18T08:03:19.752Z</time></trkpt><trkpt lat="42.8820481" lon="11.1901439"><ele>344.0</ele><time>2026-04-18T08:03:20.751Z</time></trkpt><trkpt lat="42.8819795" lon="11.1901068"><ele>344.0</ele><time>2026-04-18T08:03:21.762Z</time></trkpt><trkpt lat="42.8819091" lon="11.190053"><ele>344.0</ele><time>2026-04-18T08:03:22.748Z</time></trkpt><trkpt lat="42.8818386" lon="11.1899903"><ele>344.0</ele><time>2026-04-18T08:03:23.751Z</time></trkpt><trkpt lat="42.881774" lon="11.1899142"><ele>339.0</ele><time>2026-04-18T08:03:24.751Z</time></trkpt><trkpt lat="42.8817175" lon="11.1898258"><ele>334.0</ele><time>2026-04-18T08:03:25.754Z</time></trkpt><trkpt lat="42.8816707" lon="11.1897355"><ele>329.0</ele><time>2026-04-18T08:03:26.751Z</time></trkpt><trkpt lat="42.8816277" lon="11.1896634"><ele>324.0</ele><time>2026-04-18T08:03:27.749Z</time></trkpt><trkpt lat="42.881574" lon="11.189592"><ele>319.0</ele><time>2026-04-18T08:03:28.755Z</time></trkpt><trkpt lat="42.8815168" lon="11.1895017"><ele>314.0</ele><time>2026-04-18T08:03:38.744Z</time></trkpt><trkpt lat="42.8813878" lon="11.1893614"><ele>314.0</ele><time>2026-04-18T08:03:43.746Z</time></trkpt><trkpt lat="42.8813445" lon="11.1892964"><ele>314.0</ele><time>2026-04-18T08:04:52.751Z</time></trkpt><trkpt lat="42.8815719" lon="11.1895651"><ele>314.0</ele><time>2026-04-18T08:05:34.746Z</time></trkpt><trkpt lat="42.8816205" lon="11.1894803"><ele>314.0</ele><time>2026-04-18T08:06:05.755Z</time></trkpt><trkpt lat="42.8815565" lon="11.189276"><ele>314.0</ele><time>2026-04-18T08:06:11.753Z</time></trkpt><trkpt lat="42.8815096" lon="11.189189"><ele>314.0</ele><time>2026-04-18T08:06:13.748Z</time></trkpt><trkpt lat="42.8814574" lon="11.1890812"><ele>314.0</ele><time>2026-04-18T08:06:15.753Z</time></trkpt><trkpt lat="42.8814267" lon="11.1890025"><ele>314.0</ele><time>2026-04-18T08:06:16.75Z</time></trkpt><trkpt lat="42.8813991" lon="11.188923"><ele>314.0</ele><time>2026-04-18T08:06:17.747Z</time></trkpt><trkpt lat="42.8813158" lon="11.1887787"><ele>314.0</ele><time>2026-04-18T08:06:19.749Z</time></trkpt><trkpt lat="42.8812724" lon="11.1887066"><ele>310.2</ele><time>2026-04-18T08:06:20.746Z</time></trkpt><trkpt lat="42.8812222" lon="11.1886133"><ele>306.4</ele><time>2026-04-18T08:06:22.753Z</time></trkpt><trkpt lat="42.8811846" lon="11.1885246"><ele>302.6</ele><time>2026-04-18T08:06:24.748Z</time></trkpt><trkpt lat="42.8811409" lon="11.1884338"><ele>298.8</ele><time>2026-04-18T08:06:26.747Z</time></trkpt><trkpt lat="42.8810425" lon="11.188215"><ele>295.0</ele><time>2026-04-18T08:06:30.746Z</time></trkpt><trkpt lat="42.8810107" lon="11.1881317"><ele>292.4</ele><time>2026-04-18T08:06:32.746Z</time></trkpt><trkpt lat="42.8809581" lon="11.1880329"><ele>289.8</ele><time>2026-04-18T08:06:35.756Z</time></trkpt><trkpt lat="42.8809395" lon="11.187949"><ele>287.2</ele><time>2026-04-18T08:06:43.749Z</time></trkpt><trkpt lat="42.8808659" lon="11.1878611"><ele>284.6</ele><time>2026-04-18T08:06:46.75Z</time></trkpt><trkpt lat="42.8808167" lon="11.1877837"><ele>282.0</ele><time>2026-04-18T08:06:49.747Z</time></trkpt><trkpt lat="42.8807146" lon="11.1875482"><ele>282.0</ele><time>2026-04-18T08:06:53.752Z</time></trkpt><trkpt lat="42.8806802" lon="11.1874747"><ele>282.0</ele><time>2026-04-18T08:06:54.747Z</time></trkpt><trkpt lat="42.8806278" lon="11.1873516"><ele>282.0</ele><time>2026-04-18T08:06:56.755Z</time></trkpt><trkpt lat="42.8805798" lon="11.1872252"><ele>282.0</ele><time>2026-04-18T08:06:58.744Z</time></trkpt><trkpt lat="42.8805117" lon="11.1870819"><ele>282.0</ele><time>2026-04-18T08:07:00.749Z</time></trkpt><trkpt lat="42.8804628" lon="11.1869954"><ele>278.5</ele><time>2026-04-18T08:07:01.746Z</time></trkpt><trkpt lat="42.8804187" lon="11.1868999"><ele>275.0</ele><time>2026-04-18T08:07:02.75Z</time></trkpt><trkpt lat="42.8803782" lon="11.1868065"><ele>271.5</ele><time>2026-04-18T08:07:03.754Z</time></trkpt><trkpt lat="42.8803449" lon="11.1867247"><ele>268.0</ele><time>2026-04-18T08:07:04.751Z</time></trkpt><trkpt lat="42.8802853" lon="11.1865981"><ele>264.5</ele><time>2026-04-18T08:07:06.749Z</time></trkpt><trkpt lat="42.8802328" lon="11.1864994"><ele>261.0</ele><time>2026-04-18T08:07:08.748Z</time></trkpt><trkpt lat="42.8801452" lon="11.1863512"><ele>261.2</ele><time>2026-04-18T08:07:10.745Z</time></trkpt><trkpt lat="42.8800534" lon="11.1861808"><ele>261.40000000000003</ele><time>2026-04-18T08:07:12.749Z</time></trkpt><trkpt lat="42.8799976" lon="11.1860255"><ele>261.6</ele><time>2026-04-18T08:07:14.753Z</time></trkpt><trkpt lat="42.8799685" lon="11.1859491"><ele>261.8</ele><time>2026-04-18T08:07:15.754Z</time></trkpt><trkpt lat="42.8799338" lon="11.1858599"><ele>262.0</ele><time>2026-04-18T08:07:16.755Z</time></trkpt><trkpt lat="42.879892" lon="11.1857543"><ele>261.2</ele><time>2026-04-18T08:07:17.747Z</time></trkpt><trkpt lat="42.8798465" lon="11.1856359"><ele>260.4</ele><time>2026-04-18T08:07:18.758Z</time></trkpt><trkpt lat="42.8797913" lon="11.1855134"><ele>259.6</ele><time>2026-04-18T08:07:19.75Z</time></trkpt><trkpt lat="42.8797221" lon="11.1853844"><ele>258.8</ele><time>2026-04-18T08:07:20.746Z</time></trkpt><trkpt lat="42.8796572" lon="11.1852568"><ele>258.0</ele><time>2026-04-18T08:07:21.747Z</time></trkpt><trkpt lat="42.8796045" lon="11.1851419"><ele>258.0</ele><time>2026-04-18T08:07:22.749Z</time></trkpt><trkpt lat="42.8795555" lon="11.1850427"><ele>258.0</ele><time>2026-04-18T08:07:23.754Z</time></trkpt><trkpt lat="42.8795103" lon="11.1849483"><ele>258.0</ele><time>2026-04-18T08:07:24.753Z</time></trkpt><trkpt lat="42.8794679" lon="11.1848516"><ele>258.0</ele><time>2026-04-18T08:07:25.749Z</time></trkpt><trkpt lat="42.8794286" lon="11.1847635"><ele>258.0</ele><time>2026-04-18T08:07:26.745Z</time></trkpt><trkpt lat="42.8793574" lon="11.1846364"><ele>258.0</ele><time>2026-04-18T08:07:28.746Z</time></trkpt><trkpt lat="42.879309" lon="11.1845668"><ele>258.0</ele><time>2026-04-18T08:07:31.747Z</time></trkpt><trkpt lat="42.8792612" lon="11.1843874"><ele>258.0</ele><time>2026-04-18T08:07:36.748Z</time></trkpt><trkpt lat="42.8792146" lon="11.1843213"><ele>258.0</ele><time>2026-04-18T08:07:40.751Z</time></trkpt><trkpt lat="42.8791605" lon="11.184251"><ele>258.0</ele><time>2026-04-18T08:09:25.747Z</time></trkpt><trkpt lat="42.8790759" lon="11.1840654"><ele>258.0</ele><time>2026-04-18T08:09:31.752Z</time></trkpt><trkpt lat="42.8790424" lon="11.1839849"><ele>256.6</ele><time>2026-04-18T08:09:33.746Z</time></trkpt><trkpt lat="42.8789978" lon="11.1838874"><ele>255.20000000000002</ele><time>2026-04-18T08:09:35.756Z</time></trkpt><trkpt lat="42.8789539" lon="11.1838043"><ele>253.8</ele><time>2026-04-18T08:09:37.754Z</time></trkpt><trkpt lat="42.8789089" lon="11.1836949"><ele>252.4</ele><time>2026-04-18T08:09:40.748Z</time></trkpt><trkpt lat="42.878856" lon="11.1836267"><ele>251.0</ele><time>2026-04-18T08:13:39.743Z</time></trkpt><trkpt lat="42.8787599" lon="11.1834385"><ele>251.0</ele><time>2026-04-18T08:13:58.742Z</time></trkpt><trkpt lat="42.8787106" lon="11.1833504"><ele>251.0</ele><time>2026-04-18T08:13:59.751Z</time></trkpt><trkpt lat="42.8786674" lon="11.1832531"><ele>251.0</ele><time>2026-04-18T08:14:00.745Z</time></trkpt><trkpt lat="42.8785779" lon="11.1830095"><ele>251.0</ele><time>2026-04-18T08:14:02.745Z</time></trkpt><trkpt lat="42.8785039" lon="11.1828653"><ele>250.5</ele><time>2026-04-18T08:14:03.745Z</time></trkpt><trkpt lat="42.8784373" lon="11.1827354"><ele>250.0</ele><time>2026-04-18T08:14:04.749Z</time></trkpt><trkpt lat="42.8783779" lon="11.1826055"><ele>249.5</ele><time>2026-04-18T08:14:05.753Z</time></trkpt><trkpt lat="42.8783145" lon="11.1824681"><ele>249.0</ele><time>2026-04-18T08:14:06.745Z</time></trkpt><trkpt lat="42.878256" lon="11.1823347"><ele>248.5</ele><time>2026-04-18T08:14:07.751Z</time></trkpt><trkpt lat="42.8781955" lon="11.1821979"><ele>248.0</ele><time>2026-04-18T08:14:08.743Z</time></trkpt><trkpt lat="42.878132" lon="11.1820588"><ele>247.5</ele><time>2026-04-18T08:14:09.748Z</time></trkpt><trkpt lat="42.8780694" lon="11.1819205"><ele>247.0</ele><time>2026-04-18T08:14:10.747Z</time></trkpt><trkpt lat="42.8780141" lon="11.1817891"><ele>247.0</ele><time>2026-04-18T08:14:11.745Z</time></trkpt><trkpt lat="42.8779552" lon="11.1816707"><ele>247.0</ele><time>2026-04-18T08:14:12.748Z</time></trkpt><trkpt lat="42.8778921" lon="11.18155"><ele>247.0</ele><time>2026-04-18T08:14:13.753Z</time></trkpt><trkpt lat="42.8778267" lon="11.1814249"><ele>247.0</ele><time>2026-04-18T08:14:14.747Z</time></trkpt><trkpt lat="42.8777699" lon="11.1813136"><ele>247.0</ele><time>2026-04-18T08:14:15.745Z</time></trkpt><trkpt lat="42.8777202" lon="11.1812233"><ele>246.6</ele><time>2026-04-18T08:14:16.747Z</time></trkpt><trkpt lat="42.8776771" lon="11.1811332"><ele>246.2</ele><time>2026-04-18T08:14:17.745Z</time></trkpt><trkpt lat="42.8776416" lon="11.1810569"><ele>245.8</ele><time>2026-04-18T08:14:18.746Z</time></trkpt><trkpt lat="42.8775868" lon="11.1809016"><ele>245.4</ele><time>2026-04-18T08:14:20.747Z</time></trkpt><trkpt lat="42.8775585" lon="11.1808196"><ele>245.0</ele><time>2026-04-18T08:14:21.749Z</time></trkpt><trkpt lat="42.8774942" lon="11.1806615"><ele>242.85714285714286</ele><time>2026-04-18T08:14:23.747Z</time></trkpt><trkpt lat="42.8774561" lon="11.1805864"><ele>240.71428571428572</ele><time>2026-04-18T08:14:24.749Z</time></trkpt><trkpt lat="42.8774109" lon="11.1805139"><ele>238.57142857142856</ele><time>2026-04-18T08:14:25.746Z</time></trkpt><trkpt lat="42.8773685" lon="11.1804397"><ele>236.42857142857142</ele><time>2026-04-18T08:14:26.758Z</time></trkpt><trkpt lat="42.8773318" lon="11.1803648"><ele>234.28571428571428</ele><time>2026-04-18T08:14:27.749Z</time></trkpt><trkpt lat="42.877305" lon="11.1802782"><ele>232.1428571428571</ele><time>2026-04-18T08:14:28.747Z</time></trkpt><trkpt lat="42.877268" lon="11.1801849"><ele>229.99999999999997</ele><time>2026-04-18T08:14:29.755Z</time></trkpt><trkpt lat="42.8772275" lon="11.1800978"><ele>230.0</ele><time>2026-04-18T08:14:30.745Z</time></trkpt><trkpt lat="42.8771856" lon="11.1800131"><ele>230.0</ele><time>2026-04-18T08:14:31.745Z</time></trkpt><trkpt lat="42.877144" lon="11.1799252"><ele>230.0</ele><time>2026-04-18T08:14:32.749Z</time></trkpt><trkpt lat="42.8770792" lon="11.1797886"><ele>230.0</ele><time>2026-04-18T08:14:34.746Z</time></trkpt><trkpt lat="42.8770325" lon="11.1796615"><ele>230.0</ele><time>2026-04-18T08:14:36.752Z</time></trkpt><trkpt lat="42.8769618" lon="11.1795357"><ele>230.5</ele><time>2026-04-18T08:14:38.747Z</time></trkpt><trkpt lat="42.8768956" lon="11.1793874"><ele>231.0</ele><time>2026-04-18T08:14:40.754Z</time></trkpt><trkpt lat="42.8768554" lon="11.1792886"><ele>231.5</ele><time>2026-04-18T08:14:41.749Z</time></trkpt><trkpt lat="42.8767997" lon="11.179175"><ele>232.0</ele><time>2026-04-18T08:14:42.744Z</time></trkpt><trkpt lat="42.8767048" lon="11.1789966"><ele>232.0</ele><time>2026-04-18T08:14:44.748Z</time></trkpt><trkpt lat="42.8766708" lon="11.1789131"><ele>232.0</ele><time>2026-04-18T08:14:45.749Z</time></trkpt><trkpt lat="42.8766216" lon="11.1788124"><ele>232.0</ele><time>2026-04-18T08:14:46.755Z</time></trkpt><trkpt lat="42.8765599" lon="11.1786908"><ele>232.0</ele><time>2026-04-18T08:14:47.756Z</time></trkpt><trkpt lat="42.8764982" lon="11.1785727"><ele>232.0</ele><time>2026-04-18T08:14:48.749Z</time></trkpt><trkpt lat="42.8764442" lon="11.1784662"><ele>232.00000000000003</ele><time>2026-04-18T08:14:49.746Z</time></trkpt><trkpt lat="42.8763956" lon="11.1783725"><ele>232.0</ele><time>2026-04-18T08:14:50.746Z</time></trkpt><trkpt lat="42.8763543" lon="11.1782891"><ele>232.00000000000003</ele><time>2026-04-18T08:14:51.745Z</time></trkpt><trkpt lat="42.876316" lon="11.1782034"><ele>232.00000000000003</ele><time>2026-04-18T08:14:52.747Z</time></trkpt><trkpt lat="42.8762848" lon="11.1781171"><ele>232.0</ele><time>2026-04-18T08:14:53.754Z</time></trkpt><trkpt lat="42.8762487" lon="11.1780331"><ele>232.00000000000003</ele><time>2026-04-18T08:14:54.752Z</time></trkpt><trkpt lat="42.8762122" lon="11.1779512"><ele>232.00000000000003</ele><time>2026-04-18T08:14:55.75Z</time></trkpt><trkpt lat="42.876179" lon="11.1778677"><ele>230.39999999999998</ele><time>2026-04-18T08:14:56.747Z</time></trkpt><trkpt lat="42.8761433" lon="11.1777861"><ele>228.79999999999998</ele><time>2026-04-18T08:14:57.746Z</time></trkpt><trkpt lat="42.8760756" lon="11.1776521"><ele>227.2</ele><time>2026-04-18T08:14:59.745Z</time></trkpt><trkpt lat="42.8760114" lon="11.1775301"><ele>225.6</ele><time>2026-04-18T08:15:01.743Z</time></trkpt><trkpt lat="42.8759482" lon="11.1773855"><ele>224.0</ele><time>2026-04-18T08:15:03.745Z</time></trkpt><trkpt lat="42.8758556" lon="11.1771823"><ele>222.50000000000003</ele><time>2026-04-18T08:15:08.746Z</time></trkpt><trkpt lat="42.8758148" lon="11.1770711"><ele>221.0</ele><time>2026-04-18T08:15:11.751Z</time></trkpt><trkpt lat="42.8757769" lon="11.1769891"><ele>219.5</ele><time>2026-04-18T08:15:13.755Z</time></trkpt><trkpt lat="42.8757227" lon="11.1769086"><ele>218.0</ele><time>2026-04-18T08:15:16.754Z</time></trkpt><trkpt lat="42.8756799" lon="11.1768252"><ele>216.50000000000003</ele><time>2026-04-18T08:15:19.763Z</time></trkpt><trkpt lat="42.8756345" lon="11.1767457"><ele>215.0</ele><time>2026-04-18T08:15:22.743Z</time></trkpt><trkpt lat="42.8755917" lon="11.1766482"><ele>213.4</ele><time>2026-04-18T08:15:25.746Z</time></trkpt><trkpt lat="42.8754876" lon="11.1764275"><ele>211.8</ele><time>2026-04-18T08:15:30.746Z</time></trkpt><trkpt lat="42.8754206" lon="11.1762961"><ele>210.2</ele><time>2026-04-18T08:15:32.75Z</time></trkpt><trkpt lat="42.8753806" lon="11.1762176"><ele>208.6</ele><time>2026-04-18T08:15:33.749Z</time></trkpt><trkpt lat="42.8753409" lon="11.1761497"><ele>207.0</ele><time>2026-04-18T08:15:34.745Z</time></trkpt><trkpt lat="42.875283" lon="11.1760058"><ele>207.00000000000003</ele><time>2026-04-18T08:15:36.751Z</time></trkpt><trkpt lat="42.8752295" lon="11.1758721"><ele>207.0</ele><time>2026-04-18T08:15:38.749Z</time></trkpt><trkpt lat="42.8752021" lon="11.1757947"><ele>207.0</ele><time>2026-04-18T08:15:40.75Z</time></trkpt><trkpt lat="42.8751689" lon="11.1757209"><ele>207.0</ele><time>2026-04-18T08:15:54.749Z</time></trkpt><trkpt lat="42.8751859" lon="11.1757413"><ele>207.0</ele><time>2026-04-18T08:16:12.748Z</time></trkpt><trkpt lat="42.8752221" lon="11.1758282"><ele>207.00000000000003</ele><time>2026-04-18T08:16:13.747Z</time></trkpt><trkpt lat="42.875257" lon="11.1759322"><ele>207.0</ele><time>2026-04-18T08:16:14.748Z</time></trkpt><trkpt lat="42.8752974" lon="11.1760427"><ele>207.0</ele><time>2026-04-18T08:16:15.753Z</time></trkpt><trkpt lat="42.8753822" lon="11.1762272"><ele>207.0</ele><time>2026-04-18T08:16:17.744Z</time></trkpt><trkpt lat="42.8754266" lon="11.1763283"><ele>207.0</ele><time>2026-04-18T08:16:18.745Z</time></trkpt><trkpt lat="42.8754701" lon="11.1764223"><ele>207.0</ele><time>2026-04-18T08:16:19.747Z</time></trkpt><trkpt lat="42.8755088" lon="11.1765027"><ele>207.0</ele><time>2026-04-18T08:16:20.744Z</time></trkpt><trkpt lat="42.8755719" lon="11.1766389"><ele>207.0</ele><time>2026-04-18T08:16:22.745Z</time></trkpt><trkpt lat="42.8756277" lon="11.1767534"><ele>207.0</ele><time>2026-04-18T08:16:24.752Z</time></trkpt><trkpt lat="42.8756898" lon="11.1768613"><ele>207.0</ele><time>2026-04-18T08:16:26.746Z</time></trkpt><trkpt lat="42.8756386" lon="11.1767752"><ele>207.0</ele><time>2026-04-18T08:18:27.746Z</time></trkpt><trkpt lat="42.8755628" lon="11.1765965"><ele>207.0</ele><time>2026-04-18T08:18:33.747Z</time></trkpt><trkpt lat="42.8755313" lon="11.1765006"><ele>207.0</ele><time>2026-04-18T08:18:36.744Z</time></trkpt><trkpt lat="42.8754838" lon="11.1764338"><ele>207.0</ele><time>2026-04-18T08:18:38.754Z</time></trkpt><trkpt lat="42.8754319" lon="11.1762928"><ele>207.0</ele><time>2026-04-18T08:18:40.743Z</time></trkpt><trkpt lat="42.8753927" lon="11.17622"><ele>207.0</ele><time>2026-04-18T08:18:41.747Z</time></trkpt><trkpt lat="42.8753607" lon="11.1761457"><ele>207.0</ele><time>2026-04-18T08:18:42.745Z</time></trkpt><trkpt lat="42.8753243" lon="11.176054"><ele>207.0</ele><time>2026-04-18T08:18:43.745Z</time></trkpt><trkpt lat="42.8752821" lon="11.1759566"><ele>207.0</ele><time>2026-04-18T08:18:44.745Z</time></trkpt><trkpt lat="42.8752438" lon="11.1758683"><ele>207.0</ele><time>2026-04-18T08:18:45.747Z</time></trkpt><trkpt lat="42.8752073" lon="11.1757747"><ele>207.0</ele><time>2026-04-18T08:18:46.748Z</time></trkpt><trkpt lat="42.8751641" lon="11.1756797"><ele>207.0</ele><time>2026-04-18T08:18:47.742Z</time></trkpt><trkpt lat="42.8751183" lon="11.1755858"><ele>207.0</ele><time>2026-04-18T08:18:48.744Z</time></trkpt><trkpt lat="42.8750201" lon="11.175384"><ele>206.0</ele><time>2026-04-18T08:18:50.747Z</time></trkpt><trkpt lat="42.8749618" lon="11.175266"><ele>205.0</ele><time>2026-04-18T08:18:51.744Z</time></trkpt><trkpt lat="42.8749006" lon="11.1751465"><ele>204.0</ele><time>2026-04-18T08:18:52.75Z</time></trkpt><trkpt lat="42.8748489" lon="11.1750433"><ele>203.0</ele><time>2026-04-18T08:18:53.744Z</time></trkpt><trkpt lat="42.8747978" lon="11.1749413"><ele>202.0</ele><time>2026-04-18T08:18:55.747Z</time></trkpt><trkpt lat="42.8747483" lon="11.1748866"><ele>200.0</ele><time>2026-04-18T08:19:00.746Z</time></trkpt><trkpt lat="42.8747008" lon="11.174781"><ele>198.0</ele><time>2026-04-18T08:19:02.745Z</time></trkpt><trkpt lat="42.8746639" lon="11.1747111"><ele>196.0</ele><time>2026-04-18T08:19:03.75Z</time></trkpt><trkpt lat="42.8746028" lon="11.1745941"><ele>194.0</ele><time>2026-04-18T08:19:05.746Z</time></trkpt><trkpt lat="42.8745503" lon="11.1744667"><ele>192.0</ele><time>2026-04-18T08:19:07.746Z</time></trkpt><trkpt lat="42.8745182" lon="11.1743413"><ele>192.0</ele><time>2026-04-18T08:19:09.748Z</time></trkpt><trkpt lat="42.8744136" lon="11.1740943"><ele>192.0</ele><time>2026-04-18T08:19:13.765Z</time></trkpt><trkpt lat="42.8743474" lon="11.1739639"><ele>192.0</ele><time>2026-04-18T08:19:15.745Z</time></trkpt><trkpt lat="42.8743083" lon="11.1738895"><ele>192.0</ele><time>2026-04-18T08:19:16.746Z</time></trkpt><trkpt lat="42.8742596" lon="11.1738024"><ele>190.0</ele><time>2026-04-18T08:19:17.755Z</time></trkpt><trkpt lat="42.874213" lon="11.1737141"><ele>188.0</ele><time>2026-04-18T08:19:18.744Z</time></trkpt><trkpt lat="42.8741714" lon="11.1736377"><ele>186.0</ele><time>2026-04-18T08:19:19.748Z</time></trkpt><trkpt lat="42.8741217" lon="11.1735246"><ele>184.0</ele><time>2026-04-18T08:19:21.755Z</time></trkpt><trkpt lat="42.8740815" lon="11.1734418"><ele>182.0</ele><time>2026-04-18T08:20:19.747Z</time></trkpt><trkpt lat="42.874002" lon="11.1732513"><ele>182.0</ele><time>2026-04-18T08:20:27.746Z</time></trkpt><trkpt lat="42.8739638" lon="11.1731645"><ele>182.0</ele><time>2026-04-18T08:20:30.752Z</time></trkpt><trkpt lat="42.8739851" lon="11.1732587"><ele>182.0</ele><time>2026-04-18T08:42:21.741Z</time></trkpt><trkpt lat="42.8741517" lon="11.1735868"><ele>182.0</ele><time>2026-04-18T08:49:58.747Z</time></trkpt><trkpt lat="42.8742417" lon="11.173778"><ele>183.66666666666666</ele><time>2026-04-18T08:50:02.739Z</time></trkpt><trkpt lat="42.8742815" lon="11.1738703"><ele>185.33333333333331</ele><time>2026-04-18T08:50:03.738Z</time></trkpt><trkpt lat="42.8743244" lon="11.1739792"><ele>187.0</ele><time>2026-04-18T08:50:04.743Z</time></trkpt><trkpt lat="42.874368" lon="11.1740923"><ele>188.66666666666666</ele><time>2026-04-18T08:50:05.742Z</time></trkpt><trkpt lat="42.8744189" lon="11.1742038"><ele>190.33333333333334</ele><time>2026-04-18T08:50:06.737Z</time></trkpt><trkpt lat="42.8744688" lon="11.1743003"><ele>192.0</ele><time>2026-04-18T08:50:07.733Z</time></trkpt><trkpt lat="42.874513" lon="11.1743758"><ele>192.0</ele><time>2026-04-18T08:50:08.74Z</time></trkpt><trkpt lat="42.8745566" lon="11.1744556"><ele>192.0</ele><time>2026-04-18T08:50:09.741Z</time></trkpt><trkpt lat="42.8745925" lon="11.1745365"><ele>192.0</ele><time>2026-04-18T08:50:10.734Z</time></trkpt><trkpt lat="42.8746308" lon="11.1746642"><ele>192.0</ele><time>2026-04-18T08:50:12.74Z</time></trkpt><trkpt lat="42.8746636" lon="11.1747504"><ele>192.0</ele><time>2026-04-18T08:50:24.735Z</time></trkpt><trkpt lat="42.8747939" lon="11.1749666"><ele>193.66666666666666</ele><time>2026-04-18T08:50:28.737Z</time></trkpt><trkpt lat="42.8748343" lon="11.1750605"><ele>195.33333333333331</ele><time>2026-04-18T08:50:29.747Z</time></trkpt><trkpt lat="42.8748863" lon="11.1751706"><ele>197.0</ele><time>2026-04-18T08:50:30.735Z</time></trkpt><trkpt lat="42.8749432" lon="11.1752768"><ele>198.66666666666666</ele><time>2026-04-18T08:50:31.733Z</time></trkpt><trkpt lat="42.8749877" lon="11.1753685"><ele>200.33333333333331</ele><time>2026-04-18T08:50:32.735Z</time></trkpt><trkpt lat="42.8750285" lon="11.1754528"><ele>202.0</ele><time>2026-04-18T08:50:33.743Z</time></trkpt><trkpt lat="42.875064" lon="11.175525"><ele>201.99999999999997</ele><time>2026-04-18T08:50:34.739Z</time></trkpt><trkpt lat="42.8751023" lon="11.1756045"><ele>202.0</ele><time>2026-04-18T08:50:35.737Z</time></trkpt><trkpt lat="42.8751409" lon="11.1756772"><ele>202.0</ele><time>2026-04-18T08:50:36.736Z</time></trkpt><trkpt lat="42.8751871" lon="11.1757527"><ele>202.0</ele><time>2026-04-18T08:50:37.738Z</time></trkpt><trkpt lat="42.8752226" lon="11.175828"><ele>201.99999999999997</ele><time>2026-04-18T08:50:38.736Z</time></trkpt><trkpt lat="42.8752787" lon="11.1759725"><ele>202.0</ele><time>2026-04-18T08:50:40.734Z</time></trkpt><trkpt lat="42.8753171" lon="11.1760742"><ele>203.0</ele><time>2026-04-18T08:51:00.742Z</time></trkpt><trkpt lat="42.8754257" lon="11.1763107"><ele>204.0</ele><time>2026-04-18T08:51:03.737Z</time></trkpt><trkpt lat="42.8754596" lon="11.1764154"><ele>205.0</ele><time>2026-04-18T08:51:04.737Z</time></trkpt><trkpt lat="42.8754988" lon="11.1765053"><ele>206.0</ele><time>2026-04-18T08:51:05.734Z</time></trkpt><trkpt lat="42.875541" lon="11.1765876"><ele>207.0</ele><time>2026-04-18T08:51:06.741Z</time></trkpt><trkpt lat="42.875583" lon="11.1766649"><ele>208.6</ele><time>2026-04-18T08:51:07.737Z</time></trkpt><trkpt lat="42.875624" lon="11.1767777"><ele>210.2</ele><time>2026-04-18T08:51:09.733Z</time></trkpt><trkpt lat="42.8756871" lon="11.1768993"><ele>211.8</ele><time>2026-04-18T08:51:11.735Z</time></trkpt><trkpt lat="42.8757557" lon="11.1770291"><ele>213.4</ele><time>2026-04-18T08:51:13.739Z</time></trkpt><trkpt lat="42.8758281" lon="11.1771717"><ele>215.0</ele><time>2026-04-18T08:51:15.738Z</time></trkpt><trkpt lat="42.8758959" lon="11.1772939"><ele>217.25</ele><time>2026-04-18T08:51:17.737Z</time></trkpt><trkpt lat="42.8759489" lon="11.1774157"><ele>219.5</ele><time>2026-04-18T08:51:19.732Z</time></trkpt><trkpt lat="42.8760028" lon="11.177528"><ele>221.75</ele><time>2026-04-18T08:51:31.735Z</time></trkpt><trkpt lat="42.8761331" lon="11.1777874"><ele>224.0</ele><time>2026-04-18T08:51:35.734Z</time></trkpt><trkpt lat="42.8761736" lon="11.1778709"><ele>224.00000000000003</ele><time>2026-04-18T08:51:36.741Z</time></trkpt><trkpt lat="42.8762238" lon="11.1779636"><ele>224.0</ele><time>2026-04-18T08:51:37.734Z</time></trkpt><trkpt lat="42.8762715" lon="11.1780742"><ele>224.0</ele><time>2026-04-18T08:51:38.739Z</time></trkpt><trkpt lat="42.8763115" lon="11.1781753"><ele>224.0</ele><time>2026-04-18T08:51:39.737Z</time></trkpt><trkpt lat="42.8763457" lon="11.1782691"><ele>224.00000000000003</ele><time>2026-04-18T08:51:40.744Z</time></trkpt><trkpt lat="42.8763847" lon="11.1783637"><ele>224.0</ele><time>2026-04-18T08:51:41.736Z</time></trkpt><trkpt lat="42.8764296" lon="11.1784468"><ele>225.2</ele><time>2026-04-18T08:51:42.737Z</time></trkpt><trkpt lat="42.8764726" lon="11.178536"><ele>226.39999999999998</ele><time>2026-04-18T08:51:43.744Z</time></trkpt><trkpt lat="42.8765216" lon="11.1786243"><ele>227.6</ele><time>2026-04-18T08:51:44.738Z</time></trkpt><trkpt lat="42.8765727" lon="11.1787105"><ele>228.8</ele><time>2026-04-18T08:51:45.733Z</time></trkpt><trkpt lat="42.8766429" lon="11.1788881"><ele>230.0</ele><time>2026-04-18T08:51:47.742Z</time></trkpt><trkpt lat="42.8767113" lon="11.1790477"><ele>228.33333333333334</ele><time>2026-04-18T08:51:49.742Z</time></trkpt><trkpt lat="42.8767975" lon="11.1792127"><ele>226.66666666666669</ele><time>2026-04-18T08:51:51.737Z</time></trkpt><trkpt lat="42.8769452" lon="11.1795543"><ele>225.0</ele><time>2026-04-18T08:51:55.734Z</time></trkpt><trkpt lat="42.8770058" lon="11.1797167"><ele>225.0</ele><time>2026-04-18T08:51:57.74Z</time></trkpt><trkpt lat="42.8769309" lon="11.1797134"><ele>225.0</ele><time>2026-04-18T08:53:33.743Z</time></trkpt><trkpt lat="42.8767468" lon="11.1796245"><ele>225.0</ele><time>2026-04-18T08:53:39.739Z</time></trkpt><trkpt lat="42.8766938" lon="11.179434"><ele>225.0</ele><time>2026-04-18T08:53:42.737Z</time></trkpt><trkpt lat="42.8767359" lon="11.1793124"><ele>225.0</ele><time>2026-04-18T08:53:44.737Z</time></trkpt><trkpt lat="42.8767873" lon="11.179258"><ele>225.0</ele><time>2026-04-18T08:53:46.737Z</time></trkpt><trkpt lat="42.8768647" lon="11.1793301"><ele>225.0</ele><time>2026-04-18T08:54:08.74Z</time></trkpt><trkpt lat="42.8769447" lon="11.1795983"><ele>225.0</ele><time>2026-04-18T08:54:11.734Z</time></trkpt><trkpt lat="42.8769675" lon="11.1796968"><ele>225.0</ele><time>2026-04-18T08:54:12.736Z</time></trkpt><trkpt lat="42.8769488" lon="11.1798057"><ele>226.0</ele><time>2026-04-18T08:54:14.743Z</time></trkpt><trkpt lat="42.8768883" lon="11.1798935"><ele>227.0</ele><time>2026-04-18T08:54:16.733Z</time></trkpt><trkpt lat="42.8768327" lon="11.1799971"><ele>228.0</ele><time>2026-04-18T08:54:18.742Z</time></trkpt><trkpt lat="42.8767841" lon="11.1800635"><ele>229.0</ele><time>2026-04-18T08:54:20.734Z</time></trkpt><trkpt lat="42.8767123" lon="11.1800872"><ele>230.0</ele><time>2026-04-18T08:54:23.736Z</time></trkpt><trkpt lat="42.8765139" lon="11.1801242"><ele>230.75</ele><time>2026-04-18T08:54:26.74Z</time></trkpt><trkpt lat="42.8764188" lon="11.1801298"><ele>231.5</ele><time>2026-04-18T08:54:27.738Z</time></trkpt><trkpt lat="42.8763153" lon="11.1801265"><ele>232.25</ele><time>2026-04-18T08:54:28.74Z</time></trkpt><trkpt lat="42.8762084" lon="11.1801275"><ele>233.0</ele><time>2026-04-18T08:54:29.736Z</time></trkpt><trkpt lat="42.8759512" lon="11.1801377"><ele>231.75</ele><time>2026-04-18T08:54:31.732Z</time></trkpt><trkpt lat="42.8758087" lon="11.1801442"><ele>230.5</ele><time>2026-04-18T08:54:32.741Z</time></trkpt><trkpt lat="42.8756804" lon="11.1801398"><ele>229.25</ele><time>2026-04-18T08:54:33.74Z</time></trkpt><trkpt lat="42.8755706" lon="11.1801384"><ele>228.0</ele><time>2026-04-18T08:54:34.738Z</time></trkpt><trkpt lat="42.8754798" lon="11.1801543"><ele>228.0</ele><time>2026-04-18T08:54:35.734Z</time></trkpt><trkpt lat="42.8753908" lon="11.1801843"><ele>228.0</ele><time>2026-04-18T08:54:36.739Z</time></trkpt><trkpt lat="42.8753213" lon="11.1802411"><ele>228.0</ele><time>2026-04-18T08:54:37.735Z</time></trkpt><trkpt lat="42.8752576" lon="11.1802841"><ele>228.0</ele><time>2026-04-18T08:54:38.743Z</time></trkpt><trkpt lat="42.8751556" lon="11.1802954"><ele>228.0</ele><time>2026-04-18T08:54:40.735Z</time></trkpt><trkpt lat="42.875035" lon="11.1803202"><ele>226.83333333333334</ele><time>2026-04-18T08:54:42.739Z</time></trkpt><trkpt lat="42.8749727" lon="11.1803389"><ele>225.66666666666669</ele><time>2026-04-18T08:54:43.742Z</time></trkpt><trkpt lat="42.8749065" lon="11.1803617"><ele>224.5</ele><time>2026-04-18T08:54:44.737Z</time></trkpt><trkpt lat="42.8748305" lon="11.1803741"><ele>223.33333333333334</ele><time>2026-04-18T08:54:45.737Z</time></trkpt><trkpt lat="42.8747422" lon="11.1803758"><ele>222.16666666666669</ele><time>2026-04-18T08:54:46.739Z</time></trkpt><trkpt lat="42.8746493" lon="11.1803593"><ele>221.0</ele><time>2026-04-18T08:54:47.739Z</time></trkpt><trkpt lat="42.874573" lon="11.180344"><ele>221.0</ele><time>2026-04-18T08:54:48.734Z</time></trkpt><trkpt lat="42.8744954" lon="11.180325"><ele>221.00000000000003</ele><time>2026-04-18T08:54:49.736Z</time></trkpt><trkpt lat="42.8744069" lon="11.1803225"><ele>221.00000000000003</ele><time>2026-04-18T08:54:50.741Z</time></trkpt><trkpt lat="42.8742205" lon="11.1803448"><ele>221.0</ele><time>2026-04-18T08:54:52.736Z</time></trkpt><trkpt lat="42.8741281" lon="11.1803544"><ele>221.0</ele><time>2026-04-18T08:54:53.734Z</time></trkpt><trkpt lat="42.8740382" lon="11.180367"><ele>219.83333333333334</ele><time>2026-04-18T08:54:54.73Z</time></trkpt><trkpt lat="42.8739484" lon="11.1803818"><ele>218.66666666666669</ele><time>2026-04-18T08:54:55.735Z</time></trkpt><trkpt lat="42.8738597" lon="11.1803943"><ele>217.5</ele><time>2026-04-18T08:54:56.734Z</time></trkpt><trkpt lat="42.8737813" lon="11.1804095"><ele>216.33333333333331</ele><time>2026-04-18T08:54:57.732Z</time></trkpt><trkpt lat="42.873706" lon="11.1804386"><ele>215.16666666666666</ele><time>2026-04-18T08:54:58.746Z</time></trkpt><trkpt lat="42.873642" lon="11.1804798"><ele>214.0</ele><time>2026-04-18T08:54:59.737Z</time></trkpt><trkpt lat="42.8735873" lon="11.1805368"><ele>214.0</ele><time>2026-04-18T08:55:00.742Z</time></trkpt><trkpt lat="42.8735438" lon="11.1806567"><ele>213.99999999999997</ele><time>2026-04-18T08:55:02.741Z</time></trkpt><trkpt lat="42.8735302" lon="11.1807668"><ele>213.99999999999997</ele><time>2026-04-18T08:55:09.737Z</time></trkpt><trkpt lat="42.8734681" lon="11.1808448"><ele>214.0</ele><time>2026-04-18T08:55:14.743Z</time></trkpt><trkpt lat="42.8733516" lon="11.1810125"><ele>214.0</ele><time>2026-04-18T08:55:18.738Z</time></trkpt><trkpt lat="42.873286" lon="11.1810845"><ele>212.16666666666666</ele><time>2026-04-18T08:55:20.746Z</time></trkpt><trkpt lat="42.8731987" lon="11.1811992"><ele>210.33333333333331</ele><time>2026-04-18T08:55:22.743Z</time></trkpt><trkpt lat="42.8731579" lon="11.18127"><ele>208.5</ele><time>2026-04-18T08:55:23.732Z</time></trkpt><trkpt lat="42.8731185" lon="11.1813467"><ele>206.66666666666669</ele><time>2026-04-18T08:55:24.735Z</time></trkpt><trkpt lat="42.8730762" lon="11.1814349"><ele>204.83333333333334</ele><time>2026-04-18T08:55:25.739Z</time></trkpt><trkpt lat="42.8730291" lon="11.1815215"><ele>203.0</ele><time>2026-04-18T08:55:26.741Z</time></trkpt><trkpt lat="42.8729822" lon="11.1815963"><ele>202.83333333333334</ele><time>2026-04-18T08:55:27.741Z</time></trkpt><trkpt lat="42.8729232" lon="11.1816543"><ele>202.66666666666669</ele><time>2026-04-18T08:55:28.735Z</time></trkpt><trkpt lat="42.8728095" lon="11.1816605"><ele>202.5</ele><time>2026-04-18T08:55:30.744Z</time></trkpt><trkpt lat="42.8727455" lon="11.1816491"><ele>202.33333333333331</ele><time>2026-04-18T08:55:31.747Z</time></trkpt><trkpt lat="42.8726616" lon="11.1816123"><ele>202.16666666666666</ele><time>2026-04-18T08:55:33.737Z</time></trkpt><trkpt lat="42.8726196" lon="11.1815341"><ele>202.0</ele><time>2026-04-18T08:55:37.73Z</time></trkpt><trkpt lat="42.8725683" lon="11.1812916"><ele>201.2</ele><time>2026-04-18T08:55:44.734Z</time></trkpt><trkpt lat="42.8725345" lon="11.1812046"><ele>200.39999999999998</ele><time>2026-04-18T08:55:45.737Z</time></trkpt><trkpt lat="42.8724903" lon="11.181102"><ele>199.60000000000002</ele><time>2026-04-18T08:55:46.74Z</time></trkpt><trkpt lat="42.8724383" lon="11.1809612"><ele>198.8</ele><time>2026-04-18T08:55:47.743Z</time></trkpt><trkpt lat="42.8723784" lon="11.1808066"><ele>198.0</ele><time>2026-04-18T08:55:48.739Z</time></trkpt><trkpt lat="42.8723119" lon="11.1806369"><ele>198.0</ele><time>2026-04-18T08:55:49.74Z</time></trkpt><trkpt lat="42.8722409" lon="11.180457"><ele>198.0</ele><time>2026-04-18T08:55:50.736Z</time></trkpt><trkpt lat="42.8721658" lon="11.1802605"><ele>198.0</ele><time>2026-04-18T08:55:51.739Z</time></trkpt><trkpt lat="42.8721115" lon="11.1800479"><ele>198.0</ele><time>2026-04-18T08:55:52.733Z</time></trkpt><trkpt lat="42.872086" lon="11.179863"><ele>198.0</ele><time>2026-04-18T08:55:53.741Z</time></trkpt><trkpt lat="42.8720931" lon="11.1797001"><ele>198.0</ele><time>2026-04-18T08:55:54.739Z</time></trkpt><trkpt lat="42.8721536" lon="11.1795529"><ele>198.0</ele><time>2026-04-18T08:55:55.745Z</time></trkpt><trkpt lat="42.8722188" lon="11.1793991"><ele>195.66666666666666</ele><time>2026-04-18T08:55:56.737Z</time></trkpt><trkpt lat="42.8723195" lon="11.1792475"><ele>193.33333333333331</ele><time>2026-04-18T08:55:57.735Z</time></trkpt><trkpt lat="42.8724438" lon="11.1791089"><ele>191.0</ele><time>2026-04-18T08:55:58.738Z</time></trkpt><trkpt lat="42.8727321" lon="11.1788414"><ele>188.25</ele><time>2026-04-18T08:56:00.739Z</time></trkpt><trkpt lat="42.8728712" lon="11.1787413"><ele>185.5</ele><time>2026-04-18T08:56:01.731Z</time></trkpt><trkpt lat="42.8729986" lon="11.1786607"><ele>182.75</ele><time>2026-04-18T08:56:02.737Z</time></trkpt><trkpt lat="42.8731183" lon="11.1785775"><ele>180.0</ele><time>2026-04-18T08:56:03.741Z</time></trkpt><trkpt lat="42.8732068" lon="11.1784623"><ele>180.0</ele><time>2026-04-18T08:56:04.743Z</time></trkpt><trkpt lat="42.873276" lon="11.1783"><ele>180.0</ele><time>2026-04-18T08:56:05.741Z</time></trkpt><trkpt lat="42.8733209" lon="11.1780953"><ele>180.0</ele><time>2026-04-18T08:56:06.735Z</time></trkpt><trkpt lat="42.8732978" lon="11.1778683"><ele>180.66666666666666</ele><time>2026-04-18T08:56:07.757Z</time></trkpt><trkpt lat="42.8732389" lon="11.1776574"><ele>181.33333333333331</ele><time>2026-04-18T08:56:08.739Z</time></trkpt><trkpt lat="42.8731373" lon="11.1774599"><ele>182.0</ele><time>2026-04-18T08:56:09.728Z</time></trkpt><trkpt lat="42.872994" lon="11.1772615"><ele>182.0</ele><time>2026-04-18T08:56:10.739Z</time></trkpt><trkpt lat="42.872839" lon="11.1770347"><ele>182.0</ele><time>2026-04-18T08:56:11.743Z</time></trkpt><trkpt lat="42.8727051" lon="11.1768027"><ele>182.0</ele><time>2026-04-18T08:56:12.742Z</time></trkpt><trkpt lat="42.8725844" lon="11.1765477"><ele>179.33333333333331</ele><time>2026-04-18T08:56:13.732Z</time></trkpt><trkpt lat="42.8724674" lon="11.1763124"><ele>176.66666666666666</ele><time>2026-04-18T08:56:14.735Z</time></trkpt><trkpt lat="42.8723678" lon="11.1761104"><ele>174.0</ele><time>2026-04-18T08:56:15.737Z</time></trkpt><trkpt lat="42.8722749" lon="11.1759186"><ele>174.0</ele><time>2026-04-18T08:56:16.74Z</time></trkpt><trkpt lat="42.8721678" lon="11.1757313"><ele>174.0</ele><time>2026-04-18T08:56:17.737Z</time></trkpt><trkpt lat="42.8720447" lon="11.1755412"><ele>174.0</ele><time>2026-04-18T08:56:18.74Z</time></trkpt><trkpt lat="42.8719285" lon="11.17536"><ele>173.66666666666666</ele><time>2026-04-18T08:56:19.736Z</time></trkpt><trkpt lat="42.8717387" lon="11.1750163"><ele>173.33333333333331</ele><time>2026-04-18T08:56:21.739Z</time></trkpt><trkpt lat="42.8716743" lon="11.1748641"><ele>173.0</ele><time>2026-04-18T08:56:22.745Z</time></trkpt><trkpt lat="42.8716133" lon="11.1747467"><ele>173.0</ele><time>2026-04-18T08:56:23.737Z</time></trkpt><trkpt lat="42.8715516" lon="11.1746362"><ele>173.0</ele><time>2026-04-18T08:56:24.741Z</time></trkpt><trkpt lat="42.8714872" lon="11.1745309"><ele>173.0</ele><time>2026-04-18T08:56:25.734Z</time></trkpt><trkpt lat="42.871419" lon="11.1744101"><ele>173.0</ele><time>2026-04-18T08:56:26.743Z</time></trkpt><trkpt lat="42.8713511" lon="11.1742739"><ele>173.0</ele><time>2026-04-18T08:56:27.736Z</time></trkpt><trkpt lat="42.8712958" lon="11.1741118"><ele>172.66666666666666</ele><time>2026-04-18T08:56:28.736Z</time></trkpt><trkpt lat="42.8712607" lon="11.1739326"><ele>172.33333333333334</ele><time>2026-04-18T08:56:29.73Z</time></trkpt><trkpt lat="42.8712436" lon="11.173731"><ele>172.0</ele><time>2026-04-18T08:56:30.73Z</time></trkpt><trkpt lat="42.8712643" lon="11.1734925"><ele>172.0</ele><time>2026-04-18T08:56:31.738Z</time></trkpt><trkpt lat="42.8712801" lon="11.1732152"><ele>172.0</ele><time>2026-04-18T08:56:32.737Z</time></trkpt><trkpt lat="42.8712992" lon="11.1729577"><ele>172.0</ele><time>2026-04-18T08:56:33.728Z</time></trkpt><trkpt lat="42.8713371" lon="11.1727103"><ele>169.66666666666669</ele><time>2026-04-18T08:56:34.736Z</time></trkpt><trkpt lat="42.8713683" lon="11.1725009"><ele>167.33333333333334</ele><time>2026-04-18T08:56:35.736Z</time></trkpt><trkpt lat="42.8714149" lon="11.1723108"><ele>165.0</ele><time>2026-04-18T08:56:36.733Z</time></trkpt><trkpt lat="42.8714377" lon="11.1721098"><ele>162.66666666666666</ele><time>2026-04-18T08:56:37.74Z</time></trkpt><trkpt lat="42.8714336" lon="11.1718923"><ele>160.33333333333331</ele><time>2026-04-18T08:56:38.732Z</time></trkpt><trkpt lat="42.8714053" lon="11.1716492"><ele>158.0</ele><time>2026-04-18T08:56:39.746Z</time></trkpt><trkpt lat="42.8713377" lon="11.1714117"><ele>153.5</ele><time>2026-04-18T08:56:40.738Z</time></trkpt><trkpt lat="42.8711546" lon="11.1710338"><ele>149.0</ele><time>2026-04-18T08:56:42.732Z</time></trkpt><trkpt lat="42.8710462" lon="11.1708953"><ele>149.0</ele><time>2026-04-18T08:56:43.743Z</time></trkpt><trkpt lat="42.8709339" lon="11.1707702"><ele>149.0</ele><time>2026-04-18T08:56:44.732Z</time></trkpt><trkpt lat="42.8708311" lon="11.1706585"><ele>149.0</ele><time>2026-04-18T08:56:45.733Z</time></trkpt><trkpt lat="42.870744" lon="11.1705368"><ele>149.0</ele><time>2026-04-18T08:56:46.735Z</time></trkpt><trkpt lat="42.8706571" lon="11.1704117"><ele>148.5</ele><time>2026-04-18T08:56:47.733Z</time></trkpt><trkpt lat="42.8705763" lon="11.1703062"><ele>148.0</ele><time>2026-04-18T08:56:48.731Z</time></trkpt><trkpt lat="42.8704925" lon="11.1702016"><ele>147.5</ele><time>2026-04-18T08:56:49.74Z</time></trkpt><trkpt lat="42.8704073" lon="11.1700988"><ele>147.0</ele><time>2026-04-18T08:56:50.739Z</time></trkpt><trkpt lat="42.8703161" lon="11.1699954"><ele>147.0</ele><time>2026-04-18T08:56:51.738Z</time></trkpt><trkpt lat="42.8702181" lon="11.1698861"><ele>147.0</ele><time>2026-04-18T08:56:52.739Z</time></trkpt><trkpt lat="42.8701257" lon="11.1697849"><ele>147.0</ele><time>2026-04-18T08:56:53.735Z</time></trkpt><trkpt lat="42.8700383" lon="11.169681"><ele>147.0</ele><time>2026-04-18T08:56:54.739Z</time></trkpt><trkpt lat="42.8699576" lon="11.169578"><ele>146.2</ele><time>2026-04-18T08:56:55.737Z</time></trkpt><trkpt lat="42.8698825" lon="11.1694709"><ele>145.39999999999998</ele><time>2026-04-18T08:56:56.733Z</time></trkpt><trkpt lat="42.8698062" lon="11.1693675"><ele>144.60000000000002</ele><time>2026-04-18T08:56:57.735Z</time></trkpt><trkpt lat="42.8697261" lon="11.1692651"><ele>143.8</ele><time>2026-04-18T08:56:58.733Z</time></trkpt><trkpt lat="42.8696532" lon="11.1691623"><ele>143.0</ele><time>2026-04-18T08:56:59.736Z</time></trkpt><trkpt lat="42.8695872" lon="11.1690716"><ele>141.20000000000002</ele><time>2026-04-18T08:57:00.736Z</time></trkpt><trkpt lat="42.8695237" lon="11.1689827"><ele>139.4</ele><time>2026-04-18T08:57:01.74Z</time></trkpt><trkpt lat="42.869439" lon="11.1688226"><ele>137.60000000000002</ele><time>2026-04-18T08:57:03.73Z</time></trkpt><trkpt lat="42.869403" lon="11.1686774"><ele>135.8</ele><time>2026-04-18T08:57:05.731Z</time></trkpt><trkpt lat="42.8693805" lon="11.1685784"><ele>134.0</ele><time>2026-04-18T08:57:07.733Z</time></trkpt><trkpt lat="42.8693632" lon="11.1684587"><ele>134.0</ele><time>2026-04-18T08:57:10.74Z</time></trkpt><trkpt lat="42.8693523" lon="11.1683241"><ele>134.0</ele><time>2026-04-18T08:57:12.733Z</time></trkpt><trkpt lat="42.8693507" lon="11.1682261"><ele>134.0</ele><time>2026-04-18T08:57:14.738Z</time></trkpt><trkpt lat="42.8693402" lon="11.1681341"><ele>134.0</ele><time>2026-04-18T08:57:35.731Z</time></trkpt><trkpt lat="42.8693008" lon="11.167907"><ele>134.0</ele><time>2026-04-18T08:57:38.731Z</time></trkpt><trkpt lat="42.8692871" lon="11.1677989"><ele>134.2</ele><time>2026-04-18T08:57:39.738Z</time></trkpt><trkpt lat="42.8692801" lon="11.1676789"><ele>134.4</ele><time>2026-04-18T08:57:40.752Z</time></trkpt><trkpt lat="42.8692682" lon="11.1675503"><ele>134.6</ele><time>2026-04-18T08:57:41.734Z</time></trkpt><trkpt lat="42.8692471" lon="11.1674028"><ele>134.8</ele><time>2026-04-18T08:57:42.733Z</time></trkpt><trkpt lat="42.8692086" lon="11.1672491"><ele>135.0</ele><time>2026-04-18T08:57:43.732Z</time></trkpt><trkpt lat="42.8691578" lon="11.1670963"><ele>135.0</ele><time>2026-04-18T08:57:44.731Z</time></trkpt><trkpt lat="42.8690958" lon="11.1669411"><ele>135.0</ele><time>2026-04-18T08:57:45.733Z</time></trkpt><trkpt lat="42.8690294" lon="11.1667767"><ele>135.0</ele><time>2026-04-18T08:57:46.733Z</time></trkpt><trkpt lat="42.8689621" lon="11.1666081"><ele>135.0</ele><time>2026-04-18T08:57:47.727Z</time></trkpt><trkpt lat="42.8688847" lon="11.1664644"><ele>132.5</ele><time>2026-04-18T08:57:48.734Z</time></trkpt><trkpt lat="42.868799" lon="11.1663446"><ele>130.0</ele><time>2026-04-18T08:57:49.742Z</time></trkpt><trkpt lat="42.8687059" lon="11.1662326"><ele>127.5</ele><time>2026-04-18T08:57:50.735Z</time></trkpt><trkpt lat="42.8686085" lon="11.1661184"><ele>125.0</ele><time>2026-04-18T08:57:51.735Z</time></trkpt><trkpt lat="42.8685082" lon="11.1660003"><ele>124.33333333333333</ele><time>2026-04-18T08:57:52.74Z</time></trkpt><trkpt lat="42.8684029" lon="11.1658744"><ele>123.66666666666666</ele><time>2026-04-18T08:57:53.733Z</time></trkpt><trkpt lat="42.8682864" lon="11.1657286"><ele>123.0</ele><time>2026-04-18T08:57:54.734Z</time></trkpt><trkpt lat="42.8681667" lon="11.1655471"><ele>123.0</ele><time>2026-04-18T08:57:55.734Z</time></trkpt><trkpt lat="42.868052" lon="11.1653921"><ele>123.0</ele><time>2026-04-18T08:57:56.736Z</time></trkpt><trkpt lat="42.8678763" lon="11.1651368"><ele>123.0</ele><time>2026-04-18T08:57:58.739Z</time></trkpt><trkpt lat="42.8677902" lon="11.1650292"><ele>123.0</ele><time>2026-04-18T08:57:59.734Z</time></trkpt><trkpt lat="42.8676995" lon="11.1649273"><ele>123.0</ele><time>2026-04-18T08:58:00.734Z</time></trkpt><trkpt lat="42.8675963" lon="11.1648303"><ele>123.0</ele><time>2026-04-18T08:58:01.745Z</time></trkpt><trkpt lat="42.8674823" lon="11.1647324"><ele>123.0</ele><time>2026-04-18T08:58:02.74Z</time></trkpt><trkpt lat="42.8673532" lon="11.1646414"><ele>123.0</ele><time>2026-04-18T08:58:03.732Z</time></trkpt><trkpt lat="42.8672334" lon="11.1645762"><ele>123.0</ele><time>2026-04-18T08:58:04.737Z</time></trkpt><trkpt lat="42.8671146" lon="11.1645197"><ele>123.0</ele><time>2026-04-18T08:58:05.738Z</time></trkpt><trkpt lat="42.8669871" lon="11.1644819"><ele>123.0</ele><time>2026-04-18T08:58:06.734Z</time></trkpt><trkpt lat="42.8668497" lon="11.1644573"><ele>121.66666666666666</ele><time>2026-04-18T08:58:07.744Z</time></trkpt><trkpt lat="42.8666926" lon="11.1644901"><ele>120.33333333333333</ele><time>2026-04-18T08:58:08.734Z</time></trkpt><trkpt lat="42.866519" lon="11.1645353"><ele>119.0</ele><time>2026-04-18T08:58:09.737Z</time></trkpt><trkpt lat="42.8663455" lon="11.1645949"><ele>119.0</ele><time>2026-04-18T08:58:10.732Z</time></trkpt><trkpt lat="42.8661956" lon="11.1646503"><ele>119.0</ele><time>2026-04-18T08:58:11.735Z</time></trkpt><trkpt lat="42.8660666" lon="11.1647413"><ele>119.0</ele><time>2026-04-18T08:58:12.731Z</time></trkpt><trkpt lat="42.8659479" lon="11.1648388"><ele>119.0</ele><time>2026-04-18T08:58:13.735Z</time></trkpt><trkpt lat="42.8658469" lon="11.1649293"><ele>117.75</ele><time>2026-04-18T08:58:14.731Z</time></trkpt><trkpt lat="42.8657621" lon="11.1650126"><ele>116.5</ele><time>2026-04-18T08:58:15.736Z</time></trkpt><trkpt lat="42.8656715" lon="11.1650986"><ele>115.25</ele><time>2026-04-18T08:58:17.732Z</time></trkpt><trkpt lat="42.8657022" lon="11.1648783"><ele>114.0</ele><time>2026-04-18T08:58:22.733Z</time></trkpt><trkpt lat="42.8657623" lon="11.1647763"><ele>114.0</ele><time>2026-04-18T08:58:23.734Z</time></trkpt><trkpt lat="42.8658246" lon="11.1646554"><ele>114.0</ele><time>2026-04-18T08:58:24.748Z</time></trkpt><trkpt lat="42.8658962" lon="11.1645468"><ele>114.0</ele><time>2026-04-18T08:58:25.73Z</time></trkpt><trkpt lat="42.8659657" lon="11.1644572"><ele>114.0</ele><time>2026-04-18T08:58:26.734Z</time></trkpt><trkpt lat="42.8660359" lon="11.164374"><ele>114.0</ele><time>2026-04-18T08:58:27.741Z</time></trkpt><trkpt lat="42.866122" lon="11.164288"><ele>113.25</ele><time>2026-04-18T08:58:28.737Z</time></trkpt><trkpt lat="42.8662345" lon="11.1642048"><ele>112.5</ele><time>2026-04-18T08:58:29.734Z</time></trkpt><trkpt lat="42.8663633" lon="11.1641358"><ele>111.75</ele><time>2026-04-18T08:58:30.742Z</time></trkpt><trkpt lat="42.8664977" lon="11.1640665"><ele>111.0</ele><time>2026-04-18T08:58:31.734Z</time></trkpt><trkpt lat="42.8666448" lon="11.1639921"><ele>112.33333333333334</ele><time>2026-04-18T08:58:32.728Z</time></trkpt><trkpt lat="42.8668115" lon="11.1639232"><ele>113.66666666666667</ele><time>2026-04-18T08:58:33.732Z</time></trkpt><trkpt lat="42.8669789" lon="11.1638466"><ele>115.0</ele><time>2026-04-18T08:58:34.733Z</time></trkpt><trkpt lat="42.8671297" lon="11.163789"><ele>115.0</ele><time>2026-04-18T08:58:35.737Z</time></trkpt><trkpt lat="42.8672666" lon="11.1637268"><ele>115.0</ele><time>2026-04-18T08:58:36.739Z</time></trkpt><trkpt lat="42.8674012" lon="11.1636645"><ele>115.0</ele><time>2026-04-18T08:58:37.736Z</time></trkpt><trkpt lat="42.8675199" lon="11.1636294"><ele>115.0</ele><time>2026-04-18T08:58:38.736Z</time></trkpt><trkpt lat="42.8677519" lon="11.1635921"><ele>117.33333333333334</ele><time>2026-04-18T08:58:40.734Z</time></trkpt><trkpt lat="42.8678427" lon="11.1635644"><ele>119.66666666666667</ele><time>2026-04-18T08:58:41.735Z</time></trkpt><trkpt lat="42.867907" lon="11.1635166"><ele>122.0</ele><time>2026-04-18T08:58:42.735Z</time></trkpt><trkpt lat="42.8679534" lon="11.1634263"><ele>124.33333333333334</ele><time>2026-04-18T08:58:43.731Z</time></trkpt><trkpt lat="42.8679756" lon="11.1633243"><ele>126.66666666666667</ele><time>2026-04-18T08:58:44.733Z</time></trkpt><trkpt lat="42.8679913" lon="11.1632084"><ele>129.0</ele><time>2026-04-18T08:58:45.73Z</time></trkpt><trkpt lat="42.8679832" lon="11.1630844"><ele>130.5</ele><time>2026-04-18T08:58:46.727Z</time></trkpt><trkpt lat="42.8679393" lon="11.1629606"><ele>132.0</ele><time>2026-04-18T08:58:47.737Z</time></trkpt><trkpt lat="42.8678676" lon="11.1628377"><ele>133.5</ele><time>2026-04-18T08:58:48.732Z</time></trkpt><trkpt lat="42.8677828" lon="11.1627142"><ele>135.0</ele><time>2026-04-18T08:58:49.737Z</time></trkpt><trkpt lat="42.8676908" lon="11.1625981"><ele>135.0</ele><time>2026-04-18T08:58:50.731Z</time></trkpt><trkpt lat="42.8676113" lon="11.1624833"><ele>135.0</ele><time>2026-04-18T08:58:51.738Z</time></trkpt><trkpt lat="42.8675352" lon="11.1623745"><ele>135.0</ele><time>2026-04-18T08:58:52.741Z</time></trkpt><trkpt lat="42.8674705" lon="11.1622643"><ele>135.0</ele><time>2026-04-18T08:58:53.737Z</time></trkpt><trkpt lat="42.8674208" lon="11.1621436"><ele>135.0</ele><time>2026-04-18T08:58:54.733Z</time></trkpt><trkpt lat="42.867378" lon="11.1620167"><ele>132.6</ele><time>2026-04-18T08:58:55.734Z</time></trkpt><trkpt lat="42.8673484" lon="11.1618935"><ele>130.2</ele><time>2026-04-18T08:58:56.73Z</time></trkpt><trkpt lat="42.8673317" lon="11.1617773"><ele>127.80000000000001</ele><time>2026-04-18T08:58:57.729Z</time></trkpt><trkpt lat="42.8673357" lon="11.1616666"><ele>125.4</ele><time>2026-04-18T08:58:58.74Z</time></trkpt><trkpt lat="42.8673492" lon="11.1615498"><ele>123.0</ele><time>2026-04-18T08:58:59.729Z</time></trkpt><trkpt lat="42.8673866" lon="11.1613261"><ele>123.0</ele><time>2026-04-18T08:59:01.729Z</time></trkpt><trkpt lat="42.8674047" lon="11.1612266"><ele>123.0</ele><time>2026-04-18T08:59:02.738Z</time></trkpt><trkpt lat="42.8674203" lon="11.1611428"><ele>123.0</ele><time>2026-04-18T08:59:03.736Z</time></trkpt><trkpt lat="42.8674399" lon="11.1610163"><ele>123.0</ele><time>2026-04-18T08:59:05.741Z</time></trkpt><trkpt lat="42.8675049" lon="11.1609276"><ele>123.0</ele><time>2026-04-18T08:59:08.741Z</time></trkpt><trkpt lat="42.8676185" lon="11.1609394"><ele>123.0</ele><time>2026-04-18T08:59:10.739Z</time></trkpt><trkpt lat="42.8676908" lon="11.1609539"><ele>124.5</ele><time>2026-04-18T08:59:11.731Z</time></trkpt><trkpt lat="42.8677735" lon="11.1609719"><ele>126.0</ele><time>2026-04-18T08:59:12.745Z</time></trkpt><trkpt lat="42.8678541" lon="11.1609677"><ele>127.5</ele><time>2026-04-18T08:59:13.738Z</time></trkpt><trkpt lat="42.8679296" lon="11.1609414"><ele>129.0</ele><time>2026-04-18T08:59:14.742Z</time></trkpt><trkpt lat="42.8680118" lon="11.1608841"><ele>130.5</ele><time>2026-04-18T08:59:15.729Z</time></trkpt><trkpt lat="42.868097" lon="11.1608138"><ele>132.0</ele><time>2026-04-18T08:59:16.739Z</time></trkpt><trkpt lat="42.8681803" lon="11.1607392"><ele>132.0</ele><time>2026-04-18T08:59:17.738Z</time></trkpt><trkpt lat="42.8682667" lon="11.1606595"><ele>132.0</ele><time>2026-04-18T08:59:18.735Z</time></trkpt><trkpt lat="42.8683622" lon="11.1605665"><ele>132.0</ele><time>2026-04-18T08:59:19.728Z</time></trkpt><trkpt lat="42.8684661" lon="11.1604623"><ele>132.0</ele><time>2026-04-18T08:59:20.734Z</time></trkpt><trkpt lat="42.8686526" lon="11.1602437"><ele>134.2</ele><time>2026-04-18T08:59:22.755Z</time></trkpt><trkpt lat="42.8687272" lon="11.160126"><ele>136.39999999999998</ele><time>2026-04-18T08:59:23.733Z</time></trkpt><trkpt lat="42.8687989" lon="11.1600221"><ele>138.60000000000002</ele><time>2026-04-18T08:59:24.732Z</time></trkpt><trkpt lat="42.8688624" lon="11.1599494"><ele>140.8</ele><time>2026-04-18T08:59:25.731Z</time></trkpt><trkpt lat="42.8689748" lon="11.1599142"><ele>143.0</ele><time>2026-04-18T08:59:27.736Z</time></trkpt><trkpt lat="42.8691017" lon="11.1600063"><ele>143.0</ele><time>2026-04-18T08:59:29.732Z</time></trkpt><trkpt lat="42.8691813" lon="11.1600914"><ele>143.0</ele><time>2026-04-18T08:59:30.734Z</time></trkpt><trkpt lat="42.8692633" lon="11.1601787"><ele>143.0</ele><time>2026-04-18T08:59:31.73Z</time></trkpt><trkpt lat="42.869332" lon="11.1602694"><ele>143.0</ele><time>2026-04-18T08:59:32.743Z</time></trkpt><trkpt lat="42.869384" lon="11.1603652"><ele>143.0</ele><time>2026-04-18T08:59:33.733Z</time></trkpt><trkpt lat="42.8694149" lon="11.1604759"><ele>144.20000000000002</ele><time>2026-04-18T08:59:34.728Z</time></trkpt><trkpt lat="42.8694297" lon="11.1605686"><ele>145.4</ele><time>2026-04-18T08:59:35.735Z</time></trkpt><trkpt lat="42.8694485" lon="11.1606791"><ele>146.60000000000002</ele><time>2026-04-18T08:59:37.739Z</time></trkpt><trkpt lat="42.8695156" lon="11.1607198"><ele>147.8</ele><time>2026-04-18T08:59:39.732Z</time></trkpt><trkpt lat="42.8696134" lon="11.1607565"><ele>149.0</ele><time>2026-04-18T08:59:41.729Z</time></trkpt><trkpt lat="42.8697932" lon="11.1607672"><ele>149.0</ele><time>2026-04-18T08:59:44.733Z</time></trkpt><trkpt lat="42.8698606" lon="11.1607429"><ele>149.0</ele><time>2026-04-18T08:59:45.733Z</time></trkpt><trkpt lat="42.8699354" lon="11.1607055"><ele>149.0</ele><time>2026-04-18T08:59:46.733Z</time></trkpt><trkpt lat="42.8700185" lon="11.1606658"><ele>149.0</ele><time>2026-04-18T08:59:47.731Z</time></trkpt><trkpt lat="42.8701094" lon="11.1606399"><ele>149.0</ele><time>2026-04-18T08:59:48.729Z</time></trkpt><trkpt lat="42.8701987" lon="11.160621"><ele>149.0</ele><time>2026-04-18T08:59:49.748Z</time></trkpt><trkpt lat="42.870269" lon="11.1605975"><ele>150.0</ele><time>2026-04-18T08:59:50.741Z</time></trkpt><trkpt lat="42.8703391" lon="11.1605712"><ele>151.0</ele><time>2026-04-18T08:59:51.735Z</time></trkpt><trkpt lat="42.8703984" lon="11.1605254"><ele>152.0</ele><time>2026-04-18T08:59:52.735Z</time></trkpt><trkpt lat="42.8704575" lon="11.1604646"><ele>153.0</ele><time>2026-04-18T08:59:53.734Z</time></trkpt><trkpt lat="42.8705277" lon="11.1603885"><ele>154.0</ele><time>2026-04-18T08:59:54.731Z</time></trkpt><trkpt lat="42.8706162" lon="11.1603007"><ele>155.0</ele><time>2026-04-18T08:59:55.74Z</time></trkpt><trkpt lat="42.8707212" lon="11.1602028"><ele>155.0</ele><time>2026-04-18T08:59:56.737Z</time></trkpt><trkpt lat="42.8708202" lon="11.1601054"><ele>155.0</ele><time>2026-04-18T08:59:57.733Z</time></trkpt><trkpt lat="42.8709216" lon="11.160009"><ele>155.0</ele><time>2026-04-18T08:59:58.731Z</time></trkpt><trkpt lat="42.8710089" lon="11.1599167"><ele>155.0</ele><time>2026-04-18T08:59:59.736Z</time></trkpt><trkpt lat="42.8710944" lon="11.1598249"><ele>155.8</ele><time>2026-04-18T09:00:00.739Z</time></trkpt><trkpt lat="42.8711643" lon="11.1597248"><ele>156.6</ele><time>2026-04-18T09:00:01.734Z</time></trkpt><trkpt lat="42.8712234" lon="11.1596241"><ele>157.4</ele><time>2026-04-18T09:00:02.73Z</time></trkpt><trkpt lat="42.8713185" lon="11.159441"><ele>158.2</ele><time>2026-04-18T09:00:04.733Z</time></trkpt><trkpt lat="42.871345" lon="11.1593477"><ele>159.0</ele><time>2026-04-18T09:00:05.733Z</time></trkpt><trkpt lat="42.8713512" lon="11.1592562"><ele>159.0</ele><time>2026-04-18T09:00:06.734Z</time></trkpt><trkpt lat="42.8712796" lon="11.1591209"><ele>159.0</ele><time>2026-04-18T09:00:08.734Z</time></trkpt><trkpt lat="42.8711985" lon="11.159052"><ele>159.0</ele><time>2026-04-18T09:00:09.734Z</time></trkpt><trkpt lat="42.871111" lon="11.1589571"><ele>159.0</ele><time>2026-04-18T09:00:10.73Z</time></trkpt><trkpt lat="42.8710327" lon="11.1588588"><ele>159.0</ele><time>2026-04-18T09:00:11.735Z</time></trkpt><trkpt lat="42.8709752" lon="11.1587679"><ele>157.6</ele><time>2026-04-18T09:00:12.732Z</time></trkpt><trkpt lat="42.8709486" lon="11.158671"><ele>156.2</ele><time>2026-04-18T09:00:13.733Z</time></trkpt><trkpt lat="42.8709419" lon="11.1585358"><ele>154.79999999999998</ele><time>2026-04-18T09:00:14.727Z</time></trkpt><trkpt lat="42.8709472" lon="11.1583735"><ele>153.4</ele><time>2026-04-18T09:00:15.733Z</time></trkpt><trkpt lat="42.8709387" lon="11.1582003"><ele>152.0</ele><time>2026-04-18T09:00:16.733Z</time></trkpt><trkpt lat="42.8709296" lon="11.1580177"><ele>152.0</ele><time>2026-04-18T09:00:17.73Z</time></trkpt><trkpt lat="42.870926" lon="11.1578346"><ele>152.0</ele><time>2026-04-18T09:00:18.732Z</time></trkpt><trkpt lat="42.8709281" lon="11.1576465"><ele>152.0</ele><time>2026-04-18T09:00:19.735Z</time></trkpt><trkpt lat="42.8709345" lon="11.1574515"><ele>152.0</ele><time>2026-04-18T09:00:20.732Z</time></trkpt><trkpt lat="42.8709449" lon="11.1572384"><ele>155.0</ele><time>2026-04-18T09:00:21.73Z</time></trkpt><trkpt lat="42.8709597" lon="11.157029"><ele>158.0</ele><time>2026-04-18T09:00:22.739Z</time></trkpt><trkpt lat="42.8709726" lon="11.1568574"><ele>161.0</ele><time>2026-04-18T09:00:23.736Z</time></trkpt><trkpt lat="42.8710001" lon="11.1565455"><ele>159.4</ele><time>2026-04-18T09:00:25.738Z</time></trkpt><trkpt lat="42.8710162" lon="11.1563943"><ele>157.8</ele><time>2026-04-18T09:00:26.744Z</time></trkpt><trkpt lat="42.871021" lon="11.1562394"><ele>156.20000000000002</ele><time>2026-04-18T09:00:27.731Z</time></trkpt><trkpt lat="42.8710276" lon="11.156087"><ele>154.60000000000002</ele><time>2026-04-18T09:00:28.751Z</time></trkpt><trkpt lat="42.8710291" lon="11.1559613"><ele>153.0</ele><time>2026-04-18T09:00:29.737Z</time></trkpt><trkpt lat="42.8710298" lon="11.1558357"><ele>151.20000000000002</ele><time>2026-04-18T09:00:30.732Z</time></trkpt><trkpt lat="42.8710435" lon="11.1556947"><ele>149.4</ele><time>2026-04-18T09:00:31.733Z</time></trkpt><trkpt lat="42.8710608" lon="11.155556"><ele>147.60000000000002</ele><time>2026-04-18T09:00:32.733Z</time></trkpt><trkpt lat="42.8710582" lon="11.155417"><ele>145.8</ele><time>2026-04-18T09:00:33.733Z</time></trkpt><trkpt lat="42.8710458" lon="11.1552716"><ele>144.0</ele><time>2026-04-18T09:00:34.731Z</time></trkpt><trkpt lat="42.8710303" lon="11.1551192"><ele>144.0</ele><time>2026-04-18T09:00:35.731Z</time></trkpt><trkpt lat="42.871015" lon="11.1549648"><ele>144.0</ele><time>2026-04-18T09:00:36.735Z</time></trkpt><trkpt lat="42.8709983" lon="11.1548146"><ele>144.0</ele><time>2026-04-18T09:00:37.736Z</time></trkpt><trkpt lat="42.8709762" lon="11.1546954"><ele>144.0</ele><time>2026-04-18T09:00:38.734Z</time></trkpt><trkpt lat="42.8709596" lon="11.1546101"><ele>144.0</ele><time>2026-04-18T09:00:39.733Z</time></trkpt><trkpt lat="42.8709625" lon="11.154465"><ele>142.5</ele><time>2026-04-18T09:00:41.732Z</time></trkpt><trkpt lat="42.8710516" lon="11.1543413"><ele>141.0</ele><time>2026-04-18T09:00:43.742Z</time></trkpt><trkpt lat="42.8711046" lon="11.1542522"><ele>139.5</ele><time>2026-04-18T09:00:44.736Z</time></trkpt><trkpt lat="42.8711929" lon="11.1540208"><ele>138.0</ele><time>2026-04-18T09:00:46.732Z</time></trkpt><trkpt lat="42.8712158" lon="11.1538957"><ele>137.20000000000002</ele><time>2026-04-18T09:00:47.736Z</time></trkpt><trkpt lat="42.8712121" lon="11.153747"><ele>136.4</ele><time>2026-04-18T09:00:48.736Z</time></trkpt><trkpt lat="42.8712108" lon="11.1536101"><ele>135.60000000000002</ele><time>2026-04-18T09:00:49.737Z</time></trkpt><trkpt lat="42.8712131" lon="11.1534924"><ele>134.8</ele><time>2026-04-18T09:00:50.73Z</time></trkpt><trkpt lat="42.8712259" lon="11.1533831"><ele>134.0</ele><time>2026-04-18T09:00:51.733Z</time></trkpt><trkpt lat="42.8712704" lon="11.1532641"><ele>133.5</ele><time>2026-04-18T09:00:52.731Z</time></trkpt><trkpt lat="42.8713289" lon="11.1531292"><ele>133.0</ele><time>2026-04-18T09:00:53.734Z</time></trkpt><trkpt lat="42.8713817" lon="11.1529725"><ele>132.5</ele><time>2026-04-18T09:00:54.734Z</time></trkpt><trkpt lat="42.8714297" lon="11.1528178"><ele>132.0</ele><time>2026-04-18T09:00:55.736Z</time></trkpt><trkpt lat="42.8714597" lon="11.1526823"><ele>132.0</ele><time>2026-04-18T09:00:56.736Z</time></trkpt><trkpt lat="42.8714839" lon="11.1525912"><ele>132.0</ele><time>2026-04-18T09:00:57.729Z</time></trkpt><trkpt lat="42.8715068" lon="11.152478"><ele>132.0</ele><time>2026-04-18T09:01:00.732Z</time></trkpt><trkpt lat="42.8715457" lon="11.1523698"><ele>132.0</ele><time>2026-04-18T09:01:03.734Z</time></trkpt><trkpt lat="42.8715946" lon="11.1522913"><ele>132.0</ele><time>2026-04-18T09:01:06.731Z</time></trkpt><trkpt lat="42.8716795" lon="11.1521158"><ele>131.79999999999998</ele><time>2026-04-18T09:01:13.736Z</time></trkpt><trkpt lat="42.8717022" lon="11.1520281"><ele>131.6</ele><time>2026-04-18T09:01:15.731Z</time></trkpt><trkpt lat="42.8717328" lon="11.1518447"><ele>131.39999999999998</ele><time>2026-04-18T09:01:17.729Z</time></trkpt><trkpt lat="42.8717498" lon="11.1517122"><ele>131.2</ele><time>2026-04-18T09:01:18.738Z</time></trkpt><trkpt lat="42.8717639" lon="11.1515615"><ele>131.0</ele><time>2026-04-18T09:01:19.738Z</time></trkpt><trkpt lat="42.8717771" lon="11.1514015"><ele>132.2</ele><time>2026-04-18T09:01:20.727Z</time></trkpt><trkpt lat="42.871793" lon="11.1512512"><ele>133.39999999999998</ele><time>2026-04-18T09:01:21.74Z</time></trkpt><trkpt lat="42.871821" lon="11.1511016"><ele>134.6</ele><time>2026-04-18T09:01:22.734Z</time></trkpt><trkpt lat="42.8718655" lon="11.1509562"><ele>135.79999999999998</ele><time>2026-04-18T09:01:23.735Z</time></trkpt><trkpt lat="42.8719139" lon="11.1508345"><ele>137.0</ele><time>2026-04-18T09:01:24.734Z</time></trkpt><trkpt lat="42.8719811" lon="11.1507324"><ele>134.75</ele><time>2026-04-18T09:01:25.731Z</time></trkpt><trkpt lat="42.8720585" lon="11.1506307"><ele>132.5</ele><time>2026-04-18T09:01:26.733Z</time></trkpt><trkpt lat="42.8721452" lon="11.1505294"><ele>130.25</ele><time>2026-04-18T09:01:27.741Z</time></trkpt><trkpt lat="42.8723088" lon="11.1503954"><ele>128.0</ele><time>2026-04-18T09:01:29.733Z</time></trkpt><trkpt lat="42.872404" lon="11.1503297"><ele>128.0</ele><time>2026-04-18T09:01:30.738Z</time></trkpt><trkpt lat="42.8725051" lon="11.1502663"><ele>128.0</ele><time>2026-04-18T09:01:31.736Z</time></trkpt><trkpt lat="42.8726176" lon="11.1502083"><ele>128.0</ele><time>2026-04-18T09:01:32.728Z</time></trkpt><trkpt lat="42.8727251" lon="11.1501644"><ele>128.0</ele><time>2026-04-18T09:01:33.731Z</time></trkpt><trkpt lat="42.8728202" lon="11.1501299"><ele>128.0</ele><time>2026-04-18T09:01:34.745Z</time></trkpt><trkpt lat="42.8728927" lon="11.1501024"><ele>128.0</ele><time>2026-04-18T09:01:35.743Z</time></trkpt><trkpt lat="42.8729644" lon="11.1500613"><ele>128.0</ele><time>2026-04-18T09:01:36.735Z</time></trkpt><trkpt lat="42.8730291" lon="11.1500124"><ele>128.0</ele><time>2026-04-18T09:01:37.731Z</time></trkpt><trkpt lat="42.8730906" lon="11.1499437"><ele>128.0</ele><time>2026-04-18T09:01:38.734Z</time></trkpt><trkpt lat="42.8731463" lon="11.1498296"><ele>128.0</ele><time>2026-04-18T09:01:39.73Z</time></trkpt><trkpt lat="42.8731959" lon="11.1496662"><ele>128.0</ele><time>2026-04-18T09:01:40.75Z</time></trkpt><trkpt lat="42.8732417" lon="11.1494978"><ele>128.0</ele><time>2026-04-18T09:01:41.742Z</time></trkpt><trkpt lat="42.8732772" lon="11.1493558"><ele>128.0</ele><time>2026-04-18T09:01:42.728Z</time></trkpt><trkpt lat="42.8733091" lon="11.1492198"><ele>128.0</ele><time>2026-04-18T09:01:43.732Z</time></trkpt><trkpt lat="42.873349" lon="11.1490947"><ele>128.0</ele><time>2026-04-18T09:01:44.733Z</time></trkpt><trkpt lat="42.8733961" lon="11.1489933"><ele>129.0</ele><time>2026-04-18T09:01:45.738Z</time></trkpt><trkpt lat="42.8734533" lon="11.148928"><ele>130.0</ele><time>2026-04-18T09:01:46.732Z</time></trkpt><trkpt lat="42.8735159" lon="11.1488612"><ele>131.0</ele><time>2026-04-18T09:01:47.735Z</time></trkpt><trkpt lat="42.8735649" lon="11.1487659"><ele>132.0</ele><time>2026-04-18T09:01:48.732Z</time></trkpt><trkpt lat="42.8736346" lon="11.1485071"><ele>133.0</ele><time>2026-04-18T09:01:50.731Z</time></trkpt><trkpt lat="42.873653" lon="11.1483823"><ele>133.0</ele><time>2026-04-18T09:01:51.737Z</time></trkpt><trkpt lat="42.8736341" lon="11.1482558"><ele>133.0</ele><time>2026-04-18T09:01:52.737Z</time></trkpt><trkpt lat="42.8735762" lon="11.1481318"><ele>133.0</ele><time>2026-04-18T09:01:53.728Z</time></trkpt><trkpt lat="42.8735035" lon="11.1479994"><ele>133.0</ele><time>2026-04-18T09:01:54.735Z</time></trkpt><trkpt lat="42.8734292" lon="11.1478625"><ele>133.0</ele><time>2026-04-18T09:01:55.733Z</time></trkpt><trkpt lat="42.8733671" lon="11.1477421"><ele>132.8</ele><time>2026-04-18T09:01:56.733Z</time></trkpt><trkpt lat="42.8733151" lon="11.1476275"><ele>132.60000000000002</ele><time>2026-04-18T09:01:57.743Z</time></trkpt><trkpt lat="42.8732708" lon="11.1475086"><ele>132.39999999999998</ele><time>2026-04-18T09:01:58.737Z</time></trkpt><trkpt lat="42.8732399" lon="11.1473801"><ele>132.2</ele><time>2026-04-18T09:01:59.735Z</time></trkpt><trkpt lat="42.8732228" lon="11.1472406"><ele>132.0</ele><time>2026-04-18T09:02:00.738Z</time></trkpt><trkpt lat="42.873215" lon="11.1471268"><ele>132.0</ele><time>2026-04-18T09:02:01.729Z</time></trkpt><trkpt lat="42.8732157" lon="11.1470348"><ele>132.0</ele><time>2026-04-18T09:02:04.739Z</time></trkpt><trkpt lat="42.8731381" lon="11.1468925"><ele>132.0</ele><time>2026-04-18T09:02:07.729Z</time></trkpt><trkpt lat="42.873075" lon="11.1468079"><ele>132.0</ele><time>2026-04-18T09:02:08.732Z</time></trkpt><trkpt lat="42.872988" lon="11.1466998"><ele>132.0</ele><time>2026-04-18T09:02:09.737Z</time></trkpt><trkpt lat="42.8728352" lon="11.1464804"><ele>132.4</ele><time>2026-04-18T09:02:11.741Z</time></trkpt><trkpt lat="42.8727839" lon="11.1463725"><ele>132.79999999999998</ele><time>2026-04-18T09:02:12.73Z</time></trkpt><trkpt lat="42.8727502" lon="11.1462432"><ele>133.2</ele><time>2026-04-18T09:02:13.729Z</time></trkpt><trkpt lat="42.8727286" lon="11.1460972"><ele>133.6</ele><time>2026-04-18T09:02:14.742Z</time></trkpt><trkpt lat="42.8727057" lon="11.1459442"><ele>134.0</ele><time>2026-04-18T09:02:15.732Z</time></trkpt><trkpt lat="42.8726855" lon="11.1457941"><ele>133.75</ele><time>2026-04-18T09:02:16.732Z</time></trkpt><trkpt lat="42.8726708" lon="11.1456351"><ele>133.5</ele><time>2026-04-18T09:02:17.733Z</time></trkpt><trkpt lat="42.8726746" lon="11.1454635"><ele>133.25</ele><time>2026-04-18T09:02:18.733Z</time></trkpt><trkpt lat="42.8726898" lon="11.1452841"><ele>133.0</ele><time>2026-04-18T09:02:19.731Z</time></trkpt><trkpt lat="42.8727186" lon="11.1450987"><ele>133.0</ele><time>2026-04-18T09:02:20.735Z</time></trkpt><trkpt lat="42.8727742" lon="11.144916"><ele>133.0</ele><time>2026-04-18T09:02:21.737Z</time></trkpt><trkpt lat="42.8728389" lon="11.1447333"><ele>133.0</ele><time>2026-04-18T09:02:22.737Z</time></trkpt><trkpt lat="42.872922" lon="11.144539"><ele>132.33333333333334</ele><time>2026-04-18T09:02:23.731Z</time></trkpt><trkpt lat="42.8729957" lon="11.144338"><ele>131.66666666666666</ele><time>2026-04-18T09:02:24.733Z</time></trkpt><trkpt lat="42.8730669" lon="11.1441318"><ele>131.0</ele><time>2026-04-18T09:02:25.731Z</time></trkpt><trkpt lat="42.8731399" lon="11.1439231"><ele>130.66666666666666</ele><time>2026-04-18T09:02:26.739Z</time></trkpt><trkpt lat="42.8732183" lon="11.1437195"><ele>130.33333333333334</ele><time>2026-04-18T09:02:27.746Z</time></trkpt><trkpt lat="42.8733021" lon="11.1435265"><ele>130.0</ele><time>2026-04-18T09:02:28.738Z</time></trkpt><trkpt lat="42.8733562" lon="11.1433809"><ele>130.0</ele><time>2026-04-18T09:02:29.736Z</time></trkpt><trkpt lat="42.8734195" lon="11.1432515"><ele>130.0</ele><time>2026-04-18T09:02:30.735Z</time></trkpt><trkpt lat="42.8734694" lon="11.1429722"><ele>130.0</ele><time>2026-04-18T09:02:32.737Z</time></trkpt><trkpt lat="42.8734567" lon="11.1428199"><ele>130.0</ele><time>2026-04-18T09:02:33.73Z</time></trkpt><trkpt lat="42.8734588" lon="11.1426463"><ele>130.0</ele><time>2026-04-18T09:02:34.743Z</time></trkpt><trkpt lat="42.8734612" lon="11.1424767"><ele>130.0</ele><time>2026-04-18T09:02:35.729Z</time></trkpt><trkpt lat="42.8734654" lon="11.1422991"><ele>130.0</ele><time>2026-04-18T09:02:36.734Z</time></trkpt><trkpt lat="42.8734724" lon="11.1421273"><ele>130.0</ele><time>2026-04-18T09:02:37.729Z</time></trkpt><trkpt lat="42.8734838" lon="11.1419513"><ele>129.5</ele><time>2026-04-18T09:02:38.734Z</time></trkpt><trkpt lat="42.8734968" lon="11.1417761"><ele>129.0</ele><time>2026-04-18T09:02:39.742Z</time></trkpt><trkpt lat="42.873503" lon="11.141603"><ele>128.5</ele><time>2026-04-18T09:02:40.737Z</time></trkpt><trkpt lat="42.8735051" lon="11.1414233"><ele>128.0</ele><time>2026-04-18T09:02:41.734Z</time></trkpt><trkpt lat="42.8735063" lon="11.1412359"><ele>128.0</ele><time>2026-04-18T09:02:42.729Z</time></trkpt><trkpt lat="42.8735072" lon="11.1410428"><ele>128.0</ele><time>2026-04-18T09:02:43.746Z</time></trkpt><trkpt lat="42.8735089" lon="11.1408364"><ele>128.0</ele><time>2026-04-18T09:02:44.732Z</time></trkpt><trkpt lat="42.8735145" lon="11.1406368"><ele>128.0</ele><time>2026-04-18T09:02:45.729Z</time></trkpt><trkpt lat="42.8735224" lon="11.1404547"><ele>128.5</ele><time>2026-04-18T09:02:46.73Z</time></trkpt><trkpt lat="42.8735297" lon="11.1402808"><ele>129.0</ele><time>2026-04-18T09:02:47.737Z</time></trkpt><trkpt lat="42.8735363" lon="11.1401059"><ele>129.5</ele><time>2026-04-18T09:02:48.741Z</time></trkpt><trkpt lat="42.8735401" lon="11.1399315"><ele>130.0</ele><time>2026-04-18T09:02:49.729Z</time></trkpt><trkpt lat="42.8735477" lon="11.1397544"><ele>130.0</ele><time>2026-04-18T09:02:50.738Z</time></trkpt><trkpt lat="42.8735499" lon="11.1395746"><ele>130.0</ele><time>2026-04-18T09:02:51.749Z</time></trkpt><trkpt lat="42.8735629" lon="11.1391896"><ele>130.0</ele><time>2026-04-18T09:02:53.733Z</time></trkpt><trkpt lat="42.873578" lon="11.1389979"><ele>131.2</ele><time>2026-04-18T09:02:54.733Z</time></trkpt><trkpt lat="42.8735992" lon="11.138834"><ele>132.4</ele><time>2026-04-18T09:02:55.736Z</time></trkpt><trkpt lat="42.8736157" lon="11.1387048"><ele>133.6</ele><time>2026-04-18T09:02:56.735Z</time></trkpt><trkpt lat="42.873614" lon="11.1385965"><ele>134.8</ele><time>2026-04-18T09:02:57.73Z</time></trkpt><trkpt lat="42.8736058" lon="11.1384784"><ele>136.0</ele><time>2026-04-18T09:02:58.733Z</time></trkpt><trkpt lat="42.8735969" lon="11.1383396"><ele>136.5</ele><time>2026-04-18T09:02:59.737Z</time></trkpt><trkpt lat="42.8735966" lon="11.1381915"><ele>137.0</ele><time>2026-04-18T09:03:00.73Z</time></trkpt><trkpt lat="42.8735996" lon="11.1380351"><ele>137.5</ele><time>2026-04-18T09:03:01.731Z</time></trkpt><trkpt lat="42.8736097" lon="11.1378788"><ele>138.0</ele><time>2026-04-18T09:03:02.728Z</time></trkpt><trkpt lat="42.8736266" lon="11.1377217"><ele>138.0</ele><time>2026-04-18T09:03:03.733Z</time></trkpt><trkpt lat="42.8736424" lon="11.1375718"><ele>138.0</ele><time>2026-04-18T09:03:04.743Z</time></trkpt><trkpt lat="42.8736554" lon="11.1374187"><ele>138.0</ele><time>2026-04-18T09:03:05.733Z</time></trkpt><trkpt lat="42.8736703" lon="11.1372651"><ele>138.0</ele><time>2026-04-18T09:03:06.734Z</time></trkpt><trkpt lat="42.8736845" lon="11.1371083"><ele>138.25</ele><time>2026-04-18T09:03:07.734Z</time></trkpt><trkpt lat="42.8737011" lon="11.136941"><ele>138.5</ele><time>2026-04-18T09:03:08.737Z</time></trkpt><trkpt lat="42.8737226" lon="11.1367746"><ele>138.75</ele><time>2026-04-18T09:03:09.734Z</time></trkpt><trkpt lat="42.8737458" lon="11.1366066"><ele>139.0</ele><time>2026-04-18T09:03:10.728Z</time></trkpt><trkpt lat="42.873772" lon="11.1364433"><ele>139.0</ele><time>2026-04-18T09:03:11.733Z</time></trkpt><trkpt lat="42.873805" lon="11.1362839"><ele>139.0</ele><time>2026-04-18T09:03:12.735Z</time></trkpt><trkpt lat="42.8738552" lon="11.1359686"><ele>139.0</ele><time>2026-04-18T09:03:14.739Z</time></trkpt><trkpt lat="42.873863" lon="11.1358153"><ele>139.0</ele><time>2026-04-18T09:03:15.733Z</time></trkpt><trkpt lat="42.8738651" lon="11.1356621"><ele>139.0</ele><time>2026-04-18T09:03:16.732Z</time></trkpt><trkpt lat="42.8738655" lon="11.1355064"><ele>139.0</ele><time>2026-04-18T09:03:17.742Z</time></trkpt><trkpt lat="42.8738608" lon="11.1353618"><ele>139.0</ele><time>2026-04-18T09:03:18.729Z</time></trkpt><trkpt lat="42.873841" lon="11.1352439"><ele>139.0</ele><time>2026-04-18T09:03:19.727Z</time></trkpt><trkpt lat="42.8738262" lon="11.1351212"><ele>139.0</ele><time>2026-04-18T09:03:20.732Z</time></trkpt><trkpt lat="42.8738307" lon="11.1349996"><ele>139.0</ele><time>2026-04-18T09:03:21.733Z</time></trkpt><trkpt lat="42.8738356" lon="11.1348854"><ele>139.0</ele><time>2026-04-18T09:03:22.751Z</time></trkpt><trkpt lat="42.8738361" lon="11.1347779"><ele>139.0</ele><time>2026-04-18T09:03:23.733Z</time></trkpt><trkpt lat="42.8738215" lon="11.1346651"><ele>139.0</ele><time>2026-04-18T09:03:24.735Z</time></trkpt><trkpt lat="42.8737953" lon="11.1345291"><ele>139.0</ele><time>2026-04-18T09:03:25.738Z</time></trkpt><trkpt lat="42.8737572" lon="11.1343809"><ele>138.75</ele><time>2026-04-18T09:03:26.74Z</time></trkpt><trkpt lat="42.8737009" lon="11.1342044"><ele>138.5</ele><time>2026-04-18T09:03:27.735Z</time></trkpt><trkpt lat="42.8736354" lon="11.1340197"><ele>138.25</ele><time>2026-04-18T09:03:28.732Z</time></trkpt><trkpt lat="42.8735777" lon="11.13385"><ele>138.0</ele><time>2026-04-18T09:03:29.743Z</time></trkpt><trkpt lat="42.8735212" lon="11.1336953"><ele>138.0</ele><time>2026-04-18T09:03:30.733Z</time></trkpt><trkpt lat="42.8734621" lon="11.1335502"><ele>138.0</ele><time>2026-04-18T09:03:31.737Z</time></trkpt><trkpt lat="42.87341" lon="11.133406"><ele>138.0</ele><time>2026-04-18T09:03:32.729Z</time></trkpt><trkpt lat="42.873369" lon="11.1332607"><ele>138.0</ele><time>2026-04-18T09:03:33.73Z</time></trkpt><trkpt lat="42.8733339" lon="11.1329534"><ele>138.4</ele><time>2026-04-18T09:03:35.735Z</time></trkpt><trkpt lat="42.8733367" lon="11.1328089"><ele>138.8</ele><time>2026-04-18T09:03:36.737Z</time></trkpt><trkpt lat="42.8733605" lon="11.1326704"><ele>139.2</ele><time>2026-04-18T09:03:37.75Z</time></trkpt><trkpt lat="42.8733906" lon="11.132535"><ele>139.6</ele><time>2026-04-18T09:03:38.742Z</time></trkpt><trkpt lat="42.873422" lon="11.1323966"><ele>140.0</ele><time>2026-04-18T09:03:39.74Z</time></trkpt><trkpt lat="42.8734573" lon="11.1322648"><ele>140.0</ele><time>2026-04-18T09:03:40.74Z</time></trkpt><trkpt lat="42.8734889" lon="11.1321303"><ele>140.0</ele><time>2026-04-18T09:03:41.746Z</time></trkpt><trkpt lat="42.8735322" lon="11.1319914"><ele>140.0</ele><time>2026-04-18T09:03:42.732Z</time></trkpt><trkpt lat="42.8735739" lon="11.1318671"><ele>140.0</ele><time>2026-04-18T09:03:43.73Z</time></trkpt><trkpt lat="42.8736105" lon="11.1317408"><ele>140.0</ele><time>2026-04-18T09:03:44.73Z</time></trkpt><trkpt lat="42.8736398" lon="11.131621"><ele>139.16666666666666</ele><time>2026-04-18T09:03:45.734Z</time></trkpt><trkpt lat="42.873663" lon="11.131513"><ele>138.33333333333331</ele><time>2026-04-18T09:03:46.744Z</time></trkpt><trkpt lat="42.8736454" lon="11.1313556"><ele>137.5</ele><time>2026-04-18T09:03:48.731Z</time></trkpt><trkpt lat="42.8736044" lon="11.1312766"><ele>136.66666666666666</ele><time>2026-04-18T09:03:49.733Z</time></trkpt><trkpt lat="42.8735513" lon="11.1311813"><ele>135.83333333333334</ele><time>2026-04-18T09:03:50.733Z</time></trkpt><trkpt lat="42.8735068" lon="11.1310848"><ele>135.0</ele><time>2026-04-18T09:03:51.732Z</time></trkpt><trkpt lat="42.873465" lon="11.1309994"><ele>133.8</ele><time>2026-04-18T09:03:52.738Z</time></trkpt><trkpt lat="42.8734108" lon="11.1309173"><ele>132.6</ele><time>2026-04-18T09:03:54.739Z</time></trkpt><trkpt lat="42.8733178" lon="11.1306578"><ele>131.4</ele><time>2026-04-18T09:03:59.737Z</time></trkpt><trkpt lat="42.8732991" lon="11.1305646"><ele>130.2</ele><time>2026-04-18T09:04:00.742Z</time></trkpt><trkpt lat="42.873275" lon="11.1304658"><ele>129.0</ele><time>2026-04-18T09:04:01.735Z</time></trkpt><trkpt lat="42.8732507" lon="11.1303789"><ele>129.0</ele><time>2026-04-18T09:04:02.735Z</time></trkpt><trkpt lat="42.8732192" lon="11.130299"><ele>129.0</ele><time>2026-04-18T09:04:03.736Z</time></trkpt><trkpt lat="42.8731678" lon="11.1302124"><ele>129.0</ele><time>2026-04-18T09:04:04.734Z</time></trkpt><trkpt lat="42.8730951" lon="11.1301075"><ele>129.0</ele><time>2026-04-18T09:04:05.733Z</time></trkpt><trkpt lat="42.8730079" lon="11.1299881"><ele>129.0</ele><time>2026-04-18T09:04:06.739Z</time></trkpt><trkpt lat="42.8729303" lon="11.1298719"><ele>129.2</ele><time>2026-04-18T09:04:07.738Z</time></trkpt><trkpt lat="42.8728648" lon="11.129763"><ele>129.4</ele><time>2026-04-18T09:04:08.735Z</time></trkpt><trkpt lat="42.872806" lon="11.1296483"><ele>129.6</ele><time>2026-04-18T09:04:09.742Z</time></trkpt><trkpt lat="42.8727381" lon="11.1295546"><ele>129.8</ele><time>2026-04-18T09:04:10.73Z</time></trkpt><trkpt lat="42.8726725" lon="11.1294769"><ele>130.0</ele><time>2026-04-18T09:04:11.731Z</time></trkpt><trkpt lat="42.8726144" lon="11.1294122"><ele>130.5</ele><time>2026-04-18T09:04:12.744Z</time></trkpt><trkpt lat="42.8725441" lon="11.1293298"><ele>131.0</ele><time>2026-04-18T09:04:13.738Z</time></trkpt><trkpt lat="42.8724701" lon="11.1292306"><ele>131.5</ele><time>2026-04-18T09:04:14.734Z</time></trkpt><trkpt lat="42.8724037" lon="11.1291188"><ele>132.0</ele><time>2026-04-18T09:04:15.733Z</time></trkpt><trkpt lat="42.8723004" lon="11.1288899"><ele>133.0</ele><time>2026-04-18T09:04:17.731Z</time></trkpt><trkpt lat="42.8722673" lon="11.1287774"><ele>134.0</ele><time>2026-04-18T09:04:18.728Z</time></trkpt><trkpt lat="42.8722405" lon="11.1286832"><ele>135.0</ele><time>2026-04-18T09:04:19.736Z</time></trkpt><trkpt lat="42.8721961" lon="11.1285705"><ele>136.0</ele><time>2026-04-18T09:04:21.731Z</time></trkpt><trkpt lat="42.8722462" lon="11.1284827"><ele>137.0</ele><time>2026-04-18T09:04:40.732Z</time></trkpt><trkpt lat="42.8723365" lon="11.1283102"><ele>137.0</ele><time>2026-04-18T09:06:41.734Z</time></trkpt><trkpt lat="42.8722184" lon="11.1285788"><ele>137.0</ele><time>2026-04-18T09:07:15.73Z</time></trkpt><trkpt lat="42.8722207" lon="11.128679"><ele>137.0</ele><time>2026-04-18T09:07:19.733Z</time></trkpt><trkpt lat="42.8722117" lon="11.1287848"><ele>137.0</ele><time>2026-04-18T09:07:22.736Z</time></trkpt><trkpt lat="42.8722666" lon="11.1289284"><ele>137.0</ele><time>2026-04-18T09:07:24.729Z</time></trkpt><trkpt lat="42.8723133" lon="11.1290245"><ele>137.0</ele><time>2026-04-18T09:07:25.733Z</time></trkpt><trkpt lat="42.8723814" lon="11.1291499"><ele>137.0</ele><time>2026-04-18T09:07:26.732Z</time></trkpt><trkpt lat="42.87247" lon="11.1292751"><ele>137.0</ele><time>2026-04-18T09:07:27.729Z</time></trkpt><trkpt lat="42.8725649" lon="11.12938"><ele>137.0</ele><time>2026-04-18T09:07:28.733Z</time></trkpt><trkpt lat="42.8726442" lon="11.1294714"><ele>135.25</ele><time>2026-04-18T09:07:29.732Z</time></trkpt><trkpt lat="42.8727846" lon="11.1296365"><ele>133.5</ele><time>2026-04-18T09:07:31.745Z</time></trkpt><trkpt lat="42.8728469" lon="11.129705"><ele>131.75</ele><time>2026-04-18T09:07:32.733Z</time></trkpt><trkpt lat="42.8729472" lon="11.1298868"><ele>130.0</ele><time>2026-04-18T09:07:34.73Z</time></trkpt><trkpt lat="42.8730094" lon="11.1299853"><ele>129.83333333333334</ele><time>2026-04-18T09:07:35.741Z</time></trkpt><trkpt lat="42.8730658" lon="11.1300874"><ele>129.66666666666669</ele><time>2026-04-18T09:07:36.732Z</time></trkpt><trkpt lat="42.8731274" lon="11.13019"><ele>129.5</ele><time>2026-04-18T09:07:37.73Z</time></trkpt><trkpt lat="42.8731852" lon="11.1302801"><ele>129.33333333333334</ele><time>2026-04-18T09:07:38.733Z</time></trkpt><trkpt lat="42.8732387" lon="11.1303558"><ele>129.16666666666666</ele><time>2026-04-18T09:07:39.73Z</time></trkpt><trkpt lat="42.8732862" lon="11.1304182"><ele>129.0</ele><time>2026-04-18T09:07:40.729Z</time></trkpt><trkpt lat="42.873387" lon="11.130485"><ele>129.0</ele><time>2026-04-18T09:07:42.728Z</time></trkpt><trkpt lat="42.8734878" lon="11.1304887"><ele>129.0</ele><time>2026-04-18T09:07:44.741Z</time></trkpt><trkpt lat="42.8735514" lon="11.1304654"><ele>129.0</ele><time>2026-04-18T09:07:46.735Z</time></trkpt><trkpt lat="42.8736216" lon="11.1304273"><ele>129.0</ele><time>2026-04-18T09:08:10.735Z</time></trkpt><trkpt lat="42.8737493" lon="11.1303107"><ele>129.0</ele><time>2026-04-18T09:08:15.727Z</time></trkpt><trkpt lat="42.8737737" lon="11.1301969"><ele>129.0</ele><time>2026-04-18T09:08:16.739Z</time></trkpt><trkpt lat="42.8737998" lon="11.1300933"><ele>129.0</ele><time>2026-04-18T09:08:17.733Z</time></trkpt><trkpt lat="42.873842" lon="11.1299982"><ele>129.0</ele><time>2026-04-18T09:08:18.735Z</time></trkpt><trkpt lat="42.8739216" lon="11.1298237"><ele>129.0</ele><time>2026-04-18T09:08:20.736Z</time></trkpt><trkpt lat="42.8739518" lon="11.1296951"><ele>129.0</ele><time>2026-04-18T09:08:22.739Z</time></trkpt><trkpt lat="42.8739831" lon="11.1295301"><ele>129.16666666666666</ele><time>2026-04-18T09:08:24.73Z</time></trkpt><trkpt lat="42.874012" lon="11.1294476"><ele>129.33333333333334</ele><time>2026-04-18T09:08:25.734Z</time></trkpt><trkpt lat="42.8740591" lon="11.1293774"><ele>129.5</ele><time>2026-04-18T09:08:26.732Z</time></trkpt><trkpt lat="42.8741109" lon="11.1293107"><ele>129.66666666666669</ele><time>2026-04-18T09:08:27.737Z</time></trkpt><trkpt lat="42.8741656" lon="11.1292429"><ele>129.83333333333334</ele><time>2026-04-18T09:08:28.735Z</time></trkpt><trkpt lat="42.8742319" lon="11.1291797"><ele>130.0</ele><time>2026-04-18T09:08:29.734Z</time></trkpt><trkpt lat="42.8743184" lon="11.1291194"><ele>130.0</ele><time>2026-04-18T09:08:30.724Z</time></trkpt><trkpt lat="42.8744067" lon="11.129068"><ele>130.0</ele><time>2026-04-18T09:08:31.734Z</time></trkpt><trkpt lat="42.8745658" lon="11.1289343"><ele>130.0</ele><time>2026-04-18T09:08:34.733Z</time></trkpt><trkpt lat="42.8746202" lon="11.1288222"><ele>130.0</ele><time>2026-04-18T09:08:36.734Z</time></trkpt><trkpt lat="42.8746556" lon="11.1286875"><ele>130.6</ele><time>2026-04-18T09:08:38.749Z</time></trkpt><trkpt lat="42.874712" lon="11.1286059"><ele>131.2</ele><time>2026-04-18T09:08:49.731Z</time></trkpt><trkpt lat="42.8747842" lon="11.128554"><ele>131.8</ele><time>2026-04-18T09:08:51.739Z</time></trkpt><trkpt lat="42.8748423" lon="11.1285205"><ele>132.4</ele><time>2026-04-18T09:08:52.74Z</time></trkpt><trkpt lat="42.8749743" lon="11.128422"><ele>133.0</ele><time>2026-04-18T09:08:54.739Z</time></trkpt><trkpt lat="42.8750461" lon="11.1283623"><ele>133.16666666666669</ele><time>2026-04-18T09:08:55.733Z</time></trkpt><trkpt lat="42.8751082" lon="11.1282815"><ele>133.33333333333334</ele><time>2026-04-18T09:08:57.73Z</time></trkpt><trkpt lat="42.87517" lon="11.1282265"><ele>133.5</ele><time>2026-04-18T09:09:00.743Z</time></trkpt><trkpt lat="42.875235" lon="11.1281582"><ele>133.66666666666666</ele><time>2026-04-18T09:09:03.735Z</time></trkpt><trkpt lat="42.8753241" lon="11.128137"><ele>133.83333333333331</ele><time>2026-04-18T09:09:06.741Z</time></trkpt><trkpt lat="42.875404" lon="11.1281354"><ele>134.0</ele><time>2026-04-18T09:09:08.73Z</time></trkpt><trkpt lat="42.875478" lon="11.1281248"><ele>135.0</ele><time>2026-04-18T09:09:10.753Z</time></trkpt><trkpt lat="42.8755372" lon="11.1280744"><ele>136.0</ele><time>2026-04-18T09:09:12.732Z</time></trkpt><trkpt lat="42.8756033" lon="11.1279492"><ele>137.0</ele><time>2026-04-18T09:09:14.732Z</time></trkpt><trkpt lat="42.875735" lon="11.1277629"><ele>138.0</ele><time>2026-04-18T09:09:17.744Z</time></trkpt><trkpt lat="42.8757884" lon="11.1276981"><ele>139.0</ele><time>2026-04-18T09:09:18.73Z</time></trkpt><trkpt lat="42.8758467" lon="11.1276277"><ele>139.0</ele><time>2026-04-18T09:09:19.733Z</time></trkpt><trkpt lat="42.8759065" lon="11.1275559"><ele>139.0</ele><time>2026-04-18T09:09:20.731Z</time></trkpt><trkpt lat="42.8759728" lon="11.1274913"><ele>139.0</ele><time>2026-04-18T09:09:21.729Z</time></trkpt><trkpt lat="42.8760364" lon="11.1274254"><ele>139.0</ele><time>2026-04-18T09:09:22.734Z</time></trkpt><trkpt lat="42.8760996" lon="11.1273659"><ele>139.0</ele><time>2026-04-18T09:09:23.738Z</time></trkpt><trkpt lat="42.8761595" lon="11.1273106"><ele>139.0</ele><time>2026-04-18T09:09:24.729Z</time></trkpt><trkpt lat="42.8762172" lon="11.1272605"><ele>139.5</ele><time>2026-04-18T09:09:25.727Z</time></trkpt><trkpt lat="42.8762777" lon="11.1272027"><ele>140.0</ele><time>2026-04-18T09:09:26.733Z</time></trkpt><trkpt lat="42.8763241" lon="11.1271347"><ele>140.5</ele><time>2026-04-18T09:09:27.731Z</time></trkpt><trkpt lat="42.876374" lon="11.1270627"><ele>141.0</ele><time>2026-04-18T09:09:28.735Z</time></trkpt><trkpt lat="42.8764578" lon="11.1269254"><ele>141.5</ele><time>2026-04-18T09:09:30.735Z</time></trkpt><trkpt lat="42.8765057" lon="11.126865"><ele>142.0</ele><time>2026-04-18T09:09:31.73Z</time></trkpt><trkpt lat="42.876558" lon="11.1268015"><ele>142.0</ele><time>2026-04-18T09:09:32.739Z</time></trkpt><trkpt lat="42.8766063" lon="11.1267236"><ele>142.0</ele><time>2026-04-18T09:09:33.727Z</time></trkpt><trkpt lat="42.8766584" lon="11.1266481"><ele>142.0</ele><time>2026-04-18T09:09:34.731Z</time></trkpt><trkpt lat="42.8766994" lon="11.1265799"><ele>142.0</ele><time>2026-04-18T09:09:35.734Z</time></trkpt><trkpt lat="42.8768072" lon="11.1264082"><ele>142.0</ele><time>2026-04-18T09:10:22.733Z</time></trkpt><trkpt lat="42.877012" lon="11.1262709"><ele>142.66666666666669</ele><time>2026-04-18T09:10:26.737Z</time></trkpt><trkpt lat="42.8770861" lon="11.1262334"><ele>143.33333333333334</ele><time>2026-04-18T09:10:27.732Z</time></trkpt><trkpt lat="42.8771573" lon="11.1261903"><ele>144.0</ele><time>2026-04-18T09:10:28.727Z</time></trkpt><trkpt lat="42.8772438" lon="11.1261498"><ele>144.66666666666666</ele><time>2026-04-18T09:10:29.729Z</time></trkpt><trkpt lat="42.8773101" lon="11.1261219"><ele>145.33333333333331</ele><time>2026-04-18T09:10:30.74Z</time></trkpt><trkpt lat="42.8774068" lon="11.1260958"><ele>146.0</ele><time>2026-04-18T09:10:32.731Z</time></trkpt><trkpt lat="42.8775085" lon="11.126082"><ele>146.4</ele><time>2026-04-18T09:10:34.729Z</time></trkpt><trkpt lat="42.8776133" lon="11.1260426"><ele>146.8</ele><time>2026-04-18T09:10:36.733Z</time></trkpt><trkpt lat="42.877688" lon="11.1259931"><ele>147.20000000000002</ele><time>2026-04-18T09:10:38.732Z</time></trkpt><trkpt lat="42.8777887" lon="11.1259804"><ele>147.6</ele><time>2026-04-18T09:10:41.73Z</time></trkpt><trkpt lat="42.8778951" lon="11.1260157"><ele>148.0</ele><time>2026-04-18T09:10:43.736Z</time></trkpt><trkpt lat="42.8780718" lon="11.1260694"><ele>148.0</ele><time>2026-04-18T09:10:47.734Z</time></trkpt><trkpt lat="42.8781049" lon="11.126147"><ele>148.0</ele><time>2026-04-18T09:11:05.734Z</time></trkpt><trkpt lat="42.8781581" lon="11.1263484"><ele>148.0</ele><time>2026-04-18T09:11:22.74Z</time></trkpt><trkpt lat="42.8782133" lon="11.1264387"><ele>148.0</ele><time>2026-04-18T09:11:24.729Z</time></trkpt><trkpt lat="42.8782759" lon="11.1265396"><ele>148.0</ele><time>2026-04-18T09:11:26.738Z</time></trkpt><trkpt lat="42.8783564" lon="11.1267012"><ele>147.8</ele><time>2026-04-18T09:11:30.733Z</time></trkpt><trkpt lat="42.8784162" lon="11.126793"><ele>147.60000000000002</ele><time>2026-04-18T09:11:32.732Z</time></trkpt><trkpt lat="42.8784806" lon="11.1269036"><ele>147.39999999999998</ele><time>2026-04-18T09:11:34.726Z</time></trkpt><trkpt lat="42.8785523" lon="11.1269773"><ele>147.2</ele><time>2026-04-18T09:11:36.731Z</time></trkpt><trkpt lat="42.8786257" lon="11.1269617"><ele>147.0</ele><time>2026-04-18T09:14:48.738Z</time></trkpt><trkpt lat="42.878738" lon="11.1268065"><ele>147.66666666666666</ele><time>2026-04-18T09:14:53.726Z</time></trkpt><trkpt lat="42.8788018" lon="11.1267034"><ele>148.33333333333334</ele><time>2026-04-18T09:14:55.739Z</time></trkpt><trkpt lat="42.8788705" lon="11.1266188"><ele>149.0</ele><time>2026-04-18T09:14:57.729Z</time></trkpt><trkpt lat="42.8789366" lon="11.1265512"><ele>149.66666666666669</ele><time>2026-04-18T09:14:59.735Z</time></trkpt><trkpt lat="42.8790021" lon="11.1264833"><ele>150.33333333333334</ele><time>2026-04-18T09:15:01.728Z</time></trkpt><trkpt lat="42.879058" lon="11.1264247"><ele>151.0</ele><time>2026-04-18T09:15:03.726Z</time></trkpt><trkpt lat="42.8791376" lon="11.1264037"><ele>151.0</ele><time>2026-04-18T09:15:06.732Z</time></trkpt><trkpt lat="42.8792098" lon="11.1264051"><ele>151.0</ele><time>2026-04-18T09:15:08.738Z</time></trkpt><trkpt lat="42.8792733" lon="11.1263716"><ele>151.0</ele><time>2026-04-18T09:15:10.736Z</time></trkpt><trkpt lat="42.879411" lon="11.1263056"><ele>151.0</ele><time>2026-04-18T09:16:21.738Z</time></trkpt><trkpt lat="42.8795922" lon="11.1262044"><ele>152.5</ele><time>2026-04-18T09:16:26.734Z</time></trkpt><trkpt lat="42.8796745" lon="11.126162"><ele>154.0</ele><time>2026-04-18T09:16:28.72Z</time></trkpt><trkpt lat="42.8797666" lon="11.1261533"><ele>155.5</ele><time>2026-04-18T09:16:30.731Z</time></trkpt><trkpt lat="42.8798491" lon="11.126139"><ele>157.0</ele><time>2026-04-18T09:16:32.729Z</time></trkpt><trkpt lat="42.8799237" lon="11.1261326"><ele>158.5</ele><time>2026-04-18T09:16:34.737Z</time></trkpt><trkpt lat="42.8800016" lon="11.1261305"><ele>160.0</ele><time>2026-04-18T09:16:36.726Z</time></trkpt><trkpt lat="42.8801067" lon="11.1261379"><ele>160.5</ele><time>2026-04-18T09:16:38.73Z</time></trkpt><trkpt lat="42.880217" lon="11.1261469"><ele>161.0</ele><time>2026-04-18T09:16:40.73Z</time></trkpt><trkpt lat="42.8803387" lon="11.1261273"><ele>161.5</ele><time>2026-04-18T09:16:42.727Z</time></trkpt><trkpt lat="42.8805439" lon="11.1261299"><ele>162.0</ele><time>2026-04-18T09:16:45.726Z</time></trkpt><trkpt lat="42.8806283" lon="11.1261414"><ele>162.0</ele><time>2026-04-18T09:16:46.736Z</time></trkpt><trkpt lat="42.8807128" lon="11.1261584"><ele>162.0</ele><time>2026-04-18T09:16:47.726Z</time></trkpt><trkpt lat="42.8807868" lon="11.1261741"><ele>162.0</ele><time>2026-04-18T09:16:48.728Z</time></trkpt><trkpt lat="42.8808536" lon="11.1261823"><ele>162.0</ele><time>2026-04-18T09:16:49.727Z</time></trkpt><trkpt lat="42.8809187" lon="11.1261763"><ele>162.0</ele><time>2026-04-18T09:16:50.729Z</time></trkpt><trkpt lat="42.8810294" lon="11.1261567"><ele>162.0</ele><time>2026-04-18T09:16:52.734Z</time></trkpt><trkpt lat="42.8811324" lon="11.1261606"><ele>162.8</ele><time>2026-04-18T09:16:54.73Z</time></trkpt><trkpt lat="42.8812048" lon="11.1261584"><ele>163.6</ele><time>2026-04-18T09:16:56.732Z</time></trkpt><trkpt lat="42.8812719" lon="11.126142"><ele>164.4</ele><time>2026-04-18T09:16:58.725Z</time></trkpt><trkpt lat="42.8813557" lon="11.126104"><ele>165.20000000000002</ele><time>2026-04-18T09:17:01.724Z</time></trkpt><trkpt lat="42.881447" lon="11.1261317"><ele>166.0</ele><time>2026-04-18T09:17:03.727Z</time></trkpt><trkpt lat="42.8816921" lon="11.1261588"><ele>166.60000000000002</ele><time>2026-04-18T09:17:07.726Z</time></trkpt><trkpt lat="42.881812" lon="11.1261456"><ele>167.2</ele><time>2026-04-18T09:17:09.735Z</time></trkpt><trkpt lat="42.8819262" lon="11.1261751"><ele>167.8</ele><time>2026-04-18T09:17:11.728Z</time></trkpt><trkpt lat="42.882016" lon="11.1262481"><ele>168.39999999999998</ele><time>2026-04-18T09:17:13.725Z</time></trkpt><trkpt lat="42.882118" lon="11.1262755"><ele>169.0</ele><time>2026-04-18T09:17:15.731Z</time></trkpt><trkpt lat="42.8821821" lon="11.126262"><ele>169.0</ele><time>2026-04-18T09:17:16.735Z</time></trkpt><trkpt lat="42.8822521" lon="11.1262493"><ele>169.0</ele><time>2026-04-18T09:17:17.729Z</time></trkpt><trkpt lat="42.8823225" lon="11.126238"><ele>169.0</ele><time>2026-04-18T09:17:18.73Z</time></trkpt><trkpt lat="42.8824464" lon="11.1262316"><ele>169.0</ele><time>2026-04-18T09:17:20.734Z</time></trkpt><trkpt lat="42.882553" lon="11.1262531"><ele>169.0</ele><time>2026-04-18T09:17:22.734Z</time></trkpt><trkpt lat="42.8826387" lon="11.1262675"><ele>170.25</ele><time>2026-04-18T09:17:24.727Z</time></trkpt><trkpt lat="42.8828324" lon="11.1262965"><ele>171.5</ele><time>2026-04-18T09:17:28.727Z</time></trkpt><trkpt lat="42.8828968" lon="11.1263313"><ele>172.75</ele><time>2026-04-18T09:17:29.729Z</time></trkpt><trkpt lat="42.883008" lon="11.1263996"><ele>174.0</ele><time>2026-04-18T09:17:31.731Z</time></trkpt><trkpt lat="42.8831235" lon="11.1263964"><ele>174.0</ele><time>2026-04-18T09:17:33.723Z</time></trkpt><trkpt lat="42.8832065" lon="11.1263705"><ele>174.0</ele><time>2026-04-18T09:17:35.724Z</time></trkpt><trkpt lat="42.8832576" lon="11.1263015"><ele>174.0</ele><time>2026-04-18T09:17:37.729Z</time></trkpt><trkpt lat="42.88332" lon="11.1262035"><ele>174.0</ele><time>2026-04-18T09:17:39.727Z</time></trkpt><trkpt lat="42.8833859" lon="11.1261356"><ele>174.0</ele><time>2026-04-18T09:17:41.732Z</time></trkpt><trkpt lat="42.8834897" lon="11.1261136"><ele>174.0</ele><time>2026-04-18T09:17:43.734Z</time></trkpt><trkpt lat="42.8835923" lon="11.1260886"><ele>174.75</ele><time>2026-04-18T09:17:45.723Z</time></trkpt><trkpt lat="42.8838015" lon="11.1260045"><ele>175.5</ele><time>2026-04-18T09:17:49.722Z</time></trkpt><trkpt lat="42.8838631" lon="11.1259594"><ele>176.25</ele><time>2026-04-18T09:17:50.727Z</time></trkpt><trkpt lat="42.8839191" lon="11.1259198"><ele>177.0</ele><time>2026-04-18T09:17:51.731Z</time></trkpt><trkpt lat="42.8840358" lon="11.125842"><ele>177.0</ele><time>2026-04-18T09:17:53.722Z</time></trkpt><trkpt lat="42.8841322" lon="11.1257559"><ele>177.0</ele><time>2026-04-18T09:17:55.729Z</time></trkpt><trkpt lat="42.8842043" lon="11.1256384"><ele>177.0</ele><time>2026-04-18T09:17:57.731Z</time></trkpt><trkpt lat="42.8842807" lon="11.1255082"><ele>177.0</ele><time>2026-04-18T09:17:59.723Z</time></trkpt><trkpt lat="42.884371" lon="11.1254067"><ele>178.5</ele><time>2026-04-18T09:18:01.731Z</time></trkpt><trkpt lat="42.8844673" lon="11.1253177"><ele>180.0</ele><time>2026-04-18T09:18:03.73Z</time></trkpt><trkpt lat="42.8845478" lon="11.1252285"><ele>181.5</ele><time>2026-04-18T09:18:05.734Z</time></trkpt><trkpt lat="42.8846188" lon="11.1251347"><ele>183.0</ele><time>2026-04-18T09:18:07.722Z</time></trkpt><trkpt lat="42.8847925" lon="11.1249832"><ele>183.0</ele><time>2026-04-18T09:18:11.724Z</time></trkpt><trkpt lat="42.8848738" lon="11.1249068"><ele>183.0</ele><time>2026-04-18T09:18:13.73Z</time></trkpt><trkpt lat="42.8849331" lon="11.1248228"><ele>183.0</ele><time>2026-04-18T09:18:15.721Z</time></trkpt><trkpt lat="42.8849726" lon="11.1247374"><ele>183.0</ele><time>2026-04-18T09:18:17.73Z</time></trkpt><trkpt lat="42.885005" lon="11.1246049"><ele>183.0</ele><time>2026-04-18T09:18:19.73Z</time></trkpt><trkpt lat="42.8850382" lon="11.1244552"><ele>182.60000000000002</ele><time>2026-04-18T09:18:21.727Z</time></trkpt><trkpt lat="42.8850652" lon="11.1243484"><ele>182.20000000000002</ele><time>2026-04-18T09:18:23.726Z</time></trkpt><trkpt lat="42.8850909" lon="11.1242677"><ele>181.8</ele><time>2026-04-18T09:18:25.727Z</time></trkpt><trkpt lat="42.885134" lon="11.1241853"><ele>181.4</ele><time>2026-04-18T09:20:36.728Z</time></trkpt><trkpt lat="42.8850448" lon="11.123917"><ele>181.0</ele><time>2026-04-18T09:20:41.731Z</time></trkpt><trkpt lat="42.8850014" lon="11.1238071"><ele>181.66666666666669</ele><time>2026-04-18T09:20:42.723Z</time></trkpt><trkpt lat="42.8849554" lon="11.123701"><ele>182.33333333333334</ele><time>2026-04-18T09:20:43.727Z</time></trkpt><trkpt lat="42.8849203" lon="11.1236233"><ele>183.0</ele><time>2026-04-18T09:20:44.725Z</time></trkpt><trkpt lat="42.8848971" lon="11.1235353"><ele>183.66666666666666</ele><time>2026-04-18T09:20:45.738Z</time></trkpt><trkpt lat="42.8848814" lon="11.1234405"><ele>184.33333333333331</ele><time>2026-04-18T09:20:46.729Z</time></trkpt><trkpt lat="42.8848632" lon="11.1233287"><ele>185.0</ele><time>2026-04-18T09:20:47.727Z</time></trkpt><trkpt lat="42.8848552" lon="11.1232226"><ele>185.0</ele><time>2026-04-18T09:20:48.724Z</time></trkpt><trkpt lat="42.8848817" lon="11.1230653"><ele>185.0</ele><time>2026-04-18T09:20:50.727Z</time></trkpt><trkpt lat="42.8849263" lon="11.1229115"><ele>185.0</ele><time>2026-04-18T09:20:52.731Z</time></trkpt><trkpt lat="42.8849582" lon="11.1228368"><ele>185.0</ele><time>2026-04-18T09:20:53.726Z</time></trkpt><trkpt lat="42.8849873" lon="11.1227563"><ele>185.0</ele><time>2026-04-18T09:20:54.726Z</time></trkpt><trkpt lat="42.885007" lon="11.1226646"><ele>185.0</ele><time>2026-04-18T09:20:55.727Z</time></trkpt><trkpt lat="42.8850335" lon="11.1225799"><ele>185.0</ele><time>2026-04-18T09:20:56.728Z</time></trkpt><trkpt lat="42.8850575" lon="11.1224982"><ele>185.0</ele><time>2026-04-18T09:20:57.721Z</time></trkpt><trkpt lat="42.8851099" lon="11.1222609"><ele>185.0</ele><time>2026-04-18T09:21:00.727Z</time></trkpt><trkpt lat="42.8851162" lon="11.1221414"><ele>185.0</ele><time>2026-04-18T09:21:02.724Z</time></trkpt><trkpt lat="42.8851054" lon="11.1220077"><ele>185.0</ele><time>2026-04-18T09:21:04.726Z</time></trkpt><trkpt lat="42.8850706" lon="11.1218689"><ele>185.4</ele><time>2026-04-18T09:21:06.726Z</time></trkpt><trkpt lat="42.8850302" lon="11.1217085"><ele>185.8</ele><time>2026-04-18T09:21:08.729Z</time></trkpt><trkpt lat="42.8850199" lon="11.1216235"><ele>186.2</ele><time>2026-04-18T09:21:09.723Z</time></trkpt><trkpt lat="42.8849992" lon="11.1214938"><ele>186.6</ele><time>2026-04-18T09:21:11.733Z</time></trkpt><trkpt lat="42.8849742" lon="11.1213819"><ele>187.0</ele><time>2026-04-18T09:21:13.722Z</time></trkpt><trkpt lat="42.8850148" lon="11.1212833"><ele>187.0</ele><time>2026-04-18T09:21:16.727Z</time></trkpt><trkpt lat="42.8850948" lon="11.12124"><ele>187.0</ele><time>2026-04-18T09:21:18.729Z</time></trkpt><trkpt lat="42.885242" lon="11.1211916"><ele>187.0</ele><time>2026-04-18T09:21:22.72Z</time></trkpt><trkpt lat="42.8853396" lon="11.1211831"><ele>187.0</ele><time>2026-04-18T09:21:24.729Z</time></trkpt><trkpt lat="42.8854384" lon="11.1211494"><ele>187.0</ele><time>2026-04-18T09:21:26.728Z</time></trkpt><trkpt lat="42.885523" lon="11.1210343"><ele>185.0</ele><time>2026-04-18T09:21:28.733Z</time></trkpt><trkpt lat="42.8855597" lon="11.1209638"><ele>183.0</ele><time>2026-04-18T09:21:29.727Z</time></trkpt><trkpt lat="42.8855994" lon="11.1208962"><ele>181.0</ele><time>2026-04-18T09:21:30.731Z</time></trkpt><trkpt lat="42.8856486" lon="11.1208413"><ele>179.0</ele><time>2026-04-18T09:21:31.723Z</time></trkpt><trkpt lat="42.8857289" lon="11.1207903"><ele>177.0</ele><time>2026-04-18T09:21:33.725Z</time></trkpt><trkpt lat="42.8857935" lon="11.1207994"><ele>175.0</ele><time>2026-04-18T09:21:36.721Z</time></trkpt><trkpt lat="42.8858602" lon="11.1207875"><ele>173.0</ele><time>2026-04-18T09:21:39.726Z</time></trkpt><trkpt lat="42.8860033" lon="11.1207792"><ele>171.4</ele><time>2026-04-18T09:21:49.73Z</time></trkpt><trkpt lat="42.8860933" lon="11.1207808"><ele>169.8</ele><time>2026-04-18T09:21:51.72Z</time></trkpt><trkpt lat="42.8861991" lon="11.1207577"><ele>168.2</ele><time>2026-04-18T09:21:53.737Z</time></trkpt><trkpt lat="42.8862515" lon="11.1206882"><ele>166.6</ele><time>2026-04-18T09:21:55.725Z</time></trkpt><trkpt lat="42.886324" lon="11.1205707"><ele>165.0</ele><time>2026-04-18T09:21:57.723Z</time></trkpt><trkpt lat="42.8863815" lon="11.1204154"><ele>165.0</ele><time>2026-04-18T09:21:59.734Z</time></trkpt><trkpt lat="42.8864035" lon="11.1202765"><ele>165.0</ele><time>2026-04-18T09:22:01.736Z</time></trkpt><trkpt lat="42.8864037" lon="11.119999"><ele>165.0</ele><time>2026-04-18T09:22:05.724Z</time></trkpt><trkpt lat="42.8864364" lon="11.1198901"><ele>165.0</ele><time>2026-04-18T09:22:07.729Z</time></trkpt><trkpt lat="42.8865167" lon="11.1198343"><ele>166.2</ele><time>2026-04-18T09:22:09.732Z</time></trkpt><trkpt lat="42.8865888" lon="11.1197754"><ele>167.4</ele><time>2026-04-18T09:22:11.719Z</time></trkpt><trkpt lat="42.8866385" lon="11.1196965"><ele>168.60000000000002</ele><time>2026-04-18T09:22:13.726Z</time></trkpt><trkpt lat="42.8866626" lon="11.1195829"><ele>169.8</ele><time>2026-04-18T09:22:15.731Z</time></trkpt><trkpt lat="42.8866584" lon="11.1194171"><ele>171.0</ele><time>2026-04-18T09:22:17.723Z</time></trkpt><trkpt lat="42.8866326" lon="11.1192759"><ele>171.0</ele><time>2026-04-18T09:22:19.726Z</time></trkpt><trkpt lat="42.8865844" lon="11.1191324"><ele>171.0</ele><time>2026-04-18T09:22:21.727Z</time></trkpt><trkpt lat="42.8865259" lon="11.1189985"><ele>171.0</ele><time>2026-04-18T09:22:23.726Z</time></trkpt><trkpt lat="42.8863838" lon="11.11882"><ele>171.0</ele><time>2026-04-18T09:22:27.728Z</time></trkpt><trkpt lat="42.8863" lon="11.1187222"><ele>169.20000000000002</ele><time>2026-04-18T09:22:29.728Z</time></trkpt><trkpt lat="42.8862362" lon="11.1185898"><ele>167.4</ele><time>2026-04-18T09:22:31.734Z</time></trkpt><trkpt lat="42.886222" lon="11.1184374"><ele>165.6</ele><time>2026-04-18T09:22:33.729Z</time></trkpt><trkpt lat="42.8862264" lon="11.1183513"><ele>163.8</ele><time>2026-04-18T09:22:34.722Z</time></trkpt><trkpt lat="42.8862197" lon="11.1181952"><ele>162.0</ele><time>2026-04-18T09:22:36.73Z</time></trkpt><trkpt lat="42.8861792" lon="11.1180238"><ele>163.0</ele><time>2026-04-18T09:22:38.725Z</time></trkpt><trkpt lat="42.8861586" lon="11.1179389"><ele>164.0</ele><time>2026-04-18T09:22:39.719Z</time></trkpt><trkpt lat="42.8861336" lon="11.1178528"><ele>165.0</ele><time>2026-04-18T09:22:40.727Z</time></trkpt><trkpt lat="42.8861121" lon="11.1177673"><ele>166.0</ele><time>2026-04-18T09:22:41.724Z</time></trkpt><trkpt lat="42.8860726" lon="11.1176218"><ele>167.0</ele><time>2026-04-18T09:22:43.72Z</time></trkpt><trkpt lat="42.8860015" lon="11.1174928"><ele>168.0</ele><time>2026-04-18T09:22:45.728Z</time></trkpt><trkpt lat="42.8859239" lon="11.1173424"><ele>168.0</ele><time>2026-04-18T09:22:47.732Z</time></trkpt><trkpt lat="42.8858852" lon="11.1172714"><ele>168.0</ele><time>2026-04-18T09:22:48.725Z</time></trkpt><trkpt lat="42.8858466" lon="11.1172015"><ele>168.0</ele><time>2026-04-18T09:22:49.734Z</time></trkpt><trkpt lat="42.8858092" lon="11.1171322"><ele>168.0</ele><time>2026-04-18T09:22:50.721Z</time></trkpt><trkpt lat="42.8857346" lon="11.117013"><ele>168.0</ele><time>2026-04-18T09:22:52.731Z</time></trkpt><trkpt lat="42.885649" lon="11.1169125"><ele>168.0</ele><time>2026-04-18T09:22:54.726Z</time></trkpt><trkpt lat="42.8855882" lon="11.1168125"><ele>168.0</ele><time>2026-04-18T09:22:56.721Z</time></trkpt><trkpt lat="42.8855434" lon="11.116748"><ele>168.0</ele><time>2026-04-18T09:22:58.731Z</time></trkpt><trkpt lat="42.8854841" lon="11.1166973"><ele>168.0</ele><time>2026-04-18T09:23:00.731Z</time></trkpt><trkpt lat="42.8853994" lon="11.1166427"><ele>168.0</ele><time>2026-04-18T09:23:02.73Z</time></trkpt><trkpt lat="42.885302" lon="11.1165469"><ele>168.0</ele><time>2026-04-18T09:23:04.723Z</time></trkpt><trkpt lat="42.8852234" lon="11.1164481"><ele>165.8</ele><time>2026-04-18T09:23:06.723Z</time></trkpt><trkpt lat="42.8851552" lon="11.1162322"><ele>163.60000000000002</ele><time>2026-04-18T09:23:10.728Z</time></trkpt><trkpt lat="42.8851055" lon="11.1161454"><ele>161.39999999999998</ele><time>2026-04-18T09:23:12.722Z</time></trkpt><trkpt lat="42.8850821" lon="11.1160529"><ele>159.2</ele><time>2026-04-18T09:23:14.728Z</time></trkpt><trkpt lat="42.885063" lon="11.1159517"><ele>157.0</ele><time>2026-04-18T09:23:16.723Z</time></trkpt><trkpt lat="42.8850599" lon="11.1158417"><ele>158.8</ele><time>2026-04-18T09:23:18.725Z</time></trkpt><trkpt lat="42.8850583" lon="11.1157103"><ele>160.6</ele><time>2026-04-18T09:23:20.727Z</time></trkpt><trkpt lat="42.8850997" lon="11.1155863"><ele>162.4</ele><time>2026-04-18T09:23:22.723Z</time></trkpt><trkpt lat="42.8851616" lon="11.1154805"><ele>164.20000000000002</ele><time>2026-04-18T09:23:24.728Z</time></trkpt><trkpt lat="42.8852351" lon="11.1153723"><ele>166.0</ele><time>2026-04-18T09:23:26.728Z</time></trkpt><trkpt lat="42.8852754" lon="11.1152379"><ele>166.0</ele><time>2026-04-18T09:23:28.719Z</time></trkpt><trkpt lat="42.8852863" lon="11.1149517"><ele>166.0</ele><time>2026-04-18T09:23:32.735Z</time></trkpt><trkpt lat="42.8853283" lon="11.1148531"><ele>166.0</ele><time>2026-04-18T09:23:35.724Z</time></trkpt><trkpt lat="42.8852915" lon="11.1149256"><ele>166.0</ele><time>2026-04-18T09:29:27.73Z</time></trkpt><trkpt lat="42.885274" lon="11.115189"><ele>166.0</ele><time>2026-04-18T09:29:30.725Z</time></trkpt><trkpt lat="42.885215" lon="11.1153145"><ele>166.0</ele><time>2026-04-18T09:29:32.722Z</time></trkpt><trkpt lat="42.8851422" lon="11.1154288"><ele>166.0</ele><time>2026-04-18T09:29:34.726Z</time></trkpt><trkpt lat="42.8850954" lon="11.1154998"><ele>166.0</ele><time>2026-04-18T09:29:35.716Z</time></trkpt><trkpt lat="42.8850412" lon="11.1155799"><ele>166.0</ele><time>2026-04-18T09:29:36.72Z</time></trkpt><trkpt lat="42.8849916" lon="11.1156997"><ele>164.5</ele><time>2026-04-18T09:29:38.716Z</time></trkpt><trkpt lat="42.8849985" lon="11.1158218"><ele>163.0</ele><time>2026-04-18T09:29:40.723Z</time></trkpt><trkpt lat="42.8850142" lon="11.1159582"><ele>161.5</ele><time>2026-04-18T09:29:42.723Z</time></trkpt><trkpt lat="42.8850358" lon="11.1160475"><ele>160.0</ele><time>2026-04-18T09:29:43.728Z</time></trkpt><trkpt lat="42.8850675" lon="11.1161266"><ele>158.5</ele><time>2026-04-18T09:29:44.722Z</time></trkpt><trkpt lat="42.8851293" lon="11.1162342"><ele>157.0</ele><time>2026-04-18T09:29:46.72Z</time></trkpt><trkpt lat="42.8851843" lon="11.1163402"><ele>157.0</ele><time>2026-04-18T09:29:48.721Z</time></trkpt><trkpt lat="42.8853089" lon="11.1165423"><ele>157.0</ele><time>2026-04-18T09:29:52.72Z</time></trkpt><trkpt lat="42.8853943" lon="11.116628"><ele>157.0</ele><time>2026-04-18T09:29:54.737Z</time></trkpt><trkpt lat="42.8854669" lon="11.1167018"><ele>157.0</ele><time>2026-04-18T09:29:56.721Z</time></trkpt><trkpt lat="42.8855391" lon="11.1167601"><ele>159.2</ele><time>2026-04-18T09:29:59.726Z</time></trkpt><trkpt lat="42.8856015" lon="11.1168157"><ele>161.39999999999998</ele><time>2026-04-18T09:30:02.721Z</time></trkpt><trkpt lat="42.8856586" lon="11.116874"><ele>163.60000000000002</ele><time>2026-04-18T09:30:04.73Z</time></trkpt><trkpt lat="42.8857062" lon="11.1169398"><ele>165.8</ele><time>2026-04-18T09:30:06.717Z</time></trkpt><trkpt lat="42.8857515" lon="11.1170261"><ele>168.0</ele><time>2026-04-18T09:30:09.719Z</time></trkpt><trkpt lat="42.8858591" lon="11.1172274"><ele>168.0</ele><time>2026-04-18T09:30:13.722Z</time></trkpt><trkpt lat="42.8858971" lon="11.1173104"><ele>168.0</ele><time>2026-04-18T09:30:14.724Z</time></trkpt><trkpt lat="42.88593" lon="11.1174045"><ele>168.0</ele><time>2026-04-18T09:30:16.724Z</time></trkpt><trkpt lat="42.8859763" lon="11.1175143"><ele>168.0</ele><time>2026-04-18T09:30:18.722Z</time></trkpt><trkpt lat="42.8860307" lon="11.1175717"><ele>168.0</ele><time>2026-04-18T09:30:19.72Z</time></trkpt><trkpt lat="42.8860658" lon="11.117646"><ele>168.0</ele><time>2026-04-18T09:30:20.741Z</time></trkpt><trkpt lat="42.8860887" lon="11.1177301"><ele>168.0</ele><time>2026-04-18T09:30:21.721Z</time></trkpt><trkpt lat="42.8861161" lon="11.1178668"><ele>167.0</ele><time>2026-04-18T09:30:23.727Z</time></trkpt><trkpt lat="42.8861407" lon="11.1180159"><ele>166.0</ele><time>2026-04-18T09:30:25.718Z</time></trkpt><trkpt lat="42.8861517" lon="11.1181069"><ele>165.0</ele><time>2026-04-18T09:30:26.719Z</time></trkpt><trkpt lat="42.8861658" lon="11.1181982"><ele>164.0</ele><time>2026-04-18T09:30:27.722Z</time></trkpt><trkpt lat="42.8861876" lon="11.1182824"><ele>163.0</ele><time>2026-04-18T09:30:28.729Z</time></trkpt><trkpt lat="42.8862022" lon="11.1183765"><ele>162.0</ele><time>2026-04-18T09:30:29.724Z</time></trkpt><trkpt lat="42.8862159" lon="11.1184799"><ele>162.0</ele><time>2026-04-18T09:30:30.718Z</time></trkpt><trkpt lat="42.8862689" lon="11.1187181"><ele>162.0</ele><time>2026-04-18T09:30:33.734Z</time></trkpt><trkpt lat="42.8863318" lon="11.1188486"><ele>162.0</ele><time>2026-04-18T09:30:35.72Z</time></trkpt><trkpt lat="42.8864264" lon="11.11895"><ele>162.0</ele><time>2026-04-18T09:30:37.725Z</time></trkpt><trkpt lat="42.8865215" lon="11.1190519"><ele>163.5</ele><time>2026-04-18T09:30:39.726Z</time></trkpt><trkpt lat="42.8865642" lon="11.1191189"><ele>165.0</ele><time>2026-04-18T09:30:41.718Z</time></trkpt><trkpt lat="42.8866038" lon="11.1192079"><ele>166.5</ele><time>2026-04-18T09:30:43.724Z</time></trkpt><trkpt lat="42.8866391" lon="11.1193103"><ele>168.0</ele><time>2026-04-18T09:30:45.725Z</time></trkpt><trkpt lat="42.8866589" lon="11.1194121"><ele>169.5</ele><time>2026-04-18T09:30:47.739Z</time></trkpt><trkpt lat="42.8866585" lon="11.1195091"><ele>171.0</ele><time>2026-04-18T09:30:50.722Z</time></trkpt><trkpt lat="42.8866535" lon="11.1196341"><ele>171.0</ele><time>2026-04-18T09:30:53.721Z</time></trkpt><trkpt lat="42.8865688" lon="11.1197967"><ele>171.0</ele><time>2026-04-18T09:30:57.723Z</time></trkpt><trkpt lat="42.8864968" lon="11.1198539"><ele>171.0</ele><time>2026-04-18T09:30:59.727Z</time></trkpt><trkpt lat="42.886416" lon="11.119905"><ele>171.0</ele><time>2026-04-18T09:31:01.721Z</time></trkpt><trkpt lat="42.8863728" lon="11.1199763"><ele>171.0</ele><time>2026-04-18T09:31:03.73Z</time></trkpt><trkpt lat="42.8863505" lon="11.1200727"><ele>170.0</ele><time>2026-04-18T09:31:05.721Z</time></trkpt><trkpt lat="42.8863506" lon="11.1202085"><ele>169.0</ele><time>2026-04-18T09:31:07.72Z</time></trkpt><trkpt lat="42.8863559" lon="11.1202986"><ele>168.0</ele><time>2026-04-18T09:31:08.723Z</time></trkpt><trkpt lat="42.8863447" lon="11.1203959"><ele>167.0</ele><time>2026-04-18T09:31:09.725Z</time></trkpt><trkpt lat="42.886314" lon="11.1205372"><ele>166.0</ele><time>2026-04-18T09:31:11.723Z</time></trkpt><trkpt lat="42.8862629" lon="11.1206383"><ele>165.0</ele><time>2026-04-18T09:31:13.72Z</time></trkpt><trkpt lat="42.8861496" lon="11.1207027"><ele>164.2</ele><time>2026-04-18T09:31:15.723Z</time></trkpt><trkpt lat="42.8860044" lon="11.1207444"><ele>163.4</ele><time>2026-04-18T09:31:17.72Z</time></trkpt><trkpt lat="42.8859315" lon="11.1207497"><ele>162.60000000000002</ele><time>2026-04-18T09:31:18.733Z</time></trkpt><trkpt lat="42.8858359" lon="11.1207472"><ele>161.8</ele><time>2026-04-18T09:31:20.725Z</time></trkpt><trkpt lat="42.8857718" lon="11.1207409"><ele>161.0</ele><time>2026-04-18T09:31:23.725Z</time></trkpt><trkpt lat="42.8856912" lon="11.1207658"><ele>163.0</ele><time>2026-04-18T09:31:27.721Z</time></trkpt><trkpt lat="42.8856098" lon="11.1208455"><ele>165.0</ele><time>2026-04-18T09:31:29.729Z</time></trkpt><trkpt lat="42.8855589" lon="11.120906"><ele>167.0</ele><time>2026-04-18T09:31:30.718Z</time></trkpt><trkpt lat="42.885499" lon="11.1209779"><ele>169.0</ele><time>2026-04-18T09:31:31.718Z</time></trkpt><trkpt lat="42.8854343" lon="11.1210721"><ele>171.0</ele><time>2026-04-18T09:31:32.725Z</time></trkpt><trkpt lat="42.8853785" lon="11.1211423"><ele>173.0</ele><time>2026-04-18T09:31:33.72Z</time></trkpt><trkpt lat="42.8853113" lon="11.1211557"><ele>173.0</ele><time>2026-04-18T09:31:34.734Z</time></trkpt><trkpt lat="42.8852206" lon="11.121179"><ele>173.0</ele><time>2026-04-18T09:31:35.724Z</time></trkpt><trkpt lat="42.8851571" lon="11.121198"><ele>173.0</ele><time>2026-04-18T09:31:36.725Z</time></trkpt><trkpt lat="42.8849776" lon="11.1212706"><ele>173.0</ele><time>2026-04-18T09:31:40.721Z</time></trkpt><trkpt lat="42.8849244" lon="11.1213229"><ele>173.0</ele><time>2026-04-18T09:31:43.725Z</time></trkpt><trkpt lat="42.8849231" lon="11.1214249"><ele>174.5</ele><time>2026-04-18T09:31:46.729Z</time></trkpt><trkpt lat="42.8849548" lon="11.1215927"><ele>176.0</ele><time>2026-04-18T09:31:48.716Z</time></trkpt><trkpt lat="42.8849861" lon="11.1217092"><ele>177.5</ele><time>2026-04-18T09:31:49.723Z</time></trkpt><trkpt lat="42.8850136" lon="11.1218222"><ele>179.0</ele><time>2026-04-18T09:31:50.721Z</time></trkpt><trkpt lat="42.8850431" lon="11.1219168"><ele>180.5</ele><time>2026-04-18T09:31:51.715Z</time></trkpt><trkpt lat="42.8850639" lon="11.1219985"><ele>182.0</ele><time>2026-04-18T09:31:52.726Z</time></trkpt><trkpt lat="42.8850895" lon="11.1221697"><ele>182.0</ele><time>2026-04-18T09:31:54.719Z</time></trkpt><trkpt lat="42.8850877" lon="11.1222625"><ele>182.0</ele><time>2026-04-18T09:31:55.732Z</time></trkpt><trkpt lat="42.8850467" lon="11.122412"><ele>182.0</ele><time>2026-04-18T09:31:57.733Z</time></trkpt><trkpt lat="42.8849991" lon="11.1226035"><ele>182.0</ele><time>2026-04-18T09:31:59.719Z</time></trkpt><trkpt lat="42.884972" lon="11.1226976"><ele>182.0</ele><time>2026-04-18T09:32:00.722Z</time></trkpt><trkpt lat="42.8849496" lon="11.122793"><ele>182.5</ele><time>2026-04-18T09:32:01.733Z</time></trkpt><trkpt lat="42.8849276" lon="11.122885"><ele>183.0</ele><time>2026-04-18T09:32:02.722Z</time></trkpt><trkpt lat="42.8849025" lon="11.1229835"><ele>183.5</ele><time>2026-04-18T09:32:03.726Z</time></trkpt><trkpt lat="42.8848745" lon="11.1230773"><ele>184.0</ele><time>2026-04-18T09:32:04.722Z</time></trkpt><trkpt lat="42.8848444" lon="11.123158"><ele>184.5</ele><time>2026-04-18T09:32:05.722Z</time></trkpt><trkpt lat="42.8848259" lon="11.1233228"><ele>185.0</ele><time>2026-04-18T09:32:07.725Z</time></trkpt><trkpt lat="42.8848305" lon="11.1234185"><ele>185.0</ele><time>2026-04-18T09:32:08.72Z</time></trkpt><trkpt lat="42.8848482" lon="11.1235047"><ele>185.0</ele><time>2026-04-18T09:32:09.716Z</time></trkpt><trkpt lat="42.8848752" lon="11.123593"><ele>185.0</ele><time>2026-04-18T09:32:10.719Z</time></trkpt><trkpt lat="42.8849047" lon="11.123669"><ele>185.0</ele><time>2026-04-18T09:32:11.729Z</time></trkpt><trkpt lat="42.8849393" lon="11.1238076"><ele>185.0</ele><time>2026-04-18T09:32:13.714Z</time></trkpt><trkpt lat="42.8849976" lon="11.1239629"><ele>185.0</ele><time>2026-04-18T09:32:15.721Z</time></trkpt><trkpt lat="42.8850246" lon="11.1240411"><ele>185.66666666666666</ele><time>2026-04-18T09:32:16.718Z</time></trkpt><trkpt lat="42.8850738" lon="11.1241624"><ele>186.33333333333334</ele><time>2026-04-18T09:32:18.729Z</time></trkpt><trkpt lat="42.8849556" lon="11.1245278"><ele>187.0</ele><time>2026-04-18T09:35:35.723Z</time></trkpt><trkpt lat="42.8849437" lon="11.1246204"><ele>187.0</ele><time>2026-04-18T09:35:36.717Z</time></trkpt><trkpt lat="42.884923" lon="11.1247063"><ele>187.0</ele><time>2026-04-18T09:35:37.72Z</time></trkpt><trkpt lat="42.8848814" lon="11.124776"><ele>187.0</ele><time>2026-04-18T09:35:38.728Z</time></trkpt><trkpt lat="42.884832" lon="11.1248401"><ele>187.0</ele><time>2026-04-18T09:35:39.721Z</time></trkpt><trkpt lat="42.8847851" lon="11.1249158"><ele>187.0</ele><time>2026-04-18T09:35:40.726Z</time></trkpt><trkpt lat="42.8847003" lon="11.1250389"><ele>187.0</ele><time>2026-04-18T09:35:42.717Z</time></trkpt><trkpt lat="42.884629" lon="11.1251123"><ele>186.7142857142857</ele><time>2026-04-18T09:35:44.728Z</time></trkpt><trkpt lat="42.884531" lon="11.1251837"><ele>186.42857142857144</ele><time>2026-04-18T09:35:46.715Z</time></trkpt><trkpt lat="42.884483" lon="11.1252401"><ele>186.14285714285714</ele><time>2026-04-18T09:35:47.726Z</time></trkpt><trkpt lat="42.8844307" lon="11.1253011"><ele>185.85714285714283</ele><time>2026-04-18T09:35:48.718Z</time></trkpt><trkpt lat="42.884377" lon="11.1253585"><ele>185.57142857142856</ele><time>2026-04-18T09:35:49.718Z</time></trkpt><trkpt lat="42.8843282" lon="11.1254154"><ele>185.28571428571428</ele><time>2026-04-18T09:35:50.725Z</time></trkpt><trkpt lat="42.8842746" lon="11.1254764"><ele>185.0</ele><time>2026-04-18T09:35:51.725Z</time></trkpt><trkpt lat="42.8842178" lon="11.1255493"><ele>185.0</ele><time>2026-04-18T09:35:52.727Z</time></trkpt><trkpt lat="42.8841001" lon="11.1256902"><ele>185.0</ele><time>2026-04-18T09:35:54.719Z</time></trkpt><trkpt lat="42.8840474" lon="11.125764"><ele>185.0</ele><time>2026-04-18T09:35:55.72Z</time></trkpt><trkpt lat="42.883996" lon="11.1258248"><ele>185.0</ele><time>2026-04-18T09:35:56.732Z</time></trkpt><trkpt lat="42.8839042" lon="11.125899"><ele>185.0</ele><time>2026-04-18T09:35:58.728Z</time></trkpt><trkpt lat="42.8837945" lon="11.1259784"><ele>183.66666666666666</ele><time>2026-04-18T09:36:00.722Z</time></trkpt><trkpt lat="42.8837277" lon="11.126021"><ele>182.33333333333331</ele><time>2026-04-18T09:36:01.731Z</time></trkpt><trkpt lat="42.8836593" lon="11.1260525"><ele>181.0</ele><time>2026-04-18T09:36:02.728Z</time></trkpt><trkpt lat="42.883596" lon="11.1260739"><ele>179.66666666666666</ele><time>2026-04-18T09:36:03.718Z</time></trkpt><trkpt lat="42.8834853" lon="11.1261077"><ele>178.33333333333334</ele><time>2026-04-18T09:36:05.722Z</time></trkpt><trkpt lat="42.8833824" lon="11.1261269"><ele>177.0</ele><time>2026-04-18T09:36:07.724Z</time></trkpt><trkpt lat="42.8832902" lon="11.126146"><ele>176.25</ele><time>2026-04-18T09:36:09.723Z</time></trkpt><trkpt lat="42.8832159" lon="11.1262121"><ele>175.5</ele><time>2026-04-18T09:36:11.726Z</time></trkpt><trkpt lat="42.8831594" lon="11.1262963"><ele>174.75</ele><time>2026-04-18T09:36:13.729Z</time></trkpt><trkpt lat="42.8829731" lon="11.1263815"><ele>174.0</ele><time>2026-04-18T09:36:17.721Z</time></trkpt><trkpt lat="42.8828524" lon="11.1263357"><ele>174.0</ele><time>2026-04-18T09:36:19.725Z</time></trkpt><trkpt lat="42.8827834" lon="11.1262935"><ele>174.0</ele><time>2026-04-18T09:36:20.73Z</time></trkpt><trkpt lat="42.8827144" lon="11.1262545"><ele>174.0</ele><time>2026-04-18T09:36:21.719Z</time></trkpt><trkpt lat="42.8826482" lon="11.1262267"><ele>174.0</ele><time>2026-04-18T09:36:22.727Z</time></trkpt><trkpt lat="42.8825314" lon="11.1262086"><ele>174.0</ele><time>2026-04-18T09:36:24.722Z</time></trkpt><trkpt lat="42.8824068" lon="11.126195"><ele>173.16666666666666</ele><time>2026-04-18T09:36:26.722Z</time></trkpt><trkpt lat="42.8823406" lon="11.1261929"><ele>172.33333333333334</ele><time>2026-04-18T09:36:27.717Z</time></trkpt><trkpt lat="42.8822624" lon="11.1261836"><ele>171.5</ele><time>2026-04-18T09:36:28.718Z</time></trkpt><trkpt lat="42.8821681" lon="11.1261852"><ele>170.66666666666669</ele><time>2026-04-18T09:36:29.727Z</time></trkpt><trkpt lat="42.8820818" lon="11.1261926"><ele>169.83333333333334</ele><time>2026-04-18T09:36:30.721Z</time></trkpt><trkpt lat="42.8820102" lon="11.1261963"><ele>169.0</ele><time>2026-04-18T09:36:31.714Z</time></trkpt><trkpt lat="42.8819474" lon="11.1261807"><ele>169.0</ele><time>2026-04-18T09:36:32.72Z</time></trkpt><trkpt lat="42.8818377" lon="11.126126"><ele>169.0</ele><time>2026-04-18T09:36:34.719Z</time></trkpt><trkpt lat="42.8816307" lon="11.1260675"><ele>169.0</ele><time>2026-04-18T09:36:37.723Z</time></trkpt><trkpt lat="42.8815343" lon="11.126062"><ele>169.0</ele><time>2026-04-18T09:36:38.716Z</time></trkpt><trkpt lat="42.8814337" lon="11.1260531"><ele>168.5</ele><time>2026-04-18T09:36:39.724Z</time></trkpt><trkpt lat="42.8813449" lon="11.1260492"><ele>168.0</ele><time>2026-04-18T09:36:40.733Z</time></trkpt><trkpt lat="42.8812751" lon="11.1260451"><ele>167.5</ele><time>2026-04-18T09:36:41.72Z</time></trkpt><trkpt lat="42.8811622" lon="11.1260664"><ele>167.0</ele><time>2026-04-18T09:36:43.719Z</time></trkpt><trkpt lat="42.8810984" lon="11.1260782"><ele>166.5</ele><time>2026-04-18T09:36:44.724Z</time></trkpt><trkpt lat="42.8810253" lon="11.1260748"><ele>166.0</ele><time>2026-04-18T09:36:45.719Z</time></trkpt><trkpt lat="42.880957" lon="11.1260644"><ele>165.33333333333334</ele><time>2026-04-18T09:36:46.723Z</time></trkpt><trkpt lat="42.8808912" lon="11.1260634"><ele>164.66666666666669</ele><time>2026-04-18T09:36:47.721Z</time></trkpt><trkpt lat="42.8808211" lon="11.1260695"><ele>164.0</ele><time>2026-04-18T09:36:48.727Z</time></trkpt><trkpt lat="42.8807441" lon="11.1260684"><ele>163.33333333333334</ele><time>2026-04-18T09:36:49.713Z</time></trkpt><trkpt lat="42.8806622" lon="11.1260686"><ele>162.66666666666666</ele><time>2026-04-18T09:36:50.725Z</time></trkpt><trkpt lat="42.8805784" lon="11.1260714"><ele>162.0</ele><time>2026-04-18T09:36:51.718Z</time></trkpt><trkpt lat="42.8804901" lon="11.1260634"><ele>162.0</ele><time>2026-04-18T09:36:52.728Z</time></trkpt><trkpt lat="42.8803927" lon="11.1260578"><ele>162.0</ele><time>2026-04-18T09:36:53.713Z</time></trkpt><trkpt lat="42.8802947" lon="11.1260475"><ele>162.0</ele><time>2026-04-18T09:36:54.72Z</time></trkpt><trkpt lat="42.8802045" lon="11.1260421"><ele>162.0</ele><time>2026-04-18T09:36:55.718Z</time></trkpt><trkpt lat="42.8800487" lon="11.1260482"><ele>162.0</ele><time>2026-04-18T09:36:57.723Z</time></trkpt><trkpt lat="42.8799771" lon="11.1260513"><ele>161.66666666666666</ele><time>2026-04-18T09:36:58.728Z</time></trkpt><trkpt lat="42.8799063" lon="11.1260548"><ele>161.33333333333334</ele><time>2026-04-18T09:36:59.733Z</time></trkpt><trkpt lat="42.8798438" lon="11.1260661"><ele>161.0</ele><time>2026-04-18T09:37:00.715Z</time></trkpt><trkpt lat="42.8797297" lon="11.1260704"><ele>160.66666666666669</ele><time>2026-04-18T09:37:02.732Z</time></trkpt><trkpt lat="42.8796435" lon="11.1261039"><ele>160.33333333333334</ele><time>2026-04-18T09:37:04.713Z</time></trkpt><trkpt lat="42.8795536" lon="11.1261541"><ele>160.0</ele><time>2026-04-18T09:37:06.728Z</time></trkpt><trkpt lat="42.8794568" lon="11.126218"><ele>160.0</ele><time>2026-04-18T09:37:08.719Z</time></trkpt><trkpt lat="42.879348" lon="11.1262856"><ele>160.0</ele><time>2026-04-18T09:37:10.728Z</time></trkpt><trkpt lat="42.8792518" lon="11.1263382"><ele>160.0</ele><time>2026-04-18T09:37:12.723Z</time></trkpt><trkpt lat="42.8791917" lon="11.1263851"><ele>160.0</ele><time>2026-04-18T09:37:14.724Z</time></trkpt><trkpt lat="42.8791284" lon="11.1264251"><ele>160.0</ele><time>2026-04-18T09:37:17.717Z</time></trkpt><trkpt lat="42.8789639" lon="11.1264738"><ele>160.16666666666669</ele><time>2026-04-18T09:37:23.723Z</time></trkpt><trkpt lat="42.8789175" lon="11.1265343"><ele>160.33333333333334</ele><time>2026-04-18T09:37:25.719Z</time></trkpt><trkpt lat="42.8788393" lon="11.1265959"><ele>160.5</ele><time>2026-04-18T09:37:28.729Z</time></trkpt><trkpt lat="42.878783" lon="11.1266575"><ele>160.66666666666666</ele><time>2026-04-18T09:37:30.715Z</time></trkpt><trkpt lat="42.8787252" lon="11.1267502"><ele>160.83333333333331</ele><time>2026-04-18T09:37:32.714Z</time></trkpt><trkpt lat="42.8786567" lon="11.1268548"><ele>161.0</ele><time>2026-04-18T09:37:34.718Z</time></trkpt><trkpt lat="42.878591" lon="11.1269185"><ele>161.0</ele><time>2026-04-18T09:37:36.718Z</time></trkpt><trkpt lat="42.8785276" lon="11.126966"><ele>161.0</ele><time>2026-04-18T09:37:39.73Z</time></trkpt><trkpt lat="42.8784181" lon="11.1267164"><ele>161.0</ele><time>2026-04-18T09:38:24.724Z</time></trkpt><trkpt lat="42.8783612" lon="11.1266419"><ele>161.0</ele><time>2026-04-18T09:38:27.713Z</time></trkpt><trkpt lat="42.8783205" lon="11.1265444"><ele>161.0</ele><time>2026-04-18T09:38:30.724Z</time></trkpt><trkpt lat="42.8782698" lon="11.1264588"><ele>158.4</ele><time>2026-04-18T09:39:05.728Z</time></trkpt><trkpt lat="42.8781757" lon="11.126282"><ele>155.8</ele><time>2026-04-18T09:39:09.723Z</time></trkpt><trkpt lat="42.878149" lon="11.1261902"><ele>153.20000000000002</ele><time>2026-04-18T09:39:11.718Z</time></trkpt><trkpt lat="42.8781068" lon="11.126098"><ele>150.60000000000002</ele><time>2026-04-18T09:39:16.72Z</time></trkpt><trkpt lat="42.8780202" lon="11.1260525"><ele>148.0</ele><time>2026-04-18T09:39:18.728Z</time></trkpt><trkpt lat="42.8779363" lon="11.126023"><ele>148.0</ele><time>2026-04-18T09:39:20.724Z</time></trkpt><trkpt lat="42.8778359" lon="11.1259975"><ele>148.0</ele><time>2026-04-18T09:39:22.718Z</time></trkpt><trkpt lat="42.8777127" lon="11.1259878"><ele>148.0</ele><time>2026-04-18T09:39:24.719Z</time></trkpt><trkpt lat="42.8775955" lon="11.126003"><ele>148.0</ele><time>2026-04-18T09:39:26.716Z</time></trkpt><trkpt lat="42.8774621" lon="11.1260374"><ele>147.66666666666669</ele><time>2026-04-18T09:39:28.72Z</time></trkpt><trkpt lat="42.8773735" lon="11.1260771"><ele>147.33333333333334</ele><time>2026-04-18T09:39:30.714Z</time></trkpt><trkpt lat="42.8772826" lon="11.1261132"><ele>147.0</ele><time>2026-04-18T09:39:33.72Z</time></trkpt><trkpt lat="42.8771781" lon="11.1261386"><ele>146.66666666666666</ele><time>2026-04-18T09:39:35.731Z</time></trkpt><trkpt lat="42.8771107" lon="11.1261639"><ele>146.33333333333331</ele><time>2026-04-18T09:39:36.718Z</time></trkpt><trkpt lat="42.8770327" lon="11.1261928"><ele>146.0</ele><time>2026-04-18T09:39:37.718Z</time></trkpt><trkpt lat="42.8769577" lon="11.1262287"><ele>146.0</ele><time>2026-04-18T09:39:38.726Z</time></trkpt><trkpt lat="42.8768874" lon="11.1262745"><ele>146.0</ele><time>2026-04-18T09:39:39.72Z</time></trkpt><trkpt lat="42.8768171" lon="11.1263275"><ele>146.0</ele><time>2026-04-18T09:39:40.723Z</time></trkpt><trkpt lat="42.8767569" lon="11.126387"><ele>146.0</ele><time>2026-04-18T09:39:41.714Z</time></trkpt><trkpt lat="42.8767039" lon="11.1264517"><ele>146.0</ele><time>2026-04-18T09:39:42.712Z</time></trkpt><trkpt lat="42.8766559" lon="11.1265217"><ele>146.0</ele><time>2026-04-18T09:39:43.716Z</time></trkpt><trkpt lat="42.8766132" lon="11.1265961"><ele>146.0</ele><time>2026-04-18T09:39:44.718Z</time></trkpt><trkpt lat="42.8765701" lon="11.1266708"><ele>145.33333333333331</ele><time>2026-04-18T09:39:45.711Z</time></trkpt><trkpt lat="42.8765163" lon="11.1267435"><ele>144.66666666666666</ele><time>2026-04-18T09:39:46.723Z</time></trkpt><trkpt lat="42.876463" lon="11.1268169"><ele>144.0</ele><time>2026-04-18T09:39:47.728Z</time></trkpt><trkpt lat="42.87635" lon="11.1269689"><ele>143.33333333333334</ele><time>2026-04-18T09:39:49.725Z</time></trkpt><trkpt lat="42.8763053" lon="11.1270338"><ele>142.66666666666669</ele><time>2026-04-18T09:39:50.722Z</time></trkpt><trkpt lat="42.8762571" lon="11.1271003"><ele>142.0</ele><time>2026-04-18T09:39:51.718Z</time></trkpt><trkpt lat="42.8762043" lon="11.127181"><ele>142.0</ele><time>2026-04-18T09:39:52.728Z</time></trkpt><trkpt lat="42.8761412" lon="11.1272612"><ele>142.0</ele><time>2026-04-18T09:39:53.714Z</time></trkpt><trkpt lat="42.8760676" lon="11.1273353"><ele>142.0</ele><time>2026-04-18T09:39:54.718Z</time></trkpt><trkpt lat="42.8759902" lon="11.1274108"><ele>142.0</ele><time>2026-04-18T09:39:55.727Z</time></trkpt><trkpt lat="42.87593" lon="11.1274865"><ele>142.0</ele><time>2026-04-18T09:39:56.719Z</time></trkpt><trkpt lat="42.8758614" lon="11.1275645"><ele>142.0</ele><time>2026-04-18T09:39:57.719Z</time></trkpt><trkpt lat="42.8758018" lon="11.1276362"><ele>141.5</ele><time>2026-04-18T09:39:58.717Z</time></trkpt><trkpt lat="42.8757388" lon="11.1277107"><ele>141.0</ele><time>2026-04-18T09:39:59.721Z</time></trkpt><trkpt lat="42.8756696" lon="11.1277776"><ele>140.5</ele><time>2026-04-18T09:40:00.722Z</time></trkpt><trkpt lat="42.875613" lon="11.1278442"><ele>140.0</ele><time>2026-04-18T09:40:01.727Z</time></trkpt><trkpt lat="42.875563" lon="11.1279022"><ele>139.5</ele><time>2026-04-18T09:40:02.716Z</time></trkpt><trkpt lat="42.8754949" lon="11.128017"><ele>139.0</ele><time>2026-04-18T09:40:04.722Z</time></trkpt><trkpt lat="42.8754402" lon="11.1281101"><ele>139.0</ele><time>2026-04-18T09:40:06.719Z</time></trkpt><trkpt lat="42.8753625" lon="11.1281597"><ele>139.0</ele><time>2026-04-18T09:40:08.723Z</time></trkpt><trkpt lat="42.8751966" lon="11.1281625"><ele>139.0</ele><time>2026-04-18T09:40:12.725Z</time></trkpt><trkpt lat="42.8751233" lon="11.128204"><ele>139.0</ele><time>2026-04-18T09:40:40.713Z</time></trkpt><trkpt lat="42.8749886" lon="11.1283142"><ele>137.8</ele><time>2026-04-18T09:40:43.723Z</time></trkpt><trkpt lat="42.8749099" lon="11.1283741"><ele>136.60000000000002</ele><time>2026-04-18T09:40:44.714Z</time></trkpt><trkpt lat="42.8748176" lon="11.1284601"><ele>135.4</ele><time>2026-04-18T09:40:45.715Z</time></trkpt><trkpt lat="42.8747209" lon="11.1285538"><ele>134.20000000000002</ele><time>2026-04-18T09:40:46.717Z</time></trkpt><trkpt lat="42.8746494" lon="11.1286214"><ele>133.0</ele><time>2026-04-18T09:40:47.715Z</time></trkpt><trkpt lat="42.8745906" lon="11.1286823"><ele>133.0</ele><time>2026-04-18T09:40:48.723Z</time></trkpt><trkpt lat="42.8745317" lon="11.1287604"><ele>133.0</ele><time>2026-04-18T09:40:50.724Z</time></trkpt><trkpt lat="42.8745052" lon="11.128898"><ele>133.0</ele><time>2026-04-18T09:40:52.72Z</time></trkpt><trkpt lat="42.8744551" lon="11.1290469"><ele>133.0</ele><time>2026-04-18T09:40:54.718Z</time></trkpt><trkpt lat="42.87436" lon="11.1291334"><ele>133.0</ele><time>2026-04-18T09:40:56.727Z</time></trkpt><trkpt lat="42.874283" lon="11.1291724"><ele>132.4</ele><time>2026-04-18T09:40:57.724Z</time></trkpt><trkpt lat="42.8741975" lon="11.1292178"><ele>131.8</ele><time>2026-04-18T09:40:58.718Z</time></trkpt><trkpt lat="42.8741022" lon="11.1292793"><ele>131.2</ele><time>2026-04-18T09:40:59.712Z</time></trkpt><trkpt lat="42.8740053" lon="11.1293823"><ele>130.6</ele><time>2026-04-18T09:41:00.718Z</time></trkpt><trkpt lat="42.8739339" lon="11.1294993"><ele>130.0</ele><time>2026-04-18T09:41:01.719Z</time></trkpt><trkpt lat="42.8738561" lon="11.1297539"><ele>130.0</ele><time>2026-04-18T09:41:03.722Z</time></trkpt><trkpt lat="42.8738202" lon="11.1298502"><ele>130.0</ele><time>2026-04-18T09:41:04.72Z</time></trkpt><trkpt lat="42.8737789" lon="11.1299361"><ele>130.0</ele><time>2026-04-18T09:41:05.724Z</time></trkpt><trkpt lat="42.8737326" lon="11.1300128"><ele>130.0</ele><time>2026-04-18T09:41:06.726Z</time></trkpt><trkpt lat="42.8736644" lon="11.1301534"><ele>130.0</ele><time>2026-04-18T09:41:08.719Z</time></trkpt><trkpt lat="42.8736366" lon="11.1302402"><ele>130.0</ele><time>2026-04-18T09:41:09.715Z</time></trkpt><trkpt lat="42.873604" lon="11.1303172"><ele>129.8</ele><time>2026-04-18T09:41:10.72Z</time></trkpt><trkpt lat="42.8735131" lon="11.1303979"><ele>129.6</ele><time>2026-04-18T09:41:12.718Z</time></trkpt><trkpt lat="42.873403" lon="11.1304386"><ele>129.4</ele><time>2026-04-18T09:41:14.717Z</time></trkpt><trkpt lat="42.8733251" lon="11.1304992"><ele>129.2</ele><time>2026-04-18T09:41:16.722Z</time></trkpt><trkpt lat="42.8732954" lon="11.130597"><ele>129.0</ele><time>2026-04-18T09:41:18.721Z</time></trkpt><trkpt lat="42.8733159" lon="11.1307632"><ele>128.6</ele><time>2026-04-18T09:41:20.714Z</time></trkpt><trkpt lat="42.8733444" lon="11.1308695"><ele>128.2</ele><time>2026-04-18T09:41:21.717Z</time></trkpt><trkpt lat="42.8733829" lon="11.1309772"><ele>127.79999999999998</ele><time>2026-04-18T09:41:22.714Z</time></trkpt><trkpt lat="42.8734693" lon="11.1311577"><ele>127.39999999999999</ele><time>2026-04-18T09:41:24.728Z</time></trkpt><trkpt lat="42.8735102" lon="11.1312541"><ele>127.0</ele><time>2026-04-18T09:41:25.725Z</time></trkpt><trkpt lat="42.8735557" lon="11.1313582"><ele>129.0</ele><time>2026-04-18T09:41:26.719Z</time></trkpt><trkpt lat="42.8735992" lon="11.1314747"><ele>131.0</ele><time>2026-04-18T09:41:27.718Z</time></trkpt><trkpt lat="42.8736432" lon="11.1317332"><ele>133.0</ele><time>2026-04-18T09:41:29.713Z</time></trkpt><trkpt lat="42.8736366" lon="11.1318788"><ele>135.0</ele><time>2026-04-18T09:41:30.716Z</time></trkpt><trkpt lat="42.873609" lon="11.1320336"><ele>135.0</ele><time>2026-04-18T09:41:31.724Z</time></trkpt><trkpt lat="42.8735625" lon="11.1321984"><ele>135.0</ele><time>2026-04-18T09:41:32.722Z</time></trkpt><trkpt lat="42.8735071" lon="11.1323792"><ele>135.0</ele><time>2026-04-18T09:41:33.714Z</time></trkpt><trkpt lat="42.8734599" lon="11.1325647"><ele>135.0</ele><time>2026-04-18T09:41:34.716Z</time></trkpt><trkpt lat="42.8734191" lon="11.1327349"><ele>135.0</ele><time>2026-04-18T09:41:35.717Z</time></trkpt><trkpt lat="42.8733833" lon="11.1328978"><ele>135.0</ele><time>2026-04-18T09:41:36.725Z</time></trkpt><trkpt lat="42.8733652" lon="11.1330454"><ele>135.0</ele><time>2026-04-18T09:41:37.721Z</time></trkpt><trkpt lat="42.8733579" lon="11.1331733"><ele>135.0</ele><time>2026-04-18T09:41:38.717Z</time></trkpt><trkpt lat="42.8733627" lon="11.1332981"><ele>135.0</ele><time>2026-04-18T09:41:39.722Z</time></trkpt><trkpt lat="42.8733682" lon="11.1334047"><ele>134.6</ele><time>2026-04-18T09:41:40.723Z</time></trkpt><trkpt lat="42.8733795" lon="11.1335"><ele>134.2</ele><time>2026-04-18T09:41:41.731Z</time></trkpt><trkpt lat="42.8733949" lon="11.1335869"><ele>133.8</ele><time>2026-04-18T09:41:42.715Z</time></trkpt><trkpt lat="42.8734162" lon="11.1336779"><ele>133.4</ele><time>2026-04-18T09:41:43.724Z</time></trkpt><trkpt lat="42.8734891" lon="11.1338727"><ele>133.0</ele><time>2026-04-18T09:41:45.715Z</time></trkpt><trkpt lat="42.873536" lon="11.1339833"><ele>134.0</ele><time>2026-04-18T09:41:46.719Z</time></trkpt><trkpt lat="42.8735771" lon="11.1340874"><ele>135.0</ele><time>2026-04-18T09:41:47.712Z</time></trkpt><trkpt lat="42.8736167" lon="11.1341762"><ele>136.0</ele><time>2026-04-18T09:41:48.717Z</time></trkpt><trkpt lat="42.8736452" lon="11.1342593"><ele>137.0</ele><time>2026-04-18T09:41:49.714Z</time></trkpt><trkpt lat="42.8736962" lon="11.1344056"><ele>138.0</ele><time>2026-04-18T09:41:51.727Z</time></trkpt><trkpt lat="42.8737513" lon="11.1345527"><ele>138.0</ele><time>2026-04-18T09:41:53.715Z</time></trkpt><trkpt lat="42.873782" lon="11.1346303"><ele>138.0</ele><time>2026-04-18T09:41:54.714Z</time></trkpt><trkpt lat="42.8738275" lon="11.1347957"><ele>138.0</ele><time>2026-04-18T09:41:56.719Z</time></trkpt><trkpt lat="42.8738372" lon="11.1348815"><ele>138.0</ele><time>2026-04-18T09:41:57.714Z</time></trkpt><trkpt lat="42.8738266" lon="11.1350354"><ele>138.0</ele><time>2026-04-18T09:41:59.718Z</time></trkpt><trkpt lat="42.8738104" lon="11.1351927"><ele>138.25</ele><time>2026-04-18T09:42:01.712Z</time></trkpt><trkpt lat="42.8738081" lon="11.1352851"><ele>138.5</ele><time>2026-04-18T09:42:02.723Z</time></trkpt><trkpt lat="42.8738129" lon="11.1353777"><ele>138.75</ele><time>2026-04-18T09:42:03.72Z</time></trkpt><trkpt lat="42.8738211" lon="11.1355481"><ele>139.0</ele><time>2026-04-18T09:42:05.712Z</time></trkpt><trkpt lat="42.8738173" lon="11.1358237"><ele>139.0</ele><time>2026-04-18T09:42:08.722Z</time></trkpt><trkpt lat="42.8738113" lon="11.1359544"><ele>139.0</ele><time>2026-04-18T09:42:09.713Z</time></trkpt><trkpt lat="42.8738008" lon="11.1361101"><ele>139.0</ele><time>2026-04-18T09:42:10.716Z</time></trkpt><trkpt lat="42.8737849" lon="11.1362831"><ele>139.0</ele><time>2026-04-18T09:42:11.717Z</time></trkpt><trkpt lat="42.8737678" lon="11.1364615"><ele>139.0</ele><time>2026-04-18T09:42:12.72Z</time></trkpt><trkpt lat="42.8737463" lon="11.1366393"><ele>139.0</ele><time>2026-04-18T09:42:13.716Z</time></trkpt><trkpt lat="42.8737255" lon="11.1367988"><ele>139.0</ele><time>2026-04-18T09:42:14.718Z</time></trkpt><trkpt lat="42.8737014" lon="11.1369421"><ele>139.0</ele><time>2026-04-18T09:42:15.729Z</time></trkpt><trkpt lat="42.8736796" lon="11.1370639"><ele>139.0</ele><time>2026-04-18T09:42:16.721Z</time></trkpt><trkpt lat="42.873661" lon="11.1371676"><ele>139.0</ele><time>2026-04-18T09:42:17.72Z</time></trkpt><trkpt lat="42.8736323" lon="11.1373593"><ele>139.0</ele><time>2026-04-18T09:42:19.716Z</time></trkpt><trkpt lat="42.8736177" lon="11.1375912"><ele>139.0</ele><time>2026-04-18T09:42:21.72Z</time></trkpt><trkpt lat="42.8735926" lon="11.1378481"><ele>138.5</ele><time>2026-04-18T09:42:23.715Z</time></trkpt><trkpt lat="42.8735708" lon="11.1381489"><ele>138.0</ele><time>2026-04-18T09:42:25.716Z</time></trkpt><trkpt lat="42.8735665" lon="11.1384691"><ele>137.0</ele><time>2026-04-18T09:42:27.716Z</time></trkpt><trkpt lat="42.8735639" lon="11.1387615"><ele>136.0</ele><time>2026-04-18T09:42:29.715Z</time></trkpt><trkpt lat="42.8735318" lon="11.1394065"><ele>133.0</ele><time>2026-04-18T09:42:33.716Z</time></trkpt><trkpt lat="42.8735235" lon="11.139733"><ele>130.0</ele><time>2026-04-18T09:42:35.718Z</time></trkpt><trkpt lat="42.8735118" lon="11.1400698"><ele>130.0</ele><time>2026-04-18T09:42:37.716Z</time></trkpt><trkpt lat="42.8734982" lon="11.1404158"><ele>130.0</ele><time>2026-04-18T09:42:39.716Z</time></trkpt><trkpt lat="42.8734887" lon="11.1407686"><ele>129.0</ele><time>2026-04-18T09:42:41.72Z</time></trkpt><trkpt lat="42.8734935" lon="11.1411772"><ele>128.0</ele><time>2026-04-18T09:42:43.718Z</time></trkpt><trkpt lat="42.8734909" lon="11.1416136"><ele>127.5</ele><time>2026-04-18T09:42:45.726Z</time></trkpt><trkpt lat="42.8734677" lon="11.1420422"><ele>127.0</ele><time>2026-04-18T09:42:47.713Z</time></trkpt><trkpt lat="42.8734386" lon="11.1424363"><ele>126.5</ele><time>2026-04-18T09:42:49.716Z</time></trkpt><trkpt lat="42.8734207" lon="11.1427828"><ele>126.0</ele><time>2026-04-18T09:42:51.718Z</time></trkpt><trkpt lat="42.8733303" lon="11.1434734"><ele>128.0</ele><time>2026-04-18T09:42:55.718Z</time></trkpt><trkpt lat="42.8731416" lon="11.1438843"><ele>130.0</ele><time>2026-04-18T09:42:57.716Z</time></trkpt><trkpt lat="42.8729653" lon="11.1443573"><ele>130.5</ele><time>2026-04-18T09:42:59.715Z</time></trkpt><trkpt lat="42.8728442" lon="11.1447881"><ele>131.0</ele><time>2026-04-18T09:43:01.716Z</time></trkpt><trkpt lat="42.8727649" lon="11.1451349"><ele>132.0</ele><time>2026-04-18T09:43:03.721Z</time></trkpt><trkpt lat="42.8727" lon="11.1454548"><ele>133.0</ele><time>2026-04-18T09:43:05.716Z</time></trkpt><trkpt lat="42.8726582" lon="11.14575"><ele>133.25</ele><time>2026-04-18T09:43:07.717Z</time></trkpt><trkpt lat="42.8726742" lon="11.1459794"><ele>133.5</ele><time>2026-04-18T09:43:09.723Z</time></trkpt><trkpt lat="42.8727102" lon="11.1461621"><ele>133.75</ele><time>2026-04-18T09:43:11.713Z</time></trkpt><trkpt lat="42.8727103" lon="11.1462699"><ele>134.0</ele><time>2026-04-18T09:43:13.715Z</time></trkpt><trkpt lat="42.8723409" lon="11.1461907"><ele>131.66666666666666</ele><time>2026-04-18T09:45:17.716Z</time></trkpt><trkpt lat="42.8722292" lon="11.1461564"><ele>129.33333333333334</ele><time>2026-04-18T09:45:18.724Z</time></trkpt><trkpt lat="42.8719956" lon="11.1461601"><ele>127.0</ele><time>2026-04-18T09:45:20.714Z</time></trkpt><trkpt lat="42.8718684" lon="11.1461869"><ele>126.39999999999999</ele><time>2026-04-18T09:45:21.72Z</time></trkpt><trkpt lat="42.8717443" lon="11.1462122"><ele>125.79999999999998</ele><time>2026-04-18T09:45:22.715Z</time></trkpt><trkpt lat="42.8716482" lon="11.146246"><ele>125.2</ele><time>2026-04-18T09:45:23.718Z</time></trkpt><trkpt lat="42.8715637" lon="11.1462603"><ele>124.6</ele><time>2026-04-18T09:45:24.71Z</time></trkpt><trkpt lat="42.8714758" lon="11.146254"><ele>124.0</ele><time>2026-04-18T09:45:25.721Z</time></trkpt><trkpt lat="42.8713852" lon="11.1462246"><ele>124.0</ele><time>2026-04-18T09:45:26.72Z</time></trkpt><trkpt lat="42.8712907" lon="11.1461809"><ele>124.0</ele><time>2026-04-18T09:45:27.717Z</time></trkpt><trkpt lat="42.8712004" lon="11.1461149"><ele>124.0</ele><time>2026-04-18T09:45:28.718Z</time></trkpt><trkpt lat="42.8710952" lon="11.1460597"><ele>124.0</ele><time>2026-04-18T09:45:29.719Z</time></trkpt><trkpt lat="42.8709749" lon="11.1460229"><ele>124.0</ele><time>2026-04-18T09:45:30.716Z</time></trkpt><trkpt lat="42.8708412" lon="11.145984"><ele>123.0</ele><time>2026-04-18T09:45:31.72Z</time></trkpt><trkpt lat="42.8707017" lon="11.1459489"><ele>122.0</ele><time>2026-04-18T09:45:32.711Z</time></trkpt><trkpt lat="42.8705705" lon="11.1459312"><ele>121.0</ele><time>2026-04-18T09:45:33.718Z</time></trkpt><trkpt lat="42.8703648" lon="11.1459059"><ele>121.0</ele><time>2026-04-18T09:45:35.723Z</time></trkpt><trkpt lat="42.8702742" lon="11.1458655"><ele>121.0</ele><time>2026-04-18T09:45:36.715Z</time></trkpt><trkpt lat="42.8701823" lon="11.1458036"><ele>121.0</ele><time>2026-04-18T09:45:37.721Z</time></trkpt><trkpt lat="42.8700974" lon="11.1457196"><ele>121.0</ele><time>2026-04-18T09:45:38.71Z</time></trkpt><trkpt lat="42.8699972" lon="11.1456261"><ele>121.0</ele><time>2026-04-18T09:45:39.708Z</time></trkpt><trkpt lat="42.8698879" lon="11.1455305"><ele>119.0</ele><time>2026-04-18T09:45:40.716Z</time></trkpt><trkpt lat="42.8697583" lon="11.1454439"><ele>117.0</ele><time>2026-04-18T09:45:41.72Z</time></trkpt><trkpt lat="42.869602" lon="11.1453751"><ele>115.0</ele><time>2026-04-18T09:45:42.723Z</time></trkpt><trkpt lat="42.8694324" lon="11.1453103"><ele>114.66666666666667</ele><time>2026-04-18T09:45:43.729Z</time></trkpt><trkpt lat="42.8692647" lon="11.1452605"><ele>114.33333333333334</ele><time>2026-04-18T09:45:44.717Z</time></trkpt><trkpt lat="42.8691022" lon="11.145223"><ele>114.0</ele><time>2026-04-18T09:45:45.713Z</time></trkpt><trkpt lat="42.8689356" lon="11.1451756"><ele>114.0</ele><time>2026-04-18T09:45:46.712Z</time></trkpt><trkpt lat="42.8687622" lon="11.1451397"><ele>114.0</ele><time>2026-04-18T09:45:47.724Z</time></trkpt><trkpt lat="42.868604" lon="11.1451053"><ele>114.0</ele><time>2026-04-18T09:45:48.714Z</time></trkpt><trkpt lat="42.8684868" lon="11.1450626"><ele>114.0</ele><time>2026-04-18T09:45:49.711Z</time></trkpt><trkpt lat="42.8683832" lon="11.1450037"><ele>114.0</ele><time>2026-04-18T09:45:50.724Z</time></trkpt><trkpt lat="42.8682846" lon="11.1449324"><ele>114.0</ele><time>2026-04-18T09:45:51.712Z</time></trkpt><trkpt lat="42.8681949" lon="11.1448365"><ele>114.0</ele><time>2026-04-18T09:45:52.724Z</time></trkpt><trkpt lat="42.8681126" lon="11.1447322"><ele>113.0</ele><time>2026-04-18T09:45:53.716Z</time></trkpt><trkpt lat="42.8680271" lon="11.1446284"><ele>112.0</ele><time>2026-04-18T09:45:54.717Z</time></trkpt><trkpt lat="42.8679156" lon="11.1444383"><ele>111.0</ele><time>2026-04-18T09:45:56.724Z</time></trkpt><trkpt lat="42.8678871" lon="11.1443058"><ele>110.0</ele><time>2026-04-18T09:45:57.716Z</time></trkpt><trkpt lat="42.8678583" lon="11.1441249"><ele>110.25</ele><time>2026-04-18T09:45:58.722Z</time></trkpt><trkpt lat="42.8678325" lon="11.1439514"><ele>110.5</ele><time>2026-04-18T09:45:59.716Z</time></trkpt><trkpt lat="42.8678091" lon="11.1437891"><ele>110.75</ele><time>2026-04-18T09:46:00.726Z</time></trkpt><trkpt lat="42.8677925" lon="11.1436395"><ele>111.0</ele><time>2026-04-18T09:46:01.716Z</time></trkpt><trkpt lat="42.8677784" lon="11.1435003"><ele>111.0</ele><time>2026-04-18T09:46:02.717Z</time></trkpt><trkpt lat="42.8677564" lon="11.1433786"><ele>111.0</ele><time>2026-04-18T09:46:03.715Z</time></trkpt><trkpt lat="42.8677291" lon="11.1432827"><ele>111.0</ele><time>2026-04-18T09:46:04.72Z</time></trkpt><trkpt lat="42.8676817" lon="11.1431788"><ele>111.0</ele><time>2026-04-18T09:46:06.729Z</time></trkpt><trkpt lat="42.867613" lon="11.1431691"><ele>111.0</ele><time>2026-04-18T09:46:08.71Z</time></trkpt><trkpt lat="42.8675161" lon="11.1432164"><ele>111.0</ele><time>2026-04-18T09:46:10.712Z</time></trkpt><trkpt lat="42.8674461" lon="11.1432438"><ele>111.0</ele><time>2026-04-18T09:46:11.718Z</time></trkpt><trkpt lat="42.8673704" lon="11.1432847"><ele>111.0</ele><time>2026-04-18T09:46:12.717Z</time></trkpt><trkpt lat="42.8672809" lon="11.143324"><ele>111.0</ele><time>2026-04-18T09:46:13.716Z</time></trkpt><trkpt lat="42.8671972" lon="11.1433662"><ele>111.0</ele><time>2026-04-18T09:46:14.728Z</time></trkpt><trkpt lat="42.8671229" lon="11.1434147"><ele>111.0</ele><time>2026-04-18T09:46:15.713Z</time></trkpt><trkpt lat="42.8669912" lon="11.1435866"><ele>111.0</ele><time>2026-04-18T09:46:17.715Z</time></trkpt><trkpt lat="42.8669415" lon="11.1436801"><ele>111.0</ele><time>2026-04-18T09:46:18.722Z</time></trkpt><trkpt lat="42.8669031" lon="11.1437533"><ele>111.0</ele><time>2026-04-18T09:46:19.72Z</time></trkpt><trkpt lat="42.8668169" lon="11.14384"><ele>111.0</ele><time>2026-04-18T09:46:21.717Z</time></trkpt><trkpt lat="42.866723" lon="11.1437883"><ele>111.0</ele><time>2026-04-18T09:46:23.723Z</time></trkpt><trkpt lat="42.8666519" lon="11.14371"><ele>110.5</ele><time>2026-04-18T09:46:24.715Z</time></trkpt><trkpt lat="42.8665703" lon="11.1436016"><ele>110.0</ele><time>2026-04-18T09:46:25.715Z</time></trkpt><trkpt lat="42.866494" lon="11.1434806"><ele>109.5</ele><time>2026-04-18T09:46:26.721Z</time></trkpt><trkpt lat="42.8664211" lon="11.143338"><ele>109.0</ele><time>2026-04-18T09:46:27.714Z</time></trkpt><trkpt lat="42.8663464" lon="11.1431481"><ele>108.33333333333334</ele><time>2026-04-18T09:46:28.716Z</time></trkpt><trkpt lat="42.8662711" lon="11.142943"><ele>107.66666666666666</ele><time>2026-04-18T09:46:29.726Z</time></trkpt><trkpt lat="42.8661904" lon="11.1427526"><ele>107.0</ele><time>2026-04-18T09:46:30.72Z</time></trkpt><trkpt lat="42.8660998" lon="11.1425733"><ele>107.0</ele><time>2026-04-18T09:46:31.713Z</time></trkpt><trkpt lat="42.8660154" lon="11.1424173"><ele>107.0</ele><time>2026-04-18T09:46:32.714Z</time></trkpt><trkpt lat="42.8659327" lon="11.1423155"><ele>107.0</ele><time>2026-04-18T09:46:33.719Z</time></trkpt><trkpt lat="42.8658187" lon="11.1422655"><ele>107.0</ele><time>2026-04-18T09:46:34.726Z</time></trkpt><trkpt lat="42.8656723" lon="11.1422417"><ele>105.0</ele><time>2026-04-18T09:46:35.724Z</time></trkpt><trkpt lat="42.8655152" lon="11.1422457"><ele>103.0</ele><time>2026-04-18T09:46:36.722Z</time></trkpt><trkpt lat="42.8652177" lon="11.1422276"><ele>103.25</ele><time>2026-04-18T09:46:38.73Z</time></trkpt><trkpt lat="42.8650656" lon="11.1422038"><ele>103.5</ele><time>2026-04-18T09:46:39.715Z</time></trkpt><trkpt lat="42.8649253" lon="11.1421631"><ele>103.75</ele><time>2026-04-18T09:46:40.714Z</time></trkpt><trkpt lat="42.8647814" lon="11.1421456"><ele>104.0</ele><time>2026-04-18T09:46:41.716Z</time></trkpt><trkpt lat="42.8646331" lon="11.1421408"><ele>104.0</ele><time>2026-04-18T09:46:42.719Z</time></trkpt><trkpt lat="42.8644947" lon="11.1421237"><ele>104.0</ele><time>2026-04-18T09:46:43.723Z</time></trkpt><trkpt lat="42.8643525" lon="11.1420906"><ele>104.0</ele><time>2026-04-18T09:46:44.722Z</time></trkpt><trkpt lat="42.8642052" lon="11.1420322"><ele>104.0</ele><time>2026-04-18T09:46:45.716Z</time></trkpt><trkpt lat="42.8640713" lon="11.1419654"><ele>104.2</ele><time>2026-04-18T09:46:46.717Z</time></trkpt><trkpt lat="42.8639457" lon="11.1418996"><ele>104.4</ele><time>2026-04-18T09:46:47.717Z</time></trkpt><trkpt lat="42.8638396" lon="11.1418495"><ele>104.6</ele><time>2026-04-18T09:46:48.71Z</time></trkpt><trkpt lat="42.8637622" lon="11.14182"><ele>104.8</ele><time>2026-04-18T09:46:49.714Z</time></trkpt><trkpt lat="42.8636677" lon="11.1418198"><ele>105.0</ele><time>2026-04-18T09:46:50.722Z</time></trkpt><trkpt lat="42.8635549" lon="11.1418326"><ele>105.0</ele><time>2026-04-18T09:46:51.721Z</time></trkpt><trkpt lat="42.863428" lon="11.1418568"><ele>105.0</ele><time>2026-04-18T09:46:52.715Z</time></trkpt><trkpt lat="42.8632981" lon="11.1418754"><ele>105.0</ele><time>2026-04-18T09:46:53.715Z</time></trkpt><trkpt lat="42.8631626" lon="11.1418865"><ele>105.0</ele><time>2026-04-18T09:46:54.716Z</time></trkpt><trkpt lat="42.8630241" lon="11.1418748"><ele>105.0</ele><time>2026-04-18T09:46:55.724Z</time></trkpt><trkpt lat="42.8628936" lon="11.141851"><ele>105.0</ele><time>2026-04-18T09:46:56.716Z</time></trkpt><trkpt lat="42.862788" lon="11.1418153"><ele>105.0</ele><time>2026-04-18T09:46:57.717Z</time></trkpt><trkpt lat="42.8626739" lon="11.1416725"><ele>105.0</ele><time>2026-04-18T09:46:59.713Z</time></trkpt><trkpt lat="42.8626485" lon="11.1415771"><ele>104.6</ele><time>2026-04-18T09:47:00.724Z</time></trkpt><trkpt lat="42.8626099" lon="11.1414931"><ele>104.2</ele><time>2026-04-18T09:47:01.719Z</time></trkpt><trkpt lat="42.8624827" lon="11.1414479"><ele>103.80000000000001</ele><time>2026-04-18T09:47:03.723Z</time></trkpt><trkpt lat="42.8623919" lon="11.141471"><ele>103.4</ele><time>2026-04-18T09:47:04.713Z</time></trkpt><trkpt lat="42.862307" lon="11.1415078"><ele>103.0</ele><time>2026-04-18T09:47:05.72Z</time></trkpt><trkpt lat="42.8622421" lon="11.1415306"><ele>102.80000000000001</ele><time>2026-04-18T09:47:06.719Z</time></trkpt><trkpt lat="42.8621704" lon="11.1415737"><ele>102.6</ele><time>2026-04-18T09:47:08.718Z</time></trkpt><trkpt lat="42.8620909" lon="11.1416533"><ele>102.4</ele><time>2026-04-18T09:47:38.719Z</time></trkpt><trkpt lat="42.8620955" lon="11.14187"><ele>102.19999999999999</ele><time>2026-04-18T09:47:40.717Z</time></trkpt><trkpt lat="42.8620956" lon="11.1420158"><ele>102.0</ele><time>2026-04-18T09:47:41.716Z</time></trkpt><trkpt lat="42.8620886" lon="11.1421796"><ele>102.0</ele><time>2026-04-18T09:47:42.714Z</time></trkpt><trkpt lat="42.8620772" lon="11.1423499"><ele>102.0</ele><time>2026-04-18T09:47:43.717Z</time></trkpt><trkpt lat="42.8620361" lon="11.1425103"><ele>102.0</ele><time>2026-04-18T09:47:44.716Z</time></trkpt><trkpt lat="42.8619662" lon="11.1426645"><ele>102.0</ele><time>2026-04-18T09:47:45.715Z</time></trkpt><trkpt lat="42.8618749" lon="11.142824"><ele>100.75</ele><time>2026-04-18T09:47:46.717Z</time></trkpt><trkpt lat="42.8617714" lon="11.1429834"><ele>99.5</ele><time>2026-04-18T09:47:47.718Z</time></trkpt><trkpt lat="42.8616781" lon="11.1431102"><ele>98.25</ele><time>2026-04-18T09:47:48.724Z</time></trkpt><trkpt lat="42.8615842" lon="11.1432175"><ele>97.0</ele><time>2026-04-18T09:47:49.716Z</time></trkpt><trkpt lat="42.8614918" lon="11.14331"><ele>96.25</ele><time>2026-04-18T09:47:50.712Z</time></trkpt><trkpt lat="42.861397" lon="11.1434064"><ele>95.5</ele><time>2026-04-18T09:47:51.717Z</time></trkpt><trkpt lat="42.8612763" lon="11.1434615"><ele>94.75</ele><time>2026-04-18T09:47:52.72Z</time></trkpt><trkpt lat="42.8611566" lon="11.1435264"><ele>94.0</ele><time>2026-04-18T09:47:53.718Z</time></trkpt><trkpt lat="42.8610187" lon="11.1435873"><ele>96.5</ele><time>2026-04-18T09:47:54.711Z</time></trkpt><trkpt lat="42.8608787" lon="11.1436574"><ele>99.0</ele><time>2026-04-18T09:47:55.715Z</time></trkpt><trkpt lat="42.8607439" lon="11.1437372"><ele>101.5</ele><time>2026-04-18T09:47:56.717Z</time></trkpt><trkpt lat="42.8606148" lon="11.1437985"><ele>104.0</ele><time>2026-04-18T09:47:57.724Z</time></trkpt><trkpt lat="42.8604679" lon="11.1438732"><ele>104.0</ele><time>2026-04-18T09:47:58.712Z</time></trkpt><trkpt lat="42.8603142" lon="11.1439702"><ele>104.0</ele><time>2026-04-18T09:47:59.715Z</time></trkpt><trkpt lat="42.8599796" lon="11.1441615"><ele>100.66666666666666</ele><time>2026-04-18T09:48:01.728Z</time></trkpt><trkpt lat="42.8598014" lon="11.1442645"><ele>97.33333333333333</ele><time>2026-04-18T09:48:02.721Z</time></trkpt><trkpt lat="42.8596129" lon="11.1443359"><ele>94.0</ele><time>2026-04-18T09:48:03.713Z</time></trkpt><trkpt lat="42.8594248" lon="11.1443942"><ele>93.66666666666666</ele><time>2026-04-18T09:48:04.727Z</time></trkpt><trkpt lat="42.8592487" lon="11.1444253"><ele>93.33333333333333</ele><time>2026-04-18T09:48:05.713Z</time></trkpt><trkpt lat="42.8590754" lon="11.1444493"><ele>93.0</ele><time>2026-04-18T09:48:06.716Z</time></trkpt><trkpt lat="42.8589106" lon="11.1444532"><ele>93.0</ele><time>2026-04-18T09:48:07.721Z</time></trkpt><trkpt lat="42.8587419" lon="11.144443"><ele>93.0</ele><time>2026-04-18T09:48:08.716Z</time></trkpt><trkpt lat="42.8585526" lon="11.1444283"><ele>93.0</ele><time>2026-04-18T09:48:09.716Z</time></trkpt><trkpt lat="42.8583515" lon="11.144405"><ele>90.33333333333333</ele><time>2026-04-18T09:48:10.722Z</time></trkpt><trkpt lat="42.8581538" lon="11.1443808"><ele>87.66666666666666</ele><time>2026-04-18T09:48:11.72Z</time></trkpt><trkpt lat="42.8579465" lon="11.1443442"><ele>85.0</ele><time>2026-04-18T09:48:12.718Z</time></trkpt><trkpt lat="42.8577521" lon="11.1443106"><ele>84.33333333333333</ele><time>2026-04-18T09:48:13.722Z</time></trkpt><trkpt lat="42.8575858" lon="11.1442736"><ele>83.66666666666667</ele><time>2026-04-18T09:48:14.719Z</time></trkpt><trkpt lat="42.857423" lon="11.1442485"><ele>83.0</ele><time>2026-04-18T09:48:15.722Z</time></trkpt><trkpt lat="42.8572636" lon="11.1442131"><ele>83.0</ele><time>2026-04-18T09:48:16.724Z</time></trkpt><trkpt lat="42.8570993" lon="11.1441803"><ele>83.0</ele><time>2026-04-18T09:48:17.721Z</time></trkpt><trkpt lat="42.8569296" lon="11.1441413"><ele>83.0</ele><time>2026-04-18T09:48:18.716Z</time></trkpt><trkpt lat="42.8567566" lon="11.1441141"><ele>83.5</ele><time>2026-04-18T09:48:19.721Z</time></trkpt><trkpt lat="42.8565818" lon="11.1440752"><ele>84.0</ele><time>2026-04-18T09:48:20.716Z</time></trkpt><trkpt lat="42.856238" lon="11.14393"><ele>84.0</ele><time>2026-04-18T09:48:22.715Z</time></trkpt><trkpt lat="42.8560601" lon="11.1438502"><ele>84.0</ele><time>2026-04-18T09:48:23.718Z</time></trkpt><trkpt lat="42.8558967" lon="11.143775"><ele>84.0</ele><time>2026-04-18T09:48:24.717Z</time></trkpt><trkpt lat="42.8557291" lon="11.143707"><ele>84.0</ele><time>2026-04-18T09:48:25.724Z</time></trkpt><trkpt lat="42.8555651" lon="11.1436289"><ele>84.0</ele><time>2026-04-18T09:48:26.715Z</time></trkpt><trkpt lat="42.8554072" lon="11.1435473"><ele>84.0</ele><time>2026-04-18T09:48:27.719Z</time></trkpt><trkpt lat="42.8552515" lon="11.1434811"><ele>83.0</ele><time>2026-04-18T09:48:28.718Z</time></trkpt><trkpt lat="42.8550835" lon="11.1434374"><ele>82.0</ele><time>2026-04-18T09:48:29.717Z</time></trkpt><trkpt lat="42.8549059" lon="11.1434191"><ele>81.0</ele><time>2026-04-18T09:48:30.712Z</time></trkpt><trkpt lat="42.8547369" lon="11.1434119"><ele>81.0</ele><time>2026-04-18T09:48:31.714Z</time></trkpt><trkpt lat="42.8545588" lon="11.1434246"><ele>81.0</ele><time>2026-04-18T09:48:32.721Z</time></trkpt><trkpt lat="42.8543757" lon="11.1434412"><ele>81.0</ele><time>2026-04-18T09:48:33.715Z</time></trkpt><trkpt lat="42.8541862" lon="11.1434742"><ele>79.66666666666667</ele><time>2026-04-18T09:48:34.714Z</time></trkpt><trkpt lat="42.8539915" lon="11.1435285"><ele>78.33333333333334</ele><time>2026-04-18T09:48:35.717Z</time></trkpt><trkpt lat="42.8537914" lon="11.1436144"><ele>77.0</ele><time>2026-04-18T09:48:36.714Z</time></trkpt><trkpt lat="42.85359" lon="11.1437177"><ele>76.33333333333334</ele><time>2026-04-18T09:48:37.715Z</time></trkpt><trkpt lat="42.8534047" lon="11.1438245"><ele>75.66666666666667</ele><time>2026-04-18T09:48:38.712Z</time></trkpt><trkpt lat="42.8532551" lon="11.143927"><ele>75.0</ele><time>2026-04-18T09:48:39.717Z</time></trkpt><trkpt lat="42.8531175" lon="11.1440239"><ele>74.66666666666667</ele><time>2026-04-18T09:48:40.718Z</time></trkpt><trkpt lat="42.8529976" lon="11.144097"><ele>74.33333333333334</ele><time>2026-04-18T09:48:41.717Z</time></trkpt><trkpt lat="42.8527405" lon="11.1441927"><ele>74.0</ele><time>2026-04-18T09:48:43.721Z</time></trkpt><trkpt lat="42.8525809" lon="11.1442298"><ele>74.0</ele><time>2026-04-18T09:48:44.719Z</time></trkpt><trkpt lat="42.8524244" lon="11.144282"><ele>74.0</ele><time>2026-04-18T09:48:45.716Z</time></trkpt><trkpt lat="42.8522779" lon="11.1443568"><ele>74.0</ele><time>2026-04-18T09:48:46.722Z</time></trkpt><trkpt lat="42.8521403" lon="11.144467"><ele>74.0</ele><time>2026-04-18T09:48:47.718Z</time></trkpt><trkpt lat="42.8520311" lon="11.1446184"><ele>74.0</ele><time>2026-04-18T09:48:48.714Z</time></trkpt><trkpt lat="42.8519142" lon="11.1448241"><ele>74.0</ele><time>2026-04-18T09:48:49.717Z</time></trkpt><trkpt lat="42.8517958" lon="11.1450132"><ele>73.66666666666667</ele><time>2026-04-18T09:48:50.714Z</time></trkpt><trkpt lat="42.8516818" lon="11.145224"><ele>73.33333333333333</ele><time>2026-04-18T09:48:51.723Z</time></trkpt><trkpt lat="42.8515704" lon="11.1454165"><ele>73.0</ele><time>2026-04-18T09:48:52.722Z</time></trkpt><trkpt lat="42.8514624" lon="11.1456066"><ele>73.0</ele><time>2026-04-18T09:48:53.717Z</time></trkpt><trkpt lat="42.8513634" lon="11.145768"><ele>73.0</ele><time>2026-04-18T09:48:54.723Z</time></trkpt><trkpt lat="42.8512718" lon="11.1459352"><ele>73.0</ele><time>2026-04-18T09:48:55.715Z</time></trkpt><trkpt lat="42.8511738" lon="11.1460876"><ele>73.0</ele><time>2026-04-18T09:48:56.724Z</time></trkpt><trkpt lat="42.851069" lon="11.1462197"><ele>73.0</ele><time>2026-04-18T09:48:57.721Z</time></trkpt><trkpt lat="42.85095" lon="11.1463183"><ele>73.0</ele><time>2026-04-18T09:48:58.711Z</time></trkpt><trkpt lat="42.8508029" lon="11.1463856"><ele>73.0</ele><time>2026-04-18T09:48:59.719Z</time></trkpt><trkpt lat="42.8506346" lon="11.1464482"><ele>72.33333333333333</ele><time>2026-04-18T09:49:00.713Z</time></trkpt><trkpt lat="42.8504453" lon="11.1464998"><ele>71.66666666666667</ele><time>2026-04-18T09:49:01.726Z</time></trkpt><trkpt lat="42.8502374" lon="11.146559"><ele>71.0</ele><time>2026-04-18T09:49:02.715Z</time></trkpt><trkpt lat="42.8498299" lon="11.1467773"><ele>70.33333333333334</ele><time>2026-04-18T09:49:04.711Z</time></trkpt><trkpt lat="42.8496536" lon="11.1469187"><ele>69.66666666666667</ele><time>2026-04-18T09:49:05.723Z</time></trkpt><trkpt lat="42.8494778" lon="11.1470743"><ele>69.0</ele><time>2026-04-18T09:49:06.716Z</time></trkpt><trkpt lat="42.8493062" lon="11.147229"><ele>69.33333333333333</ele><time>2026-04-18T09:49:07.725Z</time></trkpt><trkpt lat="42.8491227" lon="11.1473557"><ele>69.66666666666666</ele><time>2026-04-18T09:49:08.718Z</time></trkpt><trkpt lat="42.8489289" lon="11.1474662"><ele>70.0</ele><time>2026-04-18T09:49:09.722Z</time></trkpt><trkpt lat="42.8487398" lon="11.1475855"><ele>69.66666666666666</ele><time>2026-04-18T09:49:10.72Z</time></trkpt><trkpt lat="42.8485412" lon="11.1476803"><ele>69.33333333333333</ele><time>2026-04-18T09:49:11.719Z</time></trkpt><trkpt lat="42.8483393" lon="11.1477605"><ele>69.0</ele><time>2026-04-18T09:49:12.717Z</time></trkpt><trkpt lat="42.8481546" lon="11.147788"><ele>69.0</ele><time>2026-04-18T09:49:13.716Z</time></trkpt><trkpt lat="42.8479799" lon="11.1478206"><ele>69.0</ele><time>2026-04-18T09:49:14.721Z</time></trkpt><trkpt lat="42.8478217" lon="11.1478639"><ele>69.0</ele><time>2026-04-18T09:49:15.715Z</time></trkpt><trkpt lat="42.8476521" lon="11.1479162"><ele>71.33333333333333</ele><time>2026-04-18T09:49:16.715Z</time></trkpt><trkpt lat="42.8474844" lon="11.1479603"><ele>73.66666666666666</ele><time>2026-04-18T09:49:17.722Z</time></trkpt><trkpt lat="42.8473058" lon="11.147998"><ele>76.0</ele><time>2026-04-18T09:49:18.725Z</time></trkpt><trkpt lat="42.8471096" lon="11.1480527"><ele>76.0</ele><time>2026-04-18T09:49:19.72Z</time></trkpt><trkpt lat="42.8469051" lon="11.1481089"><ele>76.0</ele><time>2026-04-18T09:49:20.714Z</time></trkpt><trkpt lat="42.8467065" lon="11.1481636"><ele>76.0</ele><time>2026-04-18T09:49:21.719Z</time></trkpt><trkpt lat="42.8465325" lon="11.1482101"><ele>74.66666666666666</ele><time>2026-04-18T09:49:22.722Z</time></trkpt><trkpt lat="42.8463871" lon="11.1482639"><ele>73.33333333333333</ele><time>2026-04-18T09:49:23.712Z</time></trkpt><trkpt lat="42.8461438" lon="11.148312"><ele>72.0</ele><time>2026-04-18T09:49:25.716Z</time></trkpt><trkpt lat="42.8460276" lon="11.1482865"><ele>75.0</ele><time>2026-04-18T09:49:26.718Z</time></trkpt><trkpt lat="42.8459101" lon="11.1482037"><ele>78.0</ele><time>2026-04-18T09:49:27.73Z</time></trkpt><trkpt lat="42.8457825" lon="11.1480751"><ele>81.0</ele><time>2026-04-18T09:49:28.713Z</time></trkpt><trkpt lat="42.8456377" lon="11.1479354"><ele>81.0</ele><time>2026-04-18T09:49:29.716Z</time></trkpt><trkpt lat="42.8454983" lon="11.1477899"><ele>81.0</ele><time>2026-04-18T09:49:30.713Z</time></trkpt><trkpt lat="42.8453691" lon="11.1476426"><ele>81.0</ele><time>2026-04-18T09:49:31.719Z</time></trkpt><trkpt lat="42.8452657" lon="11.1474668"><ele>80.66666666666667</ele><time>2026-04-18T09:49:32.727Z</time></trkpt><trkpt lat="42.8451596" lon="11.1472957"><ele>80.33333333333334</ele><time>2026-04-18T09:49:33.712Z</time></trkpt><trkpt lat="42.8450421" lon="11.1471186"><ele>80.0</ele><time>2026-04-18T09:49:34.73Z</time></trkpt><trkpt lat="42.844908" lon="11.1469418"><ele>80.0</ele><time>2026-04-18T09:49:35.715Z</time></trkpt><trkpt lat="42.8447794" lon="11.1467748"><ele>80.0</ele><time>2026-04-18T09:49:36.717Z</time></trkpt><trkpt lat="42.8446578" lon="11.1466358"><ele>80.0</ele><time>2026-04-18T09:49:37.722Z</time></trkpt><trkpt lat="42.8445394" lon="11.1465389"><ele>81.0</ele><time>2026-04-18T09:49:38.723Z</time></trkpt><trkpt lat="42.8444114" lon="11.1464896"><ele>82.0</ele><time>2026-04-18T09:49:39.716Z</time></trkpt><trkpt lat="42.8442601" lon="11.1465097"><ele>83.0</ele><time>2026-04-18T09:49:40.713Z</time></trkpt><trkpt lat="42.8441056" lon="11.1465756"><ele>84.0</ele><time>2026-04-18T09:49:41.711Z</time></trkpt><trkpt lat="42.8439499" lon="11.1466671"><ele>81.0</ele><time>2026-04-18T09:49:42.721Z</time></trkpt><trkpt lat="42.8438055" lon="11.1467301"><ele>78.0</ele><time>2026-04-18T09:49:43.721Z</time></trkpt><trkpt lat="42.8436634" lon="11.146755"><ele>75.0</ele><time>2026-04-18T09:49:44.726Z</time></trkpt><trkpt lat="42.8433418" lon="11.1467396"><ele>74.66666666666667</ele><time>2026-04-18T09:49:46.715Z</time></trkpt><trkpt lat="42.8431666" lon="11.146722"><ele>74.33333333333334</ele><time>2026-04-18T09:49:47.715Z</time></trkpt><trkpt lat="42.8430004" lon="11.1466987"><ele>74.0</ele><time>2026-04-18T09:49:48.725Z</time></trkpt><trkpt lat="42.8428158" lon="11.1466673"><ele>73.0</ele><time>2026-04-18T09:49:49.714Z</time></trkpt><trkpt lat="42.8426134" lon="11.1466482"><ele>72.0</ele><time>2026-04-18T09:49:50.718Z</time></trkpt><trkpt lat="42.8424127" lon="11.1466224"><ele>71.0</ele><time>2026-04-18T09:49:51.723Z</time></trkpt><trkpt lat="42.8422241" lon="11.146596"><ele>71.0</ele><time>2026-04-18T09:49:52.715Z</time></trkpt><trkpt lat="42.8420375" lon="11.1465757"><ele>71.0</ele><time>2026-04-18T09:49:53.714Z</time></trkpt><trkpt lat="42.8418489" lon="11.1465702"><ele>71.0</ele><time>2026-04-18T09:49:54.714Z</time></trkpt><trkpt lat="42.8416719" lon="11.1465658"><ele>70.33333333333334</ele><time>2026-04-18T09:49:55.714Z</time></trkpt><trkpt lat="42.8415129" lon="11.1465739"><ele>69.66666666666667</ele><time>2026-04-18T09:49:56.708Z</time></trkpt><trkpt lat="42.8413585" lon="11.1466227"><ele>69.0</ele><time>2026-04-18T09:49:57.718Z</time></trkpt><trkpt lat="42.8411969" lon="11.1466941"><ele>69.0</ele><time>2026-04-18T09:49:58.713Z</time></trkpt><trkpt lat="42.8410156" lon="11.146753"><ele>69.0</ele><time>2026-04-18T09:49:59.738Z</time></trkpt><trkpt lat="42.8408287" lon="11.1468179"><ele>69.0</ele><time>2026-04-18T09:50:00.712Z</time></trkpt><trkpt lat="42.8406457" lon="11.1468791"><ele>69.0</ele><time>2026-04-18T09:50:01.715Z</time></trkpt><trkpt lat="42.8404581" lon="11.1469382"><ele>69.0</ele><time>2026-04-18T09:50:02.725Z</time></trkpt><trkpt lat="42.8402871" lon="11.1470051"><ele>69.0</ele><time>2026-04-18T09:50:03.718Z</time></trkpt><trkpt lat="42.840125" lon="11.1470699"><ele>67.5</ele><time>2026-04-18T09:50:04.71Z</time></trkpt><trkpt lat="42.83997" lon="11.1471323"><ele>66.0</ele><time>2026-04-18T09:50:05.72Z</time></trkpt><trkpt lat="42.8396506" lon="11.1471894"><ele>66.0</ele><time>2026-04-18T09:50:07.714Z</time></trkpt><trkpt lat="42.8394729" lon="11.147206"><ele>66.0</ele><time>2026-04-18T09:50:08.722Z</time></trkpt><trkpt lat="42.8392885" lon="11.1472227"><ele>66.0</ele><time>2026-04-18T09:50:09.723Z</time></trkpt><trkpt lat="42.8390906" lon="11.1472356"><ele>65.33333333333333</ele><time>2026-04-18T09:50:10.716Z</time></trkpt><trkpt lat="42.838901" lon="11.1472553"><ele>64.66666666666666</ele><time>2026-04-18T09:50:11.722Z</time></trkpt><trkpt lat="42.8387109" lon="11.1472701"><ele>64.0</ele><time>2026-04-18T09:50:12.726Z</time></trkpt><trkpt lat="42.8385287" lon="11.1472842"><ele>63.33333333333333</ele><time>2026-04-18T09:50:13.719Z</time></trkpt><trkpt lat="42.8383674" lon="11.1472857"><ele>62.66666666666667</ele><time>2026-04-18T09:50:14.713Z</time></trkpt><trkpt lat="42.8382158" lon="11.1472967"><ele>62.0</ele><time>2026-04-18T09:50:15.722Z</time></trkpt><trkpt lat="42.8380617" lon="11.1473176"><ele>62.0</ele><time>2026-04-18T09:50:16.72Z</time></trkpt><trkpt lat="42.8378974" lon="11.1473399"><ele>62.0</ele><time>2026-04-18T09:50:17.721Z</time></trkpt><trkpt lat="42.8377415" lon="11.1473762"><ele>62.0</ele><time>2026-04-18T09:50:18.716Z</time></trkpt><trkpt lat="42.8375911" lon="11.1474232"><ele>59.0</ele><time>2026-04-18T09:50:19.719Z</time></trkpt><trkpt lat="42.8374559" lon="11.147476"><ele>56.0</ele><time>2026-04-18T09:50:20.716Z</time></trkpt><trkpt lat="42.837327" lon="11.1475285"><ele>53.0</ele><time>2026-04-18T09:50:21.723Z</time></trkpt><trkpt lat="42.8372127" lon="11.1475627"><ele>50.0</ele><time>2026-04-18T09:50:22.717Z</time></trkpt><trkpt lat="42.8371139" lon="11.1476027"><ele>50.0</ele><time>2026-04-18T09:50:23.723Z</time></trkpt><trkpt lat="42.8370152" lon="11.1476385"><ele>50.0</ele><time>2026-04-18T09:50:24.719Z</time></trkpt><trkpt lat="42.836912" lon="11.1476601"><ele>50.0</ele><time>2026-04-18T09:50:25.725Z</time></trkpt><trkpt lat="42.836824" lon="11.1476881"><ele>50.0</ele><time>2026-04-18T09:50:26.712Z</time></trkpt><trkpt lat="42.8366589" lon="11.1477583"><ele>49.833333333333336</ele><time>2026-04-18T09:50:28.721Z</time></trkpt><trkpt lat="42.8365796" lon="11.1477892"><ele>49.66666666666667</ele><time>2026-04-18T09:50:29.722Z</time></trkpt><trkpt lat="42.8365059" lon="11.1478216"><ele>49.5</ele><time>2026-04-18T09:50:30.727Z</time></trkpt><trkpt lat="42.8364334" lon="11.1478566"><ele>49.33333333333333</ele><time>2026-04-18T09:50:31.723Z</time></trkpt><trkpt lat="42.8363557" lon="11.1479034"><ele>49.166666666666664</ele><time>2026-04-18T09:50:32.711Z</time></trkpt><trkpt lat="42.8362758" lon="11.1479685"><ele>49.0</ele><time>2026-04-18T09:50:33.714Z</time></trkpt><trkpt lat="42.8361956" lon="11.1480319"><ele>48.99999999999999</ele><time>2026-04-18T09:50:34.719Z</time></trkpt><trkpt lat="42.8361212" lon="11.1480888"><ele>49.0</ele><time>2026-04-18T09:50:35.713Z</time></trkpt><trkpt lat="42.8360587" lon="11.1481518"><ele>49.0</ele><time>2026-04-18T09:50:36.713Z</time></trkpt><trkpt lat="42.8360146" lon="11.1482696"><ele>49.0</ele><time>2026-04-18T09:50:38.715Z</time></trkpt><trkpt lat="42.8359731" lon="11.1483694"><ele>48.99999999999999</ele><time>2026-04-18T09:50:46.726Z</time></trkpt><trkpt lat="42.8360405" lon="11.1484508"><ele>49.0</ele><time>2026-04-18T09:50:48.725Z</time></trkpt><trkpt lat="42.8361866" lon="11.148556"><ele>48.33333333333333</ele><time>2026-04-18T09:50:50.712Z</time></trkpt><trkpt lat="42.8362544" lon="11.1486026"><ele>47.666666666666664</ele><time>2026-04-18T09:50:51.711Z</time></trkpt><trkpt lat="42.8363228" lon="11.1486417"><ele>47.0</ele><time>2026-04-18T09:50:52.717Z</time></trkpt><trkpt lat="42.8363932" lon="11.148683"><ele>46.33333333333333</ele><time>2026-04-18T09:50:53.72Z</time></trkpt><trkpt lat="42.8364532" lon="11.1487543"><ele>45.666666666666664</ele><time>2026-04-18T09:50:54.72Z</time></trkpt><trkpt lat="42.8365189" lon="11.1488259"><ele>45.0</ele><time>2026-04-18T09:50:55.714Z</time></trkpt><trkpt lat="42.8365903" lon="11.1488967"><ele>45.0</ele><time>2026-04-18T09:50:56.714Z</time></trkpt><trkpt lat="42.8366685" lon="11.1489696"><ele>45.0</ele><time>2026-04-18T09:50:57.714Z</time></trkpt><trkpt lat="42.8367446" lon="11.1490466"><ele>45.0</ele><time>2026-04-18T09:50:58.721Z</time></trkpt><trkpt lat="42.8368082" lon="11.1491297"><ele>45.0</ele><time>2026-04-18T09:50:59.713Z</time></trkpt><trkpt lat="42.8368595" lon="11.1492221"><ele>45.0</ele><time>2026-04-18T09:51:00.727Z</time></trkpt><trkpt lat="42.836892" lon="11.1493137"><ele>45.0</ele><time>2026-04-18T09:51:01.709Z</time></trkpt><trkpt lat="42.8369545" lon="11.1494141"><ele>45.0</ele><time>2026-04-18T09:51:03.72Z</time></trkpt><trkpt lat="42.8369459" lon="11.1493027"><ele>45.0</ele><time>2026-04-18T09:51:08.716Z</time></trkpt><trkpt lat="42.8368781" lon="11.1491753"><ele>45.0</ele><time>2026-04-18T09:51:10.721Z</time></trkpt><trkpt lat="42.8367261" lon="11.1489926"><ele>45.0</ele><time>2026-04-18T09:51:12.713Z</time></trkpt><trkpt lat="42.8366216" lon="11.1488525"><ele>45.0</ele><time>2026-04-18T09:51:13.71Z</time></trkpt><trkpt lat="42.8365173" lon="11.148701"><ele>45.0</ele><time>2026-04-18T09:51:14.717Z</time></trkpt><trkpt lat="42.8364237" lon="11.1485633"><ele>45.0</ele><time>2026-04-18T09:51:15.717Z</time></trkpt><trkpt lat="42.8363153" lon="11.1484277"><ele>45.0</ele><time>2026-04-18T09:51:16.717Z</time></trkpt><trkpt lat="42.836204" lon="11.1483034"><ele>45.666666666666664</ele><time>2026-04-18T09:51:17.728Z</time></trkpt><trkpt lat="42.8360911" lon="11.1481784"><ele>46.33333333333333</ele><time>2026-04-18T09:51:18.716Z</time></trkpt><trkpt lat="42.8359743" lon="11.148031"><ele>47.0</ele><time>2026-04-18T09:51:19.718Z</time></trkpt><trkpt lat="42.8358461" lon="11.1478839"><ele>47.0</ele><time>2026-04-18T09:51:20.715Z</time></trkpt><trkpt lat="42.835718" lon="11.1477233"><ele>47.0</ele><time>2026-04-18T09:51:21.719Z</time></trkpt><trkpt lat="42.8355944" lon="11.1475525"><ele>47.0</ele><time>2026-04-18T09:51:22.72Z</time></trkpt><trkpt lat="42.8354611" lon="11.1473911"><ele>46.0</ele><time>2026-04-18T09:51:23.711Z</time></trkpt><trkpt lat="42.8353103" lon="11.147222"><ele>45.0</ele><time>2026-04-18T09:51:24.718Z</time></trkpt><trkpt lat="42.8351324" lon="11.1470373"><ele>44.0</ele><time>2026-04-18T09:51:25.718Z</time></trkpt><trkpt lat="42.8349235" lon="11.1468106"><ele>44.0</ele><time>2026-04-18T09:51:26.716Z</time></trkpt><trkpt lat="42.8346983" lon="11.1465571"><ele>44.0</ele><time>2026-04-18T09:51:27.713Z</time></trkpt><trkpt lat="42.8344544" lon="11.146275"><ele>44.0</ele><time>2026-04-18T09:51:28.728Z</time></trkpt><trkpt lat="42.8342186" lon="11.1459853"><ele>44.0</ele><time>2026-04-18T09:51:29.727Z</time></trkpt><trkpt lat="42.8339948" lon="11.145695"><ele>45.5</ele><time>2026-04-18T09:51:30.72Z</time></trkpt><trkpt lat="42.8337942" lon="11.1454025"><ele>47.0</ele><time>2026-04-18T09:51:31.725Z</time></trkpt><trkpt lat="42.8334072" lon="11.1449194"><ele>47.5</ele><time>2026-04-18T09:51:33.726Z</time></trkpt><trkpt lat="42.8332106" lon="11.1447014"><ele>48.0</ele><time>2026-04-18T09:51:34.717Z</time></trkpt><trkpt lat="42.8330097" lon="11.1444753"><ele>48.0</ele><time>2026-04-18T09:51:35.719Z</time></trkpt><trkpt lat="42.832821" lon="11.1442576"><ele>48.0</ele><time>2026-04-18T09:51:36.712Z</time></trkpt><trkpt lat="42.8326322" lon="11.1440275"><ele>46.0</ele><time>2026-04-18T09:51:37.722Z</time></trkpt><trkpt lat="42.8324435" lon="11.1438022"><ele>44.0</ele><time>2026-04-18T09:51:38.719Z</time></trkpt><trkpt lat="42.8322727" lon="11.1435676"><ele>44.0</ele><time>2026-04-18T09:51:39.716Z</time></trkpt><trkpt lat="42.8320946" lon="11.1433387"><ele>44.0</ele><time>2026-04-18T09:51:40.715Z</time></trkpt><trkpt lat="42.8319021" lon="11.1431237"><ele>42.0</ele><time>2026-04-18T09:51:41.72Z</time></trkpt><trkpt lat="42.8317012" lon="11.1429125"><ele>40.0</ele><time>2026-04-18T09:51:42.722Z</time></trkpt><trkpt lat="42.8315062" lon="11.1427141"><ele>40.0</ele><time>2026-04-18T09:51:43.718Z</time></trkpt><trkpt lat="42.8313191" lon="11.1425141"><ele>40.0</ele><time>2026-04-18T09:51:44.719Z</time></trkpt><trkpt lat="42.8311283" lon="11.1423088"><ele>38.5</ele><time>2026-04-18T09:51:45.716Z</time></trkpt><trkpt lat="42.8309384" lon="11.1421028"><ele>37.0</ele><time>2026-04-18T09:51:46.71Z</time></trkpt><trkpt lat="42.8307583" lon="11.1418902"><ele>37.0</ele><time>2026-04-18T09:51:47.724Z</time></trkpt><trkpt lat="42.830581" lon="11.1416734"><ele>37.0</ele><time>2026-04-18T09:51:48.714Z</time></trkpt><trkpt lat="42.8303847" lon="11.1414655"><ele>36.5</ele><time>2026-04-18T09:51:49.715Z</time></trkpt><trkpt lat="42.830175" lon="11.1412625"><ele>36.0</ele><time>2026-04-18T09:51:50.71Z</time></trkpt><trkpt lat="42.8299623" lon="11.1410686"><ele>36.0</ele><time>2026-04-18T09:51:51.731Z</time></trkpt><trkpt lat="42.829752" lon="11.1408694"><ele>36.0</ele><time>2026-04-18T09:51:52.714Z</time></trkpt><trkpt lat="42.8293399" lon="11.1404857"><ele>36.0</ele><time>2026-04-18T09:51:54.718Z</time></trkpt><trkpt lat="42.8291357" lon="11.1402915"><ele>36.0</ele><time>2026-04-18T09:51:55.71Z</time></trkpt><trkpt lat="42.8289422" lon="11.1400816"><ele>36.0</ele><time>2026-04-18T09:51:56.713Z</time></trkpt><trkpt lat="42.8287385" lon="11.1398965"><ele>36.0</ele><time>2026-04-18T09:51:57.717Z</time></trkpt><trkpt lat="42.8285211" lon="11.1397181"><ele>36.0</ele><time>2026-04-18T09:51:58.718Z</time></trkpt><trkpt lat="42.8283085" lon="11.1395442"><ele>36.0</ele><time>2026-04-18T09:51:59.714Z</time></trkpt><trkpt lat="42.8280895" lon="11.1393723"><ele>36.0</ele><time>2026-04-18T09:52:00.71Z</time></trkpt><trkpt lat="42.8278665" lon="11.1391915"><ele>36.0</ele><time>2026-04-18T09:52:01.71Z</time></trkpt><trkpt lat="42.8276496" lon="11.1390092"><ele>36.0</ele><time>2026-04-18T09:52:02.715Z</time></trkpt><trkpt lat="42.8274365" lon="11.138825"><ele>36.0</ele><time>2026-04-18T09:52:03.716Z</time></trkpt><trkpt lat="42.8272443" lon="11.138652"><ele>36.0</ele><time>2026-04-18T09:52:04.711Z</time></trkpt><trkpt lat="42.8270803" lon="11.1384759"><ele>36.0</ele><time>2026-04-18T09:52:05.72Z</time></trkpt><trkpt lat="42.8269357" lon="11.1383459"><ele>36.0</ele><time>2026-04-18T09:52:06.718Z</time></trkpt><trkpt lat="42.8267914" lon="11.1382565"><ele>36.0</ele><time>2026-04-18T09:52:07.719Z</time></trkpt><trkpt lat="42.8266368" lon="11.1382152"><ele>36.0</ele><time>2026-04-18T09:52:08.721Z</time></trkpt><trkpt lat="42.826469" lon="11.1382339"><ele>36.0</ele><time>2026-04-18T09:52:09.717Z</time></trkpt><trkpt lat="42.8263099" lon="11.1383006"><ele>36.0</ele><time>2026-04-18T09:52:10.717Z</time></trkpt><trkpt lat="42.8261477" lon="11.1383506"><ele>36.0</ele><time>2026-04-18T09:52:11.711Z</time></trkpt><trkpt lat="42.8259908" lon="11.1383848"><ele>36.0</ele><time>2026-04-18T09:52:12.718Z</time></trkpt><trkpt lat="42.8258577" lon="11.1383743"><ele>36.0</ele><time>2026-04-18T09:52:13.729Z</time></trkpt><trkpt lat="42.8256159" lon="11.1382125"><ele>36.0</ele><time>2026-04-18T09:52:15.726Z</time></trkpt><trkpt lat="42.8255154" lon="11.1381089"><ele>36.0</ele><time>2026-04-18T09:52:16.719Z</time></trkpt><trkpt lat="42.8254075" lon="11.1380125"><ele>36.0</ele><time>2026-04-18T09:52:17.721Z</time></trkpt><trkpt lat="42.8253029" lon="11.1379186"><ele>36.0</ele><time>2026-04-18T09:52:18.718Z</time></trkpt><trkpt lat="42.8251941" lon="11.1378195"><ele>36.0</ele><time>2026-04-18T09:52:19.713Z</time></trkpt><trkpt lat="42.8250869" lon="11.1377084"><ele>36.0</ele><time>2026-04-18T09:52:20.718Z</time></trkpt><trkpt lat="42.8249895" lon="11.1375788"><ele>36.25</ele><time>2026-04-18T09:52:21.716Z</time></trkpt><trkpt lat="42.8248955" lon="11.1374397"><ele>36.5</ele><time>2026-04-18T09:52:22.713Z</time></trkpt><trkpt lat="42.8248314" lon="11.1372768"><ele>36.75</ele><time>2026-04-18T09:52:23.717Z</time></trkpt><trkpt lat="42.8247839" lon="11.1370735"><ele>37.0</ele><time>2026-04-18T09:52:24.715Z</time></trkpt><trkpt lat="42.8247306" lon="11.1368925"><ele>37.0</ele><time>2026-04-18T09:52:25.723Z</time></trkpt><trkpt lat="42.8246535" lon="11.1367233"><ele>37.0</ele><time>2026-04-18T09:52:26.722Z</time></trkpt><trkpt lat="42.824563" lon="11.1365619"><ele>37.0</ele><time>2026-04-18T09:52:27.714Z</time></trkpt><trkpt lat="42.8244574" lon="11.136387"><ele>37.0</ele><time>2026-04-18T09:52:28.715Z</time></trkpt><trkpt lat="42.8243338" lon="11.1362319"><ele>37.0</ele><time>2026-04-18T09:52:29.721Z</time></trkpt><trkpt lat="42.8242058" lon="11.1360767"><ele>37.0</ele><time>2026-04-18T09:52:30.72Z</time></trkpt><trkpt lat="42.8240624" lon="11.1359311"><ele>36.66666666666667</ele><time>2026-04-18T09:52:31.715Z</time></trkpt><trkpt lat="42.823892" lon="11.135782"><ele>36.333333333333336</ele><time>2026-04-18T09:52:32.716Z</time></trkpt><trkpt lat="42.8237084" lon="11.1356316"><ele>36.0</ele><time>2026-04-18T09:52:33.721Z</time></trkpt><trkpt lat="42.8235008" lon="11.135487"><ele>34.5</ele><time>2026-04-18T09:52:34.723Z</time></trkpt><trkpt lat="42.8230913" lon="11.1352645"><ele>33.0</ele><time>2026-04-18T09:52:36.714Z</time></trkpt><trkpt lat="42.8229158" lon="11.1351775"><ele>33.0</ele><time>2026-04-18T09:52:37.718Z</time></trkpt><trkpt lat="42.8227838" lon="11.1351106"><ele>33.0</ele><time>2026-04-18T09:52:38.713Z</time></trkpt><trkpt lat="42.8226467" lon="11.1350646"><ele>33.0</ele><time>2026-04-18T09:52:39.711Z</time></trkpt><trkpt lat="42.8224962" lon="11.1350234"><ele>33.0</ele><time>2026-04-18T09:52:40.719Z</time></trkpt><trkpt lat="42.8223235" lon="11.1349645"><ele>32.666666666666664</ele><time>2026-04-18T09:52:41.714Z</time></trkpt><trkpt lat="42.8221464" lon="11.1349074"><ele>32.33333333333333</ele><time>2026-04-18T09:52:42.71Z</time></trkpt><trkpt lat="42.8219551" lon="11.1348406"><ele>32.0</ele><time>2026-04-18T09:52:43.712Z</time></trkpt><trkpt lat="42.8217598" lon="11.1347754"><ele>31.333333333333332</ele><time>2026-04-18T09:52:44.718Z</time></trkpt><trkpt lat="42.8215616" lon="11.1347095"><ele>30.666666666666664</ele><time>2026-04-18T09:52:45.717Z</time></trkpt><trkpt lat="42.8213652" lon="11.134651"><ele>30.0</ele><time>2026-04-18T09:52:46.716Z</time></trkpt><trkpt lat="42.8212109" lon="11.1345788"><ele>30.0</ele><time>2026-04-18T09:52:47.714Z</time></trkpt><trkpt lat="42.8210683" lon="11.1345089"><ele>30.0</ele><time>2026-04-18T09:52:48.72Z</time></trkpt><trkpt lat="42.8209156" lon="11.1344457"><ele>30.0</ele><time>2026-04-18T09:52:49.714Z</time></trkpt><trkpt lat="42.8207577" lon="11.1343935"><ele>29.333333333333336</ele><time>2026-04-18T09:52:50.712Z</time></trkpt><trkpt lat="42.8205935" lon="11.1343469"><ele>28.666666666666668</ele><time>2026-04-18T09:52:51.713Z</time></trkpt><trkpt lat="42.8204246" lon="11.1343284"><ele>28.0</ele><time>2026-04-18T09:52:52.708Z</time></trkpt><trkpt lat="42.8202546" lon="11.1343481"><ele>28.333333333333336</ele><time>2026-04-18T09:52:53.718Z</time></trkpt><trkpt lat="42.8200894" lon="11.1343844"><ele>28.666666666666664</ele><time>2026-04-18T09:52:54.715Z</time></trkpt><trkpt lat="42.819947" lon="11.1344105"><ele>29.0</ele><time>2026-04-18T09:52:55.714Z</time></trkpt><trkpt lat="42.8197232" lon="11.1344397"><ele>28.999999999999996</ele><time>2026-04-18T09:52:57.714Z</time></trkpt><trkpt lat="42.8196447" lon="11.1343938"><ele>29.0</ele><time>2026-04-18T09:52:58.713Z</time></trkpt><trkpt lat="42.819601" lon="11.1343224"><ele>29.0</ele><time>2026-04-18T09:52:59.708Z</time></trkpt><trkpt lat="42.8195723" lon="11.1342232"><ele>29.0</ele><time>2026-04-18T09:53:00.71Z</time></trkpt><trkpt lat="42.8195797" lon="11.1341296"><ele>28.999999999999996</ele><time>2026-04-18T09:53:01.716Z</time></trkpt><trkpt lat="42.8196086" lon="11.134033"><ele>29.0</ele><time>2026-04-18T09:53:02.726Z</time></trkpt><trkpt lat="42.8196582" lon="11.1339327"><ele>29.0</ele><time>2026-04-18T09:53:03.708Z</time></trkpt><trkpt lat="42.8197376" lon="11.1338266"><ele>29.0</ele><time>2026-04-18T09:53:04.716Z</time></trkpt><trkpt lat="42.8198322" lon="11.1337073"><ele>29.0</ele><time>2026-04-18T09:53:05.714Z</time></trkpt><trkpt lat="42.8199377" lon="11.133556"><ele>29.0</ele><time>2026-04-18T09:53:06.717Z</time></trkpt><trkpt lat="42.8200769" lon="11.1333695"><ele>28.666666666666664</ele><time>2026-04-18T09:53:07.715Z</time></trkpt><trkpt lat="42.8202164" lon="11.1331544"><ele>28.333333333333336</ele><time>2026-04-18T09:53:08.715Z</time></trkpt><trkpt lat="42.8203554" lon="11.1329414"><ele>28.0</ele><time>2026-04-18T09:53:09.714Z</time></trkpt><trkpt lat="42.8204888" lon="11.1327198"><ele>28.0</ele><time>2026-04-18T09:53:10.724Z</time></trkpt><trkpt lat="42.820637" lon="11.1324828"><ele>28.0</ele><time>2026-04-18T09:53:11.713Z</time></trkpt><trkpt lat="42.8208061" lon="11.1322335"><ele>26.5</ele><time>2026-04-18T09:53:12.714Z</time></trkpt><trkpt lat="42.8209704" lon="11.1319949"><ele>25.0</ele><time>2026-04-18T09:53:13.719Z</time></trkpt><trkpt lat="42.8211164" lon="11.1317636"><ele>25.0</ele><time>2026-04-18T09:53:14.722Z</time></trkpt><trkpt lat="42.8212602" lon="11.1315555"><ele>25.0</ele><time>2026-04-18T09:53:15.717Z</time></trkpt><trkpt lat="42.8214013" lon="11.1313589"><ele>25.0</ele><time>2026-04-18T09:53:16.714Z</time></trkpt><trkpt lat="42.8217071" lon="11.1310094"><ele>25.0</ele><time>2026-04-18T09:53:18.723Z</time></trkpt><trkpt lat="42.8218845" lon="11.1308382"><ele>25.0</ele><time>2026-04-18T09:53:19.711Z</time></trkpt><trkpt lat="42.8220737" lon="11.1306925"><ele>25.0</ele><time>2026-04-18T09:53:20.718Z</time></trkpt><trkpt lat="42.8222997" lon="11.1305424"><ele>24.5</ele><time>2026-04-18T09:53:21.712Z</time></trkpt><trkpt lat="42.8225259" lon="11.1303924"><ele>24.0</ele><time>2026-04-18T09:53:22.716Z</time></trkpt><trkpt lat="42.8227396" lon="11.1302521"><ele>25.0</ele><time>2026-04-18T09:53:23.72Z</time></trkpt><trkpt lat="42.8229604" lon="11.1301116"><ele>26.0</ele><time>2026-04-18T09:53:24.716Z</time></trkpt><trkpt lat="42.8231795" lon="11.1299683"><ele>26.0</ele><time>2026-04-18T09:53:25.713Z</time></trkpt><trkpt lat="42.8234004" lon="11.1298288"><ele>26.0</ele><time>2026-04-18T09:53:26.713Z</time></trkpt><trkpt lat="42.8236218" lon="11.1296796"><ele>26.0</ele><time>2026-04-18T09:53:27.718Z</time></trkpt><trkpt lat="42.8238547" lon="11.1295291"><ele>26.0</ele><time>2026-04-18T09:53:28.717Z</time></trkpt><trkpt lat="42.8240958" lon="11.1293646"><ele>26.0</ele><time>2026-04-18T09:53:29.723Z</time></trkpt><trkpt lat="42.8243355" lon="11.1292063"><ele>26.0</ele><time>2026-04-18T09:53:30.714Z</time></trkpt><trkpt lat="42.8245678" lon="11.1290517"><ele>24.5</ele><time>2026-04-18T09:53:31.718Z</time></trkpt><trkpt lat="42.82479" lon="11.1288998"><ele>23.0</ele><time>2026-04-18T09:53:32.713Z</time></trkpt><trkpt lat="42.8250144" lon="11.1287593"><ele>24.0</ele><time>2026-04-18T09:53:33.714Z</time></trkpt><trkpt lat="42.8252269" lon="11.1286175"><ele>25.0</ele><time>2026-04-18T09:53:34.714Z</time></trkpt><trkpt lat="42.8254376" lon="11.1284697"><ele>25.0</ele><time>2026-04-18T09:53:35.717Z</time></trkpt><trkpt lat="42.8256541" lon="11.1283185"><ele>25.0</ele><time>2026-04-18T09:53:36.711Z</time></trkpt><trkpt lat="42.8258689" lon="11.1281721"><ele>24.0</ele><time>2026-04-18T09:53:37.714Z</time></trkpt><trkpt lat="42.8263221" lon="11.1278621"><ele>24.0</ele><time>2026-04-18T09:53:39.723Z</time></trkpt><trkpt lat="42.8265433" lon="11.1277155"><ele>24.0</ele><time>2026-04-18T09:53:40.707Z</time></trkpt><trkpt lat="42.8267616" lon="11.1275861"><ele>24.0</ele><time>2026-04-18T09:53:41.712Z</time></trkpt><trkpt lat="42.8269714" lon="11.1274484"><ele>24.0</ele><time>2026-04-18T09:53:42.717Z</time></trkpt><trkpt lat="42.8271835" lon="11.1273109"><ele>24.5</ele><time>2026-04-18T09:53:43.712Z</time></trkpt><trkpt lat="42.8273938" lon="11.1271702"><ele>25.0</ele><time>2026-04-18T09:53:44.713Z</time></trkpt><trkpt lat="42.8276143" lon="11.1270237"><ele>25.0</ele><time>2026-04-18T09:53:45.715Z</time></trkpt><trkpt lat="42.8278388" lon="11.1268738"><ele>25.0</ele><time>2026-04-18T09:53:46.714Z</time></trkpt><trkpt lat="42.8280605" lon="11.1267265"><ele>25.0</ele><time>2026-04-18T09:53:47.72Z</time></trkpt><trkpt lat="42.8282742" lon="11.1265808"><ele>25.0</ele><time>2026-04-18T09:53:48.724Z</time></trkpt><trkpt lat="42.8284836" lon="11.1264411"><ele>25.0</ele><time>2026-04-18T09:53:49.724Z</time></trkpt><trkpt lat="42.8286929" lon="11.126313"><ele>25.0</ele><time>2026-04-18T09:53:50.711Z</time></trkpt><trkpt lat="42.8289" lon="11.1261768"><ele>25.0</ele><time>2026-04-18T09:53:51.709Z</time></trkpt><trkpt lat="42.8291116" lon="11.1260387"><ele>25.0</ele><time>2026-04-18T09:53:52.718Z</time></trkpt><trkpt lat="42.8293297" lon="11.1258955"><ele>25.5</ele><time>2026-04-18T09:53:53.712Z</time></trkpt><trkpt lat="42.8295436" lon="11.1257466"><ele>26.0</ele><time>2026-04-18T09:53:54.72Z</time></trkpt><trkpt lat="42.8297608" lon="11.1255906"><ele>26.0</ele><time>2026-04-18T09:53:55.716Z</time></trkpt><trkpt lat="42.8299708" lon="11.1254028"><ele>26.0</ele><time>2026-04-18T09:53:56.714Z</time></trkpt><trkpt lat="42.8301667" lon="11.1251988"><ele>25.5</ele><time>2026-04-18T09:53:57.716Z</time></trkpt><trkpt lat="42.8303517" lon="11.1250007"><ele>25.0</ele><time>2026-04-18T09:53:58.714Z</time></trkpt><trkpt lat="42.8307082" lon="11.1245808"><ele>25.0</ele><time>2026-04-18T09:54:00.716Z</time></trkpt><trkpt lat="42.8308862" lon="11.1243699"><ele>25.0</ele><time>2026-04-18T09:54:01.721Z</time></trkpt><trkpt lat="42.831078" lon="11.1241523"><ele>26.0</ele><time>2026-04-18T09:54:02.717Z</time></trkpt><trkpt lat="42.8312779" lon="11.1239356"><ele>27.0</ele><time>2026-04-18T09:54:03.713Z</time></trkpt><trkpt lat="42.8314877" lon="11.1237116"><ele>27.0</ele><time>2026-04-18T09:54:04.713Z</time></trkpt><trkpt lat="42.8316899" lon="11.1234894"><ele>27.0</ele><time>2026-04-18T09:54:05.712Z</time></trkpt><trkpt lat="42.8318913" lon="11.1232738"><ele>27.0</ele><time>2026-04-18T09:54:06.719Z</time></trkpt><trkpt lat="42.8320837" lon="11.1230679"><ele>27.0</ele><time>2026-04-18T09:54:07.71Z</time></trkpt><trkpt lat="42.832271" lon="11.1228561"><ele>27.0</ele><time>2026-04-18T09:54:08.712Z</time></trkpt><trkpt lat="42.8324542" lon="11.1226425"><ele>27.0</ele><time>2026-04-18T09:54:09.718Z</time></trkpt><trkpt lat="42.8326516" lon="11.1224255"><ele>27.0</ele><time>2026-04-18T09:54:10.712Z</time></trkpt><trkpt lat="42.832842" lon="11.1222115"><ele>27.0</ele><time>2026-04-18T09:54:11.718Z</time></trkpt><trkpt lat="42.8330516" lon="11.1219823"><ele>27.0</ele><time>2026-04-18T09:54:12.715Z</time></trkpt><trkpt lat="42.8332527" lon="11.1217623"><ele>27.0</ele><time>2026-04-18T09:54:13.712Z</time></trkpt><trkpt lat="42.8334481" lon="11.1215425"><ele>27.5</ele><time>2026-04-18T09:54:14.725Z</time></trkpt><trkpt lat="42.8336386" lon="11.1213297"><ele>28.0</ele><time>2026-04-18T09:54:15.714Z</time></trkpt><trkpt lat="42.8338228" lon="11.1211127"><ele>28.0</ele><time>2026-04-18T09:54:16.713Z</time></trkpt><trkpt lat="42.8340135" lon="11.1209004"><ele>28.0</ele><time>2026-04-18T09:54:17.711Z</time></trkpt><trkpt lat="42.8342003" lon="11.1206834"><ele>26.5</ele><time>2026-04-18T09:54:18.715Z</time></trkpt><trkpt lat="42.8344016" lon="11.1204681"><ele>25.0</ele><time>2026-04-18T09:54:19.713Z</time></trkpt><trkpt lat="42.8348166" lon="11.1200115"><ele>25.0</ele><time>2026-04-18T09:54:21.725Z</time></trkpt><trkpt lat="42.8350273" lon="11.119787"><ele>25.0</ele><time>2026-04-18T09:54:22.713Z</time></trkpt><trkpt lat="42.8352255" lon="11.1195689"><ele>26.0</ele><time>2026-04-18T09:54:23.723Z</time></trkpt><trkpt lat="42.8354223" lon="11.119355"><ele>27.0</ele><time>2026-04-18T09:54:24.709Z</time></trkpt><trkpt lat="42.8356124" lon="11.1191384"><ele>27.0</ele><time>2026-04-18T09:54:25.721Z</time></trkpt><trkpt lat="42.8357962" lon="11.1189163"><ele>27.0</ele><time>2026-04-18T09:54:26.719Z</time></trkpt><trkpt lat="42.8359921" lon="11.1187027"><ele>27.0</ele><time>2026-04-18T09:54:27.718Z</time></trkpt><trkpt lat="42.8361845" lon="11.1184833"><ele>27.0</ele><time>2026-04-18T09:54:28.722Z</time></trkpt><trkpt lat="42.8363935" lon="11.1182523"><ele>26.5</ele><time>2026-04-18T09:54:29.714Z</time></trkpt><trkpt lat="42.8366058" lon="11.1180196"><ele>26.0</ele><time>2026-04-18T09:54:30.714Z</time></trkpt><trkpt lat="42.8368081" lon="11.117788"><ele>26.0</ele><time>2026-04-18T09:54:31.719Z</time></trkpt><trkpt lat="42.8370091" lon="11.1175689"><ele>26.0</ele><time>2026-04-18T09:54:32.713Z</time></trkpt><trkpt lat="42.8372002" lon="11.1173535"><ele>25.5</ele><time>2026-04-18T09:54:33.717Z</time></trkpt><trkpt lat="42.8373972" lon="11.1171384"><ele>25.0</ele><time>2026-04-18T09:54:34.713Z</time></trkpt><trkpt lat="42.837591" lon="11.1169262"><ele>25.0</ele><time>2026-04-18T09:54:35.718Z</time></trkpt><trkpt lat="42.8377888" lon="11.1167075"><ele>25.0</ele><time>2026-04-18T09:54:36.709Z</time></trkpt><trkpt lat="42.837983" lon="11.1164841"><ele>25.0</ele><time>2026-04-18T09:54:37.714Z</time></trkpt><trkpt lat="42.8382008" lon="11.1162486"><ele>25.0</ele><time>2026-04-18T09:54:38.713Z</time></trkpt><trkpt lat="42.8384058" lon="11.116013"><ele>25.0</ele><time>2026-04-18T09:54:39.706Z</time></trkpt><trkpt lat="42.8386033" lon="11.1157867"><ele>25.0</ele><time>2026-04-18T09:54:40.714Z</time></trkpt><trkpt lat="42.8389924" lon="11.1153483"><ele>26.0</ele><time>2026-04-18T09:54:42.721Z</time></trkpt><trkpt lat="42.839184" lon="11.1151298"><ele>27.0</ele><time>2026-04-18T09:54:43.716Z</time></trkpt><trkpt lat="42.8393837" lon="11.1149109"><ele>27.5</ele><time>2026-04-18T09:54:44.714Z</time></trkpt><trkpt lat="42.8395804" lon="11.1146886"><ele>28.0</ele><time>2026-04-18T09:54:45.714Z</time></trkpt><trkpt lat="42.8397925" lon="11.1144547"><ele>28.0</ele><time>2026-04-18T09:54:46.712Z</time></trkpt><trkpt lat="42.8400061" lon="11.1142237"><ele>28.0</ele><time>2026-04-18T09:54:47.72Z</time></trkpt><trkpt lat="42.8402005" lon="11.1139908"><ele>30.0</ele><time>2026-04-18T09:54:48.714Z</time></trkpt><trkpt lat="42.8403965" lon="11.1137758"><ele>32.0</ele><time>2026-04-18T09:54:49.739Z</time></trkpt><trkpt lat="42.8405825" lon="11.113556"><ele>32.0</ele><time>2026-04-18T09:54:50.71Z</time></trkpt><trkpt lat="42.8407716" lon="11.1133458"><ele>32.0</ele><time>2026-04-18T09:54:51.711Z</time></trkpt><trkpt lat="42.8409448" lon="11.1131513"><ele>32.0</ele><time>2026-04-18T09:54:52.711Z</time></trkpt><trkpt lat="42.8411137" lon="11.1129657"><ele>32.0</ele><time>2026-04-18T09:54:53.727Z</time></trkpt><trkpt lat="42.8412869" lon="11.1127844"><ele>32.0</ele><time>2026-04-18T09:54:54.707Z</time></trkpt><trkpt lat="42.8414682" lon="11.1125975"><ele>32.0</ele><time>2026-04-18T09:54:55.714Z</time></trkpt><trkpt lat="42.8416249" lon="11.1124143"><ele>32.0</ele><time>2026-04-18T09:54:56.718Z</time></trkpt><trkpt lat="42.84176" lon="11.112254"><ele>32.0</ele><time>2026-04-18T09:54:57.711Z</time></trkpt><trkpt lat="42.8418884" lon="11.1120773"><ele>32.33333333333333</ele><time>2026-04-18T09:54:58.72Z</time></trkpt><trkpt lat="42.8419876" lon="11.1118798"><ele>32.666666666666664</ele><time>2026-04-18T09:54:59.725Z</time></trkpt><trkpt lat="42.8420468" lon="11.1116447"><ele>33.0</ele><time>2026-04-18T09:55:00.711Z</time></trkpt><trkpt lat="42.8420785" lon="11.1113711"><ele>33.0</ele><time>2026-04-18T09:55:01.709Z</time></trkpt><trkpt lat="42.8421376" lon="11.1107855"><ele>33.0</ele><time>2026-04-18T09:55:03.71Z</time></trkpt><trkpt lat="42.8421624" lon="11.1104935"><ele>32.333333333333336</ele><time>2026-04-18T09:55:04.712Z</time></trkpt><trkpt lat="42.8421758" lon="11.1101927"><ele>31.666666666666668</ele><time>2026-04-18T09:55:05.716Z</time></trkpt><trkpt lat="42.8421886" lon="11.1099017"><ele>31.0</ele><time>2026-04-18T09:55:06.717Z</time></trkpt><trkpt lat="42.8421998" lon="11.109596"><ele>30.0</ele><time>2026-04-18T09:55:07.721Z</time></trkpt><trkpt lat="42.8422146" lon="11.1092913"><ele>29.0</ele><time>2026-04-18T09:55:08.712Z</time></trkpt><trkpt lat="42.8422181" lon="11.1089737"><ele>28.0</ele><time>2026-04-18T09:55:09.727Z</time></trkpt><trkpt lat="42.8422295" lon="11.1086602"><ele>27.0</ele><time>2026-04-18T09:55:10.716Z</time></trkpt><trkpt lat="42.8422552" lon="11.1083428"><ele>26.5</ele><time>2026-04-18T09:55:11.721Z</time></trkpt><trkpt lat="42.842286" lon="11.1080085"><ele>26.0</ele><time>2026-04-18T09:55:12.709Z</time></trkpt><trkpt lat="42.8423017" lon="11.107683"><ele>26.0</ele><time>2026-04-18T09:55:13.729Z</time></trkpt><trkpt lat="42.8423179" lon="11.1073581"><ele>26.0</ele><time>2026-04-18T09:55:14.716Z</time></trkpt><trkpt lat="42.8423301" lon="11.1070292"><ele>26.0</ele><time>2026-04-18T09:55:15.711Z</time></trkpt><trkpt lat="42.842335" lon="11.1066933"><ele>26.0</ele><time>2026-04-18T09:55:16.708Z</time></trkpt><trkpt lat="42.842344" lon="11.1063512"><ele>25.5</ele><time>2026-04-18T09:55:17.72Z</time></trkpt><trkpt lat="42.8423578" lon="11.1059986"><ele>25.0</ele><time>2026-04-18T09:55:18.718Z</time></trkpt><trkpt lat="42.8423837" lon="11.1056463"><ele>24.5</ele><time>2026-04-18T09:55:19.709Z</time></trkpt><trkpt lat="42.8424075" lon="11.1052858"><ele>24.0</ele><time>2026-04-18T09:55:20.709Z</time></trkpt><trkpt lat="42.8424387" lon="11.1049252"><ele>24.0</ele><time>2026-04-18T09:55:21.715Z</time></trkpt><trkpt lat="42.8424549" lon="11.1045641"><ele>24.0</ele><time>2026-04-18T09:55:22.716Z</time></trkpt><trkpt lat="42.8424805" lon="11.103855"><ele>23.0</ele><time>2026-04-18T09:55:24.716Z</time></trkpt><trkpt lat="42.8424936" lon="11.1034981"><ele>22.0</ele><time>2026-04-18T09:55:25.714Z</time></trkpt><trkpt lat="42.8424969" lon="11.1031232"><ele>22.0</ele><time>2026-04-18T09:55:26.717Z</time></trkpt><trkpt lat="42.8425117" lon="11.1027515"><ele>22.0</ele><time>2026-04-18T09:55:27.723Z</time></trkpt><trkpt lat="42.8425392" lon="11.1023747"><ele>22.0</ele><time>2026-04-18T09:55:28.712Z</time></trkpt><trkpt lat="42.8425723" lon="11.1019909"><ele>22.0</ele><time>2026-04-18T09:55:29.714Z</time></trkpt><trkpt lat="42.8425928" lon="11.1016073"><ele>20.5</ele><time>2026-04-18T09:55:30.709Z</time></trkpt><trkpt lat="42.8426061" lon="11.1012421"><ele>19.0</ele><time>2026-04-18T09:55:31.717Z</time></trkpt><trkpt lat="42.8426202" lon="11.1008721"><ele>18.5</ele><time>2026-04-18T09:55:32.714Z</time></trkpt><trkpt lat="42.8426337" lon="11.1005029"><ele>18.0</ele><time>2026-04-18T09:55:33.712Z</time></trkpt><trkpt lat="42.8426442" lon="11.1001333"><ele>17.0</ele><time>2026-04-18T09:55:34.721Z</time></trkpt><trkpt lat="42.8426631" lon="11.0997636"><ele>16.0</ele><time>2026-04-18T09:55:35.714Z</time></trkpt><trkpt lat="42.8426807" lon="11.0993811"><ele>16.0</ele><time>2026-04-18T09:55:36.72Z</time></trkpt><trkpt lat="42.8427112" lon="11.0989985"><ele>16.0</ele><time>2026-04-18T09:55:37.713Z</time></trkpt><trkpt lat="42.842734" lon="11.0986212"><ele>16.0</ele><time>2026-04-18T09:55:38.711Z</time></trkpt><trkpt lat="42.8427529" lon="11.0982478"><ele>16.0</ele><time>2026-04-18T09:55:39.715Z</time></trkpt><trkpt lat="42.8427657" lon="11.0979029"><ele>16.0</ele><time>2026-04-18T09:55:40.716Z</time></trkpt><trkpt lat="42.8427762" lon="11.097575"><ele>16.0</ele><time>2026-04-18T09:55:41.717Z</time></trkpt><trkpt lat="42.8427872" lon="11.0972669"><ele>16.0</ele><time>2026-04-18T09:55:42.714Z</time></trkpt><trkpt lat="42.8427995" lon="11.0969905"><ele>16.0</ele><time>2026-04-18T09:55:43.711Z</time></trkpt><trkpt lat="42.8428393" lon="11.0964499"><ele>16.333333333333332</ele><time>2026-04-18T09:55:45.725Z</time></trkpt><trkpt lat="42.8428666" lon="11.0961719"><ele>16.666666666666668</ele><time>2026-04-18T09:55:46.718Z</time></trkpt><trkpt lat="42.8428747" lon="11.0959209"><ele>17.0</ele><time>2026-04-18T09:55:47.713Z</time></trkpt><trkpt lat="42.8428809" lon="11.0956923"><ele>17.0</ele><time>2026-04-18T09:55:48.712Z</time></trkpt><trkpt lat="42.8428816" lon="11.0954747"><ele>17.0</ele><time>2026-04-18T09:55:49.717Z</time></trkpt><trkpt lat="42.8428937" lon="11.0952775"><ele>17.0</ele><time>2026-04-18T09:55:50.714Z</time></trkpt><trkpt lat="42.8428918" lon="11.0950897"><ele>17.0</ele><time>2026-04-18T09:55:51.719Z</time></trkpt><trkpt lat="42.8428964" lon="11.0949032"><ele>16.75</ele><time>2026-04-18T09:55:52.721Z</time></trkpt><trkpt lat="42.8429091" lon="11.0947282"><ele>16.5</ele><time>2026-04-18T09:55:53.712Z</time></trkpt><trkpt lat="42.8429286" lon="11.0945478"><ele>16.25</ele><time>2026-04-18T09:55:54.71Z</time></trkpt><trkpt lat="42.8429398" lon="11.0943807"><ele>16.0</ele><time>2026-04-18T09:55:55.713Z</time></trkpt><trkpt lat="42.8429306" lon="11.0942139"><ele>15.75</ele><time>2026-04-18T09:55:56.716Z</time></trkpt><trkpt lat="42.8429115" lon="11.0940477"><ele>15.5</ele><time>2026-04-18T09:55:57.735Z</time></trkpt><trkpt lat="42.8428789" lon="11.0938764"><ele>15.25</ele><time>2026-04-18T09:55:58.719Z</time></trkpt><trkpt lat="42.8428418" lon="11.093708"><ele>15.0</ele><time>2026-04-18T09:55:59.712Z</time></trkpt><trkpt lat="42.842801" lon="11.0935461"><ele>15.0</ele><time>2026-04-18T09:56:00.715Z</time></trkpt><trkpt lat="42.842753" lon="11.093383"><ele>15.0</ele><time>2026-04-18T09:56:01.714Z</time></trkpt><trkpt lat="42.8427031" lon="11.0932312"><ele>15.0</ele><time>2026-04-18T09:56:02.713Z</time></trkpt><trkpt lat="42.8426495" lon="11.0930891"><ele>15.0</ele><time>2026-04-18T09:56:03.709Z</time></trkpt><trkpt lat="42.8425775" lon="11.0929512"><ele>15.666666666666668</ele><time>2026-04-18T09:56:04.714Z</time></trkpt><trkpt lat="42.8424071" lon="11.0926639"><ele>16.333333333333336</ele><time>2026-04-18T09:56:06.72Z</time></trkpt><trkpt lat="42.8423122" lon="11.0925017"><ele>17.0</ele><time>2026-04-18T09:56:07.719Z</time></trkpt><trkpt lat="42.8421932" lon="11.0923281"><ele>17.0</ele><time>2026-04-18T09:56:08.71Z</time></trkpt><trkpt lat="42.8420711" lon="11.0921469"><ele>17.0</ele><time>2026-04-18T09:56:09.714Z</time></trkpt><trkpt lat="42.8419632" lon="11.0919523"><ele>17.0</ele><time>2026-04-18T09:56:10.724Z</time></trkpt><trkpt lat="42.8418701" lon="11.0917557"><ele>16.0</ele><time>2026-04-18T09:56:11.72Z</time></trkpt><trkpt lat="42.8417737" lon="11.0915652"><ele>15.0</ele><time>2026-04-18T09:56:12.719Z</time></trkpt><trkpt lat="42.8416645" lon="11.0913764"><ele>14.0</ele><time>2026-04-18T09:56:13.719Z</time></trkpt><trkpt lat="42.8415592" lon="11.0912017"><ele>14.0</ele><time>2026-04-18T09:56:14.718Z</time></trkpt><trkpt lat="42.8414465" lon="11.0910132"><ele>14.0</ele><time>2026-04-18T09:56:15.711Z</time></trkpt><trkpt lat="42.8413215" lon="11.090813"><ele>14.0</ele><time>2026-04-18T09:56:16.72Z</time></trkpt><trkpt lat="42.8411926" lon="11.0906155"><ele>14.0</ele><time>2026-04-18T09:56:17.722Z</time></trkpt><trkpt lat="42.8410658" lon="11.0904035"><ele>14.0</ele><time>2026-04-18T09:56:18.716Z</time></trkpt><trkpt lat="42.8408373" lon="11.0899517"><ele>14.333333333333334</ele><time>2026-04-18T09:56:20.729Z</time></trkpt><trkpt lat="42.840712" lon="11.0897321"><ele>14.666666666666668</ele><time>2026-04-18T09:56:21.718Z</time></trkpt><trkpt lat="42.8405791" lon="11.0895189"><ele>15.0</ele><time>2026-04-18T09:56:22.718Z</time></trkpt><trkpt lat="42.840429" lon="11.0893052"><ele>15.0</ele><time>2026-04-18T09:56:23.714Z</time></trkpt><trkpt lat="42.840277" lon="11.0891093"><ele>15.0</ele><time>2026-04-18T09:56:24.719Z</time></trkpt><trkpt lat="42.8401114" lon="11.0889296"><ele>15.0</ele><time>2026-04-18T09:56:25.714Z</time></trkpt><trkpt lat="42.839787" lon="11.0886368"><ele>15.333333333333332</ele><time>2026-04-18T09:56:27.726Z</time></trkpt><trkpt lat="42.8396371" lon="11.0884645"><ele>15.666666666666666</ele><time>2026-04-18T09:56:28.721Z</time></trkpt><trkpt lat="42.8394682" lon="11.088292"><ele>16.0</ele><time>2026-04-18T09:56:29.709Z</time></trkpt><trkpt lat="42.839283" lon="11.088117"><ele>16.5</ele><time>2026-04-18T09:56:30.713Z</time></trkpt><trkpt lat="42.8390934" lon="11.0879475"><ele>17.0</ele><time>2026-04-18T09:56:31.712Z</time></trkpt><trkpt lat="42.8389013" lon="11.0877695"><ele>17.0</ele><time>2026-04-18T09:56:32.711Z</time></trkpt><trkpt lat="42.8387109" lon="11.0875816"><ele>17.0</ele><time>2026-04-18T09:56:33.707Z</time></trkpt><trkpt lat="42.8385256" lon="11.0874085"><ele>19.0</ele><time>2026-04-18T09:56:34.709Z</time></trkpt><trkpt lat="42.8383345" lon="11.0872449"><ele>21.0</ele><time>2026-04-18T09:56:35.711Z</time></trkpt><trkpt lat="42.838147" lon="11.0870683"><ele>21.0</ele><time>2026-04-18T09:56:36.719Z</time></trkpt><trkpt lat="42.8379747" lon="11.0868675"><ele>21.0</ele><time>2026-04-18T09:56:37.714Z</time></trkpt><trkpt lat="42.8377981" lon="11.0866522"><ele>19.5</ele><time>2026-04-18T09:56:38.712Z</time></trkpt><trkpt lat="42.8376223" lon="11.086443"><ele>18.0</ele><time>2026-04-18T09:56:39.716Z</time></trkpt><trkpt lat="42.8374496" lon="11.0862151"><ele>18.0</ele><time>2026-04-18T09:56:40.717Z</time></trkpt><trkpt lat="42.8372984" lon="11.0859559"><ele>18.0</ele><time>2026-04-18T09:56:41.715Z</time></trkpt><trkpt lat="42.8371629" lon="11.0856849"><ele>19.0</ele><time>2026-04-18T09:56:42.721Z</time></trkpt><trkpt lat="42.8370529" lon="11.0854132"><ele>20.0</ele><time>2026-04-18T09:56:43.719Z</time></trkpt><trkpt lat="42.8369846" lon="11.0851565"><ele>21.0</ele><time>2026-04-18T09:56:44.714Z</time></trkpt><trkpt lat="42.8369337" lon="11.0848852"><ele>21.5</ele><time>2026-04-18T09:56:45.721Z</time></trkpt><trkpt lat="42.8368903" lon="11.0846252"><ele>22.0</ele><time>2026-04-18T09:56:46.72Z</time></trkpt><trkpt lat="42.836799" lon="11.084156"><ele>18.25</ele><time>2026-04-18T09:56:48.712Z</time></trkpt><trkpt lat="42.8367629" lon="11.0839467"><ele>14.5</ele><time>2026-04-18T09:56:49.719Z</time></trkpt><trkpt lat="42.8367353" lon="11.0837502"><ele>10.75</ele><time>2026-04-18T09:56:50.719Z</time></trkpt><trkpt lat="42.8367076" lon="11.083628"><ele>7.0</ele><time>2026-04-18T09:56:51.711Z</time></trkpt><trkpt lat="42.8367178" lon="11.083486"><ele>7.0</ele><time>2026-04-18T09:56:53.713Z</time></trkpt><trkpt lat="42.8367296" lon="11.0833792"><ele>6.999999999999999</ele><time>2026-04-18T09:56:56.711Z</time></trkpt><trkpt lat="42.8367064" lon="11.0832824"><ele>6.999999999999999</ele><time>2026-04-18T09:56:58.714Z</time></trkpt><trkpt lat="42.8366978" lon="11.0831598"><ele>7.0</ele><time>2026-04-18T09:57:34.717Z</time></trkpt><trkpt lat="42.836823" lon="11.083042"><ele>7.0</ele><time>2026-04-18T09:57:37.717Z</time></trkpt><trkpt lat="42.8369152" lon="11.0830053"><ele>7.5</ele><time>2026-04-18T09:57:38.718Z</time></trkpt><trkpt lat="42.8370194" lon="11.0829707"><ele>8.0</ele><time>2026-04-18T09:57:39.721Z</time></trkpt><trkpt lat="42.8371294" lon="11.0829208"><ele>8.5</ele><time>2026-04-18T09:57:40.712Z</time></trkpt><trkpt lat="42.8372465" lon="11.082873"><ele>9.0</ele><time>2026-04-18T09:57:41.721Z</time></trkpt><trkpt lat="42.8373661" lon="11.0828121"><ele>9.0</ele><time>2026-04-18T09:57:42.709Z</time></trkpt><trkpt lat="42.8374994" lon="11.0827569"><ele>9.0</ele><time>2026-04-18T09:57:43.719Z</time></trkpt><trkpt lat="42.8376428" lon="11.0826889"><ele>9.0</ele><time>2026-04-18T09:57:44.713Z</time></trkpt><trkpt lat="42.8378221" lon="11.0825974"><ele>8.666666666666666</ele><time>2026-04-18T09:57:45.715Z</time></trkpt><trkpt lat="42.8380011" lon="11.0824857"><ele>8.333333333333332</ele><time>2026-04-18T09:57:46.708Z</time></trkpt><trkpt lat="42.8381709" lon="11.0824062"><ele>8.0</ele><time>2026-04-18T09:57:47.712Z</time></trkpt><trkpt lat="42.8383398" lon="11.082318"><ele>8.666666666666666</ele><time>2026-04-18T09:57:48.716Z</time></trkpt><trkpt lat="42.8385139" lon="11.0822513"><ele>9.333333333333334</ele><time>2026-04-18T09:57:49.713Z</time></trkpt><trkpt lat="42.8386934" lon="11.082179"><ele>10.0</ele><time>2026-04-18T09:57:50.71Z</time></trkpt><trkpt lat="42.838905" lon="11.0821149"><ele>10.0</ele><time>2026-04-18T09:57:51.723Z</time></trkpt><trkpt lat="42.8391307" lon="11.0820666"><ele>10.0</ele><time>2026-04-18T09:57:52.719Z</time></trkpt><trkpt lat="42.8393563" lon="11.0820278"><ele>11.5</ele><time>2026-04-18T09:57:53.717Z</time></trkpt><trkpt lat="42.8395966" lon="11.0819798"><ele>13.0</ele><time>2026-04-18T09:57:54.721Z</time></trkpt><trkpt lat="42.8398444" lon="11.0819475"><ele>13.0</ele><time>2026-04-18T09:57:55.716Z</time></trkpt><trkpt lat="42.8400938" lon="11.0819322"><ele>13.0</ele><time>2026-04-18T09:57:56.711Z</time></trkpt><trkpt lat="42.8405986" lon="11.0819033"><ele>13.5</ele><time>2026-04-18T09:57:58.707Z</time></trkpt><trkpt lat="42.840849" lon="11.0818784"><ele>14.0</ele><time>2026-04-18T09:57:59.72Z</time></trkpt><trkpt lat="42.8410992" lon="11.0818517"><ele>16.5</ele><time>2026-04-18T09:58:00.714Z</time></trkpt><trkpt lat="42.8413616" lon="11.0818127"><ele>19.0</ele><time>2026-04-18T09:58:01.706Z</time></trkpt><trkpt lat="42.8416316" lon="11.0817624"><ele>19.5</ele><time>2026-04-18T09:58:02.712Z</time></trkpt><trkpt lat="42.8418982" lon="11.0817412"><ele>20.0</ele><time>2026-04-18T09:58:03.713Z</time></trkpt><trkpt lat="42.842165" lon="11.0817283"><ele>20.0</ele><time>2026-04-18T09:58:04.711Z</time></trkpt><trkpt lat="42.8424116" lon="11.0817064"><ele>20.0</ele><time>2026-04-18T09:58:05.717Z</time></trkpt><trkpt lat="42.8426677" lon="11.0816908"><ele>20.0</ele><time>2026-04-18T09:58:06.712Z</time></trkpt><trkpt lat="42.8429204" lon="11.0816681"><ele>20.0</ele><time>2026-04-18T09:58:07.713Z</time></trkpt><trkpt lat="42.8431774" lon="11.0816476"><ele>20.0</ele><time>2026-04-18T09:58:08.711Z</time></trkpt><trkpt lat="42.8434471" lon="11.0816246"><ele>20.0</ele><time>2026-04-18T09:58:09.709Z</time></trkpt><trkpt lat="42.8437252" lon="11.0815868"><ele>14.0</ele><time>2026-04-18T09:58:10.713Z</time></trkpt><trkpt lat="42.8440006" lon="11.0815499"><ele>8.0</ele><time>2026-04-18T09:58:11.712Z</time></trkpt><trkpt lat="42.8442626" lon="11.081518"><ele>8.5</ele><time>2026-04-18T09:58:12.715Z</time></trkpt><trkpt lat="42.8445202" lon="11.0814902"><ele>9.0</ele><time>2026-04-18T09:58:13.722Z</time></trkpt><trkpt lat="42.8447864" lon="11.0814708"><ele>9.0</ele><time>2026-04-18T09:58:14.715Z</time></trkpt><trkpt lat="42.8450482" lon="11.0814509"><ele>9.0</ele><time>2026-04-18T09:58:15.707Z</time></trkpt><trkpt lat="42.845322" lon="11.0814277"><ele>9.0</ele><time>2026-04-18T09:58:16.721Z</time></trkpt><trkpt lat="42.8456027" lon="11.081395"><ele>9.0</ele><time>2026-04-18T09:58:17.713Z</time></trkpt><trkpt lat="42.8461667" lon="11.0813189"><ele>9.0</ele><time>2026-04-18T09:58:19.714Z</time></trkpt><trkpt lat="42.8464477" lon="11.081291"><ele>9.0</ele><time>2026-04-18T09:58:20.732Z</time></trkpt><trkpt lat="42.8467176" lon="11.0812729"><ele>9.5</ele><time>2026-04-18T09:58:21.715Z</time></trkpt><trkpt lat="42.8469846" lon="11.0812457"><ele>10.0</ele><time>2026-04-18T09:58:22.711Z</time></trkpt><trkpt lat="42.8472448" lon="11.0812218"><ele>10.0</ele><time>2026-04-18T09:58:23.717Z</time></trkpt><trkpt lat="42.8474978" lon="11.0811899"><ele>10.0</ele><time>2026-04-18T09:58:24.718Z</time></trkpt><trkpt lat="42.8477578" lon="11.081168"><ele>11.5</ele><time>2026-04-18T09:58:25.722Z</time></trkpt><trkpt lat="42.8480243" lon="11.0811266"><ele>13.0</ele><time>2026-04-18T09:58:26.715Z</time></trkpt><trkpt lat="42.8482956" lon="11.081097"><ele>11.5</ele><time>2026-04-18T09:58:27.72Z</time></trkpt><trkpt lat="42.8485679" lon="11.0810649"><ele>10.0</ele><time>2026-04-18T09:58:28.707Z</time></trkpt><trkpt lat="42.8488365" lon="11.0810485"><ele>10.0</ele><time>2026-04-18T09:58:29.712Z</time></trkpt><trkpt lat="42.8490878" lon="11.0810132"><ele>10.0</ele><time>2026-04-18T09:58:30.709Z</time></trkpt><trkpt lat="42.8493371" lon="11.0809913"><ele>11.5</ele><time>2026-04-18T09:58:31.715Z</time></trkpt><trkpt lat="42.8495695" lon="11.080962"><ele>13.0</ele><time>2026-04-18T09:58:32.711Z</time></trkpt><trkpt lat="42.8498206" lon="11.0809216"><ele>13.0</ele><time>2026-04-18T09:58:33.714Z</time></trkpt><trkpt lat="42.8500734" lon="11.0808579"><ele>13.0</ele><time>2026-04-18T09:58:34.714Z</time></trkpt><trkpt lat="42.8503192" lon="11.0807652"><ele>10.5</ele><time>2026-04-18T09:58:35.712Z</time></trkpt><trkpt lat="42.850578" lon="11.0806239"><ele>8.0</ele><time>2026-04-18T09:58:36.712Z</time></trkpt><trkpt lat="42.8508305" lon="11.0804651"><ele>10.0</ele><time>2026-04-18T09:58:37.723Z</time></trkpt><trkpt lat="42.851078" lon="11.0803118"><ele>12.0</ele><time>2026-04-18T09:58:38.707Z</time></trkpt><trkpt lat="42.8515328" lon="11.0800286"><ele>11.5</ele><time>2026-04-18T09:58:40.716Z</time></trkpt><trkpt lat="42.851753" lon="11.0798907"><ele>11.0</ele><time>2026-04-18T09:58:41.71Z</time></trkpt><trkpt lat="42.8519795" lon="11.0797395"><ele>11.0</ele><time>2026-04-18T09:58:42.713Z</time></trkpt><trkpt lat="42.8522135" lon="11.0795895"><ele>11.0</ele><time>2026-04-18T09:58:43.72Z</time></trkpt><trkpt lat="42.8524608" lon="11.0794278"><ele>11.5</ele><time>2026-04-18T09:58:44.709Z</time></trkpt><trkpt lat="42.8527069" lon="11.0792712"><ele>12.0</ele><time>2026-04-18T09:58:45.715Z</time></trkpt><trkpt lat="42.8529515" lon="11.0791282"><ele>10.0</ele><time>2026-04-18T09:58:46.72Z</time></trkpt><trkpt lat="42.8531832" lon="11.0789757"><ele>8.0</ele><time>2026-04-18T09:58:47.713Z</time></trkpt><trkpt lat="42.8534226" lon="11.0788308"><ele>8.0</ele><time>2026-04-18T09:58:48.709Z</time></trkpt><trkpt lat="42.8536568" lon="11.0786873"><ele>8.0</ele><time>2026-04-18T09:58:49.71Z</time></trkpt><trkpt lat="42.8539024" lon="11.0785391"><ele>8.0</ele><time>2026-04-18T09:58:50.715Z</time></trkpt><trkpt lat="42.8541542" lon="11.0783935"><ele>8.0</ele><time>2026-04-18T09:58:51.714Z</time></trkpt><trkpt lat="42.8544032" lon="11.0782433"><ele>7.0</ele><time>2026-04-18T09:58:52.721Z</time></trkpt><trkpt lat="42.8546524" lon="11.0781011"><ele>6.0</ele><time>2026-04-18T09:58:53.72Z</time></trkpt><trkpt lat="42.8548999" lon="11.0779482"><ele>7.0</ele><time>2026-04-18T09:58:54.714Z</time></trkpt><trkpt lat="42.8551509" lon="11.0778064"><ele>8.0</ele><time>2026-04-18T09:58:55.713Z</time></trkpt><trkpt lat="42.8553833" lon="11.0776517"><ele>8.0</ele><time>2026-04-18T09:58:56.726Z</time></trkpt><trkpt lat="42.8556253" lon="11.0775062"><ele>8.0</ele><time>2026-04-18T09:58:57.713Z</time></trkpt><trkpt lat="42.8558647" lon="11.0773686"><ele>7.5</ele><time>2026-04-18T09:58:58.708Z</time></trkpt><trkpt lat="42.8561148" lon="11.077216"><ele>7.0</ele><time>2026-04-18T09:58:59.709Z</time></trkpt><trkpt lat="42.8566249" lon="11.0769044"><ele>7.5</ele><time>2026-04-18T09:59:01.718Z</time></trkpt><trkpt lat="42.856877" lon="11.0767565"><ele>8.0</ele><time>2026-04-18T09:59:02.712Z</time></trkpt><trkpt lat="42.8571168" lon="11.0766183"><ele>8.5</ele><time>2026-04-18T09:59:03.718Z</time></trkpt><trkpt lat="42.857348" lon="11.0764764"><ele>9.0</ele><time>2026-04-18T09:59:04.704Z</time></trkpt><trkpt lat="42.8575782" lon="11.076328"><ele>9.0</ele><time>2026-04-18T09:59:05.723Z</time></trkpt><trkpt lat="42.8578141" lon="11.0761823"><ele>9.0</ele><time>2026-04-18T09:59:06.723Z</time></trkpt><trkpt lat="42.8580553" lon="11.076041"><ele>9.0</ele><time>2026-04-18T09:59:07.714Z</time></trkpt><trkpt lat="42.8583033" lon="11.0758922"><ele>9.0</ele><time>2026-04-18T09:59:08.715Z</time></trkpt><trkpt lat="42.8585558" lon="11.0757412"><ele>11.0</ele><time>2026-04-18T09:59:09.709Z</time></trkpt><trkpt lat="42.8588113" lon="11.075581"><ele>13.0</ele><time>2026-04-18T09:59:10.715Z</time></trkpt><trkpt lat="42.859054" lon="11.0754423"><ele>13.0</ele><time>2026-04-18T09:59:11.72Z</time></trkpt><trkpt lat="42.8592806" lon="11.0753106"><ele>13.0</ele><time>2026-04-18T09:59:12.713Z</time></trkpt><trkpt lat="42.8595007" lon="11.0751938"><ele>13.0</ele><time>2026-04-18T09:59:13.712Z</time></trkpt><trkpt lat="42.8597129" lon="11.0750742"><ele>13.0</ele><time>2026-04-18T09:59:14.715Z</time></trkpt><trkpt lat="42.8598999" lon="11.0749849"><ele>13.0</ele><time>2026-04-18T09:59:15.708Z</time></trkpt><trkpt lat="42.8600901" lon="11.0749054"><ele>13.333333333333332</ele><time>2026-04-18T09:59:16.725Z</time></trkpt><trkpt lat="42.860282" lon="11.0748502"><ele>13.666666666666668</ele><time>2026-04-18T09:59:17.708Z</time></trkpt><trkpt lat="42.8604674" lon="11.0748506"><ele>14.0</ele><time>2026-04-18T09:59:18.709Z</time></trkpt><trkpt lat="42.8606373" lon="11.0748807"><ele>14.0</ele><time>2026-04-18T09:59:19.712Z</time></trkpt><trkpt lat="42.8608113" lon="11.0749135"><ele>14.0</ele><time>2026-04-18T09:59:20.72Z</time></trkpt><trkpt lat="42.8611558" lon="11.0749473"><ele>15.0</ele><time>2026-04-18T09:59:22.714Z</time></trkpt><trkpt lat="42.8613394" lon="11.0749595"><ele>16.0</ele><time>2026-04-18T09:59:23.712Z</time></trkpt><trkpt lat="42.8615407" lon="11.0749712"><ele>17.0</ele><time>2026-04-18T09:59:24.708Z</time></trkpt><trkpt lat="42.8617524" lon="11.0749908"><ele>17.5</ele><time>2026-04-18T09:59:25.722Z</time></trkpt><trkpt lat="42.8619798" lon="11.0750117"><ele>18.0</ele><time>2026-04-18T09:59:26.726Z</time></trkpt><trkpt lat="42.8622159" lon="11.0750218"><ele>18.0</ele><time>2026-04-18T09:59:27.711Z</time></trkpt><trkpt lat="42.8624414" lon="11.0750315"><ele>18.0</ele><time>2026-04-18T09:59:28.71Z</time></trkpt><trkpt lat="42.8626763" lon="11.0750575"><ele>17.0</ele><time>2026-04-18T09:59:29.711Z</time></trkpt><trkpt lat="42.8629053" lon="11.0750826"><ele>16.0</ele><time>2026-04-18T09:59:30.719Z</time></trkpt><trkpt lat="42.8631376" lon="11.07511"><ele>16.0</ele><time>2026-04-18T09:59:31.711Z</time></trkpt><trkpt lat="42.8633695" lon="11.075144"><ele>16.0</ele><time>2026-04-18T09:59:32.714Z</time></trkpt><trkpt lat="42.863616" lon="11.0751718"><ele>16.5</ele><time>2026-04-18T09:59:33.706Z</time></trkpt><trkpt lat="42.8638697" lon="11.0751757"><ele>17.0</ele><time>2026-04-18T09:59:34.717Z</time></trkpt><trkpt lat="42.8641199" lon="11.0751912"><ele>16.5</ele><time>2026-04-18T09:59:35.711Z</time></trkpt><trkpt lat="42.8643682" lon="11.0752102"><ele>16.0</ele><time>2026-04-18T09:59:36.723Z</time></trkpt><trkpt lat="42.8646123" lon="11.0752358"><ele>16.0</ele><time>2026-04-18T09:59:37.708Z</time></trkpt><trkpt lat="42.8648415" lon="11.0752591"><ele>16.0</ele><time>2026-04-18T09:59:38.71Z</time></trkpt><trkpt lat="42.865049" lon="11.0752771"><ele>16.0</ele><time>2026-04-18T09:59:39.718Z</time></trkpt><trkpt lat="42.8652369" lon="11.0752945"><ele>15.5</ele><time>2026-04-18T09:59:40.715Z</time></trkpt><trkpt lat="42.8654277" lon="11.0753114"><ele>15.0</ele><time>2026-04-18T09:59:41.709Z</time></trkpt><trkpt lat="42.8658285" lon="11.0753407"><ele>14.666666666666668</ele><time>2026-04-18T09:59:43.711Z</time></trkpt><trkpt lat="42.8660134" lon="11.0753551"><ele>14.333333333333334</ele><time>2026-04-18T09:59:44.726Z</time></trkpt><trkpt lat="42.866175" lon="11.0753506"><ele>14.0</ele><time>2026-04-18T09:59:45.712Z</time></trkpt><trkpt lat="42.8663223" lon="11.0753837"><ele>14.000000000000002</ele><time>2026-04-18T09:59:46.71Z</time></trkpt><trkpt lat="42.8664409" lon="11.0754181"><ele>14.0</ele><time>2026-04-18T09:59:47.709Z</time></trkpt><trkpt lat="42.8665235" lon="11.0754371"><ele>14.0</ele><time>2026-04-18T09:59:48.715Z</time></trkpt><trkpt lat="42.8666005" lon="11.0754766"><ele>14.0</ele><time>2026-04-18T09:59:49.716Z</time></trkpt><trkpt lat="42.866673" lon="11.0755244"><ele>14.000000000000002</ele><time>2026-04-18T09:59:50.714Z</time></trkpt><trkpt lat="42.8667496" lon="11.0755213"><ele>14.0</ele><time>2026-04-18T09:59:51.711Z</time></trkpt><trkpt lat="42.8668116" lon="11.0754738"><ele>14.0</ele><time>2026-04-18T09:59:52.716Z</time></trkpt><trkpt lat="42.8668563" lon="11.0754063"><ele>13.999999999999998</ele><time>2026-04-18T09:59:53.714Z</time></trkpt><trkpt lat="42.8668272" lon="11.0752474"><ele>13.999999999999998</ele><time>2026-04-18T09:59:55.709Z</time></trkpt><trkpt lat="42.8667673" lon="11.0751535"><ele>14.0</ele><time>2026-04-18T09:59:56.713Z</time></trkpt><trkpt lat="42.8667113" lon="11.0750417"><ele>14.0</ele><time>2026-04-18T09:59:57.723Z</time></trkpt><trkpt lat="42.8666627" lon="11.0749103"><ele>13.25</ele><time>2026-04-18T09:59:58.709Z</time></trkpt><trkpt lat="42.8666381" lon="11.0747466"><ele>12.5</ele><time>2026-04-18T09:59:59.715Z</time></trkpt><trkpt lat="42.8666245" lon="11.0745635"><ele>11.75</ele><time>2026-04-18T10:00:00.71Z</time></trkpt><trkpt lat="42.8666268" lon="11.0743624"><ele>11.0</ele><time>2026-04-18T10:00:01.708Z</time></trkpt><trkpt lat="42.8666346" lon="11.0741552"><ele>11.0</ele><time>2026-04-18T10:00:02.714Z</time></trkpt><trkpt lat="42.8666776" lon="11.0736422"><ele>11.0</ele><time>2026-04-18T10:00:04.709Z</time></trkpt><trkpt lat="42.8666919" lon="11.073355"><ele>10.666666666666666</ele><time>2026-04-18T10:00:05.714Z</time></trkpt><trkpt lat="42.8666975" lon="11.0730696"><ele>10.333333333333334</ele><time>2026-04-18T10:00:06.72Z</time></trkpt><trkpt lat="42.8667065" lon="11.0727954"><ele>10.0</ele><time>2026-04-18T10:00:07.71Z</time></trkpt><trkpt lat="42.8667236" lon="11.0725171"><ele>10.0</ele><time>2026-04-18T10:00:08.711Z</time></trkpt><trkpt lat="42.8667413" lon="11.0722506"><ele>10.0</ele><time>2026-04-18T10:00:09.717Z</time></trkpt><trkpt lat="42.8667652" lon="11.0719685"><ele>10.0</ele><time>2026-04-18T10:00:10.728Z</time></trkpt><trkpt lat="42.8667769" lon="11.071689"><ele>10.0</ele><time>2026-04-18T10:00:11.71Z</time></trkpt><trkpt lat="42.8667776" lon="11.0714224"><ele>10.0</ele><time>2026-04-18T10:00:12.705Z</time></trkpt><trkpt lat="42.8667726" lon="11.0711719"><ele>10.0</ele><time>2026-04-18T10:00:13.713Z</time></trkpt><trkpt lat="42.8667715" lon="11.0709396"><ele>10.333333333333334</ele><time>2026-04-18T10:00:14.707Z</time></trkpt><trkpt lat="42.866781" lon="11.0707194"><ele>10.666666666666666</ele><time>2026-04-18T10:00:15.719Z</time></trkpt><trkpt lat="42.8667968" lon="11.0704931"><ele>11.0</ele><time>2026-04-18T10:00:16.713Z</time></trkpt><trkpt lat="42.8668059" lon="11.07027"><ele>11.0</ele><time>2026-04-18T10:00:17.709Z</time></trkpt><trkpt lat="42.8668158" lon="11.0700486"><ele>11.0</ele><time>2026-04-18T10:00:18.716Z</time></trkpt><trkpt lat="42.8668342" lon="11.0696056"><ele>11.0</ele><time>2026-04-18T10:00:20.71Z</time></trkpt><trkpt lat="42.86684" lon="11.0693705"><ele>11.0</ele><time>2026-04-18T10:00:21.71Z</time></trkpt><trkpt lat="42.8668419" lon="11.0691369"><ele>11.0</ele><time>2026-04-18T10:00:22.712Z</time></trkpt><trkpt lat="42.8668465" lon="11.068906"><ele>11.0</ele><time>2026-04-18T10:00:23.713Z</time></trkpt><trkpt lat="42.866859" lon="11.0683967"><ele>11.0</ele><time>2026-04-18T10:00:25.715Z</time></trkpt><trkpt lat="42.8668644" lon="11.0681233"><ele>11.5</ele><time>2026-04-18T10:00:26.716Z</time></trkpt><trkpt lat="42.8668909" lon="11.0678114"><ele>12.0</ele><time>2026-04-18T10:00:27.712Z</time></trkpt><trkpt lat="42.8669309" lon="11.067502"><ele>11.666666666666666</ele><time>2026-04-18T10:00:28.712Z</time></trkpt><trkpt lat="42.8669654" lon="11.0671973"><ele>11.333333333333332</ele><time>2026-04-18T10:00:29.715Z</time></trkpt><trkpt lat="42.867012" lon="11.0669014"><ele>11.0</ele><time>2026-04-18T10:00:30.712Z</time></trkpt><trkpt lat="42.8670794" lon="11.0666174"><ele>10.0</ele><time>2026-04-18T10:00:31.718Z</time></trkpt><trkpt lat="42.8671634" lon="11.0663263"><ele>9.0</ele><time>2026-04-18T10:00:32.711Z</time></trkpt><trkpt lat="42.8672595" lon="11.0660304"><ele>9.5</ele><time>2026-04-18T10:00:33.707Z</time></trkpt><trkpt lat="42.8673674" lon="11.0657464"><ele>10.0</ele><time>2026-04-18T10:00:34.709Z</time></trkpt><trkpt lat="42.8674864" lon="11.0654713"><ele>10.0</ele><time>2026-04-18T10:00:35.708Z</time></trkpt><trkpt lat="42.867627" lon="11.0651874"><ele>10.0</ele><time>2026-04-18T10:00:36.715Z</time></trkpt><trkpt lat="42.8677538" lon="11.0649445"><ele>10.0</ele><time>2026-04-18T10:00:37.715Z</time></trkpt><trkpt lat="42.8678652" lon="11.0647252"><ele>10.0</ele><time>2026-04-18T10:00:38.712Z</time></trkpt><trkpt lat="42.86797" lon="11.064522"><ele>10.0</ele><time>2026-04-18T10:00:39.719Z</time></trkpt><trkpt lat="42.8680618" lon="11.0643477"><ele>10.0</ele><time>2026-04-18T10:00:40.72Z</time></trkpt><trkpt lat="42.868144" lon="11.0641847"><ele>10.0</ele><time>2026-04-18T10:00:41.708Z</time></trkpt><trkpt lat="42.8682199" lon="11.0640436"><ele>10.0</ele><time>2026-04-18T10:00:42.707Z</time></trkpt><trkpt lat="42.8682869" lon="11.0639279"><ele>10.0</ele><time>2026-04-18T10:00:43.708Z</time></trkpt><trkpt lat="42.8683643" lon="11.0638441"><ele>9.8</ele><time>2026-04-18T10:00:44.708Z</time></trkpt><trkpt lat="42.868506" lon="11.063761"><ele>9.6</ele><time>2026-04-18T10:00:46.719Z</time></trkpt><trkpt lat="42.8685615" lon="11.0636882"><ele>9.4</ele><time>2026-04-18T10:00:47.716Z</time></trkpt><trkpt lat="42.8685841" lon="11.0635973"><ele>9.2</ele><time>2026-04-18T10:00:48.708Z</time></trkpt><trkpt lat="42.8685685" lon="11.0634852"><ele>9.0</ele><time>2026-04-18T10:00:49.723Z</time></trkpt><trkpt lat="42.8685181" lon="11.063396"><ele>9.0</ele><time>2026-04-18T10:00:50.711Z</time></trkpt><trkpt lat="42.8684343" lon="11.0633096"><ele>9.0</ele><time>2026-04-18T10:00:51.712Z</time></trkpt><trkpt lat="42.8683263" lon="11.0632268"><ele>9.0</ele><time>2026-04-18T10:00:52.713Z</time></trkpt><trkpt lat="42.868224" lon="11.0631132"><ele>9.0</ele><time>2026-04-18T10:00:53.709Z</time></trkpt><trkpt lat="42.8681275" lon="11.0629563"><ele>9.0</ele><time>2026-04-18T10:00:54.716Z</time></trkpt><trkpt lat="42.8680393" lon="11.0627421"><ele>9.0</ele><time>2026-04-18T10:00:55.721Z</time></trkpt><trkpt lat="42.8679484" lon="11.062482"><ele>9.0</ele><time>2026-04-18T10:00:56.709Z</time></trkpt><trkpt lat="42.8678478" lon="11.0622317"><ele>9.0</ele><time>2026-04-18T10:00:57.707Z</time></trkpt><trkpt lat="42.8677501" lon="11.0620089"><ele>9.0</ele><time>2026-04-18T10:00:58.71Z</time></trkpt><trkpt lat="42.867654" lon="11.0617905"><ele>9.0</ele><time>2026-04-18T10:00:59.715Z</time></trkpt><trkpt lat="42.8675492" lon="11.0615609"><ele>9.0</ele><time>2026-04-18T10:01:00.716Z</time></trkpt><trkpt lat="42.8674625" lon="11.0613133"><ele>9.0</ele><time>2026-04-18T10:01:01.716Z</time></trkpt><trkpt lat="42.8673757" lon="11.0610536"><ele>9.0</ele><time>2026-04-18T10:01:02.717Z</time></trkpt><trkpt lat="42.86727" lon="11.0607967"><ele>8.666666666666666</ele><time>2026-04-18T10:01:03.709Z</time></trkpt><trkpt lat="42.8671668" lon="11.0605566"><ele>8.333333333333332</ele><time>2026-04-18T10:01:04.713Z</time></trkpt><trkpt lat="42.8670523" lon="11.0603083"><ele>8.0</ele><time>2026-04-18T10:01:05.712Z</time></trkpt><trkpt lat="42.8667936" lon="11.0597579"><ele>7.5</ele><time>2026-04-18T10:01:07.71Z</time></trkpt><trkpt lat="42.8666603" lon="11.0594658"><ele>7.0</ele><time>2026-04-18T10:01:08.716Z</time></trkpt><trkpt lat="42.866541" lon="11.0591626"><ele>6.0</ele><time>2026-04-18T10:01:09.715Z</time></trkpt><trkpt lat="42.8664248" lon="11.0588559"><ele>5.0</ele><time>2026-04-18T10:01:10.713Z</time></trkpt><trkpt lat="42.8662973" lon="11.0585361"><ele>4.0</ele><time>2026-04-18T10:01:11.713Z</time></trkpt><trkpt lat="42.8661664" lon="11.0582497"><ele>3.0</ele><time>2026-04-18T10:01:12.721Z</time></trkpt><trkpt lat="42.866037" lon="11.0579597"><ele>3.5</ele><time>2026-04-18T10:01:13.716Z</time></trkpt><trkpt lat="42.8659051" lon="11.0576707"><ele>4.0</ele><time>2026-04-18T10:01:14.709Z</time></trkpt><trkpt lat="42.8657778" lon="11.0573816"><ele>4.5</ele><time>2026-04-18T10:01:15.707Z</time></trkpt><trkpt lat="42.8656627" lon="11.0571191"><ele>5.0</ele><time>2026-04-18T10:01:16.713Z</time></trkpt><trkpt lat="42.8655493" lon="11.0568453"><ele>5.5</ele><time>2026-04-18T10:01:17.715Z</time></trkpt><trkpt lat="42.8654418" lon="11.0565638"><ele>6.0</ele><time>2026-04-18T10:01:18.717Z</time></trkpt><trkpt lat="42.8653459" lon="11.0562821"><ele>6.0</ele><time>2026-04-18T10:01:19.716Z</time></trkpt><trkpt lat="42.865253" lon="11.0559938"><ele>6.0</ele><time>2026-04-18T10:01:20.71Z</time></trkpt><trkpt lat="42.8651789" lon="11.0557079"><ele>6.0</ele><time>2026-04-18T10:01:21.712Z</time></trkpt><trkpt lat="42.8651374" lon="11.0554223"><ele>6.0</ele><time>2026-04-18T10:01:22.709Z</time></trkpt><trkpt lat="42.8651184" lon="11.0551431"><ele>6.0</ele><time>2026-04-18T10:01:23.709Z</time></trkpt><trkpt lat="42.8651054" lon="11.0548743"><ele>6.0</ele><time>2026-04-18T10:01:24.72Z</time></trkpt><trkpt lat="42.8651186" lon="11.054603"><ele>6.0</ele><time>2026-04-18T10:01:25.712Z</time></trkpt><trkpt lat="42.8651366" lon="11.0543262"><ele>6.0</ele><time>2026-04-18T10:01:26.715Z</time></trkpt><trkpt lat="42.8651769" lon="11.0537431"><ele>6.0</ele><time>2026-04-18T10:01:28.711Z</time></trkpt><trkpt lat="42.8651843" lon="11.053459"><ele>6.0</ele><time>2026-04-18T10:01:29.71Z</time></trkpt><trkpt lat="42.8651881" lon="11.0531557"><ele>6.0</ele><time>2026-04-18T10:01:30.71Z</time></trkpt><trkpt lat="42.86519" lon="11.0528442"><ele>6.0</ele><time>2026-04-18T10:01:31.709Z</time></trkpt><trkpt lat="42.8652028" lon="11.052532"><ele>6.0</ele><time>2026-04-18T10:01:32.715Z</time></trkpt><trkpt lat="42.8652088" lon="11.0522087"><ele>5.0</ele><time>2026-04-18T10:01:33.709Z</time></trkpt><trkpt lat="42.8652117" lon="11.0518809"><ele>4.0</ele><time>2026-04-18T10:01:34.712Z</time></trkpt><trkpt lat="42.8652358" lon="11.0515376"><ele>4.0</ele><time>2026-04-18T10:01:35.714Z</time></trkpt><trkpt lat="42.8652607" lon="11.0511928"><ele>4.0</ele><time>2026-04-18T10:01:36.718Z</time></trkpt><trkpt lat="42.8652712" lon="11.0508564"><ele>4.5</ele><time>2026-04-18T10:01:37.714Z</time></trkpt><trkpt lat="42.8652763" lon="11.0505284"><ele>5.0</ele><time>2026-04-18T10:01:38.712Z</time></trkpt><trkpt lat="42.8652802" lon="11.0502031"><ele>5.0</ele><time>2026-04-18T10:01:39.708Z</time></trkpt><trkpt lat="42.865282" lon="11.0498683"><ele>5.0</ele><time>2026-04-18T10:01:40.71Z</time></trkpt><trkpt lat="42.8652817" lon="11.0495399"><ele>5.0</ele><time>2026-04-18T10:01:41.712Z</time></trkpt><trkpt lat="42.8652879" lon="11.0492259"><ele>5.0</ele><time>2026-04-18T10:01:42.717Z</time></trkpt><trkpt lat="42.8653029" lon="11.0489196"><ele>5.0</ele><time>2026-04-18T10:01:43.709Z</time></trkpt><trkpt lat="42.8653169" lon="11.0486232"><ele>5.0</ele><time>2026-04-18T10:01:44.709Z</time></trkpt><trkpt lat="42.8653239" lon="11.048366"><ele>5.0</ele><time>2026-04-18T10:01:45.711Z</time></trkpt><trkpt lat="42.8653322" lon="11.0481294"><ele>5.0</ele><time>2026-04-18T10:01:46.719Z</time></trkpt><trkpt lat="42.8653373" lon="11.0478949"><ele>5.0</ele><time>2026-04-18T10:01:47.709Z</time></trkpt><trkpt lat="42.8653479" lon="11.0473996"><ele>5.0</ele><time>2026-04-18T10:01:49.715Z</time></trkpt><trkpt lat="42.8653565" lon="11.0471498"><ele>5.0</ele><time>2026-04-18T10:01:50.709Z</time></trkpt><trkpt lat="42.8653645" lon="11.0469042"><ele>5.0</ele><time>2026-04-18T10:01:51.711Z</time></trkpt><trkpt lat="42.8653847" lon="11.0466708"><ele>5.0</ele><time>2026-04-18T10:01:52.711Z</time></trkpt><trkpt lat="42.8653944" lon="11.0464471"><ele>5.0</ele><time>2026-04-18T10:01:53.711Z</time></trkpt><trkpt lat="42.8653798" lon="11.0462284"><ele>5.0</ele><time>2026-04-18T10:01:54.71Z</time></trkpt><trkpt lat="42.8653523" lon="11.0460094"><ele>5.0</ele><time>2026-04-18T10:01:55.714Z</time></trkpt><trkpt lat="42.8653011" lon="11.0457677"><ele>5.0</ele><time>2026-04-18T10:01:56.714Z</time></trkpt><trkpt lat="42.8652492" lon="11.0454947"><ele>5.0</ele><time>2026-04-18T10:01:57.71Z</time></trkpt><trkpt lat="42.8651987" lon="11.0452153"><ele>4.666666666666667</ele><time>2026-04-18T10:01:58.711Z</time></trkpt><trkpt lat="42.8651511" lon="11.0449241"><ele>4.333333333333333</ele><time>2026-04-18T10:01:59.716Z</time></trkpt><trkpt lat="42.8651031" lon="11.0446173"><ele>4.0</ele><time>2026-04-18T10:02:00.71Z</time></trkpt><trkpt lat="42.8650655" lon="11.0443081"><ele>4.666666666666666</ele><time>2026-04-18T10:02:01.719Z</time></trkpt><trkpt lat="42.8650092" lon="11.0440006"><ele>5.333333333333333</ele><time>2026-04-18T10:02:02.709Z</time></trkpt><trkpt lat="42.8649614" lon="11.043712"><ele>6.0</ele><time>2026-04-18T10:02:03.708Z</time></trkpt><trkpt lat="42.8649094" lon="11.0434314"><ele>6.333333333333334</ele><time>2026-04-18T10:02:04.708Z</time></trkpt><trkpt lat="42.8648563" lon="11.0431403"><ele>6.666666666666667</ele><time>2026-04-18T10:02:05.712Z</time></trkpt><trkpt lat="42.8648086" lon="11.0428522"><ele>7.0</ele><time>2026-04-18T10:02:06.712Z</time></trkpt><trkpt lat="42.8647616" lon="11.042577"><ele>7.0</ele><time>2026-04-18T10:02:07.708Z</time></trkpt><trkpt lat="42.8647145" lon="11.0423115"><ele>7.0</ele><time>2026-04-18T10:02:08.719Z</time></trkpt><trkpt lat="42.8646436" lon="11.0418026"><ele>6.666666666666667</ele><time>2026-04-18T10:02:10.713Z</time></trkpt><trkpt lat="42.8646047" lon="11.0415545"><ele>6.333333333333334</ele><time>2026-04-18T10:02:11.713Z</time></trkpt><trkpt lat="42.8645628" lon="11.0412997"><ele>6.0</ele><time>2026-04-18T10:02:12.709Z</time></trkpt><trkpt lat="42.8645199" lon="11.0410398"><ele>6.0</ele><time>2026-04-18T10:02:13.709Z</time></trkpt><trkpt lat="42.8644776" lon="11.040758"><ele>6.0</ele><time>2026-04-18T10:02:14.717Z</time></trkpt><trkpt lat="42.8644295" lon="11.0404663"><ele>6.0</ele><time>2026-04-18T10:02:15.713Z</time></trkpt><trkpt lat="42.8643869" lon="11.040164"><ele>6.0</ele><time>2026-04-18T10:02:16.713Z</time></trkpt><trkpt lat="42.8643547" lon="11.0398326"><ele>6.0</ele><time>2026-04-18T10:02:17.719Z</time></trkpt><trkpt lat="42.8643431" lon="11.0394951"><ele>6.0</ele><time>2026-04-18T10:02:18.719Z</time></trkpt><trkpt lat="42.8643465" lon="11.039163"><ele>6.0</ele><time>2026-04-18T10:02:19.71Z</time></trkpt><trkpt lat="42.8643556" lon="11.0388233"><ele>6.0</ele><time>2026-04-18T10:02:20.711Z</time></trkpt><trkpt lat="42.864359" lon="11.0384985"><ele>6.0</ele><time>2026-04-18T10:02:21.709Z</time></trkpt><trkpt lat="42.8643479" lon="11.0381662"><ele>6.0</ele><time>2026-04-18T10:02:22.71Z</time></trkpt><trkpt lat="42.8643435" lon="11.037835"><ele>6.0</ele><time>2026-04-18T10:02:23.709Z</time></trkpt><trkpt lat="42.8643297" lon="11.0375009"><ele>6.5</ele><time>2026-04-18T10:02:24.714Z</time></trkpt><trkpt lat="42.864321" lon="11.0371705"><ele>7.0</ele><time>2026-04-18T10:02:25.715Z</time></trkpt><trkpt lat="42.8643175" lon="11.0368337"><ele>7.0</ele><time>2026-04-18T10:02:26.721Z</time></trkpt><trkpt lat="42.8643228" lon="11.0364938"><ele>7.0</ele><time>2026-04-18T10:02:27.714Z</time></trkpt><trkpt lat="42.8643178" lon="11.0361588"><ele>7.0</ele><time>2026-04-18T10:02:28.709Z</time></trkpt><trkpt lat="42.8643059" lon="11.0358377"><ele>7.0</ele><time>2026-04-18T10:02:29.716Z</time></trkpt><trkpt lat="42.8643025" lon="11.0351803"><ele>6.5</ele><time>2026-04-18T10:02:31.713Z</time></trkpt><trkpt lat="42.8642943" lon="11.034835"><ele>6.0</ele><time>2026-04-18T10:02:32.712Z</time></trkpt><trkpt lat="42.8642888" lon="11.0344928"><ele>6.0</ele><time>2026-04-18T10:02:33.715Z</time></trkpt><trkpt lat="42.8642861" lon="11.0341485"><ele>6.0</ele><time>2026-04-18T10:02:34.709Z</time></trkpt><trkpt lat="42.8642851" lon="11.0338027"><ele>6.0</ele><time>2026-04-18T10:02:35.71Z</time></trkpt><trkpt lat="42.8642781" lon="11.0334518"><ele>6.0</ele><time>2026-04-18T10:02:36.714Z</time></trkpt><trkpt lat="42.8642704" lon="11.0331292"><ele>6.0</ele><time>2026-04-18T10:02:37.713Z</time></trkpt><trkpt lat="42.8642634" lon="11.0328143"><ele>6.0</ele><time>2026-04-18T10:02:38.711Z</time></trkpt><trkpt lat="42.8642486" lon="11.0325104"><ele>6.0</ele><time>2026-04-18T10:02:39.717Z</time></trkpt><trkpt lat="42.8642363" lon="11.0322161"><ele>6.0</ele><time>2026-04-18T10:02:40.712Z</time></trkpt><trkpt lat="42.8642332" lon="11.0319249"><ele>6.0</ele><time>2026-04-18T10:02:41.712Z</time></trkpt><trkpt lat="42.8642225" lon="11.0316256"><ele>5.5</ele><time>2026-04-18T10:02:42.719Z</time></trkpt><trkpt lat="42.8642174" lon="11.0313077"><ele>5.0</ele><time>2026-04-18T10:02:43.714Z</time></trkpt><trkpt lat="42.8642224" lon="11.030992"><ele>5.333333333333334</ele><time>2026-04-18T10:02:44.712Z</time></trkpt><trkpt lat="42.864215" lon="11.0306835"><ele>5.666666666666667</ele><time>2026-04-18T10:02:45.718Z</time></trkpt><trkpt lat="42.8642018" lon="11.030397"><ele>6.0</ele><time>2026-04-18T10:02:46.709Z</time></trkpt><trkpt lat="42.8641957" lon="11.0301371"><ele>5.666666666666667</ele><time>2026-04-18T10:02:47.711Z</time></trkpt><trkpt lat="42.8641886" lon="11.029863"><ele>5.333333333333334</ele><time>2026-04-18T10:02:48.718Z</time></trkpt><trkpt lat="42.8641725" lon="11.0295848"><ele>5.0</ele><time>2026-04-18T10:02:49.713Z</time></trkpt><trkpt lat="42.8641597" lon="11.0293122"><ele>5.5</ele><time>2026-04-18T10:02:50.718Z</time></trkpt><trkpt lat="42.86416" lon="11.0287081"><ele>6.0</ele><time>2026-04-18T10:02:52.707Z</time></trkpt><trkpt lat="42.8641592" lon="11.0284173"><ele>6.0</ele><time>2026-04-18T10:02:53.709Z</time></trkpt><trkpt lat="42.8641508" lon="11.0281366"><ele>6.0</ele><time>2026-04-18T10:02:54.707Z</time></trkpt><trkpt lat="42.8641473" lon="11.0278559"><ele>6.0</ele><time>2026-04-18T10:02:55.712Z</time></trkpt><trkpt lat="42.8641449" lon="11.0275636"><ele>6.0</ele><time>2026-04-18T10:02:56.708Z</time></trkpt><trkpt lat="42.8641438" lon="11.0272618"><ele>6.0</ele><time>2026-04-18T10:02:57.721Z</time></trkpt><trkpt lat="42.8641402" lon="11.0269546"><ele>6.0</ele><time>2026-04-18T10:02:58.717Z</time></trkpt><trkpt lat="42.8641268" lon="11.0266527"><ele>6.0</ele><time>2026-04-18T10:02:59.708Z</time></trkpt><trkpt lat="42.8641239" lon="11.0263418"><ele>6.0</ele><time>2026-04-18T10:03:00.711Z</time></trkpt><trkpt lat="42.8641294" lon="11.0260264"><ele>5.5</ele><time>2026-04-18T10:03:01.711Z</time></trkpt><trkpt lat="42.864134" lon="11.0257194"><ele>5.0</ele><time>2026-04-18T10:03:02.706Z</time></trkpt><trkpt lat="42.8641305" lon="11.0253978"><ele>5.0</ele><time>2026-04-18T10:03:03.713Z</time></trkpt><trkpt lat="42.8641251" lon="11.0250844"><ele>5.0</ele><time>2026-04-18T10:03:04.719Z</time></trkpt><trkpt lat="42.8641183" lon="11.0247547"><ele>4.5</ele><time>2026-04-18T10:03:05.715Z</time></trkpt><trkpt lat="42.8641115" lon="11.0244115"><ele>4.0</ele><time>2026-04-18T10:03:06.716Z</time></trkpt><trkpt lat="42.8641069" lon="11.0240821"><ele>5.0</ele><time>2026-04-18T10:03:07.713Z</time></trkpt><trkpt lat="42.8641089" lon="11.0237469"><ele>6.0</ele><time>2026-04-18T10:03:08.715Z</time></trkpt><trkpt lat="42.8641069" lon="11.0234063"><ele>6.5</ele><time>2026-04-18T10:03:09.713Z</time></trkpt><trkpt lat="42.8641031" lon="11.0230659"><ele>7.0</ele><time>2026-04-18T10:03:10.719Z</time></trkpt><trkpt lat="42.8640969" lon="11.0227376"><ele>5.0</ele><time>2026-04-18T10:03:11.72Z</time></trkpt><trkpt lat="42.864075" lon="11.0220812"><ele>5.0</ele><time>2026-04-18T10:03:13.716Z</time></trkpt><trkpt lat="42.8640751" lon="11.0217302"><ele>5.0</ele><time>2026-04-18T10:03:14.707Z</time></trkpt><trkpt lat="42.8640742" lon="11.0213802"><ele>4.5</ele><time>2026-04-18T10:03:15.711Z</time></trkpt><trkpt lat="42.864062" lon="11.0210372"><ele>4.0</ele><time>2026-04-18T10:03:16.715Z</time></trkpt><trkpt lat="42.8640568" lon="11.0206907"><ele>4.0</ele><time>2026-04-18T10:03:17.713Z</time></trkpt><trkpt lat="42.8640582" lon="11.0203357"><ele>4.0</ele><time>2026-04-18T10:03:18.71Z</time></trkpt><trkpt lat="42.8640522" lon="11.0199787"><ele>4.0</ele><time>2026-04-18T10:03:19.709Z</time></trkpt><trkpt lat="42.8640486" lon="11.019639"><ele>4.0</ele><time>2026-04-18T10:03:20.715Z</time></trkpt><trkpt lat="42.8640443" lon="11.0193104"><ele>4.5</ele><time>2026-04-18T10:03:21.715Z</time></trkpt><trkpt lat="42.8640432" lon="11.0189799"><ele>5.0</ele><time>2026-04-18T10:03:22.713Z</time></trkpt><trkpt lat="42.8640367" lon="11.0186509"><ele>5.0</ele><time>2026-04-18T10:03:23.712Z</time></trkpt><trkpt lat="42.8640255" lon="11.01834"><ele>5.0</ele><time>2026-04-18T10:03:24.71Z</time></trkpt><trkpt lat="42.8640285" lon="11.018036"><ele>4.666666666666667</ele><time>2026-04-18T10:03:25.722Z</time></trkpt><trkpt lat="42.8640292" lon="11.0177634"><ele>4.333333333333333</ele><time>2026-04-18T10:03:26.715Z</time></trkpt><trkpt lat="42.8640206" lon="11.0175061"><ele>4.0</ele><time>2026-04-18T10:03:27.715Z</time></trkpt><trkpt lat="42.8640161" lon="11.0172486"><ele>4.0</ele><time>2026-04-18T10:03:28.718Z</time></trkpt><trkpt lat="42.8640046" lon="11.0169958"><ele>4.0</ele><time>2026-04-18T10:03:29.705Z</time></trkpt><trkpt lat="42.8639999" lon="11.0167187"><ele>4.0</ele><time>2026-04-18T10:03:30.711Z</time></trkpt><trkpt lat="42.8639879" lon="11.01644"><ele>4.0</ele><time>2026-04-18T10:03:31.711Z</time></trkpt><trkpt lat="42.8639831" lon="11.0161452"><ele>4.0</ele><time>2026-04-18T10:03:32.709Z</time></trkpt><trkpt lat="42.8639695" lon="11.015519"><ele>4.0</ele><time>2026-04-18T10:03:34.707Z</time></trkpt><trkpt lat="42.8639815" lon="11.0151872"><ele>4.0</ele><time>2026-04-18T10:03:35.707Z</time></trkpt><trkpt lat="42.86398" lon="11.0148564"><ele>4.0</ele><time>2026-04-18T10:03:36.715Z</time></trkpt><trkpt lat="42.8639767" lon="11.0145323"><ele>4.0</ele><time>2026-04-18T10:03:37.718Z</time></trkpt><trkpt lat="42.8639664" lon="11.014207"><ele>4.0</ele><time>2026-04-18T10:03:38.703Z</time></trkpt><trkpt lat="42.8639653" lon="11.0138882"><ele>4.0</ele><time>2026-04-18T10:03:39.713Z</time></trkpt><trkpt lat="42.8639562" lon="11.0135954"><ele>4.0</ele><time>2026-04-18T10:03:40.707Z</time></trkpt><trkpt lat="42.8639593" lon="11.0133246"><ele>4.0</ele><time>2026-04-18T10:03:41.706Z</time></trkpt><trkpt lat="42.8639576" lon="11.0130639"><ele>4.0</ele><time>2026-04-18T10:03:42.712Z</time></trkpt><trkpt lat="42.8639542" lon="11.0128139"><ele>4.0</ele><time>2026-04-18T10:03:43.708Z</time></trkpt><trkpt lat="42.8639412" lon="11.0125826"><ele>4.0</ele><time>2026-04-18T10:03:44.715Z</time></trkpt><trkpt lat="42.8639389" lon="11.012395"><ele>4.0</ele><time>2026-04-18T10:03:45.716Z</time></trkpt><trkpt lat="42.8639385" lon="11.0122471"><ele>4.0</ele><time>2026-04-18T10:03:46.71Z</time></trkpt><trkpt lat="42.8639376" lon="11.0121253"><ele>4.0</ele><time>2026-04-18T10:03:47.709Z</time></trkpt><trkpt lat="42.8639247" lon="11.0120326"><ele>4.0</ele><time>2026-04-18T10:03:48.707Z</time></trkpt><trkpt lat="42.8639222" lon="11.0119364"><ele>4.0</ele><time>2026-04-18T10:03:50.716Z</time></trkpt><trkpt lat="42.8638885" lon="11.0118526"><ele>4.0</ele><time>2026-04-18T10:03:52.709Z</time></trkpt><trkpt lat="42.8638103" lon="11.0116999"><ele>4.0</ele><time>2026-04-18T10:03:54.718Z</time></trkpt><trkpt lat="42.8637056" lon="11.0114647"><ele>4.0</ele><time>2026-04-18T10:03:56.709Z</time></trkpt><trkpt lat="42.8636413" lon="11.0113098"><ele>4.0</ele><time>2026-04-18T10:03:57.716Z</time></trkpt><trkpt lat="42.8635617" lon="11.0111286"><ele>4.0</ele><time>2026-04-18T10:03:58.706Z</time></trkpt><trkpt lat="42.8634691" lon="11.0108937"><ele>4.0</ele><time>2026-04-18T10:03:59.713Z</time></trkpt><trkpt lat="42.8633816" lon="11.0106671"><ele>3.6666666666666665</ele><time>2026-04-18T10:04:00.712Z</time></trkpt><trkpt lat="42.8632935" lon="11.0104404"><ele>3.333333333333333</ele><time>2026-04-18T10:04:01.712Z</time></trkpt><trkpt lat="42.8631985" lon="11.0102293"><ele>3.0</ele><time>2026-04-18T10:04:02.716Z</time></trkpt><trkpt lat="42.8630952" lon="11.010022"><ele>3.0</ele><time>2026-04-18T10:04:03.714Z</time></trkpt><trkpt lat="42.8629975" lon="11.0097827"><ele>3.0</ele><time>2026-04-18T10:04:04.708Z</time></trkpt><trkpt lat="42.8629025" lon="11.0095506"><ele>3.0</ele><time>2026-04-18T10:04:05.715Z</time></trkpt><trkpt lat="42.8628097" lon="11.0093402"><ele>3.333333333333333</ele><time>2026-04-18T10:04:06.71Z</time></trkpt><trkpt lat="42.8627165" lon="11.0091267"><ele>3.6666666666666665</ele><time>2026-04-18T10:04:07.709Z</time></trkpt><trkpt lat="42.8626431" lon="11.0089213"><ele>4.0</ele><time>2026-04-18T10:04:08.716Z</time></trkpt><trkpt lat="42.8625996" lon="11.0087089"><ele>4.0</ele><time>2026-04-18T10:04:09.711Z</time></trkpt><trkpt lat="42.8625614" lon="11.0084967"><ele>4.0</ele><time>2026-04-18T10:04:10.713Z</time></trkpt><trkpt lat="42.8625261" lon="11.0083128"><ele>4.0</ele><time>2026-04-18T10:04:11.711Z</time></trkpt><trkpt lat="42.8624686" lon="11.0081415"><ele>4.0</ele><time>2026-04-18T10:04:12.713Z</time></trkpt><trkpt lat="42.8624071" lon="11.0079962"><ele>4.666666666666666</ele><time>2026-04-18T10:04:13.706Z</time></trkpt><trkpt lat="42.862304" lon="11.0078679"><ele>5.333333333333333</ele><time>2026-04-18T10:04:14.712Z</time></trkpt><trkpt lat="42.8621754" lon="11.0077498"><ele>6.0</ele><time>2026-04-18T10:04:15.709Z</time></trkpt><trkpt lat="42.8618928" lon="11.0075041"><ele>5.666666666666667</ele><time>2026-04-18T10:04:17.718Z</time></trkpt><trkpt lat="42.8617343" lon="11.0073723"><ele>5.333333333333334</ele><time>2026-04-18T10:04:18.713Z</time></trkpt><trkpt lat="42.8615839" lon="11.0072506"><ele>5.0</ele><time>2026-04-18T10:04:19.714Z</time></trkpt><trkpt lat="42.8614428" lon="11.0071347"><ele>5.0</ele><time>2026-04-18T10:04:20.704Z</time></trkpt><trkpt lat="42.8613138" lon="11.0069888"><ele>5.0</ele><time>2026-04-18T10:04:21.706Z</time></trkpt><trkpt lat="42.8611926" lon="11.006826"><ele>5.0</ele><time>2026-04-18T10:04:22.709Z</time></trkpt><trkpt lat="42.8610767" lon="11.0066488"><ele>5.333333333333334</ele><time>2026-04-18T10:04:23.711Z</time></trkpt><trkpt lat="42.8609562" lon="11.0064597"><ele>5.666666666666667</ele><time>2026-04-18T10:04:24.707Z</time></trkpt><trkpt lat="42.8608429" lon="11.0062736"><ele>6.0</ele><time>2026-04-18T10:04:25.715Z</time></trkpt><trkpt lat="42.8607413" lon="11.0061049"><ele>6.199999999999999</ele><time>2026-04-18T10:04:26.711Z</time></trkpt><trkpt lat="42.8606435" lon="11.0059838"><ele>6.3999999999999995</ele><time>2026-04-18T10:04:27.713Z</time></trkpt><trkpt lat="42.8605593" lon="11.0058891"><ele>6.6</ele><time>2026-04-18T10:04:28.705Z</time></trkpt><trkpt lat="42.8604989" lon="11.0058233"><ele>6.8</ele><time>2026-04-18T10:04:29.716Z</time></trkpt><trkpt lat="42.8604789" lon="11.0057416"><ele>7.0</ele><time>2026-04-18T10:04:30.715Z</time></trkpt><trkpt lat="42.8604929" lon="11.0056479"><ele>7.25</ele><time>2026-04-18T10:04:31.71Z</time></trkpt><trkpt lat="42.8605366" lon="11.0055281"><ele>7.5</ele><time>2026-04-18T10:04:32.712Z</time></trkpt><trkpt lat="42.8606235" lon="11.0053922"><ele>7.75</ele><time>2026-04-18T10:04:33.709Z</time></trkpt><trkpt lat="42.8607007" lon="11.0052738"><ele>8.0</ele><time>2026-04-18T10:04:34.71Z</time></trkpt><trkpt lat="42.8607861" lon="11.0051408"><ele>8.0</ele><time>2026-04-18T10:04:35.71Z</time></trkpt><trkpt lat="42.8608893" lon="11.0050069"><ele>8.0</ele><time>2026-04-18T10:04:36.715Z</time></trkpt><trkpt lat="42.861058" lon="11.004684"><ele>8.0</ele><time>2026-04-18T10:04:38.709Z</time></trkpt><trkpt lat="42.8611044" lon="11.0044724"><ele>8.0</ele><time>2026-04-18T10:04:39.715Z</time></trkpt><trkpt lat="42.8611576" lon="11.0042669"><ele>8.0</ele><time>2026-04-18T10:04:40.711Z</time></trkpt><trkpt lat="42.8612306" lon="11.0040608"><ele>8.0</ele><time>2026-04-18T10:04:41.708Z</time></trkpt><trkpt lat="42.8613378" lon="11.0038468"><ele>8.0</ele><time>2026-04-18T10:04:42.712Z</time></trkpt><trkpt lat="42.8614447" lon="11.0036046"><ele>8.0</ele><time>2026-04-18T10:04:43.709Z</time></trkpt><trkpt lat="42.8615293" lon="11.0033283"><ele>8.0</ele><time>2026-04-18T10:04:44.709Z</time></trkpt><trkpt lat="42.8616048" lon="11.0030609"><ele>8.333333333333332</ele><time>2026-04-18T10:04:45.709Z</time></trkpt><trkpt lat="42.8616655" lon="11.0028141"><ele>8.666666666666666</ele><time>2026-04-18T10:04:46.708Z</time></trkpt><trkpt lat="42.8617405" lon="11.0025855"><ele>9.0</ele><time>2026-04-18T10:04:47.711Z</time></trkpt><trkpt lat="42.8618091" lon="11.0023611"><ele>9.333333333333334</ele><time>2026-04-18T10:04:48.705Z</time></trkpt><trkpt lat="42.8618665" lon="11.0021312"><ele>9.666666666666668</ele><time>2026-04-18T10:04:49.711Z</time></trkpt><trkpt lat="42.8619231" lon="11.0019004"><ele>10.0</ele><time>2026-04-18T10:04:50.71Z</time></trkpt><trkpt lat="42.8619679" lon="11.0016596"><ele>10.0</ele><time>2026-04-18T10:04:51.712Z</time></trkpt><trkpt lat="42.8620187" lon="11.0014181"><ele>10.0</ele><time>2026-04-18T10:04:52.714Z</time></trkpt><trkpt lat="42.8620649" lon="11.0011793"><ele>10.0</ele><time>2026-04-18T10:04:53.716Z</time></trkpt><trkpt lat="42.8621085" lon="11.0009435"><ele>11.0</ele><time>2026-04-18T10:04:54.71Z</time></trkpt><trkpt lat="42.862129" lon="11.0006797"><ele>12.0</ele><time>2026-04-18T10:04:55.718Z</time></trkpt><trkpt lat="42.8621062" lon="11.0004028"><ele>13.0</ele><time>2026-04-18T10:04:56.711Z</time></trkpt><trkpt lat="42.8620424" lon="11.0001277"><ele>13.0</ele><time>2026-04-18T10:04:57.71Z</time></trkpt><trkpt lat="42.8618979" lon="10.9995132"><ele>13.0</ele><time>2026-04-18T10:04:59.709Z</time></trkpt><trkpt lat="42.8618308" lon="10.9992019"><ele>13.0</ele><time>2026-04-18T10:05:00.706Z</time></trkpt><trkpt lat="42.8617533" lon="10.9989006"><ele>14.0</ele><time>2026-04-18T10:05:01.71Z</time></trkpt><trkpt lat="42.8616884" lon="10.9986391"><ele>15.0</ele><time>2026-04-18T10:05:02.71Z</time></trkpt><trkpt lat="42.8616251" lon="10.9984006"><ele>16.0</ele><time>2026-04-18T10:05:03.715Z</time></trkpt><trkpt lat="42.8615858" lon="10.998164"><ele>16.333333333333332</ele><time>2026-04-18T10:05:04.709Z</time></trkpt><trkpt lat="42.8615475" lon="10.9979179"><ele>16.666666666666668</ele><time>2026-04-18T10:05:05.71Z</time></trkpt><trkpt lat="42.861532" lon="10.9976693"><ele>17.0</ele><time>2026-04-18T10:05:06.711Z</time></trkpt><trkpt lat="42.8615388" lon="10.9973961"><ele>18.0</ele><time>2026-04-18T10:05:07.709Z</time></trkpt><trkpt lat="42.8615429" lon="10.9971398"><ele>19.0</ele><time>2026-04-18T10:05:08.713Z</time></trkpt><trkpt lat="42.8615379" lon="10.9969135"><ele>20.0</ele><time>2026-04-18T10:05:09.711Z</time></trkpt><trkpt lat="42.8615453" lon="10.996744"><ele>20.0</ele><time>2026-04-18T10:05:10.711Z</time></trkpt><trkpt lat="42.8615849" lon="10.9966166"><ele>20.0</ele><time>2026-04-18T10:05:11.71Z</time></trkpt><trkpt lat="42.861664" lon="10.9965116"><ele>20.0</ele><time>2026-04-18T10:05:12.711Z</time></trkpt><trkpt lat="42.8617529" lon="10.9963963"><ele>20.0</ele><time>2026-04-18T10:05:13.709Z</time></trkpt><trkpt lat="42.8618328" lon="10.9963073"><ele>20.0</ele><time>2026-04-18T10:05:14.718Z</time></trkpt><trkpt lat="42.8619155" lon="10.996197"><ele>20.0</ele><time>2026-04-18T10:05:15.704Z</time></trkpt><trkpt lat="42.861997" lon="10.9960844"><ele>20.0</ele><time>2026-04-18T10:05:16.711Z</time></trkpt><trkpt lat="42.8620817" lon="10.9959563"><ele>20.0</ele><time>2026-04-18T10:05:17.714Z</time></trkpt><trkpt lat="42.8621541" lon="10.9958349"><ele>20.0</ele><time>2026-04-18T10:05:18.71Z</time></trkpt><trkpt lat="42.8622647" lon="10.9956091"><ele>20.6</ele><time>2026-04-18T10:05:20.71Z</time></trkpt><trkpt lat="42.8623104" lon="10.9954989"><ele>21.2</ele><time>2026-04-18T10:05:21.71Z</time></trkpt><trkpt lat="42.8623588" lon="10.9953889"><ele>21.799999999999997</ele><time>2026-04-18T10:05:22.713Z</time></trkpt><trkpt lat="42.8624096" lon="10.9952763"><ele>22.4</ele><time>2026-04-18T10:05:23.723Z</time></trkpt><trkpt lat="42.8624605" lon="10.9951556"><ele>23.0</ele><time>2026-04-18T10:05:24.711Z</time></trkpt><trkpt lat="42.8625063" lon="10.9950334"><ele>23.599999999999998</ele><time>2026-04-18T10:05:25.715Z</time></trkpt><trkpt lat="42.8625503" lon="10.9949052"><ele>24.2</ele><time>2026-04-18T10:05:26.705Z</time></trkpt><trkpt lat="42.8625929" lon="10.9947947"><ele>24.8</ele><time>2026-04-18T10:05:27.708Z</time></trkpt><trkpt lat="42.8626354" lon="10.9946999"><ele>25.4</ele><time>2026-04-18T10:05:28.71Z</time></trkpt><trkpt lat="42.8626812" lon="10.9945952"><ele>26.0</ele><time>2026-04-18T10:05:29.711Z</time></trkpt><trkpt lat="42.8627276" lon="10.9944778"><ele>26.0</ele><time>2026-04-18T10:05:30.707Z</time></trkpt><trkpt lat="42.8627809" lon="10.994348"><ele>26.0</ele><time>2026-04-18T10:05:31.714Z</time></trkpt><trkpt lat="42.862835" lon="10.9941951"><ele>26.0</ele><time>2026-04-18T10:05:32.708Z</time></trkpt><trkpt lat="42.8628848" lon="10.9940209"><ele>26.0</ele><time>2026-04-18T10:05:33.708Z</time></trkpt><trkpt lat="42.8629334" lon="10.9938316"><ele>26.75</ele><time>2026-04-18T10:05:34.711Z</time></trkpt><trkpt lat="42.8629711" lon="10.9936243"><ele>27.5</ele><time>2026-04-18T10:05:35.717Z</time></trkpt><trkpt lat="42.8630142" lon="10.9934326"><ele>28.25</ele><time>2026-04-18T10:05:36.712Z</time></trkpt><trkpt lat="42.8630678" lon="10.9932495"><ele>29.0</ele><time>2026-04-18T10:05:37.707Z</time></trkpt><trkpt lat="42.8631596" lon="10.9930708"><ele>29.333333333333332</ele><time>2026-04-18T10:05:38.708Z</time></trkpt><trkpt lat="42.863257" lon="10.9929067"><ele>29.666666666666664</ele><time>2026-04-18T10:05:39.716Z</time></trkpt><trkpt lat="42.8634391" lon="10.9926804"><ele>30.0</ele><time>2026-04-18T10:05:41.711Z</time></trkpt><trkpt lat="42.863509" lon="10.9925571"><ele>32.0</ele><time>2026-04-18T10:05:42.708Z</time></trkpt><trkpt lat="42.863562" lon="10.9924105"><ele>34.0</ele><time>2026-04-18T10:05:43.709Z</time></trkpt><trkpt lat="42.8635967" lon="10.9922593"><ele>36.0</ele><time>2026-04-18T10:05:44.72Z</time></trkpt><trkpt lat="42.8636355" lon="10.9920943"><ele>38.0</ele><time>2026-04-18T10:05:45.707Z</time></trkpt><trkpt lat="42.8636697" lon="10.9919109"><ele>38.0</ele><time>2026-04-18T10:05:46.713Z</time></trkpt><trkpt lat="42.8637039" lon="10.9917313"><ele>38.0</ele><time>2026-04-18T10:05:47.709Z</time></trkpt><trkpt lat="42.8637571" lon="10.9915609"><ele>38.0</ele><time>2026-04-18T10:05:48.708Z</time></trkpt><trkpt lat="42.8638214" lon="10.9914045"><ele>38.0</ele><time>2026-04-18T10:05:49.708Z</time></trkpt><trkpt lat="42.8638651" lon="10.9912557"><ele>38.75</ele><time>2026-04-18T10:05:50.711Z</time></trkpt><trkpt lat="42.863896" lon="10.9911031"><ele>39.5</ele><time>2026-04-18T10:05:51.719Z</time></trkpt><trkpt lat="42.8639044" lon="10.9909266"><ele>40.25</ele><time>2026-04-18T10:05:52.714Z</time></trkpt><trkpt lat="42.8639006" lon="10.990744"><ele>41.0</ele><time>2026-04-18T10:05:53.71Z</time></trkpt><trkpt lat="42.8639013" lon="10.9905434"><ele>41.25</ele><time>2026-04-18T10:05:54.717Z</time></trkpt><trkpt lat="42.8639068" lon="10.9903463"><ele>41.5</ele><time>2026-04-18T10:05:55.705Z</time></trkpt><trkpt lat="42.8639243" lon="10.9901644"><ele>41.75</ele><time>2026-04-18T10:05:56.709Z</time></trkpt><trkpt lat="42.8639566" lon="10.9900124"><ele>42.0</ele><time>2026-04-18T10:05:57.712Z</time></trkpt><trkpt lat="42.8640137" lon="10.9898794"><ele>42.8</ele><time>2026-04-18T10:05:58.709Z</time></trkpt><trkpt lat="42.8640909" lon="10.989799"><ele>43.6</ele><time>2026-04-18T10:05:59.707Z</time></trkpt><trkpt lat="42.8641342" lon="10.9897287"><ele>44.4</ele><time>2026-04-18T10:06:00.711Z</time></trkpt><trkpt lat="42.8642153" lon="10.9894973"><ele>45.199999999999996</ele><time>2026-04-18T10:06:03.706Z</time></trkpt><trkpt lat="42.8642394" lon="10.9893874"><ele>46.0</ele><time>2026-04-18T10:06:04.711Z</time></trkpt><trkpt lat="42.8642656" lon="10.989269"><ele>47.333333333333336</ele><time>2026-04-18T10:06:05.709Z</time></trkpt><trkpt lat="42.8643011" lon="10.9891558"><ele>48.66666666666667</ele><time>2026-04-18T10:06:06.715Z</time></trkpt><trkpt lat="42.8643348" lon="10.9890454"><ele>50.0</ele><time>2026-04-18T10:06:07.709Z</time></trkpt><trkpt lat="42.8643664" lon="10.9889398"><ele>51.333333333333336</ele><time>2026-04-18T10:06:08.709Z</time></trkpt><trkpt lat="42.8643922" lon="10.9888451"><ele>52.666666666666664</ele><time>2026-04-18T10:06:09.707Z</time></trkpt><trkpt lat="42.8644133" lon="10.9887566"><ele>54.0</ele><time>2026-04-18T10:06:10.708Z</time></trkpt><trkpt lat="42.8644251" lon="10.9886666"><ele>54.0</ele><time>2026-04-18T10:06:11.709Z</time></trkpt><trkpt lat="42.8644497" lon="10.988517"><ele>54.00000000000001</ele><time>2026-04-18T10:06:13.713Z</time></trkpt><trkpt lat="42.8644897" lon="10.9883983"><ele>54.00000000000001</ele><time>2026-04-18T10:06:15.715Z</time></trkpt><trkpt lat="42.8645471" lon="10.9882954"><ele>54.0</ele><time>2026-04-18T10:06:17.714Z</time></trkpt><trkpt lat="42.8645281" lon="10.9883842"><ele>54.0</ele><time>2026-04-18T10:07:27.713Z</time></trkpt><trkpt lat="42.8644369" lon="10.9885582"><ele>54.0</ele><time>2026-04-18T10:07:32.705Z</time></trkpt><trkpt lat="42.864392" lon="10.9887002"><ele>54.00000000000001</ele><time>2026-04-18T10:07:34.709Z</time></trkpt><trkpt lat="42.8643619" lon="10.9888441"><ele>54.00000000000001</ele><time>2026-04-18T10:07:36.712Z</time></trkpt><trkpt lat="42.8643367" lon="10.9889742"><ele>54.0</ele><time>2026-04-18T10:07:38.709Z</time></trkpt><trkpt lat="42.864304" lon="10.9891043"><ele>54.0</ele><time>2026-04-18T10:07:40.717Z</time></trkpt><trkpt lat="42.8642468" lon="10.9892719"><ele>52.400000000000006</ele><time>2026-04-18T10:07:42.708Z</time></trkpt><trkpt lat="42.8641795" lon="10.989467"><ele>50.800000000000004</ele><time>2026-04-18T10:07:44.709Z</time></trkpt><trkpt lat="42.8641558" lon="10.9895614"><ele>49.2</ele><time>2026-04-18T10:07:45.714Z</time></trkpt><trkpt lat="42.8641333" lon="10.9896478"><ele>47.599999999999994</ele><time>2026-04-18T10:07:46.707Z</time></trkpt><trkpt lat="42.8640822" lon="10.989802"><ele>46.0</ele><time>2026-04-18T10:07:48.712Z</time></trkpt><trkpt lat="42.8639899" lon="10.9899801"><ele>45.42857142857143</ele><time>2026-04-18T10:07:50.711Z</time></trkpt><trkpt lat="42.8639449" lon="10.9900733"><ele>44.857142857142854</ele><time>2026-04-18T10:07:51.707Z</time></trkpt><trkpt lat="42.8639087" lon="10.9901689"><ele>44.285714285714285</ele><time>2026-04-18T10:07:52.713Z</time></trkpt><trkpt lat="42.8638775" lon="10.9902624"><ele>43.714285714285715</ele><time>2026-04-18T10:07:53.716Z</time></trkpt><trkpt lat="42.863857" lon="10.9903506"><ele>43.14285714285714</ele><time>2026-04-18T10:07:54.712Z</time></trkpt><trkpt lat="42.8638422" lon="10.9904392"><ele>42.57142857142857</ele><time>2026-04-18T10:07:55.708Z</time></trkpt><trkpt lat="42.8638411" lon="10.9905361"><ele>42.0</ele><time>2026-04-18T10:07:56.705Z</time></trkpt><trkpt lat="42.8638388" lon="10.9906971"><ele>41.8</ele><time>2026-04-18T10:07:58.711Z</time></trkpt><trkpt lat="42.863839" lon="10.9908514"><ele>41.6</ele><time>2026-04-18T10:08:00.705Z</time></trkpt><trkpt lat="42.8638401" lon="10.9910187"><ele>41.4</ele><time>2026-04-18T10:08:02.707Z</time></trkpt><trkpt lat="42.8638463" lon="10.9911066"><ele>41.199999999999996</ele><time>2026-04-18T10:08:03.71Z</time></trkpt><trkpt lat="42.8638475" lon="10.9912052"><ele>41.0</ele><time>2026-04-18T10:08:04.708Z</time></trkpt><trkpt lat="42.8638428" lon="10.9913153"><ele>41.0</ele><time>2026-04-18T10:08:05.708Z</time></trkpt><trkpt lat="42.8638197" lon="10.9914388"><ele>41.0</ele><time>2026-04-18T10:08:06.713Z</time></trkpt><trkpt lat="42.8637801" lon="10.9915646"><ele>41.0</ele><time>2026-04-18T10:08:07.722Z</time></trkpt><trkpt lat="42.8637339" lon="10.9917021"><ele>41.0</ele><time>2026-04-18T10:08:08.709Z</time></trkpt><trkpt lat="42.8636843" lon="10.9918485"><ele>41.0</ele><time>2026-04-18T10:08:09.71Z</time></trkpt><trkpt lat="42.8635946" lon="10.9921484"><ele>40.25</ele><time>2026-04-18T10:08:11.711Z</time></trkpt><trkpt lat="42.8635605" lon="10.992284"><ele>39.5</ele><time>2026-04-18T10:08:12.709Z</time></trkpt><trkpt lat="42.8635247" lon="10.9924246"><ele>38.75</ele><time>2026-04-18T10:08:13.706Z</time></trkpt><trkpt lat="42.863483" lon="10.992573"><ele>38.0</ele><time>2026-04-18T10:08:14.706Z</time></trkpt><trkpt lat="42.8634233" lon="10.9927185"><ele>36.0</ele><time>2026-04-18T10:08:15.703Z</time></trkpt><trkpt lat="42.8633472" lon="10.9928604"><ele>34.0</ele><time>2026-04-18T10:08:16.711Z</time></trkpt><trkpt lat="42.8632489" lon="10.9929932"><ele>32.0</ele><time>2026-04-18T10:08:17.707Z</time></trkpt><trkpt lat="42.8631488" lon="10.993122"><ele>30.0</ele><time>2026-04-18T10:08:18.71Z</time></trkpt><trkpt lat="42.8630591" lon="10.9932523"><ele>29.75</ele><time>2026-04-18T10:08:19.705Z</time></trkpt><trkpt lat="42.8629823" lon="10.9933956"><ele>29.5</ele><time>2026-04-18T10:08:20.709Z</time></trkpt><trkpt lat="42.8629253" lon="10.9935573"><ele>29.25</ele><time>2026-04-18T10:08:21.712Z</time></trkpt><trkpt lat="42.8628799" lon="10.9937419"><ele>29.0</ele><time>2026-04-18T10:08:22.704Z</time></trkpt><trkpt lat="42.8628416" lon="10.9939608"><ele>29.0</ele><time>2026-04-18T10:08:23.706Z</time></trkpt><trkpt lat="42.8627937" lon="10.9941694"><ele>29.0</ele><time>2026-04-18T10:08:24.71Z</time></trkpt><trkpt lat="42.8627376" lon="10.9943784"><ele>29.0</ele><time>2026-04-18T10:08:25.712Z</time></trkpt><trkpt lat="42.862673" lon="10.9945743"><ele>27.5</ele><time>2026-04-18T10:08:26.715Z</time></trkpt><trkpt lat="42.8625243" lon="10.9949068"><ele>26.0</ele><time>2026-04-18T10:08:28.71Z</time></trkpt><trkpt lat="42.8623893" lon="10.9951961"><ele>25.0</ele><time>2026-04-18T10:08:30.705Z</time></trkpt><trkpt lat="42.8622431" lon="10.995589"><ele>24.0</ele><time>2026-04-18T10:08:34.706Z</time></trkpt><trkpt lat="42.8621966" lon="10.9956488"><ele>23.0</ele><time>2026-04-18T10:08:36.707Z</time></trkpt><trkpt lat="42.8621102" lon="10.9955764"><ele>23.0</ele><time>2026-04-18T10:10:20.713Z</time></trkpt><trkpt lat="42.8618264" lon="10.995031"><ele>23.666666666666668</ele><time>2026-04-18T10:10:24.707Z</time></trkpt><trkpt lat="42.861718" lon="10.9948903"><ele>24.333333333333336</ele><time>2026-04-18T10:10:25.72Z</time></trkpt><trkpt lat="42.8616102" lon="10.9947382"><ele>25.0</ele><time>2026-04-18T10:10:26.708Z</time></trkpt><trkpt lat="42.8615021" lon="10.9945804"><ele>25.0</ele><time>2026-04-18T10:10:27.707Z</time></trkpt><trkpt lat="42.8613881" lon="10.9944164"><ele>25.0</ele><time>2026-04-18T10:10:28.718Z</time></trkpt><trkpt lat="42.8612694" lon="10.994278"><ele>25.0</ele><time>2026-04-18T10:10:29.716Z</time></trkpt><trkpt lat="42.8611295" lon="10.9941492"><ele>25.333333333333336</ele><time>2026-04-18T10:10:30.707Z</time></trkpt><trkpt lat="42.8609765" lon="10.9940417"><ele>25.666666666666664</ele><time>2026-04-18T10:10:31.704Z</time></trkpt><trkpt lat="42.8608208" lon="10.9939419"><ele>26.0</ele><time>2026-04-18T10:10:32.715Z</time></trkpt><trkpt lat="42.8606773" lon="10.9938407"><ele>26.0</ele><time>2026-04-18T10:10:33.709Z</time></trkpt><trkpt lat="42.8605228" lon="10.9937278"><ele>26.0</ele><time>2026-04-18T10:10:34.717Z</time></trkpt><trkpt lat="42.860365" lon="10.9935984"><ele>26.0</ele><time>2026-04-18T10:10:35.723Z</time></trkpt><trkpt lat="42.8601963" lon="10.9934637"><ele>25.0</ele><time>2026-04-18T10:10:36.705Z</time></trkpt><trkpt lat="42.8600305" lon="10.9933315"><ele>24.0</ele><time>2026-04-18T10:10:37.709Z</time></trkpt><trkpt lat="42.8598602" lon="10.9932103"><ele>23.0</ele><time>2026-04-18T10:10:38.708Z</time></trkpt><trkpt lat="42.8596919" lon="10.9930886"><ele>23.0</ele><time>2026-04-18T10:10:39.712Z</time></trkpt><trkpt lat="42.8595148" lon="10.9929721"><ele>23.0</ele><time>2026-04-18T10:10:40.715Z</time></trkpt><trkpt lat="42.8593391" lon="10.9928702"><ele>23.0</ele><time>2026-04-18T10:10:41.712Z</time></trkpt><trkpt lat="42.8589817" lon="10.9926521"><ele>22.333333333333336</ele><time>2026-04-18T10:10:43.71Z</time></trkpt><trkpt lat="42.8588101" lon="10.9925359"><ele>21.666666666666668</ele><time>2026-04-18T10:10:44.715Z</time></trkpt><trkpt lat="42.8586492" lon="10.9924208"><ele>21.0</ele><time>2026-04-18T10:10:45.716Z</time></trkpt><trkpt lat="42.8585148" lon="10.9923312"><ele>22.333333333333336</ele><time>2026-04-18T10:10:46.711Z</time></trkpt><trkpt lat="42.8583817" lon="10.9922741"><ele>23.666666666666668</ele><time>2026-04-18T10:10:47.709Z</time></trkpt><trkpt lat="42.8582196" lon="10.9922625"><ele>25.0</ele><time>2026-04-18T10:10:48.716Z</time></trkpt><trkpt lat="42.858046" lon="10.992278"><ele>25.0</ele><time>2026-04-18T10:10:49.718Z</time></trkpt><trkpt lat="42.8578957" lon="10.992262"><ele>25.0</ele><time>2026-04-18T10:10:50.711Z</time></trkpt><trkpt lat="42.857755" lon="10.9921669"><ele>25.0</ele><time>2026-04-18T10:10:51.71Z</time></trkpt><trkpt lat="42.8576158" lon="10.9920023"><ele>26.666666666666668</ele><time>2026-04-18T10:10:52.709Z</time></trkpt><trkpt lat="42.8574703" lon="10.9918367"><ele>28.333333333333336</ele><time>2026-04-18T10:10:53.719Z</time></trkpt><trkpt lat="42.8573271" lon="10.9916809"><ele>30.0</ele><time>2026-04-18T10:10:54.711Z</time></trkpt><trkpt lat="42.8571986" lon="10.9915098"><ele>32.0</ele><time>2026-04-18T10:10:55.717Z</time></trkpt><trkpt lat="42.8570887" lon="10.9913353"><ele>34.0</ele><time>2026-04-18T10:10:56.718Z</time></trkpt><trkpt lat="42.8569951" lon="10.9911689"><ele>36.0</ele><time>2026-04-18T10:10:57.706Z</time></trkpt><trkpt lat="42.8568942" lon="10.9910185"><ele>37.333333333333336</ele><time>2026-04-18T10:10:58.711Z</time></trkpt><trkpt lat="42.8567679" lon="10.9908783"><ele>38.66666666666667</ele><time>2026-04-18T10:10:59.709Z</time></trkpt><trkpt lat="42.8566053" lon="10.9907391"><ele>40.0</ele><time>2026-04-18T10:11:00.713Z</time></trkpt><trkpt lat="42.856426" lon="10.990601"><ele>42.0</ele><time>2026-04-18T10:11:01.717Z</time></trkpt><trkpt lat="42.8562491" lon="10.9904648"><ele>44.0</ele><time>2026-04-18T10:11:02.712Z</time></trkpt><trkpt lat="42.8559988" lon="10.9902723"><ele>44.2</ele><time>2026-04-18T10:11:04.715Z</time></trkpt><trkpt lat="42.8559057" lon="10.9901972"><ele>44.400000000000006</ele><time>2026-04-18T10:11:05.702Z</time></trkpt><trkpt lat="42.8558703" lon="10.9901155"><ele>44.6</ele><time>2026-04-18T10:11:06.716Z</time></trkpt><trkpt lat="42.8558635" lon="10.9900079"><ele>44.8</ele><time>2026-04-18T10:11:07.711Z</time></trkpt><trkpt lat="42.8558644" lon="10.9898706"><ele>45.0</ele><time>2026-04-18T10:11:08.709Z</time></trkpt><trkpt lat="42.8558811" lon="10.9896894"><ele>45.0</ele><time>2026-04-18T10:11:09.71Z</time></trkpt><trkpt lat="42.8559108" lon="10.9894708"><ele>45.0</ele><time>2026-04-18T10:11:10.702Z</time></trkpt><trkpt lat="42.8559358" lon="10.9892411"><ele>45.0</ele><time>2026-04-18T10:11:11.715Z</time></trkpt><trkpt lat="42.855981" lon="10.989004"><ele>47.33333333333333</ele><time>2026-04-18T10:11:12.711Z</time></trkpt><trkpt lat="42.8560187" lon="10.9887695"><ele>49.666666666666664</ele><time>2026-04-18T10:11:13.708Z</time></trkpt><trkpt lat="42.8560322" lon="10.9885407"><ele>52.0</ele><time>2026-04-18T10:11:14.716Z</time></trkpt><trkpt lat="42.8560492" lon="10.9883513"><ele>52.2</ele><time>2026-04-18T10:11:15.705Z</time></trkpt><trkpt lat="42.8560623" lon="10.988166"><ele>52.400000000000006</ele><time>2026-04-18T10:11:16.71Z</time></trkpt><trkpt lat="42.8560804" lon="10.9879966"><ele>52.599999999999994</ele><time>2026-04-18T10:11:17.714Z</time></trkpt><trkpt lat="42.8560921" lon="10.9878508"><ele>52.8</ele><time>2026-04-18T10:11:18.703Z</time></trkpt><trkpt lat="42.8561024" lon="10.987761"><ele>53.0</ele><time>2026-04-18T10:11:19.703Z</time></trkpt><trkpt lat="42.856065" lon="10.987667"><ele>51.0</ele><time>2026-04-18T10:11:25.706Z</time></trkpt><trkpt lat="42.8557858" lon="10.9877389"><ele>49.0</ele><time>2026-04-18T10:11:28.706Z</time></trkpt><trkpt lat="42.855633" lon="10.9877843"><ele>47.0</ele><time>2026-04-18T10:11:29.702Z</time></trkpt><trkpt lat="42.8554677" lon="10.9878292"><ele>47.0</ele><time>2026-04-18T10:11:30.715Z</time></trkpt><trkpt lat="42.855306" lon="10.9878966"><ele>47.0</ele><time>2026-04-18T10:11:31.711Z</time></trkpt><trkpt lat="42.8551559" lon="10.987952"><ele>47.0</ele><time>2026-04-18T10:11:32.708Z</time></trkpt><trkpt lat="42.855001" lon="10.9879656"><ele>45.33333333333333</ele><time>2026-04-18T10:11:33.707Z</time></trkpt><trkpt lat="42.8548439" lon="10.98795"><ele>43.666666666666664</ele><time>2026-04-18T10:11:34.709Z</time></trkpt><trkpt lat="42.8546804" lon="10.9879016"><ele>42.0</ele><time>2026-04-18T10:11:35.71Z</time></trkpt><trkpt lat="42.854533" lon="10.9878484"><ele>42.0</ele><time>2026-04-18T10:11:36.718Z</time></trkpt><trkpt lat="42.854401" lon="10.9877973"><ele>42.0</ele><time>2026-04-18T10:11:37.717Z</time></trkpt><trkpt lat="42.854278" lon="10.9877569"><ele>42.0</ele><time>2026-04-18T10:11:38.71Z</time></trkpt><trkpt lat="42.8541578" lon="10.9877334"><ele>42.0</ele><time>2026-04-18T10:11:39.705Z</time></trkpt><trkpt lat="42.8540606" lon="10.9877212"><ele>41.833333333333336</ele><time>2026-04-18T10:11:40.711Z</time></trkpt><trkpt lat="42.8539904" lon="10.9876892"><ele>41.666666666666664</ele><time>2026-04-18T10:11:41.704Z</time></trkpt><trkpt lat="42.8538872" lon="10.987593"><ele>41.5</ele><time>2026-04-18T10:11:43.709Z</time></trkpt><trkpt lat="42.8538392" lon="10.9875207"><ele>41.33333333333333</ele><time>2026-04-18T10:11:44.712Z</time></trkpt><trkpt lat="42.8537944" lon="10.9874269"><ele>41.166666666666664</ele><time>2026-04-18T10:11:45.713Z</time></trkpt><trkpt lat="42.8537462" lon="10.9873196"><ele>41.0</ele><time>2026-04-18T10:11:46.707Z</time></trkpt><trkpt lat="42.8536307" lon="10.9871123"><ele>41.0</ele><time>2026-04-18T10:11:48.714Z</time></trkpt><trkpt lat="42.8535755" lon="10.9870042"><ele>41.0</ele><time>2026-04-18T10:11:49.708Z</time></trkpt><trkpt lat="42.853517" lon="10.9869006"><ele>41.0</ele><time>2026-04-18T10:11:50.711Z</time></trkpt><trkpt lat="42.8534582" lon="10.9867854"><ele>41.0</ele><time>2026-04-18T10:11:51.713Z</time></trkpt><trkpt lat="42.8533813" lon="10.9866447"><ele>41.0</ele><time>2026-04-18T10:11:52.709Z</time></trkpt><trkpt lat="42.8532971" lon="10.9864923"><ele>41.5</ele><time>2026-04-18T10:11:53.709Z</time></trkpt><trkpt lat="42.8532134" lon="10.9863357"><ele>42.0</ele><time>2026-04-18T10:11:54.707Z</time></trkpt><trkpt lat="42.8531279" lon="10.9861907"><ele>42.5</ele><time>2026-04-18T10:11:55.706Z</time></trkpt><trkpt lat="42.8530511" lon="10.98606"><ele>43.0</ele><time>2026-04-18T10:11:56.707Z</time></trkpt><trkpt lat="42.8529726" lon="10.9859648"><ele>43.0</ele><time>2026-04-18T10:11:57.707Z</time></trkpt><trkpt lat="42.8528856" lon="10.9858749"><ele>43.0</ele><time>2026-04-18T10:11:58.708Z</time></trkpt><trkpt lat="42.8527797" lon="10.9858045"><ele>43.0</ele><time>2026-04-18T10:11:59.707Z</time></trkpt><trkpt lat="42.8526382" lon="10.9857621"><ele>43.0</ele><time>2026-04-18T10:12:00.707Z</time></trkpt><trkpt lat="42.8524836" lon="10.9857272"><ele>42.66666666666667</ele><time>2026-04-18T10:12:01.701Z</time></trkpt><trkpt lat="42.8523148" lon="10.9857085"><ele>42.333333333333336</ele><time>2026-04-18T10:12:02.714Z</time></trkpt><trkpt lat="42.8521537" lon="10.985699"><ele>42.0</ele><time>2026-04-18T10:12:03.711Z</time></trkpt><trkpt lat="42.851996" lon="10.9856806"><ele>42.0</ele><time>2026-04-18T10:12:04.704Z</time></trkpt><trkpt lat="42.8518509" lon="10.9856625"><ele>42.0</ele><time>2026-04-18T10:12:05.705Z</time></trkpt><trkpt lat="42.8517316" lon="10.9856428"><ele>42.0</ele><time>2026-04-18T10:12:06.712Z</time></trkpt><trkpt lat="42.8516084" lon="10.9856077"><ele>42.0</ele><time>2026-04-18T10:12:07.72Z</time></trkpt><trkpt lat="42.8514152" lon="10.9854619"><ele>41.5</ele><time>2026-04-18T10:12:09.711Z</time></trkpt><trkpt lat="42.8513396" lon="10.9853459"><ele>41.0</ele><time>2026-04-18T10:12:10.712Z</time></trkpt><trkpt lat="42.8512862" lon="10.985186"><ele>40.5</ele><time>2026-04-18T10:12:11.711Z</time></trkpt><trkpt lat="42.8512163" lon="10.985036"><ele>40.0</ele><time>2026-04-18T10:12:12.706Z</time></trkpt><trkpt lat="42.8511265" lon="10.9849308"><ele>39.75</ele><time>2026-04-18T10:12:13.706Z</time></trkpt><trkpt lat="42.8510447" lon="10.9848275"><ele>39.5</ele><time>2026-04-18T10:12:14.714Z</time></trkpt><trkpt lat="42.850962" lon="10.9847069"><ele>39.25</ele><time>2026-04-18T10:12:15.708Z</time></trkpt><trkpt lat="42.8508939" lon="10.9845514"><ele>39.0</ele><time>2026-04-18T10:12:16.704Z</time></trkpt><trkpt lat="42.8508277" lon="10.9843715"><ele>39.0</ele><time>2026-04-18T10:12:17.711Z</time></trkpt><trkpt lat="42.8507475" lon="10.9841942"><ele>39.0</ele><time>2026-04-18T10:12:18.708Z</time></trkpt><trkpt lat="42.8506602" lon="10.9840017"><ele>39.0</ele><time>2026-04-18T10:12:19.712Z</time></trkpt><trkpt lat="42.8505881" lon="10.9837996"><ele>40.75</ele><time>2026-04-18T10:12:20.707Z</time></trkpt><trkpt lat="42.8505071" lon="10.9836201"><ele>42.5</ele><time>2026-04-18T10:12:21.71Z</time></trkpt><trkpt lat="42.8504357" lon="10.9834771"><ele>44.25</ele><time>2026-04-18T10:12:22.707Z</time></trkpt><trkpt lat="42.8503558" lon="10.9833406"><ele>46.0</ele><time>2026-04-18T10:12:23.71Z</time></trkpt><trkpt lat="42.850276" lon="10.9831869"><ele>46.75</ele><time>2026-04-18T10:12:24.711Z</time></trkpt><trkpt lat="42.8502059" lon="10.9830194"><ele>47.5</ele><time>2026-04-18T10:12:25.706Z</time></trkpt><trkpt lat="42.8501411" lon="10.9828405"><ele>48.25</ele><time>2026-04-18T10:12:26.705Z</time></trkpt><trkpt lat="42.8500848" lon="10.9826609"><ele>49.0</ele><time>2026-04-18T10:12:27.704Z</time></trkpt><trkpt lat="42.8500275" lon="10.9824626"><ele>49.0</ele><time>2026-04-18T10:12:28.707Z</time></trkpt><trkpt lat="42.8499227" lon="10.9821398"><ele>49.0</ele><time>2026-04-18T10:12:30.707Z</time></trkpt><trkpt lat="42.8498782" lon="10.9819924"><ele>49.0</ele><time>2026-04-18T10:12:31.71Z</time></trkpt><trkpt lat="42.8498336" lon="10.9818159"><ele>50.25</ele><time>2026-04-18T10:12:32.712Z</time></trkpt><trkpt lat="42.849805" lon="10.9816258"><ele>51.5</ele><time>2026-04-18T10:12:33.712Z</time></trkpt><trkpt lat="42.8497856" lon="10.9814227"><ele>52.75</ele><time>2026-04-18T10:12:34.716Z</time></trkpt><trkpt lat="42.8497753" lon="10.9812183"><ele>54.0</ele><time>2026-04-18T10:12:35.711Z</time></trkpt><trkpt lat="42.8497601" lon="10.9810374"><ele>54.0</ele><time>2026-04-18T10:12:36.717Z</time></trkpt><trkpt lat="42.8497313" lon="10.9808505"><ele>54.0</ele><time>2026-04-18T10:12:37.707Z</time></trkpt><trkpt lat="42.849688" lon="10.9806649"><ele>54.0</ele><time>2026-04-18T10:12:38.706Z</time></trkpt><trkpt lat="42.8496289" lon="10.9804759"><ele>54.0</ele><time>2026-04-18T10:12:39.71Z</time></trkpt><trkpt lat="42.8495744" lon="10.9802909"><ele>53.33333333333333</ele><time>2026-04-18T10:12:40.705Z</time></trkpt><trkpt lat="42.8495214" lon="10.9800981"><ele>52.666666666666664</ele><time>2026-04-18T10:12:41.71Z</time></trkpt><trkpt lat="42.8494734" lon="10.979895"><ele>52.0</ele><time>2026-04-18T10:12:42.705Z</time></trkpt><trkpt lat="42.8494224" lon="10.9797039"><ele>52.0</ele><time>2026-04-18T10:12:43.709Z</time></trkpt><trkpt lat="42.8493694" lon="10.9795167"><ele>52.0</ele><time>2026-04-18T10:12:44.712Z</time></trkpt><trkpt lat="42.849309" lon="10.9793322"><ele>52.0</ele><time>2026-04-18T10:12:45.717Z</time></trkpt><trkpt lat="42.8492542" lon="10.9791613"><ele>52.0</ele><time>2026-04-18T10:12:46.705Z</time></trkpt><trkpt lat="42.8492094" lon="10.9789963"><ele>52.0</ele><time>2026-04-18T10:12:47.715Z</time></trkpt><trkpt lat="42.849182" lon="10.9788305"><ele>52.0</ele><time>2026-04-18T10:12:48.714Z</time></trkpt><trkpt lat="42.8491396" lon="10.9786445"><ele>52.0</ele><time>2026-04-18T10:12:49.708Z</time></trkpt><trkpt lat="42.8490127" lon="10.9782507"><ele>52.0</ele><time>2026-04-18T10:12:51.709Z</time></trkpt><trkpt lat="42.8489586" lon="10.9780697"><ele>52.0</ele><time>2026-04-18T10:12:52.709Z</time></trkpt><trkpt lat="42.8489371" lon="10.9778895"><ele>52.0</ele><time>2026-04-18T10:12:53.712Z</time></trkpt><trkpt lat="42.8489543" lon="10.9777205"><ele>52.0</ele><time>2026-04-18T10:12:54.705Z</time></trkpt><trkpt lat="42.8489585" lon="10.9775791"><ele>52.666666666666664</ele><time>2026-04-18T10:12:55.707Z</time></trkpt><trkpt lat="42.8489675" lon="10.9774739"><ele>53.33333333333333</ele><time>2026-04-18T10:12:56.709Z</time></trkpt><trkpt lat="42.8489582" lon="10.9773128"><ele>54.0</ele><time>2026-04-18T10:12:58.707Z</time></trkpt><trkpt lat="42.8489453" lon="10.9772167"><ele>54.66666666666667</ele><time>2026-04-18T10:12:59.711Z</time></trkpt><trkpt lat="42.8489178" lon="10.9771292"><ele>55.333333333333336</ele><time>2026-04-18T10:13:00.706Z</time></trkpt><trkpt lat="42.8488696" lon="10.9770519"><ele>56.0</ele><time>2026-04-18T10:13:01.705Z</time></trkpt><trkpt lat="42.8488116" lon="10.976968"><ele>56.0</ele><time>2026-04-18T10:13:02.706Z</time></trkpt><trkpt lat="42.8487559" lon="10.9768607"><ele>55.99999999999999</ele><time>2026-04-18T10:13:03.707Z</time></trkpt><trkpt lat="42.848703" lon="10.9767305"><ele>55.99999999999999</ele><time>2026-04-18T10:13:04.709Z</time></trkpt><trkpt lat="42.8486498" lon="10.9765887"><ele>56.0</ele><time>2026-04-18T10:13:05.709Z</time></trkpt><trkpt lat="42.8486198" lon="10.9764522"><ele>56.0</ele><time>2026-04-18T10:13:06.709Z</time></trkpt><trkpt lat="42.8485971" lon="10.9762976"><ele>56.75</ele><time>2026-04-18T10:13:07.705Z</time></trkpt><trkpt lat="42.8485733" lon="10.9761219"><ele>57.5</ele><time>2026-04-18T10:13:08.708Z</time></trkpt><trkpt lat="42.8485405" lon="10.9759341"><ele>58.25</ele><time>2026-04-18T10:13:09.706Z</time></trkpt><trkpt lat="42.8485016" lon="10.9757383"><ele>59.0</ele><time>2026-04-18T10:13:10.705Z</time></trkpt><trkpt lat="42.8484215" lon="10.975412"><ele>58.0</ele><time>2026-04-18T10:13:12.709Z</time></trkpt><trkpt lat="42.8483848" lon="10.9752641"><ele>57.0</ele><time>2026-04-18T10:13:13.708Z</time></trkpt><trkpt lat="42.8483556" lon="10.9751142"><ele>56.0</ele><time>2026-04-18T10:13:14.71Z</time></trkpt><trkpt lat="42.8483339" lon="10.9749376"><ele>55.0</ele><time>2026-04-18T10:13:15.706Z</time></trkpt><trkpt lat="42.8483182" lon="10.9747456"><ele>55.0</ele><time>2026-04-18T10:13:16.701Z</time></trkpt><trkpt lat="42.8482883" lon="10.9745304"><ele>55.0</ele><time>2026-04-18T10:13:17.703Z</time></trkpt><trkpt lat="42.8482379" lon="10.9742866"><ele>55.0</ele><time>2026-04-18T10:13:18.711Z</time></trkpt><trkpt lat="42.8482138" lon="10.9740729"><ele>55.5</ele><time>2026-04-18T10:13:19.711Z</time></trkpt><trkpt lat="42.8481954" lon="10.9738969"><ele>56.0</ele><time>2026-04-18T10:13:20.708Z</time></trkpt><trkpt lat="42.8481715" lon="10.9737257"><ele>56.5</ele><time>2026-04-18T10:13:21.707Z</time></trkpt><trkpt lat="42.8481619" lon="10.9735546"><ele>57.0</ele><time>2026-04-18T10:13:22.706Z</time></trkpt><trkpt lat="42.8481609" lon="10.9733693"><ele>56.75</ele><time>2026-04-18T10:13:23.704Z</time></trkpt><trkpt lat="42.848172" lon="10.9731879"><ele>56.5</ele><time>2026-04-18T10:13:24.707Z</time></trkpt><trkpt lat="42.8481921" lon="10.9729886"><ele>56.25</ele><time>2026-04-18T10:13:25.715Z</time></trkpt><trkpt lat="42.8482214" lon="10.9727766"><ele>56.0</ele><time>2026-04-18T10:13:26.71Z</time></trkpt><trkpt lat="42.848268" lon="10.9725283"><ele>56.66666666666667</ele><time>2026-04-18T10:13:27.713Z</time></trkpt><trkpt lat="42.848307" lon="10.9722963"><ele>57.33333333333333</ele><time>2026-04-18T10:13:28.707Z</time></trkpt><trkpt lat="42.8483411" lon="10.9720886"><ele>58.0</ele><time>2026-04-18T10:13:29.705Z</time></trkpt><trkpt lat="42.8483712" lon="10.9718803"><ele>58.0</ele><time>2026-04-18T10:13:30.708Z</time></trkpt><trkpt lat="42.8484077" lon="10.9716929"><ele>58.0</ele><time>2026-04-18T10:13:31.711Z</time></trkpt><trkpt lat="42.8522017" lon="10.958922"><ele>113.0</ele><time>2026-04-18T10:15:08.709Z</time></trkpt><trkpt lat="42.8424362" lon="10.9479655"><ele>79.0</ele><time>2026-04-18T10:18:10.705Z</time></trkpt><trkpt lat="42.8350639" lon="10.9466577"><ele>54.0</ele><time>2026-04-18T10:18:45.702Z</time></trkpt><trkpt lat="42.8261096" lon="10.9461227"><ele>85.0</ele><time>2026-04-18T10:19:23.713Z</time></trkpt><trkpt lat="42.8315264" lon="10.9338666"><ele>383.0</ele><time>2026-04-18T10:20:28.704Z</time></trkpt><trkpt lat="42.843551" lon="10.9032326"><ele>467.0</ele><time>2026-04-18T10:26:05.698Z</time></trkpt><trkpt lat="42.8410701" lon="10.8858809"><ele>531.0</ele><time>2026-04-18T10:32:54.71Z</time></trkpt><trkpt lat="42.8322786" lon="10.8847993"><ele>380.0</ele><time>2026-04-18T10:34:03.701Z</time></trkpt><trkpt lat="42.8156009" lon="10.8905618"><ele>378.0</ele><time>2026-04-18T10:40:52.695Z</time></trkpt><trkpt lat="42.8186629" lon="10.8954648"><ele>212.0</ele><time>2026-04-18T10:44:20.693Z</time></trkpt><trkpt lat="42.8201286" lon="10.9047394"><ele>105.0</ele><time>2026-04-18T11:06:05.688Z</time></trkpt><trkpt lat="42.815591" lon="10.9127193"><ele>59.0</ele><time>2026-04-18T11:17:12.688Z</time></trkpt><trkpt lat="42.8138846" lon="10.9239193"><ele>30.0</ele><time>2026-04-18T11:19:41.691Z</time></trkpt><trkpt lat="42.8049899" lon="10.9207376"><ele>11.0</ele><time>2026-04-18T11:22:09.683Z</time></trkpt><trkpt lat="42.7998795" lon="10.9221732"><ele>11.0</ele><time>2026-04-18T11:22:57.68Z</time></trkpt><trkpt lat="42.7942816" lon="10.9166883"><ele>5.0</ele><time>2026-04-18T11:23:35.678Z</time></trkpt><trkpt lat="42.7888443" lon="10.9123934"><ele>5.0</ele><time>2026-04-18T11:24:12.689Z</time></trkpt><trkpt lat="42.7827291" lon="10.9089056"><ele>8.0</ele><time>2026-04-18T11:24:50.685Z</time></trkpt><trkpt lat="42.7759931" lon="10.8943424"><ele>4.0</ele><time>2026-04-18T11:26:44.682Z</time></trkpt><trkpt lat="42.7685647" lon="10.8849243"><ele>3.0</ele><time>2026-04-18T11:29:17.682Z</time></trkpt><trkpt lat="42.7646512" lon="10.8836853"><ele>3.0</ele><time>2026-04-18T11:30:03.677Z</time></trkpt></trkseg></trk></gpx>